GW5512 Weather Reports


time (UTC)temp
C
wind
direction
speed
KPH
gust
KPH
rain 1hr
cm
rain 24hr
cm
rain mn
cm
humidity
%
barometer
mb
20260510122847 22 300 0.0 0.0 0.00 0.10 0.00 98 1015.1
20260510122842 22 300 0.0 0.0 0.00 0.10 0.00 98 1015.3
20260510122556 21 300 0.0 0.0 0.00 0.10 0.00 97 1013.1
20260510122551 21 300 0.0 0.0 0.00 0.10 0.00 97 1013.2
20260510122546 21 300 0.0 0.0 0.00 0.10 0.00 97 1013.6
20260510122541 22 300 0.0 0.0 0.00 0.10 0.00 98 1015.0
20260510122416 21 300 0.0 0.0 0.00 0.10 0.00 97 1013.4
20260510122410 21 300 0.0 0.0 0.00 0.10 0.00 97 1013.7
20260510122403 21 300 0.0 0.0 0.00 0.10 0.00 97 1013.8
20260510122358 21 300 0.0 0.0 0.00 0.10 0.00 97 1013.9
20260510122352 21 300 0.0 0.0 0.00 0.10 0.00 97 1013.8
20260510122348 21 300 0.0 0.0 0.00 0.10 0.00 97 1013.9
20260510122342 21 300 0.0 0.0 0.00 0.10 0.00 97 1014.0
20260510122338 22 300 0.0 0.0 0.00 0.10 0.00 98 1015.0
20260510122333 21 300 0.0 0.0 0.00 0.10 0.00 97 1014.4
20260510122327 21 300 0.0 0.0 0.00 0.10 0.00 97 1014.2
20260510122322 22 175 8.0 12.9 0.00 0.10 0.00 97 1013.3
20260510122317 21 300 0.0 0.0 0.00 0.10 0.00 98 1014.7
20260510122312 21 300 0.0 0.0 0.00 0.10 0.00 98 1014.6
20260510122306 22 300 0.0 0.0 0.00 0.10 0.00 98 1015.3
20260510122259 22 300 0.0 0.0 0.00 0.10 0.00 98 1015.1
20260510122134 21 300 0.0 0.0 0.00 0.10 0.00 97 1014.9
20260510122130 22 183 6.4 11.3 0.00 0.10 0.00 97 1013.6
20260510122124 21 300 0.0 0.0 0.00 0.10 0.00 97 1014.3
20260510122119 22 209 4.8 8.0 0.00 0.10 0.00 97 1013.7
20260510121953 21 300 0.0 0.0 0.00 0.10 0.00 97 1012.8
20260510121947 22 300 0.0 0.0 0.00 0.10 0.00 98 1015.0
20260510121942 21 300 0.0 0.0 0.00 0.10 0.00 97 1012.9
20260510121938 21 300 0.0 0.0 0.00 0.10 0.00 97 1013.0
20260510121932 21 300 0.0 0.0 0.00 0.10 0.00 97 1012.8
20260510121928 21 300 0.0 0.0 0.00 0.10 0.00 97 1013.6
20260510121922 21 300 0.0 0.0 0.00 0.10 0.00 97 1013.2
20260510121917 21 300 0.0 0.0 0.00 0.10 0.00 97 1013.1
20260510121913 21 300 0.0 0.0 0.00 0.10 0.00 97 1013.4
20260510121907 21 300 0.0 0.0 0.00 0.10 0.00 97 1013.7
20260510121901 21 300 0.0 0.0 0.00 0.10 0.00 97 1013.8
20260510121854 21 300 0.0 0.0 0.00 0.10 0.00 97 1013.9
20260510121849 21 300 0.0 0.0 0.00 0.10 0.00 97 1013.4
20260510121843 22 209 4.8 8.0 0.00 0.10 0.00 96 1014.1
20260510121838 21 300 0.0 0.0 0.00 0.10 0.00 97 1013.8
20260510121834 22 300 0.0 0.0 0.00 0.10 0.00 98 1015.0
20260510121828 21 300 0.0 0.0 0.00 0.10 0.00 97 1013.9
20260510121823 21 300 0.0 0.0 0.00 0.10 0.00 97 1014.0
20260510121817 21 300 0.0 0.0 0.00 0.10 0.00 97 1014.2
20260510121812 21 300 0.0 0.0 0.00 0.10 0.00 97 1014.4
20260510121807 21 300 0.0 0.0 0.00 0.10 0.00 98 1014.7
20260510121802 22 300 0.0 0.0 0.00 0.10 0.00 98 1015.1
20260510121754 21 300 0.0 0.0 0.00 0.10 0.00 98 1014.6
20260510121630 21 300 0.0 0.0 0.00 0.10 0.00 97 1014.3
20260510121624 22 194 6.4 8.0 0.00 0.10 0.00 96 1014.3
20260510121619 22 191 6.4 9.7 0.00 0.10 0.00 96 1014.4
20260510121615 21 300 0.0 0.0 0.00 0.10 0.00 97 1014.9
20260510121448 22 300 0.0 0.0 0.00 0.10 0.00 98 1015.0
20260510121443 21 300 0.0 1.6 0.00 0.10 0.00 97 1012.8
20260510121437 21 300 0.0 0.0 0.00 0.10 0.00 97 1012.8
20260510121433 21 300 0.0 0.0 0.00 0.10 0.00 97 1012.8
20260510121427 21 300 0.0 0.0 0.00 0.10 0.00 97 1013.0
20260510121422 21 300 0.0 0.0 0.00 0.10 0.00 97 1012.9
20260510121418 21 300 0.0 0.0 0.00 0.10 0.00 97 1013.1
20260510121412 21 300 0.0 0.0 0.00 0.10 0.00 97 1013.2
20260510121407 21 300 0.0 0.0 0.00 0.10 0.00 97 1013.4
20260510121401 21 300 0.0 0.0 0.00 0.10 0.00 97 1013.6
20260510121357 21 300 0.0 0.0 0.00 0.10 0.00 97 1013.4
20260510121350 21 300 0.0 0.0 0.00 0.10 0.00 97 1013.7
20260510121345 21 300 0.0 0.0 0.00 0.10 0.00 97 1013.8
20260510121340 21 300 0.0 0.0 0.00 0.10 0.00 97 1013.9
20260510121335 22 300 0.0 0.0 0.00 0.10 0.00 98 1015.0
20260510121326 22 300 0.0 0.0 0.00 0.10 0.00 98 1015.1
20260510121206 21 300 0.0 0.0 0.00 0.10 0.00 97 1013.9
20260510121200 21 300 0.0 0.0 0.00 0.10 0.00 98 1014.7
20260510121155 21 300 0.0 0.0 0.00 0.10 0.00 97 1014.0
20260510121148 21 300 0.0 0.0 0.00 0.10 0.00 97 1014.2
20260510121143 21 300 0.0 0.0 0.00 0.10 0.00 97 1014.3
20260510121138 21 300 0.0 0.0 0.00 0.10 0.00 97 1014.4
20260510121134 21 300 0.0 0.0 0.00 0.10 0.00 98 1014.6
20260510121008 22 300 0.0 0.0 0.00 0.10 0.00 98 1015.0
20260510120842 21 300 0.0 0.0 0.00 0.10 0.00 97 1013.8
20260510120837 21 300 0.0 0.0 0.00 0.10 0.00 97 1013.9
20260510120554 21 299 3.2 6.4 0.00 0.10 0.00 97 1012.8
20260510120548 21 298 3.2 6.4 0.00 0.10 0.00 96 1012.8
20260510120541 21 300 0.0 0.0 0.00 0.10 0.00 97 1012.8
20260510120537 21 300 0.0 0.0 0.00 0.10 0.00 97 1012.8
20260510120531 21 300 0.0 0.0 0.00 0.10 0.00 97 1013.0
20260510120525 21 300 0.0 0.0 0.00 0.10 0.00 97 1012.9
20260510120521 21 300 0.0 0.0 0.00 0.10 0.00 97 1013.1
20260510120516 21 300 0.0 0.0 0.00 0.10 0.00 97 1013.2
20260510120510 21 300 0.0 0.0 0.00 0.10 0.00 97 1014.0
20260510120505 21 300 0.0 0.0 0.00 0.10 0.00 97 1013.4
20260510120459 21 300 0.0 0.0 0.00 0.10 0.00 97 1013.6
20260510120455 21 300 0.0 0.0 0.00 0.10 0.00 97 1013.4
20260510120450 21 300 0.0 0.0 0.00 0.10 0.00 97 1013.7
20260510120444 21 300 0.0 0.0 0.00 0.10 0.00 97 1014.2
20260510120438 21 300 0.0 0.0 0.00 0.10 0.00 97 1014.3
20260510120433 21 300 0.0 0.0 0.00 0.10 0.00 97 1014.4
20260510120427 21 300 0.0 0.0 0.00 0.10 0.00 98 1014.6
20260510120423 21 300 0.0 0.0 0.00 0.10 0.00 97 1014.9
20260510120418 22 300 0.0 0.0 0.00 0.10 0.00 98 1015.0
20260510120358 22 300 0.0 0.0 0.00 0.10 0.00 98 1015.0
20260510120247 21 300 0.0 0.0 0.00 0.10 0.00 97 1013.8
20260510120241 21 300 0.0 0.0 0.00 0.10 0.00 97 1013.9
20260510120234 21 300 0.0 0.0 0.00 0.10 0.00 98 1014.7
20260510115951 22 199 3.2 6.4 0.00 0.10 0.00 97 1012.8
20260510115947 22 199 3.2 6.4 0.00 0.10 0.00 97 1012.6
20260510115941 21 300 0.0 0.0 0.00 0.10 0.00 97 1012.8
20260510115936 21 300 0.0 0.0 0.00 0.10 0.00 97 1012.8
20260510115930 21 300 0.0 0.0 0.00 0.10 0.00 97 1012.8
20260510115925 21 300 0.0 0.0 0.00 0.10 0.00 97 1013.0
20260510115919 21 300 0.0 0.0 0.00 0.10 0.00 97 1012.9
20260510115915 21 300 0.0 0.0 0.00 0.10 0.00 97 1013.1
20260510115909 21 300 0.0 0.0 0.00 0.10 0.00 97 1013.2
20260510115904 21 300 0.0 0.0 0.00 0.10 0.00 97 1013.4
20260510115900 21 300 0.0 0.0 0.00 0.10 0.00 97 1013.6
20260510115854 21 300 0.0 0.0 0.00 0.10 0.00 97 1013.4
20260510115850 21 300 0.0 0.0 0.00 0.10 0.00 97 1013.7
20260510115844 21 300 0.0 0.0 0.00 0.10 0.00 97 1014.9
20260510115839 21 300 0.0 0.0 0.00 0.10 0.00 97 1014.2
20260510115832 21 300 0.0 0.0 0.00 0.10 0.00 97 1014.3
20260510115828 21 300 0.0 0.0 0.00 0.10 0.00 97 1014.4
20260510115822 22 300 0.0 0.0 0.00 0.10 0.00 98 1015.0
20260510115818 21 300 0.0 0.0 0.00 0.10 0.00 98 1014.6
20260510115652 21 300 0.0 0.0 0.00 0.10 0.00 97 1013.8
20260510115646 21 300 0.0 0.0 0.00 0.10 0.00 97 1013.8
20260510115641 21 300 0.0 0.0 0.00 0.10 0.00 97 1013.9
20260510115514 21 300 0.0 0.0 0.00 0.10 0.00 97 1014.0
20260510115338 22 300 0.0 0.0 0.00 0.10 0.00 98 1015.0
20260510115223 21 300 0.0 0.0 0.00 0.10 0.00 97 1014.2
20260510115218 21 300 0.0 0.0 0.00 0.10 0.00 97 1014.3
20260510115212 21 300 0.0 0.0 0.00 0.10 0.00 97 1014.4
20260510115207 21 300 0.0 0.0 0.00 0.10 0.00 98 1014.7
20260510115041 22 196 4.8 8.0 0.00 0.10 0.00 97 1012.4
20260510115036 22 196 4.8 9.7 0.00 0.10 0.00 97 1012.5
20260510115031 22 196 4.8 9.7 0.00 0.10 0.00 97 1012.7
20260510115026 22 195 6.4 9.7 0.00 0.10 0.00 96 1012.8
20260510115021 22 180 8.0 11.3 0.00 0.10 0.00 97 1012.8
20260510114856 22 180 8.0 11.3 0.00 0.10 0.00 97 1013.1
20260510114850 22 175 8.0 12.9 0.00 0.10 0.00 97 1013.3
20260510114845 22 183 6.4 9.7 0.00 0.10 0.00 97 1013.4
20260510114841 22 183 6.4 11.3 0.00 0.10 0.00 97 1013.6
20260510114835 21 300 0.0 0.0 0.00 0.10 0.00 97 1012.8
20260510114830 21 300 0.0 0.0 0.00 0.10 0.00 97 1012.8
20260510114824 21 300 0.0 0.0 0.00 0.10 0.00 97 1012.9
20260510114820 21 300 0.0 0.0 0.00 0.10 0.00 97 1013.1
20260510114813 21 300 0.0 0.0 0.00 0.10 0.00 97 1013.0
20260510114807 21 300 0.0 0.0 0.00 0.10 0.00 97 1013.2
20260510114802 21 300 0.0 0.0 0.00 0.10 0.00 97 1012.8
20260510114757 21 300 0.0 0.0 0.00 0.10 0.00 97 1013.4
20260510114752 21 300 0.0 0.0 0.00 0.10 0.00 97 1013.6
20260510114747 21 300 0.0 0.0 0.00 0.10 0.00 97 1014.9
20260510114742 21 300 0.0 0.0 0.00 0.10 0.00 97 1013.9
20260510114738 21 300 0.0 1.6 0.00 0.10 0.00 97 1012.8
20260510114732 21 300 0.0 0.0 0.00 0.10 0.00 97 1013.4
20260510114727 21 300 0.0 0.0 0.00 0.10 0.00 98 1014.6
20260510114721 21 300 0.0 0.0 0.00 0.10 0.00 97 1013.7
20260510114714 21 300 0.0 0.0 0.00 0.10 0.00 97 1013.8
20260510114708 21 300 0.0 0.0 0.00 0.10 0.00 97 1013.8
20260510114704 21 300 0.0 0.0 0.00 0.10 0.00 97 1014.2
20260510114659 21 300 0.0 0.0 0.00 0.10 0.00 97 1013.9
20260510114653 21 300 0.0 0.0 0.00 0.10 0.00 97 1014.0
20260510114649 21 300 0.0 0.0 0.00 0.10 0.00 97 1014.3
20260510114643 21 299 3.2 6.4 0.00 0.10 0.00 97 1012.8
20260510114638 21 298 3.2 6.4 0.00 0.10 0.00 96 1012.8
20260510114634 22 199 3.2 6.4 0.00 0.10 0.00 97 1012.8
20260510114628 22 199 3.2 6.4 0.00 0.10 0.00 97 1012.6
20260510114623 21 300 0.0 0.0 0.00 0.10 0.00 97 1014.4
20260510114617 21 300 0.0 0.0 0.00 0.10 0.00 98 1014.7
20260510114331 22 196 4.8 9.7 0.00 0.10 0.00 97 1012.5
20260510114326 21 300 0.0 0.0 0.00 0.10 0.00 97 1012.8
20260510114322 21 300 0.0 0.0 0.00 0.10 0.00 97 1012.8
20260510114316 21 300 0.0 0.0 0.00 0.10 0.00 97 1012.8
20260510114310 21 300 0.0 0.0 0.00 0.10 0.00 97 1013.0
20260510114303 21 300 0.0 0.0 0.00 0.10 0.00 97 1012.9
20260510114258 21 300 0.0 0.0 0.00 0.10 0.00 97 1014.9
20260510114253 21 300 0.0 0.0 0.00 0.10 0.00 97 1013.1
20260510114248 21 300 0.0 0.0 0.00 0.10 0.00 97 1013.2
20260510114243 21 300 0.0 0.0 0.00 0.10 0.00 97 1013.4
20260510114238 21 300 0.0 0.0 0.00 0.10 0.00 97 1013.9
20260510114233 21 300 0.0 0.0 0.00 0.10 0.00 97 1013.6
20260510114229 21 300 0.0 0.0 0.00 0.10 0.00 98 1014.6
20260510114223 21 300 0.0 0.0 0.00 0.10 0.00 97 1013.4
20260510114218 21 300 0.0 0.0 0.00 0.10 0.00 97 1013.7
20260510114212 21 300 0.0 0.0 0.00 0.10 0.00 97 1013.8
20260510114205 21 300 0.0 0.0 0.00 0.10 0.00 97 1013.8
20260510114201 21 300 0.0 0.0 0.00 0.10 0.00 97 1013.9
20260510114155 21 300 0.0 0.0 0.00 0.10 0.00 97 1014.0
20260510114150 21 300 0.0 0.0 0.00 0.10 0.00 97 1014.2
20260510114144 21 300 0.0 0.0 0.00 0.10 0.00 97 1014.3
20260510114020 21 300 0.0 0.0 0.00 0.10 0.00 98 1014.7
20260510113853 22 195 6.4 9.7 0.00 0.10 0.00 96 1012.8
20260510113848 22 180 8.0 11.3 0.00 0.10 0.00 97 1012.8
20260510113842 22 163 6.4 11.3 0.00 0.10 0.00 97 1012.9
20260510113838 22 180 8.0 11.3 0.00 0.10 0.00 97 1013.1
20260510113833 22 175 8.0 12.9 0.00 0.10 0.00 97 1013.3
20260510113827 22 183 6.4 9.7 0.00 0.10 0.00 97 1013.4
20260510113823 22 183 6.4 11.3 0.00 0.10 0.00 97 1013.6
20260510113817 21 300 0.0 1.6 0.00 0.10 0.00 97 1012.8
20260510113812 21 299 3.2 6.4 0.00 0.10 0.00 97 1012.8
20260510113806 21 298 3.2 6.4 0.00 0.10 0.00 96 1012.8
20260510113800 21 300 0.0 0.0 0.00 0.10 0.00 97 1013.9
20260510113755 21 300 0.0 0.0 0.00 0.10 0.00 98 1014.6
20260510113631 21 300 0.0 0.0 0.00 0.10 0.00 97 1013.6
20260510113626 21 300 0.0 0.0 0.00 0.10 0.00 97 1012.8
20260510113622 21 300 0.0 0.0 0.00 0.10 0.00 97 1013.7
20260510113616 21 300 0.0 0.0 0.00 0.10 0.00 97 1012.8
20260510113611 21 300 0.0 0.0 0.00 0.10 0.00 97 1012.8
20260510113604 21 300 0.0 0.0 0.00 0.10 0.00 97 1013.9
20260510113558 21 300 0.0 0.0 0.00 0.10 0.00 97 1013.8
20260510113553 21 300 0.0 0.0 0.00 0.10 0.00 97 1012.9
20260510113548 21 300 0.0 0.0 0.00 0.10 0.00 97 1013.0
20260510113543 21 300 0.0 0.0 0.00 0.10 0.00 97 1013.2
20260510113538 21 300 0.0 0.0 0.00 0.10 0.00 97 1013.8
20260510113533 21 300 0.0 0.0 0.00 0.10 0.00 97 1014.0
20260510113528 21 300 0.0 0.0 0.00 0.10 0.00 97 1013.1
20260510113524 21 300 0.0 0.0 0.00 0.10 0.00 97 1013.4
20260510113518 21 300 0.0 0.0 0.00 0.10 0.00 97 1013.4
20260510113513 21 300 0.0 0.0 0.00 0.10 0.00 97 1014.2
20260510113506 21 300 0.0 0.0 0.00 0.10 0.00 97 1014.4
20260510113501 21 300 0.0 0.0 0.00 0.10 0.00 97 1014.3
20260510113456 21 300 0.0 0.0 0.00 0.10 0.00 98 1014.7
20260510113333 22 196 3.2 8.0 0.00 0.10 0.00 96 1012.4
20260510113328 22 196 4.8 8.0 0.00 0.10 0.00 97 1012.4
20260510113324 22 196 4.8 9.7 0.00 0.10 0.00 97 1012.5
20260510113318 22 196 4.8 9.7 0.00 0.10 0.00 97 1012.7
20260510113314 21 300 0.0 0.0 0.00 0.10 0.00 97 1013.9
20260510113308 22 195 6.4 9.7 0.00 0.10 0.00 96 1012.8
20260510113300 21 300 0.0 0.0 0.00 0.10 0.00 98 1014.6
20260510113136 22 163 6.4 11.3 0.00 0.10 0.00 97 1012.9
20260510113132 22 180 8.0 11.3 0.00 0.10 0.00 97 1013.1
20260510113127 21 300 0.0 0.0 0.00 0.10 0.00 97 1013.7
20260510113121 21 300 0.0 1.6 0.00 0.10 0.00 97 1012.8
20260510113115 21 300 0.0 0.0 0.00 0.10 0.00 97 1013.6
20260510113110 21 300 0.0 0.0 0.00 0.10 0.00 97 1013.8
20260510113106 21 300 0.0 0.0 0.00 0.10 0.00 97 1013.9
20260510113059 21 299 3.2 6.4 0.00 0.10 0.00 97 1012.8
20260510113053 21 300 0.0 0.0 0.00 0.10 0.00 97 1013.8
20260510113048 21 300 0.0 0.0 0.00 0.10 0.00 97 1012.8
20260510113044 21 300 0.0 0.0 0.00 0.10 0.00 97 1012.8
20260510113039 21 300 0.0 0.0 0.00 0.10 0.00 97 1014.0
20260510113033 21 300 0.0 0.0 0.00 0.10 0.00 97 1012.8
20260510113028 21 300 0.0 0.0 0.00 0.10 0.00 97 1013.0
20260510113024 21 300 0.0 0.0 0.00 0.10 0.00 97 1012.9
20260510113018 21 300 0.0 0.0 0.00 0.10 0.00 97 1013.1
20260510113013 21 300 0.0 0.0 0.00 0.10 0.00 97 1013.2
20260510113007 21 300 0.0 0.0 0.00 0.10 0.00 97 1013.4
20260510113000 21 300 0.0 0.0 0.00 0.10 0.00 97 1013.4
20260510112956 21 300 0.0 0.0 0.00 0.10 0.00 97 1014.2
20260510112950 21 300 0.0 0.0 0.00 0.10 0.00 97 1014.3
20260510112946 21 300 0.0 0.0 0.00 0.10 0.00 97 1014.4
20260510112940 21 300 0.0 0.0 0.00 0.10 0.00 98 1014.7
20260510112659 22 199 3.2 6.4 0.00 0.10 0.00 97 1012.8
20260510112652 22 199 3.2 6.4 0.00 0.10 0.00 97 1012.6
20260510112647 22 196 3.2 8.0 0.00 0.10 0.00 96 1012.4
20260510112642 22 196 4.8 8.0 0.00 0.10 0.00 97 1012.4
20260510112638 22 196 4.8 9.7 0.00 0.10 0.00 97 1012.5
20260510112632 21 300 0.0 1.6 0.00 0.10 0.00 97 1012.8
20260510112627 21 300 0.0 0.0 0.00 0.10 0.00 97 1013.6
20260510112621 21 300 0.0 0.0 0.00 0.10 0.00 97 1013.7
20260510112615 21 300 0.0 0.0 0.00 0.10 0.00 97 1013.8
20260510112610 21 300 0.0 0.0 0.00 0.10 0.00 97 1013.8
20260510112606 21 300 0.0 0.0 0.00 0.10 0.00 97 1013.9
20260510112600 21 300 0.0 0.0 0.00 0.10 0.00 97 1014.0
20260510112434 21 300 0.0 0.0 0.00 0.10 0.00 97 1012.8
20260510112429 21 300 0.0 0.0 0.00 0.10 0.00 97 1012.8
20260510112424 21 300 0.0 0.0 0.00 0.10 0.00 97 1014.2
20260510112419 21 300 0.0 0.0 0.00 0.10 0.00 97 1014.3
20260510112413 21 300 0.0 0.0 0.00 0.10 0.00 97 1014.4
20260510112355 21 300 0.0 0.0 0.00 0.10 0.00 98 1014.7
20260510112241 21 300 0.0 0.0 0.00 0.10 0.00 97 1012.9
20260510112235 21 300 0.0 0.0 0.00 0.10 0.00 97 1013.1
20260510112230 21 300 0.0 0.0 0.00 0.10 0.00 97 1013.2
20260510112224 21 300 0.0 0.0 0.00 0.10 0.00 97 1013.4
20260510112220 21 300 0.0 0.0 0.00 0.10 0.00 97 1013.4
20260510112214 21 300 0.0 0.0 0.00 0.10 0.00 97 1013.9
20260510112047 21 300 0.0 0.0 0.00 0.10 0.00 97 1013.7
20260510112041 21 300 0.0 0.0 0.00 0.10 0.00 97 1013.8
20260510112036 21 300 0.0 0.0 0.00 0.10 0.00 97 1013.8
20260510112032 21 300 0.0 0.0 0.00 0.10 0.00 97 1013.9
20260510112027 21 300 0.0 0.0 0.00 0.10 0.00 97 1014.0
20260510111903 22 209 4.8 8.0 0.00 0.10 0.00 96 1013.8
20260510111857 21 300 0.0 0.0 0.00 0.10 0.00 97 1014.2
20260510111851 22 209 4.8 8.0 0.00 0.10 0.00 96 1014.1
20260510111844 22 205 4.8 8.0 0.00 0.10 0.00 96 1014.3
20260510111840 22 194 6.4 8.0 0.00 0.10 0.00 96 1014.3
20260510111835 22 175 8.0 12.9 0.00 0.10 0.00 97 1013.3
20260510111829 21 300 0.0 0.0 0.00 0.10 0.00 97 1014.3
20260510111825 21 300 0.0 0.0 0.00 0.10 0.00 97 1014.4
20260510111700 22 183 6.4 11.3 0.00 0.10 0.00 97 1013.6
20260510111655 22 196 4.8 9.7 0.00 0.10 0.00 97 1012.7
20260510111649 22 195 6.4 9.7 0.00 0.10 0.00 96 1012.8
20260510111642 22 180 8.0 11.3 0.00 0.10 0.00 97 1012.8
20260510111638 22 163 6.4 11.3 0.00 0.10 0.00 97 1012.9
20260510111633 22 180 8.0 11.3 0.00 0.10 0.00 97 1013.1
20260510111627 21 299 3.2 6.4 0.00 0.10 0.00 97 1012.8
20260510111623 21 300 0.0 0.0 0.00 0.10 0.00 97 1013.9
20260510111617 21 298 3.2 6.4 0.00 0.10 0.00 96 1012.8
20260510111612 22 199 3.2 6.4 0.00 0.10 0.00 97 1012.8
20260510111608 22 199 3.2 6.4 0.00 0.10 0.00 97 1012.6
20260510111602 22 196 3.2 8.0 0.00 0.10 0.00 96 1012.4
20260510111557 22 196 4.8 8.0 0.00 0.10 0.00 97 1012.4
20260510111551 22 196 4.8 9.7 0.00 0.10 0.00 97 1012.5
20260510111544 21 300 0.0 1.6 0.00 0.10 0.00 97 1012.8
20260510111540 21 300 0.0 0.0 0.00 0.10 0.00 97 1012.8
20260510111535 21 300 0.0 0.0 0.00 0.10 0.00 97 1012.8
20260510111529 21 300 0.0 0.0 0.00 0.10 0.00 97 1012.8
20260510111525 21 300 0.0 0.0 0.00 0.10 0.00 97 1013.0
20260510111521 21 300 0.0 0.0 0.00 0.10 0.00 97 1012.9
20260510111515 21 300 0.0 0.0 0.00 0.10 0.00 97 1013.1
20260510111510 21 300 0.0 0.0 0.00 0.10 0.00 97 1013.2
20260510111504 21 300 0.0 0.0 0.00 0.10 0.00 97 1013.4
20260510111500 21 300 0.0 0.0 0.00 0.10 0.00 97 1013.4
20260510111455 21 300 0.0 0.0 0.00 0.10 0.00 97 1013.6
20260510111449 21 300 0.0 0.0 0.00 0.10 0.00 97 1013.7
20260510111442 21 300 0.0 0.0 0.00 0.10 0.00 97 1013.8
20260510111436 21 300 0.0 0.0 0.00 0.10 0.00 97 1013.8
20260510111432 21 300 0.0 0.0 0.00 0.10 0.00 97 1013.9
20260510111426 21 300 0.0 0.0 0.00 0.10 0.00 97 1014.2
20260510111421 21 300 0.0 0.0 0.00 0.10 0.00 97 1014.0
20260510111256 21 300 0.0 0.0 0.00 0.10 0.00 97 1014.3
20260510111011 22 195 6.4 9.7 0.00 0.10 0.00 96 1012.8
20260510111006 21 299 3.2 6.4 0.00 0.10 0.00 97 1012.8
20260510111001 21 298 3.2 6.4 0.00 0.10 0.00 96 1012.8
20260510110955 21 300 0.0 1.6 0.00 0.10 0.00 97 1012.8
20260510110951 21 300 0.0 0.0 0.00 0.10 0.00 97 1012.8
20260510110946 21 300 0.0 0.0 0.00 0.10 0.00 97 1012.8
20260510110940 21 300 0.0 0.0 0.00 0.10 0.00 97 1014.2
20260510110934 21 300 0.0 0.0 0.00 0.10 0.00 97 1012.8
20260510110808 21 300 0.0 0.0 0.00 0.10 0.00 97 1013.8
20260510110804 21 300 0.0 0.0 0.00 0.10 0.00 97 1012.9
20260510110758 21 300 0.0 0.0 0.00 0.10 0.00 97 1013.7
20260510110753 21 300 0.0 0.0 0.00 0.10 0.00 97 1013.6
20260510110749 21 300 0.0 0.0 0.00 0.10 0.00 97 1014.3
20260510110743 21 300 0.0 0.0 0.00 0.10 0.00 97 1014.0
20260510110738 21 300 0.0 0.0 0.00 0.10 0.00 97 1013.1
20260510110732 21 300 0.0 0.0 0.00 0.10 0.00 97 1013.2
20260510110727 21 300 0.0 0.0 0.00 0.10 0.00 97 1013.4
20260510110721 21 300 0.0 0.0 0.00 0.10 0.00 97 1013.4
20260510110557 21 300 0.0 0.0 0.00 0.10 0.00 97 1013.9
20260510110552 21 300 0.0 0.0 0.00 0.10 0.00 97 1013.9
20260510110306 21 300 0.0 0.0 0.00 0.10 0.00 97 1013.7
20260510110300 21 300 0.0 0.0 0.00 0.10 0.00 97 1014.3
20260510110256 21 300 0.0 0.0 0.00 0.10 0.00 97 1013.8
20260510110251 21 300 0.0 0.0 0.00 0.10 0.00 97 1014.0
20260510110124 22 196 3.2 8.0 0.00 0.10 0.00 96 1012.4
20260510110119 21 300 0.0 0.0 0.00 0.10 0.00 97 1013.9
20260510105954 22 196 4.8 8.0 0.00 0.10 0.00 97 1012.4
20260510105948 22 192 4.8 11.3 0.00 0.10 0.10 95 1014.4
20260510105944 21 299 3.2 6.4 0.00 0.10 0.00 97 1012.8
20260510105938 21 300 0.0 0.0 0.00 0.10 0.00 97 1013.9
20260510105933 21 300 0.0 1.6 0.00 0.10 0.00 97 1012.8
20260510105927 21 300 0.0 0.0 0.00 0.10 0.00 97 1012.8
20260510105922 21 300 0.0 0.0 0.00 0.10 0.00 97 1012.8
20260510105916 21 300 0.0 0.0 0.00 0.10 0.00 97 1012.8
20260510105911 21 300 0.0 0.0 0.00 0.10 0.00 97 1012.9
20260510105905 21 300 0.0 0.0 0.00 0.10 0.00 97 1013.1
20260510105900 21 300 0.0 0.0 0.00 0.10 0.00 97 1013.8
20260510105856 21 300 0.0 0.0 0.00 0.10 0.00 97 1014.2
20260510105732 22 194 8.0 11.3 0.00 0.10 0.10 95 1014.4
20260510105726 21 300 0.0 0.0 0.00 0.10 0.00 97 1014.0
20260510105719 21 300 0.0 0.0 0.00 0.10 0.00 97 1013.2
20260510105714 21 300 0.0 0.0 0.00 0.10 0.00 97 1013.4
20260510105710 21 300 0.0 0.0 0.00 0.10 0.00 97 1013.4
20260510105704 21 300 0.0 0.0 0.00 0.10 0.00 97 1013.7
20260510105658 21 300 0.0 0.0 0.00 0.10 0.00 97 1013.8
20260510105653 21 300 0.0 0.0 0.00 0.10 0.00 97 1013.6
20260510105647 22 200 8.0 12.9 0.00 0.10 0.10 95 1014.4
20260510105643 22 189 6.4 9.7 0.00 0.10 0.00 96 1014.3
20260510105638 22 191 6.4 9.7 0.00 0.10 0.00 96 1014.4
20260510105633 22 209 4.8 8.0 0.00 0.10 0.00 97 1013.7
20260510105628 22 209 4.8 8.0 0.00 0.10 0.00 96 1013.8
20260510105623 22 209 4.8 8.0 0.00 0.10 0.00 96 1014.1
20260510105616 22 205 4.8 8.0 0.00 0.10 0.00 96 1014.3
20260510105611 22 194 6.4 8.0 0.00 0.10 0.00 96 1014.3
20260510105606 22 175 8.0 12.9 0.00 0.10 0.00 97 1013.3
20260510105602 22 183 6.4 9.7 0.00 0.10 0.00 97 1013.4
20260510105556 22 183 6.4 11.3 0.00 0.10 0.00 97 1013.6
20260510105551 22 180 8.0 11.3 0.00 0.10 0.00 97 1012.8
20260510105546 22 163 6.4 11.3 0.00 0.10 0.00 97 1012.9
20260510105541 22 180 8.0 11.3 0.00 0.10 0.00 97 1013.1
20260510105535 21 300 0.0 0.0 0.00 0.10 0.00 97 1013.9
20260510105531 22 196 4.8 9.7 0.00 0.10 0.00 97 1012.5
20260510105526 22 196 4.8 9.7 0.00 0.10 0.00 97 1012.7
20260510105519 22 195 6.4 9.7 0.00 0.10 0.00 96 1012.8
20260510105514 21 298 3.2 6.4 0.00 0.10 0.00 96 1012.8
20260510105509 22 199 3.2 6.4 0.00 0.10 0.00 97 1012.8
20260510105503 22 199 3.2 6.4 0.00 0.10 0.00 97 1012.6
20260510105459 22 196 3.2 8.0 0.00 0.10 0.00 96 1012.4
20260510105454 22 196 4.8 8.0 0.00 0.10 0.00 97 1012.4
20260510105449 21 300 0.0 0.0 0.00 0.10 0.00 97 1013.9
20260510105444 21 299 3.2 6.4 0.00 0.10 0.00 97 1012.8
20260510105319 21 300 0.0 0.0 0.00 0.10 0.00 97 1012.8
20260510105312 21 300 0.0 0.0 0.00 0.10 0.00 97 1012.8
20260510105308 21 300 0.0 0.0 0.00 0.10 0.00 97 1013.8
20260510105306 21 300 0.0 0.0 0.00 0.10 0.00 97 1013.1
20260510105257 21 300 0.0 0.0 0.00 0.10 0.00 97 1014.2
20260510105251 21 300 0.0 0.0 0.00 0.10 0.00 97 1012.8
20260510105247 21 300 0.0 0.0 0.00 0.10 0.00 97 1014.0
20260510105242 21 300 0.0 0.0 0.00 0.10 0.00 97 1013.0
20260510105236 21 300 0.0 0.0 0.00 0.10 0.00 97 1012.9
20260510105231 21 300 0.0 0.0 0.00 0.10 0.00 97 1013.2
20260510105226 21 300 0.0 0.0 0.00 0.10 0.00 97 1013.4
20260510105221 21 300 0.0 0.0 0.00 0.10 0.00 97 1013.4
20260510105214 21 300 0.0 0.0 0.00 0.10 0.00 97 1013.6
20260510105208 21 300 0.0 0.0 0.00 0.10 0.00 97 1013.7
20260510105204 21 300 0.0 0.0 0.00 0.10 0.00 97 1013.8
20260510104800 21 300 0.0 0.0 0.00 0.10 0.00 97 1014.0
20260510104755 21 300 0.0 0.0 0.00 0.10 0.00 97 1013.4
20260510104749 21 300 0.0 0.0 0.00 0.10 0.00 97 1013.8
20260510104625 21 300 0.0 0.0 0.00 0.10 0.00 97 1013.6
20260510104620 21 300 0.0 0.0 0.00 0.10 0.00 97 1013.8
20260510104453 21 300 0.0 0.0 0.00 0.10 0.00 97 1013.4
20260510104447 22 198 4.8 8.0 0.00 0.10 0.00 96 1014.4
20260510104442 22 195 6.4 9.7 0.00 0.10 0.00 96 1014.2
20260510104438 22 189 6.4 9.7 0.00 0.10 0.00 96 1014.3
20260510104432 21 300 0.0 0.0 0.00 0.10 0.00 97 1013.7
20260510104428 22 191 6.4 9.7 0.00 0.10 0.00 96 1014.4
20260510104422 22 209 4.8 8.0 0.00 0.10 0.00 97 1013.7
20260510104417 22 209 4.8 8.0 0.00 0.10 0.00 96 1013.8
20260510104410 22 209 4.8 8.0 0.00 0.10 0.00 96 1014.1
20260510104406 22 205 4.8 8.0 0.00 0.10 0.00 96 1014.3
20260510104400 22 194 6.4 8.0 0.00 0.10 0.00 96 1014.3
20260510104356 22 175 8.0 12.9 0.00 0.10 0.00 97 1013.3
20260510104351 22 183 6.4 9.7 0.00 0.10 0.00 97 1013.4
20260510104345 22 183 6.4 11.3 0.00 0.10 0.00 97 1013.6
20260510104341 22 180 8.0 11.3 0.00 0.10 0.00 97 1012.8
20260510104336 21 300 0.0 0.0 0.00 0.10 0.00 97 1013.9
20260510104330 22 163 6.4 11.3 0.00 0.10 0.00 97 1012.9
20260510104326 22 180 8.0 11.3 0.00 0.10 0.00 97 1013.1
20260510104320 21 300 0.0 0.0 0.00 0.10 0.00 97 1013.9
20260510104316 22 196 4.8 9.7 0.00 0.10 0.00 97 1012.5
20260510104307 22 196 4.8 9.7 0.00 0.10 0.00 97 1012.7
20260510104303 22 195 6.4 9.7 0.00 0.10 0.00 96 1012.8
20260510104258 21 300 0.0 0.0 0.00 0.10 0.00 97 1014.0
20260510104253 21 298 3.2 6.4 0.00 0.10 0.00 96 1012.8
20260510104247 21 299 3.2 6.4 0.00 0.10 0.00 97 1012.8
20260510104243 21 300 0.0 1.6 0.00 0.10 0.00 97 1012.8
20260510104238 21 300 0.0 0.0 0.00 0.10 0.00 97 1012.8
20260510104232 21 300 0.0 0.0 0.00 0.10 0.00 97 1012.8
20260510104227 21 300 0.0 0.0 0.00 0.10 0.00 97 1012.8
20260510104222 21 300 0.0 0.0 0.00 0.10 0.00 97 1013.4
20260510104217 21 300 0.0 0.0 0.00 0.10 0.00 97 1013.8
20260510104051 22 199 3.2 6.4 0.00 0.10 0.00 97 1012.8
20260510104045 22 199 3.2 6.4 0.00 0.10 0.00 97 1012.6
20260510104040 22 196 3.2 8.0 0.00 0.10 0.00 96 1012.4
20260510104034 22 196 4.8 8.0 0.00 0.10 0.00 97 1012.4
20260510104030 21 300 0.0 0.0 0.00 0.10 0.00 97 1013.0
20260510104024 21 300 0.0 0.0 0.00 0.10 0.00 97 1012.9
20260510104020 21 300 0.0 0.0 0.00 0.10 0.00 97 1013.1
20260510104015 21 300 0.0 0.0 0.00 0.10 0.00 97 1013.2
20260510104009 21 300 0.0 0.0 0.00 0.10 0.00 97 1013.4
20260510104002 21 300 0.0 0.0 0.00 0.10 0.00 97 1013.6
20260510103956 21 300 0.0 0.0 0.00 0.10 0.00 97 1013.7
20260510103834 21 300 0.0 0.0 0.00 0.10 0.00 97 1013.9
20260510103711 22 196 4.8 9.7 0.00 0.10 0.00 97 1012.5
20260510103705 22 196 4.8 9.7 0.00 0.10 0.00 97 1012.7
20260510103658 22 175 8.0 12.9 0.00 0.10 0.00 97 1013.3
20260510103653 22 183 6.4 9.7 0.00 0.10 0.00 97 1013.4
20260510103647 22 180 8.0 11.3 0.00 0.10 0.00 97 1012.8
20260510103642 22 163 6.4 11.3 0.00 0.10 0.00 97 1012.9
20260510103638 22 195 6.4 9.7 0.00 0.10 0.00 96 1012.8
20260510103632 21 299 3.2 6.4 0.00 0.10 0.00 97 1012.8
20260510103628 21 300 0.0 1.6 0.00 0.10 0.00 97 1012.8
20260510103623 21 300 0.0 0.0 0.00 0.10 0.00 97 1012.8
20260510103617 21 300 0.0 0.0 0.00 0.10 0.00 97 1012.8
20260510103612 21 300 0.0 0.0 0.00 0.10 0.00 97 1012.8
20260510103607 21 300 0.0 0.0 0.00 0.10 0.00 97 1013.4
20260510103602 21 300 0.0 0.0 0.00 0.10 0.00 97 1013.8
20260510103435 22 199 3.2 6.4 0.00 0.10 0.00 97 1012.8
20260510103431 22 199 3.2 6.4 0.00 0.10 0.00 97 1012.6
20260510103425 22 196 3.2 8.0 0.00 0.10 0.00 96 1012.4
20260510103421 21 300 0.0 0.0 0.00 0.10 0.00 97 1013.0
20260510103415 22 196 4.8 8.0 0.00 0.10 0.00 97 1012.4
20260510103410 21 300 0.0 0.0 0.00 0.10 0.00 97 1013.1
20260510103406 21 300 0.0 0.0 0.00 0.10 0.00 97 1012.9
20260510103400 21 300 0.0 0.0 0.00 0.10 0.00 97 1013.2
20260510103353 21 300 0.0 0.0 0.00 0.10 0.00 97 1013.4
20260510103348 21 300 0.0 0.0 0.00 0.10 0.00 97 1013.6
20260510103342 21 300 0.0 0.0 0.00 0.10 0.00 97 1013.7
20260510103338 21 300 0.0 0.0 0.00 0.10 0.00 97 1013.9
20260510103328 21 300 0.0 0.0 0.00 0.10 0.00 97 1013.9
20260510103210 22 196 4.8 9.7 0.00 0.10 0.00 97 1012.7
20260510103205 21 300 0.0 0.0 0.00 0.10 0.00 97 1013.8
20260510103039 21 300 0.0 1.6 0.00 0.10 0.00 97 1012.8
20260510103034 21 300 0.0 0.0 0.00 0.10 0.00 97 1012.8
20260510103030 21 300 0.0 0.0 0.00 0.10 0.00 97 1012.8
20260510103024 21 300 0.0 0.0 0.00 0.10 0.00 97 1012.8
20260510103019 21 300 0.0 0.0 0.00 0.10 0.00 97 1013.4
20260510103013 21 300 0.0 0.0 0.00 0.10 0.00 97 1013.8
20260510102848 21 300 0.0 0.0 0.00 0.10 0.00 97 1012.9
20260510102842 21 300 0.0 0.0 0.00 0.10 0.00 97 1013.1
20260510102837 21 300 0.0 0.0 0.00 0.10 0.00 97 1013.2
20260510102831 21 300 0.0 0.0 0.00 0.10 0.00 97 1013.4
20260510102826 21 300 0.0 0.0 0.00 0.10 0.00 97 1013.6
20260510102820 21 300 0.0 0.0 0.00 0.10 0.00 97 1013.7
20260510102816 21 300 0.0 0.0 0.00 0.10 0.00 97 1013.9
20260510102649 22 199 3.2 6.4 0.00 0.10 0.00 97 1012.8
20260510102644 22 199 3.2 6.4 0.00 0.10 0.00 97 1012.6
20260510102640 21 300 0.0 0.0 0.00 0.10 0.00 97 1013.8
20260510102634 22 196 3.2 8.0 0.00 0.10 0.00 96 1012.4
20260510102508 21 300 0.0 0.0 0.00 0.10 0.00 97 1013.8
20260510102342 21 299 3.2 6.4 0.00 0.10 0.00 97 1012.8
20260510102336 21 300 0.0 1.6 0.00 0.10 0.00 97 1012.8
20260510102332 21 300 0.0 0.0 0.00 0.10 0.00 97 1012.8
20260510102327 21 300 0.0 0.0 0.00 0.10 0.00 97 1012.8
20260510102321 21 300 0.0 0.0 0.00 0.10 0.00 97 1012.8
20260510102316 21 300 0.0 0.0 0.00 0.10 0.00 97 1013.0
20260510102310 21 300 0.0 0.0 0.00 0.10 0.00 97 1012.9
20260510102306 21 300 0.0 0.0 0.00 0.10 0.00 97 1013.1
20260510102300 21 300 0.0 0.0 0.00 0.10 0.00 97 1013.2
20260510102255 21 300 0.0 0.0 0.00 0.10 0.00 97 1013.9
20260510102249 21 300 0.0 0.0 0.00 0.10 0.00 97 1013.4
20260510102242 21 300 0.0 0.0 0.00 0.10 0.00 97 1013.6
20260510102238 21 300 0.0 0.0 0.00 0.10 0.00 97 1013.7
20260510101954 22 180 8.0 11.3 0.00 0.10 0.00 97 1012.8
20260510101948 21 300 0.0 0.0 0.00 0.10 0.00 97 1013.4
20260510101944 21 300 0.0 0.0 0.00 0.10 0.00 97 1013.8
20260510101818 22 196 4.8 9.7 0.00 0.10 0.00 97 1012.5
20260510101812 22 196 4.8 9.7 0.00 0.10 0.00 97 1012.7
20260510101807 21 298 3.2 6.4 0.00 0.10 0.00 96 1012.8
20260510101803 22 199 3.2 6.4 0.00 0.10 0.00 97 1012.8
20260510101757 22 199 3.2 6.4 0.00 0.10 0.00 97 1012.6
20260510101752 22 196 3.2 8.0 0.00 0.10 0.00 96 1012.4
20260510101747 22 196 4.8 8.0 0.00 0.10 0.00 97 1012.4
20260510101742 21 299 3.2 6.4 0.00 0.10 0.00 97 1012.8
20260510101735 21 300 0.0 1.6 0.00 0.10 0.00 97 1012.8
20260510101729 21 300 0.0 0.0 0.00 0.10 0.00 97 1012.8
20260510101725 21 300 0.0 0.0 0.00 0.10 0.00 97 1012.8
20260510101719 21 300 0.0 0.0 0.00 0.10 0.00 97 1012.8
20260510101714 21 300 0.0 0.0 0.00 0.10 0.00 97 1013.0
20260510101708 21 300 0.0 0.0 0.00 0.10 0.00 97 1012.9
20260510101703 21 300 0.0 0.0 0.00 0.10 0.00 97 1013.1
20260510101657 21 300 0.0 0.0 0.00 0.10 0.00 97 1013.2
20260510101653 21 300 0.0 0.0 0.00 0.10 0.00 97 1013.4
20260510101527 21 300 0.0 0.0 0.00 0.10 0.00 97 1013.7
20260510101523 21 300 0.0 0.0 0.00 0.10 0.00 97 1013.8
20260510101344 21 300 0.0 0.0 0.00 0.10 0.00 97 1013.8
20260510101230 22 183 6.4 11.3 0.00 0.10 0.00 97 1013.6
20260510101226 22 175 8.0 12.9 0.00 0.10 0.00 97 1013.3
20260510101220 21 298 3.2 6.4 0.00 0.10 0.00 96 1012.8
20260510101216 21 299 3.2 6.4 0.00 0.10 0.00 97 1012.8
20260510101211 21 300 0.0 0.0 0.00 0.10 0.00 97 1013.0
20260510101046 22 183 6.4 9.7 0.00 0.10 0.00 97 1013.4
20260510101042 21 300 0.0 0.0 0.00 0.10 0.00 97 1013.1
20260510101036 22 163 6.4 11.3 0.00 0.10 0.00 97 1012.9
20260510101029 22 180 8.0 11.3 0.00 0.10 0.00 97 1013.1
20260510101024 22 180 8.0 11.3 0.00 0.10 0.00 97 1012.8
20260510101018 22 195 6.4 9.7 0.00 0.10 0.00 96 1012.8
20260510101014 22 196 4.8 9.7 0.00 0.10 0.00 97 1012.5
20260510101008 22 196 4.8 9.7 0.00 0.10 0.00 97 1012.7
20260510101003 22 199 3.2 6.4 0.00 0.10 0.00 97 1012.6
20260510100958 22 196 3.2 8.0 0.00 0.10 0.00 96 1012.4
20260510100953 22 196 4.8 8.0 0.00 0.10 0.00 97 1012.4
20260510100948 21 300 0.0 1.6 0.00 0.10 0.00 97 1012.8
20260510100942 21 300 0.0 0.0 0.00 0.10 0.00 97 1012.8
20260510100938 21 300 0.0 0.0 0.00 0.10 0.00 97 1012.8
20260510100929 21 300 0.0 0.0 0.00 0.10 0.00 97 1012.9
20260510100925 21 300 0.0 0.0 0.00 0.10 0.00 97 1013.4
20260510100920 21 300 0.0 0.0 0.00 0.10 0.00 97 1012.8
20260510100914 21 300 0.0 0.0 0.00 0.10 0.00 97 1013.6
20260510100910 21 300 0.0 0.0 0.00 0.10 0.00 97 1013.2
20260510100905 21 300 0.0 0.0 0.00 0.10 0.00 97 1013.7
20260510100859 21 300 0.0 0.0 0.00 0.10 0.00 97 1013.8
20260510100615 22 199 3.2 6.4 0.00 0.10 0.00 97 1012.8
20260510100609 21 300 0.0 0.0 0.00 0.10 0.00 97 1013.0
20260510100603 21 299 3.2 6.4 0.00 0.10 0.00 97 1012.8
20260510100558 21 300 0.0 0.0 0.00 0.10 0.00 97 1013.1
20260510100434 21 300 0.0 0.0 0.00 0.10 0.00 97 1013.6
20260510100429 21 300 0.0 0.0 0.00 0.10 0.00 97 1013.4
20260510100423 21 300 0.0 0.0 0.00 0.10 0.00 97 1012.8
20260510100417 21 300 0.0 0.0 0.00 0.10 0.00 97 1012.8
20260510100412 21 300 0.0 0.0 0.00 0.10 0.00 97 1012.8
20260510100407 21 300 0.0 0.0 0.00 0.10 0.00 97 1012.9
20260510100401 21 300 0.0 0.0 0.00 0.10 0.00 97 1013.2
20260510100357 21 300 0.0 0.0 0.00 0.10 0.00 97 1013.7
20260510100340 21 300 0.0 0.0 0.00 0.10 0.00 97 1013.8
20260510095948 21 300 0.0 0.0 0.00 0.10 0.00 97 1013.4
20260510095942 21 300 0.0 0.0 0.00 0.10 0.00 97 1013.6
20260510095656 22 180 8.0 11.3 0.00 0.10 0.00 97 1013.1
20260510095651 22 195 6.4 9.7 0.00 0.10 0.00 96 1012.8
20260510095645 21 300 0.0 0.0 0.00 0.10 0.00 97 1013.2
20260510095641 21 300 0.0 0.0 0.00 0.10 0.00 97 1013.4
20260510095516 22 180 8.0 11.3 0.00 0.10 0.00 97 1012.8
20260510095509 22 199 3.2 6.4 0.00 0.10 0.00 97 1012.6
20260510095504 22 196 4.8 9.7 0.00 0.10 0.00 97 1012.7
20260510095458 22 196 3.2 8.0 0.00 0.10 0.00 96 1012.4
20260510095454 22 196 4.8 8.0 0.00 0.10 0.00 97 1012.4
20260510095448 21 298 3.2 6.4 0.00 0.10 0.00 96 1012.8
20260510095443 21 299 3.2 6.4 0.00 0.10 0.00 97 1012.8
20260510095437 21 300 0.0 1.6 0.00 0.10 0.00 97 1012.8
20260510095432 21 300 0.0 0.0 0.00 0.10 0.00 97 1012.8
20260510095428 21 300 0.0 0.0 0.00 0.10 0.00 97 1013.0
20260510095422 21 300 0.0 0.0 0.00 0.10 0.00 97 1013.4
20260510095416 21 300 0.0 0.0 0.00 0.10 0.00 97 1013.6
20260510095251 21 300 0.0 0.0 0.00 0.10 0.00 97 1013.7
20260510095246 22 199 3.2 6.4 0.00 0.10 0.00 97 1012.8
20260510095241 21 300 0.0 0.0 0.00 0.10 0.00 97 1012.8
20260510095236 21 300 0.0 0.0 0.00 0.10 0.00 97 1012.9
20260510095230 21 300 0.0 0.0 0.00 0.10 0.00 97 1013.1
20260510095108 22 191 6.4 9.7 0.00 0.10 0.00 96 1014.4
20260510095100 22 209 4.8 8.0 0.00 0.10 0.00 97 1013.7
20260510095054 21 300 0.0 0.0 0.00 0.10 0.00 97 1013.4
20260510095050 22 183 6.4 11.3 0.00 0.10 0.00 97 1013.6
20260510095045 22 175 8.0 12.9 0.00 0.10 0.00 97 1013.3
20260510095039 22 183 6.4 9.7 0.00 0.10 0.00 97 1013.4
20260510095034 22 163 6.4 11.3 0.00 0.10 0.00 97 1012.9
20260510095029 22 180 8.0 11.3 0.00 0.10 0.00 97 1013.1
20260510095024 22 180 8.0 11.3 0.00 0.10 0.00 97 1012.8
20260510095019 22 195 6.4 9.7 0.00 0.10 0.00 96 1012.8
20260510095014 22 196 4.8 9.7 0.00 0.10 0.00 97 1012.5
20260510095008 22 196 4.8 9.7 0.00 0.10 0.00 97 1012.7
20260510095002 22 199 3.2 6.4 0.00 0.10 0.00 97 1012.6
20260510094956 21 298 3.2 6.4 0.00 0.10 0.00 96 1012.8
20260510094952 21 299 3.2 6.4 0.00 0.10 0.00 97 1012.8
20260510094946 21 300 0.0 1.6 0.00 0.10 0.00 97 1012.8
20260510094941 21 300 0.0 0.0 0.00 0.10 0.00 97 1013.4
20260510094817 22 196 4.8 8.0 0.00 0.10 0.00 97 1012.4
20260510094811 21 300 0.0 0.0 0.00 0.10 0.00 97 1013.0
20260510094806 21 300 0.0 0.0 0.00 0.10 0.00 97 1013.6
20260510094759 21 300 0.0 0.0 0.00 0.10 0.00 97 1012.8
20260510094754 21 300 0.0 0.0 0.00 0.10 0.00 97 1012.8
20260510094748 21 300 0.0 0.0 0.00 0.10 0.00 97 1012.8
20260510094626 21 300 0.0 0.0 0.00 0.10 0.00 97 1012.9
20260510094620 21 300 0.0 0.0 0.00 0.10 0.00 97 1013.4
20260510094616 21 300 0.0 0.0 0.00 0.10 0.00 97 1013.1
20260510094611 22 199 3.2 6.4 0.00 0.10 0.00 97 1012.8
20260510094446 21 299 3.2 6.4 0.00 0.10 0.00 97 1012.8
20260510094440 21 300 0.0 0.0 0.00 0.10 0.00 97 1013.4
20260510094315 21 300 0.0 0.0 0.00 0.10 0.00 97 1012.8
20260510094309 21 300 0.0 0.0 0.00 0.10 0.00 97 1013.0
20260510094301 21 300 0.0 0.0 0.00 0.10 0.00 97 1013.6
20260510094138 21 300 0.0 0.0 0.00 0.10 0.00 97 1012.8
20260510094132 21 300 0.0 0.0 0.00 0.10 0.00 97 1012.9
20260510094127 21 300 0.0 0.0 0.00 0.10 0.00 97 1013.1
20260510094122 21 300 0.0 0.0 0.00 0.10 0.00 97 1013.2
20260510094117 21 300 0.0 0.0 0.00 0.10 0.00 97 1013.4
20260510093829 22 195 6.4 9.7 0.00 0.10 0.00 96 1012.8
20260510093706 21 300 0.0 0.0 0.00 0.10 0.00 97 1013.0
20260510093540 22 199 3.2 6.4 0.00 0.10 0.00 97 1012.6
20260510093535 22 196 4.8 9.7 0.00 0.10 0.00 97 1012.5
20260510093529 22 196 3.2 8.0 0.00 0.10 0.00 96 1012.4
20260510093525 22 196 4.8 8.0 0.00 0.10 0.00 97 1012.4
20260510093520 22 209 4.8 8.0 0.00 0.10 0.00 96 1013.8
20260510093514 22 199 3.2 6.4 0.00 0.10 0.00 97 1012.8
20260510093510 21 300 0.0 0.0 0.00 0.10 0.00 97 1013.1
20260510093504 22 209 4.8 8.0 0.00 0.10 0.00 96 1014.1
20260510093500 22 205 4.8 8.0 0.00 0.10 0.00 96 1014.3
20260510093454 22 209 4.8 8.0 0.00 0.10 0.00 97 1013.7
20260510093449 21 300 0.0 0.0 0.00 0.10 0.00 97 1013.2
20260510093442 21 300 0.0 0.0 0.00 0.10 0.00 97 1013.4
20260510093437 21 298 3.2 6.4 0.00 0.10 0.00 96 1012.8
20260510093431 21 299 3.2 6.4 0.00 0.10 0.00 97 1012.8
20260510093427 21 300 0.0 1.6 0.00 0.10 0.00 97 1012.8
20260510093421 21 300 0.0 0.0 0.00 0.10 0.00 97 1012.8
20260510093415 21 300 0.0 0.0 0.00 0.10 0.00 97 1012.8
20260510093411 21 300 0.0 0.0 0.00 0.10 0.00 97 1012.9
20260510093352 21 300 0.0 0.0 0.00 0.10 0.00 97 1013.4
20260510093240 22 175 8.0 12.9 0.00 0.10 0.00 97 1013.3
20260510093234 22 183 6.4 9.7 0.00 0.10 0.00 97 1013.4
20260510093230 22 180 8.0 11.3 0.00 0.10 0.00 97 1013.1
20260510093224 22 180 8.0 11.3 0.00 0.10 0.00 97 1012.8
20260510093220 21 300 0.0 0.0 0.00 0.10 0.00 97 1012.8
20260510093215 21 300 0.0 0.0 0.00 0.10 0.00 97 1013.0
20260510093051 22 195 6.4 9.7 0.00 0.10 0.00 96 1012.8
20260510093044 22 196 4.8 9.7 0.00 0.10 0.00 97 1012.5
20260510093038 22 196 4.8 9.7 0.00 0.10 0.00 97 1012.7
20260510093034 22 199 3.2 6.4 0.00 0.10 0.00 97 1012.6
20260510093024 21 300 0.0 0.0 0.00 0.10 0.00 97 1013.1
20260510093020 22 196 3.2 8.0 0.00 0.10 0.00 96 1012.4
20260510093015 22 196 4.8 8.0 0.00 0.10 0.00 97 1012.4
20260510093010 22 199 3.2 6.4 0.00 0.10 0.00 97 1012.8
20260510093005 21 300 0.0 0.0 0.00 0.10 0.00 97 1013.2
20260510092959 21 300 0.0 0.0 0.00 0.10 0.00 97 1013.4
20260510092833 21 299 3.2 6.4 0.00 0.10 0.00 97 1012.8
20260510092828 21 300 0.0 1.6 0.00 0.10 0.00 97 1012.8
20260510092823 21 300 0.0 0.0 0.00 0.10 0.00 97 1012.8
20260510092818 21 300 0.0 0.0 0.00 0.10 0.00 97 1012.8
20260510092813 21 300 0.0 0.0 0.00 0.10 0.00 97 1012.9
20260510092649 21 300 0.0 0.0 0.00 0.10 0.00 97 1013.0
20260510092349 21 300 0.0 0.0 0.00 0.10 0.00 97 1013.4
20260510092237 22 195 6.4 9.7 0.00 0.10 0.00 96 1012.8
20260510092231 21 298 3.2 6.4 0.00 0.10 0.00 96 1012.8
20260510092225 22 199 3.2 6.4 0.00 0.10 0.00 97 1012.8
20260510092221 25 0.0 0.0 0.00 0.53 0.00 51 1017.8
20260510092215 21 300 0.0 0.0 0.00 0.10 0.00 97 1012.8
20260510092210 21 300 0.0 1.6 0.00 0.10 0.00 97 1012.8
20260510092205 25 0.0 0.0 0.00 0.53 0.00 54 1017.9
20260510092200 21 300 0.0 0.0 0.00 0.10 0.00 97 1012.8
20260510092156 21 300 0.0 0.0 0.00 0.10 0.00 97 1012.9
20260510092150 23 184 6.4 11.3 0.00 0.10 0.10 96 1014.0
20260510092024 21 300 0.0 0.0 0.00 0.10 0.00 97 1013.0
20260510092018 22 190 4.8 9.7 0.00 0.10 0.10 96 1014.3
20260510092014 22 194 4.8 8.0 0.00 0.10 0.10 95 1014.4
20260510092009 22 192 4.8 11.3 0.00 0.10 0.10 95 1014.4
20260510092003 22 194 8.0 11.3 0.00 0.10 0.10 95 1014.4
20260510091959 22 200 8.0 12.9 0.00 0.10 0.10 95 1014.4
20260510091953 23 200 8.0 12.9 0.00 0.10 0.10 95 1014.3
20260510091948 22 198 4.8 8.0 0.00 0.10 0.00 96 1014.4
20260510091944 22 195 6.4 9.7 0.00 0.10 0.00 96 1014.2
20260510091938 22 189 6.4 9.7 0.00 0.10 0.00 96 1014.3
20260510091933 22 199 3.2 6.4 0.00 0.10 0.00 97 1012.6
20260510091926 22 196 4.8 9.7 0.00 0.10 0.00 97 1012.7
20260510091920 22 194 6.4 8.0 0.00 0.10 0.00 96 1014.3
20260510091916 21 299 3.2 6.4 0.00 0.10 0.00 97 1012.8
20260510091911 21 300 0.0 0.0 0.00 0.10 0.00 97 1012.8
20260510091905 22 196 3.2 8.0 0.00 0.10 0.00 96 1012.4
20260510091900 22 191 6.4 9.7 0.00 0.10 0.00 96 1014.4
20260510091854 22 209 4.8 8.0 0.00 0.10 0.00 96 1013.8
20260510091850 21 300 0.0 0.0 0.00 0.10 0.00 97 1013.1
20260510091844 22 209 4.8 8.0 0.00 0.10 0.00 96 1014.1
20260510091840 21 300 0.0 0.0 0.00 0.10 0.00 97 1013.2
20260510091835 22 205 4.8 8.0 0.00 0.10 0.00 96 1014.3
20260510091829 22 209 4.8 8.0 0.00 0.10 0.00 97 1013.7
20260510091822 22 183 6.4 11.3 0.00 0.10 0.00 97 1013.6
20260510091818 22 175 8.0 12.9 0.00 0.10 0.00 97 1013.3
20260510091812 22 183 6.4 9.7 0.00 0.10 0.00 97 1013.4
20260510091807 22 180 8.0 11.3 0.00 0.10 0.00 97 1013.1
20260510091802 22 180 8.0 11.3 0.00 0.10 0.00 97 1012.8
20260510091758 22 163 6.4 11.3 0.00 0.10 0.00 97 1012.9
20260510091753 22 195 6.4 9.7 0.00 0.10 0.00 96 1012.8
20260510091747 22 196 4.8 8.0 0.00 0.10 0.00 97 1012.4
20260510091743 22 196 4.8 9.7 0.00 0.10 0.00 97 1012.5
20260510091737 21 298 3.2 6.4 0.00 0.10 0.00 96 1012.8
20260510091732 22 199 3.2 6.4 0.00 0.10 0.00 97 1012.8
20260510091726 21 300 0.0 0.0 0.00 0.10 0.00 97 1012.8
20260510091721 21 300 0.0 1.6 0.00 0.10 0.00 97 1012.8
20260510091715 21 300 0.0 0.0 0.00 0.10 0.00 97 1012.8
20260510091711 21 300 0.0 0.0 0.00 0.10 0.00 97 1012.9
20260510091425 22 199 3.2 6.4 0.00 0.10 0.00 97 1012.6
20260510091419 22 196 3.2 8.0 0.00 0.10 0.00 96 1012.4
20260510091415 21 299 3.2 6.4 0.00 0.10 0.00 97 1012.8
20260510091409 21 300 0.0 0.0 0.00 0.10 0.00 97 1012.8
20260510091404 21 300 0.0 0.0 0.00 0.10 0.00 97 1013.1
20260510091346 21 300 0.0 0.0 0.00 0.10 0.00 97 1013.2
20260510091235 21 298 3.2 6.4 0.00 0.10 0.00 96 1012.8
20260510091229 21 300 0.0 0.0 0.00 0.10 0.00 97 1012.8
20260510091104 21 300 0.0 0.0 0.00 0.10 0.00 97 1012.8
20260510091059 21 300 0.0 0.0 0.00 0.10 0.00 97 1013.0
20260510090934 21 300 0.0 0.0 0.00 0.10 0.00 97 1012.9
20260510090928 22 209 4.8 8.0 0.00 0.10 0.00 96 1013.8
20260510090923 22 209 4.8 8.0 0.00 0.10 0.00 96 1014.1
20260510090916 22 205 4.8 8.0 0.00 0.10 0.00 96 1014.3
20260510090910 22 209 4.8 8.0 0.00 0.10 0.00 97 1013.7
20260510090905 22 183 6.4 11.3 0.00 0.10 0.00 97 1013.6
20260510090900 22 175 8.0 12.9 0.00 0.10 0.00 97 1013.3
20260510090855 22 183 6.4 9.7 0.00 0.10 0.00 97 1013.4
20260510090849 22 180 8.0 11.3 0.00 0.10 0.00 97 1013.1
20260510090844 22 180 8.0 11.3 0.00 0.10 0.00 97 1012.8
20260510090838 22 163 6.4 11.3 0.00 0.10 0.00 97 1012.9
20260510090834 22 195 6.4 9.7 0.00 0.10 0.00 96 1012.8
20260510090829 22 196 4.8 8.0 0.00 0.10 0.00 97 1012.4
20260510090824 22 196 4.8 9.7 0.00 0.10 0.00 97 1012.5
20260510090819 22 196 4.8 9.7 0.00 0.10 0.00 97 1012.7
20260510090812 22 199 3.2 6.4 0.00 0.10 0.00 97 1012.6
20260510090807 22 196 3.2 8.0 0.00 0.10 0.00 96 1012.4
20260510090801 21 299 3.2 6.4 0.00 0.10 0.00 97 1012.8
20260510090756 21 300 0.0 0.0 0.00 0.10 0.00 97 1013.1
20260510090751 21 300 0.0 0.0 0.00 0.10 0.00 97 1012.8
20260510090626 21 300 0.0 0.0 0.00 0.10 0.00 97 1012.8
20260510090501 21 300 0.0 1.6 0.00 0.10 0.00 97 1012.8
20260510090456 21 300 0.0 0.0 0.00 0.10 0.00 97 1012.8
20260510090450 21 300 0.0 0.0 0.00 0.10 0.00 97 1012.9
20260510090446 21 300 0.0 0.0 0.00 0.10 0.00 97 1013.0
20260510090200 22 209 4.8 8.0 0.00 0.10 0.00 96 1013.8
20260510090154 22 209 4.8 8.0 0.00 0.10 0.00 96 1014.1
20260510090150 22 209 4.8 8.0 0.00 0.10 0.00 97 1013.7
20260510090145 22 183 6.4 11.3 0.00 0.10 0.00 97 1013.6
20260510090140 22 175 8.0 12.9 0.00 0.10 0.00 97 1013.3
20260510090135 22 183 6.4 9.7 0.00 0.10 0.00 97 1013.4
20260510090129 21 299 3.2 6.4 0.00 0.10 0.00 97 1012.8
20260510090125 21 300 0.0 0.0 0.00 0.10 0.00 97 1012.8
20260510085959 22 180 8.0 11.3 0.00 0.10 0.00 97 1012.8
20260510085953 22 199 3.2 6.4 0.00 0.10 0.00 97 1012.6
20260510085947 22 163 6.4 11.3 0.00 0.10 0.00 97 1012.9
20260510085943 22 195 6.4 9.7 0.00 0.10 0.00 96 1012.8
20260510085938 22 196 4.8 8.0 0.00 0.10 0.00 97 1012.4
20260510085932 21 300 0.0 1.6 0.00 0.10 0.00 97 1012.8
20260510085928 22 196 4.8 9.7 0.00 0.10 0.00 97 1012.5
20260510085923 21 298 3.2 6.4 0.00 0.10 0.00 96 1012.8
20260510085918 21 300 0.0 0.0 0.00 0.10 0.00 97 1012.8
20260510085913 21 300 0.0 0.0 0.00 0.10 0.00 97 1012.9
20260510085746 22 196 3.2 8.0 0.00 0.10 0.00 96 1012.4
20260510085741 21 300 0.0 0.0 0.00 0.10 0.00 97 1013.0
20260510085735 22 199 3.2 6.4 0.00 0.10 0.00 97 1012.8
20260510085731 21 300 0.0 0.0 0.00 0.10 0.00 97 1012.8
20260510085602 21 300 0.0 0.0 0.00 0.10 0.00 97 1012.8
20260510085438 21 298 3.2 6.4 0.00 0.10 0.00 96 1012.8
20260510085434 21 300 0.0 1.6 0.00 0.10 0.00 97 1012.8
20260510085429 21 300 0.0 0.0 0.00 0.10 0.00 97 1012.8
20260510085423 21 300 0.0 0.0 0.00 0.10 0.00 97 1012.9
20260510085257 22 190 4.8 9.7 0.00 0.10 0.10 96 1014.3
20260510085251 21 300 0.0 0.0 0.00 0.10 0.00 97 1013.0
20260510085247 22 196 4.8 9.7 0.00 0.10 0.00 97 1012.5
20260510085241 22 196 4.8 8.0 0.00 0.10 0.00 97 1012.4
20260510085236 22 194 4.8 8.0 0.00 0.10 0.10 95 1014.4
20260510085231 22 192 4.8 11.3 0.00 0.10 0.10 95 1014.4
20260510085226 22 194 8.0 11.3 0.00 0.10 0.10 95 1014.4
20260510085220 22 199 3.2 6.4 0.00 0.10 0.00 97 1012.8
20260510085216 22 200 8.0 12.9 0.00 0.10 0.10 95 1014.4
20260510085211 21 300 0.0 0.0 0.00 0.10 0.00 97 1012.8
20260510085205 22 198 4.8 8.0 0.00 0.10 0.00 96 1014.4
20260510085158 22 189 6.4 9.7 0.00 0.10 0.00 96 1014.3
20260510085035 21 299 3.2 6.4 0.00 0.10 0.00 97 1012.8
20260510085029 22 194 6.4 8.0 0.00 0.10 0.00 96 1014.3
20260510085024 21 300 0.0 0.0 0.00 0.10 0.00 97 1012.8
20260510085019 22 205 4.8 8.0 0.00 0.10 0.00 96 1014.3
20260510085014 22 209 4.8 8.0 0.00 0.10 0.00 96 1013.8
20260510085010 22 209 4.8 8.0 0.00 0.10 0.00 96 1014.1
20260510085004 22 209 4.8 8.0 0.00 0.10 0.00 97 1013.7
20260510084959 22 183 6.4 11.3 0.00 0.10 0.00 97 1013.6
20260510084951 22 175 8.0 12.9 0.00 0.10 0.00 97 1013.3
20260510084946 22 183 6.4 9.7 0.00 0.10 0.00 97 1013.4
20260510084940 22 180 8.0 11.3 0.00 0.10 0.00 97 1013.1
20260510084935 22 180 8.0 11.3 0.00 0.10 0.00 97 1012.8
20260510084931 22 163 6.4 11.3 0.00 0.10 0.00 97 1012.9
20260510084925 22 195 6.4 9.7 0.00 0.10 0.00 96 1012.8
20260510084920 21 300 0.0 1.6 0.00 0.10 0.00 97 1012.8
20260510084914 22 196 3.2 8.0 0.00 0.10 0.00 96 1012.4
20260510084910 22 196 4.8 9.7 0.00 0.10 0.00 97 1012.7
20260510084906 21 300 0.0 0.0 0.00 0.10 0.00 97 1012.8
20260510084900 21 298 3.2 6.4 0.00 0.10 0.00 96 1012.8
20260510084855 22 199 3.2 6.4 0.00 0.10 0.00 97 1012.6
20260510084848 21 300 0.0 0.0 0.00 0.10 0.00 97 1012.9
20260510084723 22 196 4.8 9.7 0.00 0.10 0.00 97 1012.5
20260510084719 22 199 3.2 6.4 0.00 0.10 0.00 97 1012.8
20260510084713 21 300 0.0 0.0 0.00 0.10 0.00 97 1012.8
20260510084547 21 300 0.0 0.0 0.00 0.10 0.00 97 1012.8
20260510084422 21 298 3.2 6.4 0.00 0.10 0.00 96 1012.8
20260510084417 21 300 0.0 1.6 0.00 0.10 0.00 97 1012.8
20260510084412 21 300 0.0 0.0 0.00 0.10 0.00 97 1012.8
20260510084246 22 175 8.0 12.9 0.00 0.10 0.00 97 1013.3
20260510084240 22 183 6.4 9.7 0.00 0.10 0.00 97 1013.4
20260510084234 22 180 8.0 11.3 0.00 0.10 0.00 97 1013.1
20260510084229 22 180 8.0 11.3 0.00 0.10 0.00 97 1012.8
20260510084223 22 163 6.4 11.3 0.00 0.10 0.00 97 1012.9
20260510084218 22 195 6.4 9.7 0.00 0.10 0.00 96 1012.8
20260510084214 22 196 4.8 9.7 0.00 0.10 0.00 97 1012.7
20260510084208 22 196 4.8 8.0 0.00 0.10 0.00 97 1012.4
20260510084203 22 199 3.2 6.4 0.00 0.10 0.00 97 1012.6
20260510084157 22 199 3.2 6.4 0.00 0.10 0.00 97 1012.8
20260510084153 21 300 0.0 0.0 0.00 0.10 0.00 97 1012.8
20260510084025 22 195 6.4 9.7 0.00 0.10 0.00 96 1014.2
20260510084020 22 194 6.4 9.7 0.00 0.10 0.10 96 1014.3
20260510084014 21 300 0.0 0.0 0.00 0.10 0.00 97 1012.8
20260510083850 22 189 6.4 9.7 0.00 0.10 0.00 96 1014.3
20260510083844 22 191 6.4 9.7 0.00 0.10 0.00 96 1014.4
20260510083837 22 194 6.4 8.0 0.00 0.10 0.00 96 1014.3
20260510083833 22 205 4.8 8.0 0.00 0.10 0.00 96 1014.3
20260510083827 22 209 4.8 8.0 0.00 0.10 0.00 96 1013.8
20260510083822 22 196 4.8 9.7 0.00 0.10 0.00 97 1012.5
20260510083816 22 196 3.2 8.0 0.00 0.10 0.00 96 1012.4
20260510083812 21 298 3.2 6.4 0.00 0.10 0.00 96 1012.8
20260510083807 21 300 0.0 0.0 0.00 0.10 0.00 97 1012.8
20260510083801 21 300 0.0 1.6 0.00 0.10 0.00 97 1012.8
20260510083636 22 209 4.8 8.0 0.00 0.10 0.00 97 1013.7
20260510083631 22 183 6.4 11.3 0.00 0.10 0.00 97 1013.6
20260510083627 22 175 8.0 12.9 0.00 0.10 0.00 97 1013.3
20260510083621 22 183 6.4 9.7 0.00 0.10 0.00 97 1013.4
20260510083616 22 180 8.0 11.3 0.00 0.10 0.00 97 1013.1
20260510083612 22 180 8.0 11.3 0.00 0.10 0.00 97 1012.8
20260510083606 22 163 6.4 11.3 0.00 0.10 0.00 97 1012.9
20260510083600 22 195 6.4 9.7 0.00 0.10 0.00 96 1012.8
20260510083556 22 196 4.8 9.7 0.00 0.10 0.00 97 1012.7
20260510083551 22 199 3.2 6.4 0.00 0.10 0.00 97 1012.6
20260510083546 22 196 4.8 8.0 0.00 0.10 0.00 97 1012.4
20260510083538 22 199 3.2 6.4 0.00 0.10 0.00 97 1012.8
20260510083534 21 299 3.2 6.4 0.00 0.10 0.00 97 1012.8
20260510083530 21 300 0.0 0.0 0.00 0.10 0.00 97 1012.8
20260510083248 22 196 4.8 9.7 0.00 0.10 0.00 97 1012.5
20260510083242 22 196 3.2 8.0 0.00 0.10 0.00 96 1012.4
20260510083238 21 298 3.2 6.4 0.00 0.10 0.00 96 1012.8
20260510083231 21 300 0.0 1.6 0.00 0.10 0.00 97 1012.8
20260510082949 22 199 3.2 6.4 0.00 0.10 0.00 97 1012.8
20260510082944 21 299 3.2 6.4 0.00 0.10 0.00 97 1012.8
20260510082938 21 300 0.0 0.0 0.00 0.10 0.00 97 1012.8
20260510082812 22 180 8.0 11.3 0.00 0.10 0.00 97 1013.1
20260510082806 22 180 8.0 11.3 0.00 0.10 0.00 97 1012.8
20260510082802 21 300 0.0 0.0 0.00 0.10 0.00 97 1012.8
20260510082756 22 196 4.8 9.7 0.00 0.10 0.00 97 1012.7
20260510082752 21 300 0.0 1.6 0.00 0.10 0.00 97 1012.8
20260510082626 21 298 3.2 6.4 0.00 0.10 0.00 96 1012.8
20260510082620 22 163 6.4 11.3 0.00 0.10 0.00 97 1012.9
20260510082616 22 196 3.2 8.0 0.00 0.10 0.00 96 1012.4
20260510082451 24 0.0 0.0 0.00 0.53 0.00 49 1017.9
20260510082445 22 196 4.8 8.0 0.00 0.10 0.00 97 1012.4
20260510082440 22 199 3.2 6.4 0.00 0.10 0.00 97 1012.8
20260510082434 21 299 3.2 6.4 0.00 0.10 0.00 97 1012.8
20260510082430 24 0.0 0.0 0.00 0.53 0.00 50 1017.8
20260510082423 21 300 0.0 0.0 0.00 0.10 0.00 97 1012.8
20260510082417 22 196 4.8 9.7 0.00 0.10 0.00 97 1012.5
20260510082413 24 0.0 0.0 0.00 0.53 0.00 49 1017.9
20260510082407 24 0.0 4.8 0.00 0.53 0.00 49 1017.9
20260510082402 24 256 4.8 8.0 0.00 0.53 0.00 47 1018.0
20260510082356 25 256 4.8 8.0 0.00 0.53 0.00 51 1018.1
20260510082352 26 59 1.6 8.0 0.00 0.53 0.00 44 1018.0
20260510082347 26 59 4.8 9.7 0.00 0.53 0.00 50 1018.0
20260510082341 23 203 8.0 12.9 0.00 0.10 0.10 96 1014.0
20260510082336 23 184 6.4 11.3 0.00 0.10 0.10 96 1014.0
20260510082332 23 200 8.0 12.9 0.00 0.10 0.10 95 1014.3
20260510082324 22 194 4.8 8.0 0.00 0.10 0.10 95 1014.4
20260510082319 22 192 4.8 11.3 0.00 0.10 0.10 95 1014.4
20260510082315 22 194 8.0 11.3 0.00 0.10 0.10 95 1014.4
20260510082309 22 200 8.0 12.9 0.00 0.10 0.10 95 1014.4
20260510082306 22 198 4.8 8.0 0.00 0.10 0.00 96 1014.4
20260510082259 22 195 6.4 9.7 0.00 0.10 0.00 96 1014.2
20260510082254 21 300 0.0 0.0 0.00 0.10 0.00 97 1012.8
20260510082249 21 300 0.0 1.6 0.00 0.10 0.00 97 1012.8
20260510082244 22 194 6.4 9.7 0.00 0.10 0.10 96 1014.3
20260510082239 22 190 4.8 9.7 0.00 0.10 0.10 96 1014.3
20260510082235 22 189 6.4 9.7 0.00 0.10 0.00 96 1014.3
20260510082229 22 191 6.4 9.7 0.00 0.10 0.00 96 1014.4
20260510082222 22 194 6.4 8.0 0.00 0.10 0.00 96 1014.3
20260510082217 22 205 4.8 8.0 0.00 0.10 0.00 96 1014.3
20260510082212 22 209 4.8 8.0 0.00 0.10 0.00 96 1013.8
20260510082207 22 209 4.8 8.0 0.00 0.10 0.00 96 1014.1
20260510082201 22 209 4.8 8.0 0.00 0.10 0.00 97 1013.7
20260510082157 22 183 6.4 11.3 0.00 0.10 0.00 97 1013.6
20260510082153 22 183 6.4 9.7 0.00 0.10 0.00 97 1013.4
20260510082147 22 175 8.0 12.9 0.00 0.10 0.00 97 1013.3
20260510082142 22 180 8.0 11.3 0.00 0.10 0.00 97 1012.8
20260510082136 21 298 3.2 6.4 0.00 0.10 0.00 96 1012.8
20260510082132 22 180 8.0 11.3 0.00 0.10 0.00 97 1013.1
20260510082127 22 196 3.2 8.0 0.00 0.10 0.00 96 1012.4
20260510082120 22 196 4.8 9.7 0.00 0.10 0.00 97 1012.7
20260510082114 22 199 3.2 6.4 0.00 0.10 0.00 97 1012.6
20260510081949 22 195 6.4 9.7 0.00 0.10 0.00 96 1012.8
20260510081944 22 196 4.8 9.7 0.00 0.10 0.00 97 1012.5
20260510081940 22 196 4.8 8.0 0.00 0.10 0.00 97 1012.4
20260510081934 22 199 3.2 6.4 0.00 0.10 0.00 97 1012.8
20260510081930 21 299 3.2 6.4 0.00 0.10 0.00 97 1012.8
20260510081925 21 300 0.0 0.0 0.00 0.10 0.00 97 1012.8
20260510081640 22 196 3.2 8.0 0.00 0.10 0.00 96 1012.4
20260510081634 21 298 3.2 6.4 0.00 0.10 0.00 96 1012.8
20260510081630 22 180 8.0 11.3 0.00 0.10 0.00 97 1012.8
20260510081625 22 192 4.8 11.3 0.00 0.10 0.10 95 1014.4
20260510081619 22 198 4.8 8.0 0.00 0.10 0.00 96 1014.4
20260510081612 22 195 6.4 9.7 0.00 0.10 0.00 96 1014.2
20260510081607 22 189 6.4 9.7 0.00 0.10 0.00 96 1014.3
20260510081603 22 191 6.4 9.7 0.00 0.10 0.00 96 1014.4
20260510081557 22 194 6.4 8.0 0.00 0.10 0.00 96 1014.3
20260510081551 22 205 4.8 8.0 0.00 0.10 0.00 96 1014.3
20260510081547 22 209 4.8 8.0 0.00 0.10 0.00 96 1013.8
20260510081542 22 196 4.8 9.7 0.00 0.10 0.00 97 1012.7
20260510081536 22 199 3.2 6.4 0.00 0.10 0.00 97 1012.6
20260510081412 22 209 4.8 8.0 0.00 0.10 0.00 97 1013.7
20260510081405 22 183 6.4 11.3 0.00 0.10 0.00 97 1013.6
20260510081359 22 183 6.4 9.7 0.00 0.10 0.00 97 1013.4
20260510081354 22 175 8.0 12.9 0.00 0.10 0.00 97 1013.3
20260510081350 22 180 8.0 11.3 0.00 0.10 0.00 97 1013.1
20260510081344 22 196 4.8 9.7 0.00 0.10 0.00 97 1012.5
20260510081340 22 196 4.8 8.0 0.00 0.10 0.00 97 1012.4
20260510081335 22 199 3.2 6.4 0.00 0.10 0.00 97 1012.8
20260510081329 21 299 3.2 6.4 0.00 0.10 0.00 97 1012.8
20260510081325 21 300 0.0 1.6 0.00 0.10 0.00 97 1012.8
20260510081313 21 300 0.0 0.0 0.00 0.10 0.00 97 1012.8
20260510081152 22 180 8.0 11.3 0.00 0.10 0.00 97 1012.8
20260510081146 22 195 6.4 9.7 0.00 0.10 0.00 96 1012.8
20260510081141 22 196 3.2 8.0 0.00 0.10 0.00 96 1012.4
20260510081137 21 298 3.2 6.4 0.00 0.10 0.00 96 1012.8
20260510081006 22 191 6.4 9.7 0.00 0.10 0.00 96 1014.4
20260510081002 22 194 6.4 8.0 0.00 0.10 0.00 96 1014.3
20260510080957 22 205 4.8 8.0 0.00 0.10 0.00 96 1014.3
20260510080951 22 196 4.8 9.7 0.00 0.10 0.00 97 1012.7
20260510080946 22 199 3.2 6.4 0.00 0.10 0.00 97 1012.6
20260510080821 22 209 4.8 8.0 0.00 0.10 0.00 96 1014.1
20260510080817 22 209 4.8 8.0 0.00 0.10 0.00 97 1013.7
20260510080811 22 196 4.8 9.7 0.00 0.10 0.00 97 1012.5
20260510080806 22 183 6.4 11.3 0.00 0.10 0.00 97 1013.6
20260510080759 22 183 6.4 9.7 0.00 0.10 0.00 97 1013.4
20260510080753 22 175 8.0 12.9 0.00 0.10 0.00 97 1013.3
20260510080748 22 196 4.8 8.0 0.00 0.10 0.00 97 1012.4
20260510080742 21 299 3.2 6.4 0.00 0.10 0.00 97 1012.8
20260510080737 21 300 0.0 1.6 0.00 0.10 0.00 97 1012.8
20260510080731 22 199 3.2 6.4 0.00 0.10 0.00 97 1012.8
20260510080607 22 196 3.2 8.0 0.00 0.10 0.00 96 1012.4
20260510080559 22 163 6.4 11.3 0.00 0.10 0.00 97 1012.9
20260510080554 22 180 8.0 11.3 0.00 0.10 0.00 97 1012.8
20260510080548 22 195 6.4 9.7 0.00 0.10 0.00 96 1012.8
20260510080544 21 298 3.2 6.4 0.00 0.10 0.00 96 1012.8
20260510080420 22 199 3.2 6.4 0.00 0.10 0.00 97 1012.6
20260510080253 21 300 0.0 1.6 0.00 0.10 0.00 97 1012.8
20260510080249 21 299 3.2 6.4 0.00 0.10 0.00 97 1012.8
20260510080243 22 196 4.8 8.0 0.00 0.10 0.00 97 1012.4
20260510080239 22 194 8.0 11.3 0.00 0.10 0.10 95 1014.4
20260510080233 22 194 6.4 9.7 0.00 0.10 0.10 96 1014.3
20260510080228 22 190 4.8 9.7 0.00 0.10 0.10 96 1014.3
20260510080223 22 194 4.8 8.0 0.00 0.10 0.10 95 1014.4
20260510080218 22 198 4.8 8.0 0.00 0.10 0.00 96 1014.4
20260510080212 22 195 6.4 9.7 0.00 0.10 0.00 96 1014.2
20260510080208 22 189 6.4 9.7 0.00 0.10 0.00 96 1014.3
20260510080203 22 191 6.4 9.7 0.00 0.10 0.00 96 1014.4
20260510080156 22 194 6.4 8.0 0.00 0.10 0.00 96 1014.3
20260510080150 22 205 4.8 8.0 0.00 0.10 0.00 96 1014.3
20260510080145 22 209 4.8 8.0 0.00 0.10 0.00 96 1013.8
20260510080140 22 199 3.2 6.4 0.00 0.10 0.00 97 1012.8
20260510080135 22 209 4.8 8.0 0.00 0.10 0.00 96 1014.1
20260510080129 22 209 4.8 8.0 0.00 0.10 0.00 97 1013.7
20260510080125 22 183 6.4 11.3 0.00 0.10 0.00 97 1013.6
20260510080120 22 196 3.2 8.0 0.00 0.10 0.00 96 1012.4
20260510075953 22 175 8.0 12.9 0.00 0.10 0.00 97 1013.3
20260510075949 21 298 3.2 6.4 0.00 0.10 0.00 96 1012.8
20260510075943 22 180 8.0 11.3 0.00 0.10 0.00 97 1013.1
20260510075819 22 180 8.0 11.3 0.00 0.10 0.00 97 1012.8
20260510075814 22 199 3.2 6.4 0.00 0.10 0.00 97 1012.6
20260510075810 22 195 6.4 9.7 0.00 0.10 0.00 96 1012.8
20260510075804 22 196 4.8 9.7 0.00 0.10 0.00 97 1012.7
20260510075759 21 299 3.2 6.4 0.00 0.10 0.00 97 1012.8
20260510075753 22 196 4.8 9.7 0.00 0.10 0.00 97 1012.5
20260510075747 22 196 4.8 8.0 0.00 0.10 0.00 97 1012.4
20260510075623 22 199 3.2 6.4 0.00 0.10 0.00 97 1012.8
20260510075457 23 203 8.0 12.9 0.00 0.10 0.10 96 1014.0
20260510075449 23 184 6.4 11.3 0.00 0.10 0.10 96 1014.0
20260510075445 23 200 8.0 12.9 0.00 0.10 0.10 95 1014.3
20260510075440 22 200 8.0 12.9 0.00 0.10 0.10 95 1014.4
20260510075434 22 192 4.8 11.3 0.00 0.10 0.10 95 1014.4
20260510075430 22 194 8.0 11.3 0.00 0.10 0.10 95 1014.4
20260510075425 21 298 3.2 6.4 0.00 0.10 0.00 96 1012.8
20260510075419 22 194 6.4 9.7 0.00 0.10 0.10 96 1014.3
20260510075414 22 190 4.8 9.7 0.00 0.10 0.10 96 1014.3
20260510075408 22 194 4.8 8.0 0.00 0.10 0.10 95 1014.4
20260510075402 22 198 4.8 8.0 0.00 0.10 0.00 96 1014.4
20260510075358 22 195 6.4 9.7 0.00 0.10 0.00 96 1014.2
20260510075353 22 189 6.4 9.7 0.00 0.10 0.00 96 1014.3
20260510075346 22 191 6.4 9.7 0.00 0.10 0.00 96 1014.4
20260510075342 22 194 6.4 8.0 0.00 0.10 0.00 96 1014.3
20260510075336 22 205 4.8 8.0 0.00 0.10 0.00 96 1014.3
20260510075330 22 209 4.8 8.0 0.00 0.10 0.00 96 1013.8
20260510075325 22 209 4.8 8.0 0.00 0.10 0.00 96 1014.1
20260510075320 22 209 4.8 8.0 0.00 0.10 0.00 97 1013.7
20260510075314 22 183 6.4 11.3 0.00 0.10 0.00 97 1013.6
20260510075310 22 183 6.4 9.7 0.00 0.10 0.00 97 1013.4
20260510075306 22 175 8.0 12.9 0.00 0.10 0.00 97 1013.3
20260510075300 22 199 3.2 6.4 0.00 0.10 0.00 97 1012.6
20260510075254 21 299 3.2 6.4 0.00 0.10 0.00 97 1012.8
20260510075248 22 180 8.0 11.3 0.00 0.10 0.00 97 1013.1
20260510075122 22 180 8.0 11.3 0.00 0.10 0.00 97 1012.8
20260510075117 22 195 6.4 9.7 0.00 0.10 0.00 96 1012.8
20260510075113 22 196 4.8 9.7 0.00 0.10 0.00 97 1012.7
20260510075107 22 196 4.8 9.7 0.00 0.10 0.00 97 1012.5
20260510075102 22 196 4.8 8.0 0.00 0.10 0.00 97 1012.4
20260510075056 22 196 3.2 8.0 0.00 0.10 0.00 96 1012.4
20260510075052 22 199 3.2 6.4 0.00 0.10 0.00 97 1012.8
20260510074806 22 198 4.8 8.0 0.00 0.10 0.00 96 1014.4
20260510074801 22 189 6.4 9.7 0.00 0.10 0.00 96 1014.3
20260510074757 22 191 6.4 9.7 0.00 0.10 0.00 96 1014.4
20260510074751 22 199 3.2 6.4 0.00 0.10 0.00 97 1012.6
20260510074746 22 194 6.4 8.0 0.00 0.10 0.00 96 1014.3
20260510074618 22 209 4.8 8.0 0.00 0.10 0.00 96 1013.8
20260510074614 22 209 4.8 8.0 0.00 0.10 0.00 97 1013.7
20260510074608 22 209 4.8 8.0 0.00 0.10 0.00 96 1014.1
20260510074603 22 183 6.4 11.3 0.00 0.10 0.00 97 1013.6
20260510074557 22 183 6.4 9.7 0.00 0.10 0.00 97 1013.4
20260510074552 22 175 8.0 12.9 0.00 0.10 0.00 97 1013.3
20260510074548 22 180 8.0 11.3 0.00 0.10 0.00 97 1013.1
20260510074542 22 163 6.4 11.3 0.00 0.10 0.00 97 1012.9
20260510074535 22 180 8.0 11.3 0.00 0.10 0.00 97 1012.8
20260510074530 22 195 6.4 9.7 0.00 0.10 0.00 96 1012.8
20260510074524 22 196 4.8 9.7 0.00 0.10 0.00 97 1012.7
20260510074520 22 196 4.8 9.7 0.00 0.10 0.00 97 1012.5
20260510074514 22 196 4.8 8.0 0.00 0.10 0.00 97 1012.4
20260510074509 22 196 3.2 8.0 0.00 0.10 0.00 96 1012.4
20260510074504 22 199 3.2 6.4 0.00 0.10 0.00 97 1012.8
20260510074058 22 205 4.8 8.0 0.00 0.10 0.00 96 1014.3
20260510074052 22 209 4.8 8.0 0.00 0.10 0.00 96 1013.8
20260510074048 22 209 4.8 8.0 0.00 0.10 0.00 96 1014.1
20260510074042 22 209 4.8 8.0 0.00 0.10 0.00 97 1013.7
20260510074037 22 183 6.4 11.3 0.00 0.10 0.00 97 1013.6
20260510074030 22 196 4.8 9.7 0.00 0.10 0.00 97 1012.5
20260510074026 22 175 8.0 12.9 0.00 0.10 0.00 97 1013.3
20260510074020 22 183 6.4 9.7 0.00 0.10 0.00 97 1013.4
20260510074014 22 180 8.0 11.3 0.00 0.10 0.00 97 1013.1
20260510074009 22 196 4.8 8.0 0.00 0.10 0.00 97 1012.4
20260510074005 22 163 6.4 11.3 0.00 0.10 0.00 97 1012.9
20260510073959 22 180 8.0 11.3 0.00 0.10 0.00 97 1012.8
20260510073833 22 196 4.8 9.7 0.00 0.10 0.00 97 1012.7
20260510073827 22 199 3.2 6.4 0.00 0.10 0.00 97 1012.8
20260510073820 22 196 3.2 8.0 0.00 0.10 0.00 96 1012.4
20260510073534 22 175 8.0 12.9 0.00 0.10 0.00 97 1013.3
20260510073527 22 196 4.8 8.0 0.00 0.10 0.00 97 1012.4
20260510073347 22 199 3.2 6.4 0.00 0.10 0.00 97 1012.8
20260510073236 22 196 3.2 8.0 0.00 0.10 0.00 96 1012.4
20260510073109 22 180 8.0 11.3 0.00 0.10 0.00 97 1012.8
20260510073104 22 195 6.4 9.7 0.00 0.10 0.00 96 1012.8
20260510073059 22 196 4.8 9.7 0.00 0.10 0.00 97 1012.7
20260510073054 22 196 4.8 9.7 0.00 0.10 0.00 97 1012.5
20260510073049 22 196 4.8 8.0 0.00 0.10 0.00 97 1012.4
20260510073044 22 199 3.2 6.4 0.00 0.10 0.00 97 1012.6
20260510072916 22 194 6.4 9.7 0.00 0.10 0.10 96 1014.3
20260510072910 22 198 4.8 8.0 0.00 0.10 0.00 96 1014.4
20260510072906 22 189 6.4 9.7 0.00 0.10 0.00 96 1014.3
20260510072900 22 191 6.4 9.7 0.00 0.10 0.00 96 1014.4
20260510072855 22 194 6.4 8.0 0.00 0.10 0.00 96 1014.3
20260510072849 22 205 4.8 8.0 0.00 0.10 0.00 96 1014.3
20260510072844 22 209 4.8 8.0 0.00 0.10 0.00 96 1013.8
20260510072718 22 209 4.8 8.0 0.00 0.10 0.00 97 1013.7
20260510072711 22 183 6.4 11.3 0.00 0.10 0.00 97 1013.6
20260510072706 22 183 6.4 9.7 0.00 0.10 0.00 97 1013.4
20260510072701 22 175 8.0 12.9 0.00 0.10 0.00 97 1013.3
20260510072657 22 180 8.0 11.3 0.00 0.10 0.00 97 1013.1
20260510072651 22 163 6.4 11.3 0.00 0.10 0.00 97 1012.9
20260510072645 22 196 3.2 8.0 0.00 0.10 0.00 96 1012.4
20260510072521 22 195 6.4 9.7 0.00 0.10 0.00 96 1012.8
20260510072512 22 196 4.8 9.7 0.00 0.10 0.00 97 1012.7
20260510072508 22 196 4.8 9.7 0.00 0.10 0.00 97 1012.5
20260510072503 22 196 4.8 8.0 0.00 0.10 0.00 97 1012.4
20260510072432 22 199 3.2 6.4 0.00 0.10 0.00 97 1012.6
20260510071921 22 196 4.8 8.0 0.00 0.10 0.00 97 1012.4
20260510070222 22 195 6.4 9.7 0.00 0.10 0.00 96 1014.2
20260510070217 22 180 8.0 11.3 0.00 0.10 0.00 97 1012.8
20260510070052 22 189 6.4 9.7 0.00 0.10 0.00 96 1014.3
20260510070046 22 191 6.4 9.7 0.00 0.10 0.00 96 1014.4
20260510070039 22 195 6.4 9.7 0.00 0.10 0.00 96 1012.8
20260510070034 22 196 4.8 9.7 0.00 0.10 0.00 97 1012.7
20260510065909 22 205 4.8 8.0 0.00 0.10 0.00 96 1014.3
20260510065903 22 209 4.8 8.0 0.00 0.10 0.00 96 1013.8
20260510065857 22 209 4.8 8.0 0.00 0.10 0.00 96 1014.1
20260510065852 22 209 4.8 8.0 0.00 0.10 0.00 97 1013.7
20260510065847 22 183 6.4 11.3 0.00 0.10 0.00 97 1013.6
20260510065840 22 183 6.4 9.7 0.00 0.10 0.00 97 1013.4
20260510065835 22 196 4.8 9.7 0.00 0.10 0.00 97 1012.5
20260510065709 22 180 8.0 11.3 0.00 0.10 0.00 97 1013.1
20260510065704 22 163 6.4 11.3 0.00 0.10 0.00 97 1012.9
20260510065700 22 180 8.0 11.3 0.00 0.10 0.00 97 1012.8
20260510065128 26 17 6.4 16.1 0.00 0.53 0.00 48 1018.0
20260510065124 26 22 11.3 16.1 0.00 0.53 0.00 48 1018.0
20260510065119 26 13 11.3 16.1 0.00 0.53 0.00 48 1018.0
20260510065113 26 22 8.0 16.1 0.00 0.53 0.00 50 1018.1
20260510065107 25 28 9.7 17.7 0.00 0.53 0.00 46 1018.1
20260510065102 25 31 14.5 17.7 0.00 0.53 0.00 49 1018.1
20260510065056 23 177 9.7 12.9 0.00 0.10 0.10 96 1013.7
20260510065051 23 203 8.0 12.9 0.00 0.10 0.10 96 1014.0
20260510065047 23 184 6.4 11.3 0.00 0.10 0.10 96 1014.0
20260510065041 23 200 8.0 12.9 0.00 0.10 0.10 95 1014.3
20260510065036 22 200 8.0 12.9 0.00 0.10 0.10 95 1014.4
20260510065029 22 190 4.8 9.7 0.00 0.10 0.10 96 1014.3
20260510065023 22 194 6.4 9.7 0.00 0.10 0.10 96 1014.3
20260510065019 22 183 6.4 9.7 0.00 0.10 0.00 97 1013.4
20260510065013 22 209 4.8 8.0 0.00 0.10 0.00 97 1013.7
20260510065008 22 183 6.4 11.3 0.00 0.10 0.00 97 1013.6
20260510065002 22 180 8.0 11.3 0.00 0.10 0.00 97 1012.8
20260510064838 25 54 9.7 17.7 0.00 0.53 0.00 53 1018.3
20260510064832 25 39 12.9 19.3 0.00 0.53 0.00 51 1018.1
20260510064825 22 107 6.4 9.7 0.00 0.10 0.10 96 1013.5
20260510064821 22 194 8.0 11.3 0.00 0.10 0.10 95 1014.4
20260510064815 22 195 6.4 9.7 0.00 0.10 0.00 96 1014.2
20260510064810 22 194 4.8 8.0 0.00 0.10 0.10 95 1014.4
20260510064804 22 194 6.4 8.0 0.00 0.10 0.00 96 1014.3
20260510064759 22 189 6.4 9.7 0.00 0.10 0.00 96 1014.3
20260510064753 22 163 6.4 11.3 0.00 0.10 0.00 97 1012.9
20260510064748 22 198 4.8 8.0 0.00 0.10 0.00 96 1014.4
20260510064743 22 191 6.4 9.7 0.00 0.10 0.00 96 1014.4
20260510064738 22 196 4.8 9.7 0.00 0.10 0.00 97 1012.7
20260510064733 22 195 6.4 9.7 0.00 0.10 0.00 96 1012.8
20260510064726 22 205 4.8 8.0 0.00 0.10 0.00 96 1014.3
20260510064720 22 192 4.8 11.3 0.00 0.10 0.10 95 1014.4
20260510064715 22 175 8.0 12.9 0.00 0.10 0.00 97 1013.3
20260510064709 22 209 4.8 8.0 0.00 0.10 0.00 96 1014.1
20260510064704 22 180 8.0 11.3 0.00 0.10 0.00 97 1013.1
20260510064658 22 104 1.6 6.4 0.00 0.10 0.10 96 1013.6
20260510064654 22 104 6.4 9.7 0.00 0.10 0.10 96 1013.5
20260510064649 22 209 4.8 8.0 0.00 0.10 0.00 96 1013.8
20260510064523 23 203 8.0 12.9 0.00 0.10 0.10 96 1014.0
20260510064518 23 184 6.4 11.3 0.00 0.10 0.10 96 1014.0
20260510064513 23 200 8.0 12.9 0.00 0.10 0.10 95 1014.3
20260510064508 22 209 4.8 8.0 0.00 0.10 0.00 97 1013.7
20260510064502 22 200 8.0 12.9 0.00 0.10 0.10 95 1014.4
20260510064458 22 183 6.4 9.7 0.00 0.10 0.00 97 1013.4
20260510064454 22 190 4.8 9.7 0.00 0.10 0.10 96 1014.3
20260510064449 22 194 6.4 9.7 0.00 0.10 0.10 96 1014.3
20260510064443 22 183 6.4 11.3 0.00 0.10 0.00 97 1013.6
20260510064437 22 180 8.0 11.3 0.00 0.10 0.00 97 1012.8
20260510064310 22 163 6.4 11.3 0.00 0.10 0.00 97 1012.9
20260510064304 22 189 6.4 9.7 0.00 0.10 0.00 96 1014.3
20260510064259 22 191 6.4 9.7 0.00 0.10 0.00 96 1014.4
20260510064253 22 194 6.4 8.0 0.00 0.10 0.00 96 1014.3
20260510064248 22 196 4.8 9.7 0.00 0.10 0.00 97 1012.7
20260510064242 22 195 6.4 9.7 0.00 0.10 0.00 96 1012.8
20260510064238 22 205 4.8 8.0 0.00 0.10 0.00 96 1014.3
20260510064233 22 194 8.0 11.3 0.00 0.10 0.10 95 1014.4
20260510064227 22 198 4.8 8.0 0.00 0.10 0.00 96 1014.4
20260510064220 22 209 4.8 8.0 0.00 0.10 0.00 96 1014.1
20260510064214 22 194 4.8 8.0 0.00 0.10 0.10 95 1014.4
20260510064210 22 192 4.8 11.3 0.00 0.10 0.10 95 1014.4
20260510064205 22 175 8.0 12.9 0.00 0.10 0.00 97 1013.3
20260510064159 22 180 8.0 11.3 0.00 0.10 0.00 97 1013.1
20260510064154 22 209 4.8 8.0 0.00 0.10 0.00 96 1013.8
20260510064030 24 42 14.5 19.3 0.00 0.53 0.00 57 1018.0
20260510064025 22 209 4.8 8.0 0.00 0.10 0.00 97 1013.7
20260510064018 23 51 12.9 17.7 0.00 0.53 0.00 63 1018.0
20260510064012 22 40 11.3 16.1 0.00 0.53 0.00 69 1018.0
20260510064008 22 183 6.4 9.7 0.00 0.10 0.00 97 1013.4
20260510064002 21 32 9.7 12.9 0.00 0.53 0.00 77 1017.9
20260510063957 19 36 9.7 12.9 0.00 0.69 0.00 82 1018.0
20260510063953 18 0 6.4 12.9 0.00 0.69 0.00 87 1018.0
20260510063947 22 98 1.6 9.7 0.00 0.10 0.10 96 1013.0
20260510063941 22 292 0.0 0.0 0.00 0.10 0.10 96 1013.0
20260510063936 22 292 0.0 0.0 0.00 0.10 0.10 96 1012.8
20260510063930 22 292 0.0 0.0 0.00 0.10 0.10 96 1012.9
20260510063926 22 309 0.0 3.2 0.00 0.10 0.10 96 1012.7
20260510063918 22 304 1.6 4.8 0.03 0.10 0.10 96 1012.7
20260510063914 22 107 6.4 9.7 0.00 0.10 0.10 96 1013.5
20260510063908 22 104 1.6 6.4 0.00 0.10 0.10 96 1013.6
20260510063903 22 200 8.0 12.9 0.00 0.10 0.10 95 1014.4
20260510063858 22 183 6.4 11.3 0.00 0.10 0.00 97 1013.6
20260510063853 23 177 9.7 12.9 0.00 0.10 0.10 96 1013.7
20260510063848 23 184 6.4 11.3 0.00 0.10 0.10 96 1014.0
20260510063842 22 180 8.0 11.3 0.00 0.10 0.00 97 1012.8
20260510063837 22 163 6.4 11.3 0.00 0.10 0.00 97 1012.9
20260510063832 23 203 8.0 12.9 0.00 0.10 0.10 96 1014.0
20260510063827 22 190 4.8 9.7 0.00 0.10 0.10 96 1014.3
20260510063821 22 104 6.4 9.7 0.00 0.10 0.10 96 1013.5
20260510063814 22 194 6.4 9.7 0.00 0.10 0.10 96 1014.3
20260510063810 23 200 8.0 12.9 0.00 0.10 0.10 95 1014.3
20260510063805 22 195 6.4 9.7 0.00 0.10 0.00 96 1014.2
20260510063759 22 194 6.4 8.0 0.00 0.10 0.00 96 1014.3
20260510063754 22 189 6.4 9.7 0.00 0.10 0.00 96 1014.3
20260510063748 22 191 6.4 9.7 0.00 0.10 0.00 96 1014.4
20260510063744 22 198 4.8 8.0 0.00 0.10 0.00 96 1014.4
20260510063739 22 205 4.8 8.0 0.00 0.10 0.00 96 1014.3
20260510063733 22 195 6.4 9.7 0.00 0.10 0.00 96 1012.8
20260510063728 22 209 4.8 8.0 0.00 0.10 0.00 96 1014.1
20260510063724 22 175 8.0 12.9 0.00 0.10 0.00 97 1013.3
20260510063718 22 180 8.0 11.3 0.00 0.10 0.00 97 1013.1
20260510063550 22 209 4.8 8.0 0.00 0.10 0.00 96 1013.8
20260510063545 22 194 4.8 8.0 0.00 0.10 0.10 95 1014.4
20260510063539 22 192 4.8 11.3 0.00 0.10 0.10 95 1014.4
20260510063534 22 209 4.8 8.0 0.00 0.10 0.00 97 1013.7
20260510063528 22 183 6.4 9.7 0.00 0.10 0.00 97 1013.4
20260510063400 22 98 1.6 9.7 0.00 0.10 0.10 96 1013.0
20260510063355 22 183 6.4 11.3 0.00 0.10 0.00 97 1013.6
20260510063350 22 163 6.4 11.3 0.00 0.10 0.00 97 1012.9
20260510063344 22 107 6.4 9.7 0.00 0.10 0.10 96 1013.5
20260510063339 22 180 8.0 11.3 0.00 0.10 0.00 97 1012.8
20260510063335 23 177 9.7 12.9 0.00 0.10 0.10 96 1013.7
20260510063329 23 203 8.0 12.9 0.00 0.10 0.10 96 1014.0
20260510063323 23 184 6.4 11.3 0.00 0.10 0.10 96 1014.0
20260510063319 22 190 4.8 9.7 0.00 0.10 0.10 96 1014.3
20260510063314 22 194 6.4 9.7 0.00 0.10 0.10 96 1014.3
20260510063307 22 195 6.4 9.7 0.00 0.10 0.00 96 1014.2
20260510063302 22 198 4.8 8.0 0.00 0.10 0.00 96 1014.4
20260510063257 22 189 6.4 9.7 0.00 0.10 0.00 96 1014.3
20260510063252 22 195 6.4 9.7 0.00 0.10 0.00 96 1012.8
20260510063246 22 191 6.4 9.7 0.00 0.10 0.00 96 1014.4
20260510063242 22 194 6.4 8.0 0.00 0.10 0.00 96 1014.3
20260510063236 22 209 4.8 8.0 0.00 0.10 0.00 96 1014.1
20260510063232 22 175 8.0 12.9 0.00 0.10 0.00 97 1013.3
20260510063105 22 209 4.8 8.0 0.00 0.10 0.00 96 1013.8
20260510063100 22 180 8.0 11.3 0.00 0.10 0.00 97 1013.1
20260510062934 22 194 8.0 11.3 0.00 0.10 0.10 95 1014.4
20260510062929 22 200 8.0 12.9 0.00 0.10 0.10 95 1014.4
20260510062924 22 194 4.8 8.0 0.00 0.10 0.10 95 1014.4
20260510062918 22 192 4.8 11.3 0.00 0.10 0.10 95 1014.4
20260510062912 22 209 4.8 8.0 0.00 0.10 0.00 97 1013.7
20260510062905 22 183 6.4 9.7 0.00 0.10 0.00 97 1013.4
20260510062901 22 183 6.4 11.3 0.00 0.10 0.00 97 1013.6
20260510062856 22 163 6.4 11.3 0.00 0.10 0.00 97 1012.9
20260510062850 22 180 8.0 11.3 0.00 0.10 0.00 97 1012.8
20260510062726 22 194 6.4 9.7 0.00 0.10 0.10 96 1014.3
20260510062721 22 209 4.8 8.0 0.00 0.10 0.00 96 1014.1
20260510062715 22 195 6.4 9.7 0.00 0.10 0.00 96 1014.2
20260510062711 22 175 8.0 12.9 0.00 0.10 0.00 97 1013.3
20260510062544 22 189 6.4 9.7 0.00 0.10 0.00 96 1014.3
20260510062538 22 191 6.4 9.7 0.00 0.10 0.00 96 1014.4
20260510062532 22 194 6.4 8.0 0.00 0.10 0.00 96 1014.3
20260510062528 22 209 4.8 8.0 0.00 0.10 0.00 96 1013.8
20260510062523 22 205 4.8 8.0 0.00 0.10 0.00 96 1014.3
20260510062517 22 180 8.0 11.3 0.00 0.10 0.00 97 1013.1
20260510062351 22 183 6.4 11.3 0.00 0.10 0.00 97 1013.6
20260510062345 22 183 6.4 9.7 0.00 0.10 0.00 97 1013.4
20260510062340 22 163 6.4 11.3 0.00 0.10 0.00 97 1012.9
20260510062324 22 180 8.0 11.3 0.00 0.10 0.00 97 1012.8
20260510062209 22 175 8.0 12.9 0.00 0.10 0.00 97 1013.3
20260510061757 22 209 4.8 8.0 0.00 0.10 0.00 97 1013.7
20260510061750 22 183 6.4 11.3 0.00 0.10 0.00 97 1013.6
20260510061746 22 183 6.4 9.7 0.00 0.10 0.00 97 1013.4
20260510061619 22 292 0.0 0.0 0.00 0.10 0.10 96 1013.0
20260510061614 22 292 0.0 0.0 0.00 0.10 0.10 96 1012.8
20260510061609 22 292 0.0 0.0 0.00 0.10 0.10 96 1012.9
20260510061604 22 309 0.0 3.2 0.00 0.10 0.10 96 1012.7
20260510061559 22 304 1.6 4.8 0.03 0.10 0.10 96 1012.7
20260510061554 22 104 1.6 6.4 0.00 0.10 0.10 96 1013.6
20260510061546 23 184 6.4 11.3 0.00 0.10 0.10 96 1014.0
20260510061541 23 200 8.0 12.9 0.00 0.10 0.10 95 1014.3
20260510061536 22 194 8.0 11.3 0.00 0.10 0.10 95 1014.4
20260510061531 22 175 8.0 12.9 0.00 0.10 0.00 97 1013.3
20260510061525 22 200 8.0 12.9 0.00 0.10 0.10 95 1014.4
20260510061400 22 192 4.8 11.3 0.00 0.10 0.10 95 1014.4
20260510061355 22 194 6.4 9.7 0.00 0.10 0.10 96 1014.3
20260510061350 22 195 6.4 9.7 0.00 0.10 0.00 96 1014.2
20260510061342 22 190 4.8 9.7 0.00 0.10 0.10 96 1014.3
20260510061337 22 194 6.4 8.0 0.00 0.10 0.00 96 1014.3
20260510061332 22 198 4.8 8.0 0.00 0.10 0.00 96 1014.4
20260510061326 22 189 6.4 9.7 0.00 0.10 0.00 96 1014.3
20260510061320 22 191 6.4 9.7 0.00 0.10 0.00 96 1014.4
20260510061315 22 180 8.0 11.3 0.00 0.10 0.00 97 1013.1
20260510061310 22 209 4.8 8.0 0.00 0.10 0.00 96 1014.1
20260510061305 22 209 4.8 8.0 0.00 0.10 0.00 96 1013.8
20260510061259 22 205 4.8 8.0 0.00 0.10 0.00 96 1014.3
20260510061254 22 104 6.4 9.7 0.00 0.10 0.10 96 1013.5
20260510061248 22 163 6.4 11.3 0.00 0.10 0.00 97 1012.9
20260510061241 22 98 1.6 9.7 0.00 0.10 0.10 96 1013.0
20260510061236 22 107 6.4 9.7 0.00 0.10 0.10 96 1013.5
20260510061230 23 177 9.7 12.9 0.00 0.10 0.10 96 1013.7
20260510061225 23 203 8.0 12.9 0.00 0.10 0.10 96 1014.0
20260510061220 22 209 4.8 8.0 0.00 0.10 0.00 97 1013.7
20260510061215 22 183 6.4 11.3 0.00 0.10 0.00 97 1013.6
20260510061209 22 183 6.4 9.7 0.00 0.10 0.00 97 1013.4
20260510060918 23 200 8.0 12.9 0.00 0.10 0.10 95 1014.3
20260510060914 22 194 8.0 11.3 0.00 0.10 0.10 95 1014.4
20260510060909 22 200 8.0 12.9 0.00 0.10 0.10 95 1014.4
20260510060904 22 194 4.8 8.0 0.00 0.10 0.10 95 1014.4
20260510060859 22 192 4.8 11.3 0.00 0.10 0.10 95 1014.4
20260510060854 22 190 4.8 9.7 0.00 0.10 0.10 96 1014.3
20260510060848 22 194 6.4 9.7 0.00 0.10 0.10 96 1014.3
20260510060844 22 195 6.4 9.7 0.00 0.10 0.00 96 1014.2
20260510060837 22 198 4.8 8.0 0.00 0.10 0.00 96 1014.4
20260510060831 22 189 6.4 9.7 0.00 0.10 0.00 96 1014.3
20260510060826 22 191 6.4 9.7 0.00 0.10 0.00 96 1014.4
20260510060820 22 180 8.0 11.3 0.00 0.10 0.00 97 1013.1
20260510060815 22 194 6.4 8.0 0.00 0.10 0.00 96 1014.3
20260510060810 22 205 4.8 8.0 0.00 0.10 0.00 96 1014.3
20260510060805 22 209 4.8 8.0 0.00 0.10 0.00 96 1014.1
20260510060800 22 209 4.8 8.0 0.00 0.10 0.00 96 1013.8
20260510060631 22 183 6.4 11.3 0.00 0.10 0.00 97 1013.6
20260510060625 22 183 6.4 9.7 0.00 0.10 0.00 97 1013.4
20260510060213 22 190 4.8 9.7 0.00 0.10 0.10 96 1014.3
20260510060207 22 194 6.4 9.7 0.00 0.10 0.10 96 1014.3
20260510060202 22 195 6.4 9.7 0.00 0.10 0.00 96 1014.2
20260510060157 22 198 4.8 8.0 0.00 0.10 0.00 96 1014.4
20260510060151 22 189 6.4 9.7 0.00 0.10 0.00 96 1014.3
20260510060145 22 191 6.4 9.7 0.00 0.10 0.00 96 1014.4
20260510060140 22 194 6.4 8.0 0.00 0.10 0.00 96 1014.3
20260510060134 22 209 4.8 8.0 0.00 0.10 0.00 96 1013.8
20260510060127 22 209 4.8 8.0 0.00 0.10 0.00 97 1013.7
20260510055958 22 209 4.8 8.0 0.00 0.10 0.00 96 1014.1
20260510055953 22 183 6.4 11.3 0.00 0.10 0.00 97 1013.6
20260510055825 22 175 8.0 12.9 0.00 0.10 0.00 97 1013.3
20260510055657 22 304 3.2 4.8 0.05 0.10 0.10 95 1012.6
20260510055651 22 292 0.0 0.0 0.00 0.10 0.10 96 1013.0
20260510055646 22 292 0.0 0.0 0.00 0.10 0.10 96 1012.8
20260510055641 22 292 0.0 0.0 0.00 0.10 0.10 96 1012.9
20260510055636 22 309 0.0 3.2 0.00 0.10 0.10 96 1012.7
20260510055630 22 304 1.6 4.8 0.03 0.10 0.10 96 1012.7
20260510055626 22 104 1.6 6.4 0.00 0.10 0.10 96 1013.6
20260510055618 22 209 4.8 8.0 0.00 0.10 0.00 97 1013.7
20260510055613 22 104 6.4 9.7 0.00 0.10 0.10 96 1013.5
20260510055608 22 209 4.8 8.0 0.00 0.10 0.00 96 1013.8
20260510055603 22 98 1.6 9.7 0.00 0.10 0.10 96 1013.0
20260510055557 22 107 6.4 9.7 0.00 0.10 0.10 96 1013.5
20260510055552 22 194 8.0 11.3 0.00 0.10 0.10 95 1014.4
20260510055546 22 194 4.8 8.0 0.00 0.10 0.10 95 1014.4
20260510055542 22 195 6.4 9.7 0.00 0.10 0.00 96 1014.2
20260510055413 23 203 8.0 12.9 0.00 0.10 0.10 96 1014.0
20260510055407 23 184 6.4 11.3 0.00 0.10 0.10 96 1014.0
20260510055402 23 200 8.0 12.9 0.00 0.10 0.10 95 1014.3
20260510055356 22 200 8.0 12.9 0.00 0.10 0.10 95 1014.4
20260510055352 22 192 4.8 11.3 0.00 0.10 0.10 95 1014.4
20260510055347 22 190 4.8 9.7 0.00 0.10 0.10 96 1014.3
20260510055341 22 194 6.4 9.7 0.00 0.10 0.10 96 1014.3
20260510055336 22 198 4.8 8.0 0.00 0.10 0.00 96 1014.4
20260510055330 22 189 6.4 9.7 0.00 0.10 0.00 96 1014.3
20260510055326 22 191 6.4 9.7 0.00 0.10 0.00 96 1014.4
20260510055321 22 194 6.4 8.0 0.00 0.10 0.00 96 1014.3
20260510055313 22 205 4.8 8.0 0.00 0.10 0.00 96 1014.3
20260510055308 22 183 6.4 11.3 0.00 0.10 0.00 97 1013.6
20260510055306 22 209 4.8 8.0 0.00 0.10 0.00 96 1014.1
20260510055257 22 183 6.4 9.7 0.00 0.10 0.00 97 1013.4
20260510055252 22 175 8.0 12.9 0.00 0.10 0.00 97 1013.3
20260510055128 22 209 4.8 8.0 0.00 0.10 0.00 97 1013.7
20260510055000 22 194 4.8 8.0 0.00 0.10 0.10 95 1014.4
20260510054955 22 195 6.4 9.7 0.00 0.10 0.00 96 1014.2
20260510054826 22 183 6.4 11.3 0.00 0.10 0.00 97 1013.6
20260510054821 22 190 4.8 9.7 0.00 0.10 0.10 96 1014.3
20260510054817 16 340 1.6 6.4 0.00 0.69 0.00 91 1017.7
20260510054810 16 311 3.2 8.0 0.00 0.69 0.00 92 1017.8
20260510054804 15 18 3.2 8.0 0.00 0.69 0.00 92 1017.5
20260510054759 15 0 1.6 8.0 0.00 0.69 0.00 93 1017.6
20260510054753 15 49 1.6 6.4 0.00 0.69 0.00 94 1017.5
20260510054749 22 183 6.4 9.7 0.00 0.10 0.00 97 1013.4
20260510054744 14 48 0.0 4.8 0.00 0.69 0.00 94 1017.4
20260510054738 14 48 1.6 9.7 0.00 0.69 0.00 95 1017.2
20260510054733 22 304 1.6 4.8 0.05 0.10 0.10 95 1012.8
20260510054728 22 304 3.2 4.8 0.05 0.10 0.10 95 1012.6
20260510054723 22 292 0.0 0.0 0.00 0.10 0.10 96 1013.0
20260510054717 22 292 0.0 0.0 0.00 0.10 0.10 96 1012.8
20260510054712 22 191 6.4 9.7 0.00 0.10 0.00 96 1014.4
20260510054705 22 292 0.0 0.0 0.00 0.10 0.10 96 1012.9
20260510054701 22 198 4.8 8.0 0.00 0.10 0.00 96 1014.4
20260510054655 22 309 0.0 3.2 0.00 0.10 0.10 96 1012.7
20260510054651 22 194 6.4 8.0 0.00 0.10 0.00 96 1014.3
20260510054645 22 304 1.6 4.8 0.03 0.10 0.10 96 1012.7
20260510054640 22 189 6.4 9.7 0.00 0.10 0.00 96 1014.3
20260510054634 22 205 4.8 8.0 0.00 0.10 0.00 96 1014.3
20260510054629 22 209 4.8 8.0 0.00 0.10 0.00 96 1014.1
20260510054625 22 209 4.8 8.0 0.00 0.10 0.00 96 1013.8
20260510054619 22 104 1.6 6.4 0.00 0.10 0.10 96 1013.6
20260510054612 22 104 6.4 9.7 0.00 0.10 0.10 96 1013.5
20260510054605 22 98 1.6 9.7 0.00 0.10 0.10 96 1013.0
20260510054600 22 107 6.4 9.7 0.00 0.10 0.10 96 1013.5
20260510054554 22 209 4.8 8.0 0.00 0.10 0.00 97 1013.7
20260510054425 23 203 8.0 12.9 0.00 0.10 0.10 96 1014.0
20260510054419 23 184 6.4 11.3 0.00 0.10 0.10 96 1014.0
20260510054413 23 200 8.0 12.9 0.00 0.10 0.10 95 1014.3
20260510054405 22 200 8.0 12.9 0.00 0.10 0.10 95 1014.4
20260510054400 22 192 4.8 11.3 0.00 0.10 0.10 95 1014.4
20260510054354 22 194 8.0 11.3 0.00 0.10 0.10 95 1014.4
20260510054349 22 194 4.8 8.0 0.00 0.10 0.10 95 1014.4
20260510054343 22 190 4.8 9.7 0.00 0.10 0.10 96 1014.3
20260510054339 22 194 6.4 9.7 0.00 0.10 0.10 96 1014.3
20260510054334 22 195 6.4 9.7 0.00 0.10 0.00 96 1014.2
20260510054328 22 183 6.4 11.3 0.00 0.10 0.00 97 1013.6
20260510054315 22 183 6.4 9.7 0.00 0.10 0.00 97 1013.4
20260510054156 22 198 4.8 8.0 0.00 0.10 0.00 96 1014.4
20260510054151 22 189 6.4 9.7 0.00 0.10 0.00 96 1014.3
20260510054146 22 194 6.4 8.0 0.00 0.10 0.00 96 1014.3
20260510054141 22 205 4.8 8.0 0.00 0.10 0.00 96 1014.3
20260510054137 22 209 4.8 8.0 0.00 0.10 0.00 96 1014.1
20260510054131 22 209 4.8 8.0 0.00 0.10 0.00 96 1013.8
20260510054002 22 292 0.0 0.0 0.00 0.10 0.10 96 1013.0
20260510053957 22 292 0.0 0.0 0.00 0.10 0.10 96 1012.8
20260510053832 22 104 1.6 6.4 0.00 0.10 0.10 96 1013.6
20260510053826 22 183 6.4 11.3 0.00 0.10 0.00 97 1013.6
20260510053821 22 104 6.4 9.7 0.00 0.10 0.10 96 1013.5
20260510053817 22 107 6.4 9.7 0.00 0.10 0.10 96 1013.5
20260510053811 23 177 9.7 12.9 0.00 0.10 0.10 96 1013.7
20260510053803 23 203 8.0 12.9 0.00 0.10 0.10 96 1014.0
20260510053759 23 184 6.4 11.3 0.00 0.10 0.10 96 1014.0
20260510053753 23 200 8.0 12.9 0.00 0.10 0.10 95 1014.3
20260510053748 22 200 8.0 12.9 0.00 0.10 0.10 95 1014.4
20260510053742 22 194 4.8 8.0 0.00 0.10 0.10 95 1014.4
20260510053738 22 192 4.8 11.3 0.00 0.10 0.10 95 1014.4
20260510053732 22 190 4.8 9.7 0.00 0.10 0.10 96 1014.3
20260510053727 22 194 6.4 9.7 0.00 0.10 0.10 96 1014.3
20260510053720 22 195 6.4 9.7 0.00 0.10 0.00 96 1014.2
20260510053715 22 198 4.8 8.0 0.00 0.10 0.00 96 1014.4
20260510053709 22 194 8.0 11.3 0.00 0.10 0.10 95 1014.4
20260510053702 22 189 6.4 9.7 0.00 0.10 0.00 96 1014.3
20260510053658 22 191 6.4 9.7 0.00 0.10 0.00 96 1014.4
20260510053652 22 194 6.4 8.0 0.00 0.10 0.00 96 1014.3
20260510053525 22 209 4.8 8.0 0.00 0.10 0.00 96 1014.1
20260510053520 22 209 4.8 8.0 0.00 0.10 0.00 96 1013.8
20260510053515 22 209 4.8 8.0 0.00 0.10 0.00 97 1013.7
20260510053224 22 190 4.8 9.7 0.00 0.10 0.10 96 1014.3
20260510053218 22 194 6.4 9.7 0.00 0.10 0.10 96 1014.3
20260510053213 22 195 6.4 9.7 0.00 0.10 0.00 96 1014.2
20260510053207 22 198 4.8 8.0 0.00 0.10 0.00 96 1014.4
20260510053040 22 107 6.4 9.7 0.00 0.10 0.10 96 1013.5
20260510053034 23 177 9.7 12.9 0.00 0.10 0.10 96 1013.7
20260510053028 23 203 8.0 12.9 0.00 0.10 0.10 96 1014.0
20260510053023 22 189 6.4 9.7 0.00 0.10 0.00 96 1014.3
20260510053019 22 205 4.8 8.0 0.00 0.10 0.00 96 1014.3
20260510052850 22 191 6.4 9.7 0.00 0.10 0.00 96 1014.4
20260510052844 22 194 6.4 8.0 0.00 0.10 0.00 96 1014.3
20260510052839 22 209 4.8 8.0 0.00 0.10 0.00 96 1014.1
20260510052835 22 209 4.8 8.0 0.00 0.10 0.00 96 1013.8
20260510052829 22 209 4.8 8.0 0.00 0.10 0.00 97 1013.7
20260510052700 22 200 8.0 12.9 0.00 0.10 0.10 95 1014.4
20260510052652 22 192 4.8 11.3 0.00 0.10 0.10 95 1014.4
20260510052647 22 194 8.0 11.3 0.00 0.10 0.10 95 1014.4
20260510052641 22 194 4.8 8.0 0.00 0.10 0.10 95 1014.4
20260510052637 22 190 4.8 9.7 0.00 0.10 0.10 96 1014.3
20260510052631 22 195 6.4 9.7 0.00 0.10 0.00 96 1014.2
20260510052626 22 194 6.4 9.7 0.00 0.10 0.10 96 1014.3
20260510052620 22 198 4.8 8.0 0.00 0.10 0.00 96 1014.4
20260510052451 22 205 4.8 8.0 0.00 0.10 0.00 96 1014.3
20260510052323 14 61 3.2 9.7 0.00 0.69 0.00 95 1017.2
20260510052317 22 194 6.4 8.0 0.00 0.10 0.00 96 1014.3
20260510052313 13 54 4.8 9.7 0.00 0.69 0.00 94 1017.1
20260510052307 22 209 4.8 8.0 0.00 0.10 0.00 96 1014.1
20260510052256 22 209 4.8 8.0 0.00 0.10 0.00 96 1013.8
20260510052249 13 56 9.7 16.1 0.00 0.69 0.00 94 1017.0
20260510052244 22 209 4.8 8.0 0.00 0.10 0.00 97 1013.7
20260510052238 14 0 9.7 16.1 0.00 0.69 0.00 94 1016.8
20260510052234 14 36 1.6 4.8 0.00 0.69 0.00 94 1016.9
20260510052229 14 37 3.2 12.9 0.00 0.69 0.00 93 1016.9
20260510052223 14 52 3.2 12.9 0.00 0.69 0.00 93 1017.0
20260510052218 14 236 1.6 8.0 0.00 0.69 0.00 93 1016.9
20260510052213 14 90 1.6 9.7 0.00 0.69 0.00 93 1016.9
20260510052208 15 61 1.6 9.7 0.00 0.69 0.00 92 1016.9
20260510052202 22 98 1.6 9.7 0.00 0.10 0.10 96 1013.0
20260510052157 15 50 3.2 16.1 0.00 0.69 0.00 92 1017.0
20260510052150 22 304 1.6 4.8 0.05 0.10 0.10 95 1012.8
20260510052146 22 107 6.4 9.7 0.00 0.10 0.10 96 1013.5
20260510052140 22 104 1.6 6.4 0.00 0.10 0.10 96 1013.6
20260510052135 23 203 8.0 12.9 0.00 0.10 0.10 96 1014.0
20260510052130 23 184 6.4 11.3 0.00 0.10 0.10 96 1014.0
20260510052125 23 177 9.7 12.9 0.00 0.10 0.10 96 1013.7
20260510052119 22 195 6.4 9.7 0.00 0.10 0.00 96 1014.2
20260510052115 23 200 8.0 12.9 0.00 0.10 0.10 95 1014.3
20260510052110 22 192 4.8 11.3 0.00 0.10 0.10 95 1014.4
20260510052104 22 304 3.2 4.8 0.05 0.10 0.10 95 1012.6
20260510052100 22 309 0.0 3.2 0.00 0.10 0.10 96 1012.7
20260510052054 22 200 8.0 12.9 0.00 0.10 0.10 95 1014.4
20260510052047 22 198 4.8 8.0 0.00 0.10 0.00 96 1014.4
20260510052042 22 194 8.0 11.3 0.00 0.10 0.10 95 1014.4
20260510052037 22 304 1.6 4.8 0.03 0.10 0.10 96 1012.7
20260510052032 22 194 4.8 8.0 0.00 0.10 0.10 95 1014.4
20260510052027 22 292 0.0 0.0 0.00 0.10 0.10 96 1013.0
20260510052021 22 292 0.0 0.0 0.00 0.10 0.10 96 1012.8
20260510052016 22 292 0.0 0.0 0.00 0.10 0.10 96 1012.9
20260510052012 22 104 6.4 9.7 0.00 0.10 0.10 96 1013.5
20260510052006 22 190 4.8 9.7 0.00 0.10 0.10 96 1014.3
20260510052001 22 205 4.8 8.0 0.00 0.10 0.00 96 1014.3
20260510051835 22 189 6.4 9.7 0.00 0.10 0.00 96 1014.3
20260510051829 22 191 6.4 9.7 0.00 0.10 0.00 96 1014.4
20260510051823 22 194 6.4 8.0 0.00 0.10 0.00 96 1014.3
20260510051818 22 209 4.8 8.0 0.00 0.10 0.00 96 1014.1
20260510051813 22 209 4.8 8.0 0.00 0.10 0.00 96 1013.8
20260510051646 22 104 1.6 6.4 0.00 0.10 0.10 96 1013.6
20260510051640 22 107 6.4 9.7 0.00 0.10 0.10 96 1013.5
20260510051635 23 177 9.7 12.9 0.00 0.10 0.10 96 1013.7
20260510051631 23 203 8.0 12.9 0.00 0.10 0.10 96 1014.0
20260510051625 23 184 6.4 11.3 0.00 0.10 0.10 96 1014.0
20260510051620 22 195 6.4 9.7 0.00 0.10 0.00 96 1014.2
20260510051615 23 200 8.0 12.9 0.00 0.10 0.10 95 1014.3
20260510051611 22 200 8.0 12.9 0.00 0.10 0.10 95 1014.4
20260510051605 22 192 4.8 11.3 0.00 0.10 0.10 95 1014.4
20260510051559 22 198 4.8 8.0 0.00 0.10 0.00 96 1014.4
20260510051554 22 194 8.0 11.3 0.00 0.10 0.10 95 1014.4
20260510051547 22 194 4.8 8.0 0.00 0.10 0.10 95 1014.4
20260510051420 22 190 4.8 9.7 0.00 0.10 0.10 96 1014.3
20260510051254 22 189 6.4 9.7 0.00 0.10 0.00 96 1014.3
20260510051247 22 194 6.4 9.7 0.00 0.10 0.10 96 1014.3
20260510051241 22 209 4.8 8.0 0.00 0.10 0.00 96 1013.8
20260510051236 22 191 6.4 9.7 0.00 0.10 0.00 96 1014.4
20260510051230 22 194 6.4 8.0 0.00 0.10 0.00 96 1014.3
20260510051107 22 198 4.8 8.0 0.00 0.10 0.00 96 1014.4
20260510050820 22 209 4.8 8.0 0.00 0.10 0.00 96 1014.1
20260510050814 23 177 9.7 12.9 0.00 0.10 0.10 96 1013.7
20260510050809 23 203 8.0 12.9 0.00 0.10 0.10 96 1014.0
20260510050804 23 184 6.4 11.3 0.00 0.10 0.10 96 1014.0
20260510050759 23 200 8.0 12.9 0.00 0.10 0.10 95 1014.3
20260510050754 22 200 8.0 12.9 0.00 0.10 0.10 95 1014.4
20260510050746 22 192 4.8 11.3 0.00 0.10 0.10 95 1014.4
20260510050742 22 190 4.8 9.7 0.00 0.10 0.10 96 1014.3
20260510050737 22 194 6.4 9.7 0.00 0.10 0.10 96 1014.3
20260510050733 22 189 6.4 9.7 0.00 0.10 0.00 96 1014.3
20260510050608 22 194 6.4 8.0 0.00 0.10 0.00 96 1014.3
20260510050441 22 292 0.0 0.0 0.00 0.10 0.10 96 1013.0
20260510050437 22 292 0.0 0.0 0.00 0.10 0.10 96 1012.8
20260510050431 22 104 6.4 9.7 0.00 0.10 0.10 96 1013.5
20260510050426 22 98 1.6 9.7 0.00 0.10 0.10 96 1013.0
20260510050422 22 194 8.0 11.3 0.00 0.10 0.10 95 1014.4
20260510050416 22 194 4.8 8.0 0.00 0.10 0.10 95 1014.4
20260510050412 22 195 6.4 9.7 0.00 0.10 0.00 96 1014.2
20260510050406 22 198 4.8 8.0 0.00 0.10 0.00 96 1014.4
20260510050402 22 205 4.8 8.0 0.00 0.10 0.00 96 1014.3
20260510050340 22 209 4.8 8.0 0.00 0.10 0.00 96 1014.1
20260510050230 22 107 6.4 9.7 0.00 0.10 0.10 96 1013.5
20260510050226 23 177 9.7 12.9 0.00 0.10 0.10 96 1013.7
20260510050221 23 203 8.0 12.9 0.00 0.10 0.10 96 1014.0
20260510050215 23 184 6.4 11.3 0.00 0.10 0.10 96 1014.0
20260510050211 23 200 8.0 12.9 0.00 0.10 0.10 95 1014.3
20260510050205 22 190 4.8 9.7 0.00 0.10 0.10 96 1014.3
20260510050200 22 194 6.4 9.7 0.00 0.10 0.10 96 1014.3
20260510050033 22 192 4.8 11.3 0.00 0.10 0.10 95 1014.4
20260510050027 22 189 6.4 9.7 0.00 0.10 0.00 96 1014.3
20260510050022 22 191 6.4 9.7 0.00 0.10 0.00 96 1014.4
20260510050017 22 194 6.4 8.0 0.00 0.10 0.00 96 1014.3
20260510045851 22 194 8.0 11.3 0.00 0.10 0.10 95 1014.4
20260510045845 22 194 4.8 8.0 0.00 0.10 0.10 95 1014.4
20260510045838 22 195 6.4 9.7 0.00 0.10 0.00 96 1014.2
20260510045834 22 198 4.8 8.0 0.00 0.10 0.00 96 1014.4
20260510045828 22 205 4.8 8.0 0.00 0.10 0.00 96 1014.3
20260510045702 22 292 0.0 0.0 0.00 0.10 0.10 96 1012.8
20260510045656 22 104 6.4 9.7 0.00 0.10 0.10 96 1013.5
20260510045651 22 98 1.6 9.7 0.00 0.10 0.10 96 1013.0
20260510045646 22 104 1.6 6.4 0.00 0.10 0.10 96 1013.6
20260510045639 22 190 4.8 9.7 0.00 0.10 0.10 96 1014.3
20260510045634 22 194 6.4 9.7 0.00 0.10 0.10 96 1014.3
20260510045507 22 107 6.4 9.7 0.00 0.10 0.10 96 1013.5
20260510045502 23 177 9.7 12.9 0.00 0.10 0.10 96 1013.7
20260510045456 23 203 8.0 12.9 0.00 0.10 0.10 96 1014.0
20260510045451 23 184 6.4 11.3 0.00 0.10 0.10 96 1014.0
20260510045446 23 200 8.0 12.9 0.00 0.10 0.10 95 1014.3
20260510045439 22 200 8.0 12.9 0.00 0.10 0.10 95 1014.4
20260510045434 22 189 6.4 9.7 0.00 0.10 0.00 96 1014.3
20260510045428 22 191 6.4 9.7 0.00 0.10 0.00 96 1014.4
20260510045424 22 194 6.4 8.0 0.00 0.10 0.00 96 1014.3
20260510045258 22 194 4.8 8.0 0.00 0.10 0.10 95 1014.4
20260510045253 22 195 6.4 9.7 0.00 0.10 0.00 96 1014.2
20260510045247 22 198 4.8 8.0 0.00 0.10 0.00 96 1014.4
20260510045240 22 205 4.8 8.0 0.00 0.10 0.00 96 1014.3
20260510045114 15 57 12.9 19.3 0.00 0.69 0.00 92 1016.9
20260510045108 16 65 14.5 19.3 0.00 0.69 0.00 92 1016.9
20260510045103 16 69 14.5 19.3 0.00 0.69 0.00 92 1016.9
20260510045057 16 55 14.5 17.7 0.00 0.69 0.00 92 1016.8
20260510045051 16 63 14.5 19.3 0.00 0.69 0.00 92 1017.0
20260510045046 22 190 4.8 9.7 0.00 0.10 0.10 96 1014.3
20260510045039 16 0 14.5 20.9 0.00 0.69 0.00 92 1017.1
20260510045035 22 194 6.4 9.7 0.00 0.10 0.10 96 1014.3
20260510045029 16 0 16.1 20.9 0.00 0.69 0.00 91 1017.0
20260510045025 22 303 1.6 6.4 0.05 0.10 0.10 95 1012.9
20260510045021 22 321 3.2 8.0 0.05 0.10 0.10 95 1013.0
20260510045016 22 192 4.8 11.3 0.00 0.10 0.10 95 1014.4
20260510045011 22 304 1.6 4.8 0.05 0.10 0.10 95 1012.8
20260510045007 22 304 3.2 4.8 0.05 0.10 0.10 95 1012.6
20260510045001 22 304 1.6 4.8 0.03 0.10 0.10 96 1012.7
20260510044956 22 309 0.0 3.2 0.00 0.10 0.10 96 1012.7
20260510044950 22 292 0.0 0.0 0.00 0.10 0.10 96 1012.9
20260510044945 22 292 0.0 0.0 0.00 0.10 0.10 96 1013.0
20260510044938 22 292 0.0 0.0 0.00 0.10 0.10 96 1012.8
20260510044932 22 104 6.4 9.7 0.00 0.10 0.10 96 1013.5
20260510044927 22 98 1.6 9.7 0.00 0.10 0.10 96 1013.0
20260510044922 22 104 1.6 6.4 0.00 0.10 0.10 96 1013.6
20260510044917 22 107 6.4 9.7 0.00 0.10 0.10 96 1013.5
20260510044912 22 189 6.4 9.7 0.00 0.10 0.00 96 1014.3
20260510044907 22 194 6.4 8.0 0.00 0.10 0.00 96 1014.3
20260510044902 22 191 6.4 9.7 0.00 0.10 0.00 96 1014.4
20260510044734 23 203 8.0 12.9 0.00 0.10 0.10 96 1014.0
20260510044728 23 184 6.4 11.3 0.00 0.10 0.10 96 1014.0
20260510044723 22 198 4.8 8.0 0.00 0.10 0.00 96 1014.4
20260510044719 23 200 8.0 12.9 0.00 0.10 0.10 95 1014.3
20260510044713 22 200 8.0 12.9 0.00 0.10 0.10 95 1014.4
20260510044709 22 194 8.0 11.3 0.00 0.10 0.10 95 1014.4
20260510044703 22 194 4.8 8.0 0.00 0.10 0.10 95 1014.4
20260510044658 22 195 6.4 9.7 0.00 0.10 0.00 96 1014.2
20260510044532 22 192 4.8 11.3 0.00 0.10 0.10 95 1014.4
20260510044526 22 190 4.8 9.7 0.00 0.10 0.10 96 1014.3
20260510044403 22 191 6.4 9.7 0.00 0.10 0.00 96 1014.4
20260510044341 22 194 6.4 8.0 0.00 0.10 0.00 96 1014.3
20260510044109 22 292 0.0 0.0 0.00 0.10 0.10 96 1013.0
20260510044104 22 104 6.4 9.7 0.00 0.10 0.10 96 1013.5
20260510044059 22 98 1.6 9.7 0.00 0.10 0.10 96 1013.0
20260510044053 22 194 4.8 8.0 0.00 0.10 0.10 95 1014.4
20260510044048 22 192 4.8 11.3 0.00 0.10 0.10 95 1014.4
20260510044042 22 194 6.4 9.7 0.00 0.10 0.10 96 1014.3
20260510044035 22 195 6.4 9.7 0.00 0.10 0.00 96 1014.2
20260510043750 22 107 6.4 9.7 0.00 0.10 0.10 96 1013.5
20260510043745 23 177 9.7 12.9 0.00 0.10 0.10 96 1013.7
20260510043738 23 203 8.0 12.9 0.00 0.10 0.10 96 1014.0
20260510043732 23 184 6.4 11.3 0.00 0.10 0.10 96 1014.0
20260510043727 23 200 8.0 12.9 0.00 0.10 0.10 95 1014.3
20260510043722 22 200 8.0 12.9 0.00 0.10 0.10 95 1014.4
20260510043717 22 191 6.4 9.7 0.00 0.10 0.00 96 1014.4
20260510043713 22 190 4.8 9.7 0.00 0.10 0.10 96 1014.3
20260510043707 22 194 8.0 11.3 0.00 0.10 0.10 95 1014.4
20260510043702 22 198 4.8 8.0 0.00 0.10 0.00 96 1014.4
20260510043535 22 194 4.8 8.0 0.00 0.10 0.10 95 1014.4
20260510043408 16 0 12.9 19.3 0.00 0.69 0.00 90 1017.0
20260510043402 22 195 6.4 9.7 0.00 0.10 0.00 96 1014.2
20260510043357 17 44 14.5 19.3 0.00 0.69 0.00 88 1017.0
20260510043353 22 189 6.4 9.7 0.00 0.10 0.00 96 1014.3
20260510043347 17 63 12.9 19.3 0.00 0.69 0.00 87 1016.9
20260510043342 18 78 14.5 19.3 0.00 0.69 0.00 87 1016.9
20260510043335 18 59 14.5 20.9 0.00 0.69 0.00 88 1017.0
20260510043329 17 67 16.1 20.9 0.00 0.69 0.00 89 1017.2
20260510043324 17 61 12.9 19.3 0.00 0.69 0.00 87 1017.2
20260510043318 17 0 12.9 19.3 0.00 0.69 0.00 87 1017.4
20260510043314 17 71 14.5 19.3 0.00 0.69 0.00 88 1017.6
20260510043308 16 71 11.3 17.7 0.00 0.69 0.00 90 1017.7
20260510043303 16 66 11.3 17.7 0.00 0.69 0.00 89 1017.9
20260510043259 17 61 11.3 16.1 0.00 0.69 0.00 88 1018.0
20260510043254 17 66 11.3 16.1 0.00 0.69 0.00 86 1018.0
20260510043249 22 104 6.4 9.7 0.00 0.10 0.10 96 1013.5
20260510043242 22 191 6.4 9.7 0.00 0.10 0.00 96 1014.4
20260510043236 22 98 1.6 9.7 0.00 0.10 0.10 96 1013.0
20260510043231 22 104 1.6 6.4 0.00 0.10 0.10 96 1013.6
20260510043225 23 177 9.7 12.9 0.00 0.10 0.10 96 1013.7
20260510043220 22 107 6.4 9.7 0.00 0.10 0.10 96 1013.5
20260510043214 23 203 8.0 12.9 0.00 0.10 0.10 96 1014.0
20260510043209 23 184 6.4 11.3 0.00 0.10 0.10 96 1014.0
20260510043205 23 200 8.0 12.9 0.00 0.10 0.10 95 1014.3
20260510043159 22 198 4.8 8.0 0.00 0.10 0.00 96 1014.4
20260510043154 22 200 8.0 12.9 0.00 0.10 0.10 95 1014.4
20260510043148 22 190 4.8 9.7 0.00 0.10 0.10 96 1014.3
20260510043022 22 303 1.6 6.4 0.05 0.10 0.10 95 1012.9
20260510043016 22 321 3.2 8.0 0.05 0.10 0.10 95 1013.0
20260510043011 22 304 1.6 4.8 0.05 0.10 0.10 95 1012.8
20260510043007 22 304 3.2 4.8 0.05 0.10 0.10 95 1012.6
20260510043001 22 304 1.6 4.8 0.03 0.10 0.10 96 1012.7
20260510042956 22 309 0.0 3.2 0.00 0.10 0.10 96 1012.7
20260510042950 22 292 0.0 0.0 0.00 0.10 0.10 96 1012.8
20260510042944 22 292 0.0 0.0 0.00 0.10 0.10 96 1012.9
20260510042938 22 292 0.0 0.0 0.00 0.10 0.10 96 1013.0
20260510042932 22 194 8.0 11.3 0.00 0.10 0.10 95 1014.4
20260510042927 22 192 4.8 11.3 0.00 0.10 0.10 95 1014.4
20260510042921 22 194 4.8 8.0 0.00 0.10 0.10 95 1014.4
20260510042917 22 195 6.4 9.7 0.00 0.10 0.00 96 1014.2
20260510042911 22 194 6.4 9.7 0.00 0.10 0.10 96 1014.3
20260510042906 22 189 6.4 9.7 0.00 0.10 0.00 96 1014.3
20260510042741 22 98 1.6 9.7 0.00 0.10 0.10 96 1013.0
20260510042734 22 104 1.6 6.4 0.00 0.10 0.10 96 1013.6
20260510042729 22 107 6.4 9.7 0.00 0.10 0.10 96 1013.5
20260510042724 23 177 9.7 12.9 0.00 0.10 0.10 96 1013.7
20260510042718 22 198 4.8 8.0 0.00 0.10 0.00 96 1014.4
20260510042714 23 203 8.0 12.9 0.00 0.10 0.10 96 1014.0
20260510042549 22 190 4.8 9.7 0.00 0.10 0.10 96 1014.3
20260510042543 23 200 8.0 12.9 0.00 0.10 0.10 95 1014.3
20260510042537 22 200 8.0 12.9 0.00 0.10 0.10 95 1014.4
20260510042413 22 192 4.8 11.3 0.00 0.10 0.10 95 1014.4
20260510042407 22 194 4.8 8.0 0.00 0.10 0.10 95 1014.4
20260510042403 22 194 6.4 9.7 0.00 0.10 0.10 96 1014.3
20260510042357 22 195 6.4 9.7 0.00 0.10 0.00 96 1014.2
20260510042338 22 189 6.4 9.7 0.00 0.10 0.00 96 1014.3
20260510042103 23 343 1.6 6.4 0.00 0.05 0.05 94 1013.2
20260510042058 23 315 1.6 8.0 0.00 0.05 0.05 94 1013.0
20260510042054 23 203 8.0 12.9 0.00 0.10 0.10 96 1014.0
20260510042049 23 327 3.2 11.3 0.00 0.05 0.05 94 1013.1
20260510042045 23 343 4.8 11.3 0.00 0.05 0.05 94 1013.0
20260510042038 22 190 4.8 9.7 0.00 0.10 0.10 96 1014.3
20260510042034 23 327 4.8 14.5 0.00 0.05 0.05 94 1013.0
20260510042028 22 303 1.6 6.4 0.05 0.10 0.10 95 1012.9
20260510042023 22 321 3.2 8.0 0.05 0.10 0.10 95 1013.0
20260510042019 22 304 1.6 4.8 0.05 0.10 0.10 95 1012.8
20260510042013 22 304 3.2 4.8 0.05 0.10 0.10 95 1012.6
20260510042008 22 304 1.6 4.8 0.03 0.10 0.10 96 1012.7
20260510042002 22 309 0.0 3.2 0.00 0.10 0.10 96 1012.7
20260510041957 22 292 0.0 0.0 0.00 0.10 0.10 96 1012.8
20260510041952 22 292 0.0 0.0 0.00 0.10 0.10 96 1012.9
20260510041947 22 292 0.0 0.0 0.00 0.10 0.10 96 1013.0
20260510041942 22 104 6.4 9.7 0.00 0.10 0.10 96 1013.5
20260510041934 22 98 1.6 9.7 0.00 0.10 0.10 96 1013.0
20260510041930 22 104 1.6 6.4 0.00 0.10 0.10 96 1013.6
20260510041925 22 107 6.4 9.7 0.00 0.10 0.10 96 1013.5
20260510041919 22 194 8.0 11.3 0.00 0.10 0.10 95 1014.4
20260510041754 23 177 9.7 12.9 0.00 0.10 0.10 96 1013.7
20260510041749 23 184 6.4 11.3 0.00 0.10 0.10 96 1014.0
20260510041743 23 200 8.0 12.9 0.00 0.10 0.10 95 1014.3
20260510041736 22 200 8.0 12.9 0.00 0.10 0.10 95 1014.4
20260510041731 22 192 4.8 11.3 0.00 0.10 0.10 95 1014.4
20260510041726 22 198 4.8 8.0 0.00 0.10 0.00 96 1014.4
20260510041721 22 194 4.8 8.0 0.00 0.10 0.10 95 1014.4
20260510041716 22 194 6.4 9.7 0.00 0.10 0.10 96 1014.3
20260510041550 23 203 8.0 12.9 0.00 0.10 0.10 96 1014.0
20260510041302 22 195 6.4 9.7 0.00 0.10 0.00 96 1014.2
20260510041257 19 69 12.9 19.3 0.00 0.69 0.00 82 1018.0
20260510041252 19 77 12.9 17.7 0.00 0.69 0.00 83 1018.0
20260510041247 19 69 12.9 17.7 0.00 0.69 0.00 83 1018.1
20260510041241 22 198 4.8 8.0 0.00 0.10 0.00 96 1014.4
20260510041234 19 59 12.9 16.1 0.00 0.69 0.00 81 1018.2
20260510041229 23 327 6.4 14.5 0.00 0.05 0.05 94 1012.7
20260510041223 23 36 3.2 11.3 0.03 0.05 0.05 94 1012.7
20260510041218 23 340 1.6 6.4 0.03 0.05 0.05 94 1012.7
20260510041213 22 247 3.2 8.0 0.05 0.10 0.10 95 1013.4
20260510041208 22 348 3.2 8.0 0.03 0.08 0.08 95 1013.1
20260510041204 23 343 1.6 6.4 0.00 0.05 0.05 94 1013.2
20260510041158 23 315 1.6 8.0 0.00 0.05 0.05 94 1013.0
20260510041153 23 327 3.2 11.3 0.00 0.05 0.05 94 1013.1
20260510041149 22 192 4.8 11.3 0.00 0.10 0.10 95 1014.4
20260510041143 23 184 6.4 11.3 0.00 0.10 0.10 96 1014.0
20260510041138 23 343 4.8 11.3 0.00 0.05 0.05 94 1013.0
20260510041130 22 292 0.0 0.0 0.00 0.10 0.10 96 1012.8
20260510041125 22 292 0.0 0.0 0.00 0.10 0.10 96 1013.0
20260510041119 23 200 8.0 12.9 0.00 0.10 0.10 95 1014.3
20260510041115 22 200 8.0 12.9 0.00 0.10 0.10 95 1014.4
20260510041109 22 194 4.8 8.0 0.00 0.10 0.10 95 1014.4
20260510041105 22 190 4.8 9.7 0.00 0.10 0.10 96 1014.3
20260510041100 22 194 6.4 9.7 0.00 0.10 0.10 96 1014.3
20260510040930 22 303 1.6 6.4 0.05 0.10 0.10 95 1012.9
20260510040925 22 321 3.2 8.0 0.05 0.10 0.10 95 1013.0
20260510040921 22 304 1.6 4.8 0.05 0.10 0.10 95 1012.8
20260510040915 22 304 3.2 4.8 0.05 0.10 0.10 95 1012.6
20260510040910 22 304 1.6 4.8 0.03 0.10 0.10 96 1012.7
20260510040904 22 309 0.0 3.2 0.00 0.10 0.10 96 1012.7
20260510040859 22 292 0.0 0.0 0.00 0.10 0.10 96 1012.9
20260510040855 22 104 6.4 9.7 0.00 0.10 0.10 96 1013.5
20260510040849 22 98 1.6 9.7 0.00 0.10 0.10 96 1013.0
20260510040845 22 104 1.6 6.4 0.00 0.10 0.10 96 1013.6
20260510040839 22 107 6.4 9.7 0.00 0.10 0.10 96 1013.5
20260510040833 23 177 9.7 12.9 0.00 0.10 0.10 96 1013.7
20260510040827 23 203 8.0 12.9 0.00 0.10 0.10 96 1014.0
20260510040823 22 194 8.0 11.3 0.00 0.10 0.10 95 1014.4
20260510040817 22 195 6.4 9.7 0.00 0.10 0.00 96 1014.2
20260510040652 22 192 4.8 11.3 0.00 0.10 0.10 95 1014.4
20260510040525 23 200 8.0 12.9 0.00 0.10 0.10 95 1014.3
20260510040520 22 190 4.8 9.7 0.00 0.10 0.10 96 1014.3
20260510040514 22 200 8.0 12.9 0.00 0.10 0.10 95 1014.4
20260510040510 22 194 4.8 8.0 0.00 0.10 0.10 95 1014.4
20260510040504 23 327 6.4 14.5 0.00 0.05 0.05 94 1012.7
20260510040459 22 292 0.0 0.0 0.00 0.10 0.10 96 1012.8
20260510040455 22 292 0.0 0.0 0.00 0.10 0.10 96 1013.0
20260510040326 22 104 6.4 9.7 0.00 0.10 0.10 96 1013.5
20260510040321 22 98 1.6 9.7 0.00 0.10 0.10 96 1013.0
20260510040315 22 247 3.2 8.0 0.05 0.10 0.10 95 1013.4
20260510040310 22 348 3.2 8.0 0.03 0.08 0.08 95 1013.1
20260510040306 22 303 1.6 6.4 0.05 0.10 0.10 95 1012.9
20260510040300 22 321 3.2 8.0 0.05 0.10 0.10 95 1013.0
20260510040255 22 304 1.6 4.8 0.05 0.10 0.10 95 1012.8
20260510040251 22 304 3.2 4.8 0.05 0.10 0.10 95 1012.6
20260510040245 22 304 1.6 4.8 0.03 0.10 0.10 96 1012.7
20260510040239 22 195 6.4 9.7 0.00 0.10 0.00 96 1014.2
20260510040232 22 309 0.0 3.2 0.00 0.10 0.10 96 1012.7
20260510040227 22 292 0.0 0.0 0.00 0.10 0.10 96 1012.9
20260510040223 22 104 1.6 6.4 0.00 0.10 0.10 96 1013.6
20260510040217 22 107 6.4 9.7 0.00 0.10 0.10 96 1013.5
20260510040212 23 177 9.7 12.9 0.00 0.10 0.10 96 1013.7
20260510040206 23 203 8.0 12.9 0.00 0.10 0.10 96 1014.0
20260510040202 22 194 8.0 11.3 0.00 0.10 0.10 95 1014.4
20260510040034 22 200 8.0 12.9 0.00 0.10 0.10 95 1014.4
20260510040029 23 200 8.0 12.9 0.00 0.10 0.10 95 1014.3
20260510040023 22 192 4.8 11.3 0.00 0.10 0.10 95 1014.4
20260510040018 22 194 4.8 8.0 0.00 0.10 0.10 95 1014.4
20260510040014 22 190 4.8 9.7 0.00 0.10 0.10 96 1014.3
20260510040008 22 194 6.4 9.7 0.00 0.10 0.10 96 1014.3
20260510035843 22 292 0.0 0.0 0.00 0.10 0.10 96 1013.0
20260510035838 22 104 6.4 9.7 0.00 0.10 0.10 96 1013.5
20260510035831 22 98 1.6 9.7 0.00 0.10 0.10 96 1013.0
20260510035547 22 107 6.4 9.7 0.00 0.10 0.10 96 1013.5
20260510035542 23 177 9.7 12.9 0.00 0.10 0.10 96 1013.7
20260510035536 23 203 8.0 12.9 0.00 0.10 0.10 96 1014.0
20260510035529 23 184 6.4 11.3 0.00 0.10 0.10 96 1014.0
20260510035524 23 200 8.0 12.9 0.00 0.10 0.10 95 1014.3
20260510035518 22 200 8.0 12.9 0.00 0.10 0.10 95 1014.4
20260510035514 22 192 4.8 11.3 0.00 0.10 0.10 95 1014.4
20260510035509 22 194 4.8 8.0 0.00 0.10 0.10 95 1014.4
20260510035503 22 190 4.8 9.7 0.00 0.10 0.10 96 1014.3
20260510035217 23 315 1.6 8.0 0.00 0.05 0.05 94 1013.0
20260510035213 22 247 3.2 8.0 0.05 0.10 0.10 95 1013.4
20260510035207 22 303 1.6 6.4 0.05 0.10 0.10 95 1012.9
20260510035202 22 321 3.2 8.0 0.05 0.10 0.10 95 1013.0
20260510035156 22 304 1.6 4.8 0.05 0.10 0.10 95 1012.8
20260510035151 22 292 0.0 0.0 0.00 0.10 0.10 96 1012.8
20260510035145 22 194 8.0 11.3 0.00 0.10 0.10 95 1014.4
20260510035016 22 304 1.6 4.8 0.03 0.10 0.10 96 1012.7
20260510035011 22 309 0.0 3.2 0.00 0.10 0.10 96 1012.7
20260510035005 22 292 0.0 0.0 0.00 0.10 0.10 96 1012.9
20260510035001 22 292 0.0 0.0 0.00 0.10 0.10 96 1013.0
20260510034956 22 104 6.4 9.7 0.00 0.10 0.10 96 1013.5
20260510034950 22 98 1.6 9.7 0.00 0.10 0.10 96 1013.0
20260510034945 22 104 1.6 6.4 0.00 0.10 0.10 96 1013.6
20260510034939 22 107 6.4 9.7 0.00 0.10 0.10 96 1013.5
20260510034933 23 177 9.7 12.9 0.00 0.10 0.10 96 1013.7
20260510034929 23 203 8.0 12.9 0.00 0.10 0.10 96 1014.0
20260510034922 23 184 6.4 11.3 0.00 0.10 0.10 96 1014.0
20260510034917 22 192 4.8 11.3 0.00 0.10 0.10 95 1014.4
20260510034911 22 194 4.8 8.0 0.00 0.10 0.10 95 1014.4
20260510034907 22 190 4.8 9.7 0.00 0.10 0.10 96 1014.3
20260510034741 22 200 8.0 12.9 0.00 0.10 0.10 95 1014.4
20260510034614 22 292 0.0 0.0 0.00 0.10 0.10 96 1012.8
20260510034449 22 348 3.2 8.0 0.03 0.08 0.08 95 1013.1
20260510034444 22 192 4.8 11.3 0.00 0.10 0.10 95 1014.4
20260510034439 23 343 1.6 6.4 0.00 0.05 0.05 94 1013.2
20260510034434 22 247 3.2 8.0 0.05 0.10 0.10 95 1013.4
20260510034429 22 303 1.6 6.4 0.05 0.10 0.10 95 1012.9
20260510034424 22 321 3.2 8.0 0.05 0.10 0.10 95 1013.0
20260510034416 22 304 1.6 4.8 0.05 0.10 0.10 95 1012.8
20260510034411 22 194 4.8 8.0 0.00 0.10 0.10 95 1014.4
20260510034246 22 304 1.6 4.8 0.03 0.10 0.10 96 1012.7
20260510034241 22 190 4.8 9.7 0.00 0.10 0.10 96 1014.3
20260510034235 22 309 0.0 3.2 0.00 0.10 0.10 96 1012.7
20260510034230 22 98 1.6 9.7 0.00 0.10 0.10 96 1013.0
20260510034225 22 292 0.0 0.0 0.00 0.10 0.10 96 1013.0
20260510034217 22 104 1.6 6.4 0.00 0.10 0.10 96 1013.6
20260510034212 22 107 6.4 9.7 0.00 0.10 0.10 96 1013.5
20260510034207 22 104 6.4 9.7 0.00 0.10 0.10 96 1013.5
20260510034202 23 177 9.7 12.9 0.00 0.10 0.10 96 1013.7
20260510034158 23 203 8.0 12.9 0.00 0.10 0.10 96 1014.0
20260510034152 23 184 6.4 11.3 0.00 0.10 0.10 96 1014.0
20260510034146 23 200 8.0 12.9 0.00 0.10 0.10 95 1014.3
20260510034141 22 200 8.0 12.9 0.00 0.10 0.10 95 1014.4
20260510034135 22 194 8.0 11.3 0.00 0.10 0.10 95 1014.4
20260510034009 22 292 0.0 0.0 0.00 0.10 0.10 96 1012.8
20260510034003 22 192 4.8 11.3 0.00 0.10 0.10 95 1014.4
20260510033716 22 98 1.6 9.7 0.00 0.10 0.10 96 1013.0
20260510033709 22 104 1.6 6.4 0.00 0.10 0.10 96 1013.6
20260510033705 23 343 4.8 11.3 0.00 0.05 0.05 94 1013.0
20260510033700 22 292 0.0 0.0 0.00 0.10 0.10 96 1013.0
20260510033654 22 107 6.4 9.7 0.00 0.10 0.10 96 1013.5
20260510033649 23 327 4.8 14.5 0.00 0.05 0.05 94 1013.0
20260510033643 23 315 1.6 8.0 0.00 0.05 0.05 94 1013.0
20260510033638 23 177 9.7 12.9 0.00 0.10 0.10 96 1013.7
20260510033632 22 348 3.2 8.0 0.03 0.08 0.08 95 1013.1
20260510033628 23 203 8.0 12.9 0.00 0.10 0.10 96 1014.0
20260510033623 23 184 6.4 11.3 0.00 0.10 0.10 96 1014.0
20260510033617 23 200 8.0 12.9 0.00 0.10 0.10 95 1014.3
20260510033610 22 200 8.0 12.9 0.00 0.10 0.10 95 1014.4
20260510033606 22 194 8.0 11.3 0.00 0.10 0.10 95 1014.4
20260510033438 22 247 3.2 8.0 0.05 0.10 0.10 95 1013.4
20260510033433 22 303 1.6 6.4 0.05 0.10 0.10 95 1012.9
20260510033427 22 321 3.2 8.0 0.05 0.10 0.10 95 1013.0
20260510033423 22 304 1.6 4.8 0.05 0.10 0.10 95 1012.8
20260510033418 22 304 3.2 4.8 0.05 0.10 0.10 95 1012.6
20260510033412 22 304 1.6 4.8 0.03 0.10 0.10 96 1012.7
20260510033405 22 192 4.8 11.3 0.00 0.10 0.10 95 1014.4
20260510033359 22 309 0.0 3.2 0.00 0.10 0.10 96 1012.7
20260510033339 22 194 4.8 8.0 0.00 0.10 0.10 95 1014.4
20260510033228 22 292 0.0 0.0 0.00 0.10 0.10 96 1012.8
20260510033222 22 292 0.0 0.0 0.00 0.10 0.10 96 1013.0
20260510033218 22 104 6.4 9.7 0.00 0.10 0.10 96 1013.5
20260510033212 22 98 1.6 9.7 0.00 0.10 0.10 96 1013.0
20260510033205 22 104 1.6 6.4 0.00 0.10 0.10 96 1013.6
20260510033159 22 107 6.4 9.7 0.00 0.10 0.10 96 1013.5
20260510033154 23 177 9.7 12.9 0.00 0.10 0.10 96 1013.7
20260510033149 23 203 8.0 12.9 0.00 0.10 0.10 96 1014.0
20260510033025 23 200 8.0 12.9 0.00 0.10 0.10 95 1014.3
20260510033019 22 200 8.0 12.9 0.00 0.10 0.10 95 1014.4
20260510033014 22 194 8.0 11.3 0.00 0.10 0.10 95 1014.4
20260510032728 23 327 3.2 11.3 0.00 0.05 0.05 94 1013.1
20260510032723 23 315 1.6 8.0 0.00 0.05 0.05 94 1013.0
20260510032717 22 348 3.2 8.0 0.03 0.08 0.08 95 1013.1
20260510032713 23 343 1.6 6.4 0.00 0.05 0.05 94 1013.2
20260510032545 22 303 1.6 6.4 0.05 0.10 0.10 95 1012.9
20260510032540 22 321 3.2 8.0 0.05 0.10 0.10 95 1013.0
20260510032535 22 304 1.6 4.8 0.05 0.10 0.10 95 1012.8
20260510032530 22 304 3.2 4.8 0.05 0.10 0.10 95 1012.6
20260510032525 22 304 1.6 4.8 0.03 0.10 0.10 96 1012.7
20260510032520 22 104 6.4 9.7 0.00 0.10 0.10 96 1013.5
20260510032515 22 98 1.6 9.7 0.00 0.10 0.10 96 1013.0
20260510032510 23 200 8.0 12.9 0.00 0.10 0.10 95 1014.3
20260510032344 22 104 1.6 6.4 0.00 0.10 0.10 96 1013.6
20260510032338 22 292 0.0 0.0 0.00 0.10 0.10 96 1012.9
20260510032333 22 292 0.0 0.0 0.00 0.10 0.10 96 1012.8
20260510032328 22 292 0.0 0.0 0.00 0.10 0.10 96 1013.0
20260510032323 22 107 6.4 9.7 0.00 0.10 0.10 96 1013.5
20260510032317 23 177 9.7 12.9 0.00 0.10 0.10 96 1013.7
20260510032313 23 203 8.0 12.9 0.00 0.10 0.10 96 1014.0
20260510032308 23 184 6.4 11.3 0.00 0.10 0.10 96 1014.0
20260510032305 22 194 8.0 11.3 0.00 0.10 0.10 95 1014.4
20260510032256 22 200 8.0 12.9 0.00 0.10 0.10 95 1014.4
20260510032248 22 192 4.8 11.3 0.00 0.10 0.10 95 1014.4
20260510032123 23 315 1.6 8.0 0.00 0.05 0.05 94 1013.0
20260510032118 22 348 3.2 8.0 0.03 0.08 0.08 95 1013.1
20260510031950 22 247 3.2 8.0 0.05 0.10 0.10 95 1013.4
20260510031944 22 104 6.4 9.7 0.00 0.10 0.10 96 1013.5
20260510031940 22 321 3.2 8.0 0.05 0.10 0.10 95 1013.0
20260510031935 19 67 11.3 17.7 0.00 0.69 0.00 82 1018.3
20260510031929 23 200 8.0 12.9 0.00 0.10 0.10 95 1014.3
20260510031925 19 72 12.9 17.7 0.00 0.69 0.00 81 1018.3
20260510031919 22 98 1.6 9.7 0.00 0.10 0.10 96 1013.0
20260510031914 22 303 1.6 6.4 0.05 0.10 0.10 95 1012.9
20260510031908 22 304 1.6 4.8 0.05 0.10 0.10 95 1012.8
20260510031903 19 80 9.7 12.9 0.00 0.69 0.00 81 1018.2
20260510031858 22 104 1.6 6.4 0.00 0.10 0.10 96 1013.6
20260510031850 19 73 11.3 17.7 0.00 0.69 0.00 80 1018.1
20260510031846 19 70 11.3 17.7 0.00 0.69 0.00 81 1018.2
20260510031841 19 69 12.9 17.7 0.00 0.69 0.69 79 1018.3
20260510031835 19 71 14.5 20.9 0.00 0.69 0.69 81 1018.1
20260510031831 19 74 14.5 20.9 0.00 0.69 0.69 79 1018.1
20260510031826 19 71 14.5 19.3 0.00 0.69 0.69 79 1018.2
20260510031820 19 75 12.9 17.7 0.00 0.69 0.69 79 1018.2
20260510031815 23 338 1.6 6.4 0.03 0.05 0.05 93 1012.8
20260510031809 23 292 1.6 6.4 0.03 0.08 0.05 93 1012.9
20260510031804 22 304 3.2 4.8 0.05 0.10 0.10 95 1012.6
20260510031758 23 306 3.2 8.0 0.03 0.33 0.05 92 1012.7
20260510031751 22 304 1.6 4.8 0.03 0.10 0.10 96 1012.7
20260510031747 22 309 0.0 3.2 0.00 0.10 0.10 96 1012.7
20260510031741 22 292 0.0 0.0 0.00 0.10 0.10 96 1012.9
20260510031736 22 194 8.0 11.3 0.00 0.10 0.10 95 1014.4
20260510031732 22 292 0.0 0.0 0.00 0.10 0.10 96 1012.8
20260510031726 22 292 0.0 0.0 0.00 0.10 0.10 96 1013.0
20260510031721 23 177 9.7 12.9 0.00 0.10 0.10 96 1013.7
20260510031716 22 107 6.4 9.7 0.00 0.10 0.10 96 1013.5
20260510031711 22 200 8.0 12.9 0.00 0.10 0.10 95 1014.4
20260510031705 23 184 6.4 11.3 0.00 0.10 0.10 96 1014.0
20260510031700 23 203 8.0 12.9 0.00 0.10 0.10 96 1014.0
20260510031531 23 36 3.2 11.3 0.03 0.05 0.05 94 1012.7
20260510031525 23 343 4.8 11.3 0.00 0.05 0.05 94 1013.0
20260510031519 23 327 4.8 14.5 0.00 0.05 0.05 94 1013.0
20260510031515 23 327 6.4 14.5 0.00 0.05 0.05 94 1012.7
20260510031510 23 327 3.2 11.3 0.00 0.05 0.05 94 1013.1
20260510031504 22 104 6.4 9.7 0.00 0.10 0.10 96 1013.5
20260510031459 23 315 1.6 8.0 0.00 0.05 0.05 94 1013.0
20260510031453 22 348 3.2 8.0 0.03 0.08 0.08 95 1013.1
20260510031449 23 343 1.6 6.4 0.00 0.05 0.05 94 1013.2
20260510031442 23 200 8.0 12.9 0.00 0.10 0.10 95 1014.3
20260510031437 22 247 3.2 8.0 0.05 0.10 0.10 95 1013.4
20260510031431 22 98 1.6 9.7 0.00 0.10 0.10 96 1013.0
20260510031427 22 303 1.6 6.4 0.05 0.10 0.10 95 1012.9
20260510031421 22 321 3.2 8.0 0.05 0.10 0.10 95 1013.0
20260510031416 22 304 1.6 4.8 0.05 0.10 0.10 95 1012.8
20260510031410 22 104 1.6 6.4 0.00 0.10 0.10 96 1013.6
20260510031243 22 194 8.0 11.3 0.00 0.10 0.10 95 1014.4
20260510031237 22 304 1.6 4.8 0.03 0.10 0.10 96 1012.7
20260510031233 22 309 0.0 3.2 0.00 0.10 0.10 96 1012.7
20260510031227 22 200 8.0 12.9 0.00 0.10 0.10 95 1014.4
20260510031222 22 292 0.0 0.0 0.00 0.10 0.10 96 1012.9
20260510031218 22 292 0.0 0.0 0.00 0.10 0.10 96 1012.8
20260510031212 22 292 0.0 0.0 0.00 0.10 0.10 96 1013.0
20260510031207 22 107 6.4 9.7 0.00 0.10 0.10 96 1013.5
20260510031203 23 177 9.7 12.9 0.00 0.10 0.10 96 1013.7
20260510031157 23 203 8.0 12.9 0.00 0.10 0.10 96 1014.0
20260510031152 23 184 6.4 11.3 0.00 0.10 0.10 96 1014.0
20260510031026 19 0 12.9 19.3 0.00 0.69 0.69 78 1018.3
20260510031020 19 71 12.9 17.7 0.00 0.69 0.69 77 1018.4
20260510031014 19 85 11.3 17.7 0.00 0.69 0.69 77 1018.2
20260510031009 24 355 3.2 11.3 0.03 0.38 0.05 91 1012.7
20260510031005 24 350 4.8 11.3 0.00 0.38 0.03 90 1012.6
20260510030959 23 338 1.6 6.4 0.03 0.05 0.05 93 1012.8
20260510030954 23 292 1.6 6.4 0.03 0.08 0.05 93 1012.9
20260510030949 22 104 6.4 9.7 0.00 0.10 0.10 96 1013.5
20260510030941 23 200 8.0 12.9 0.00 0.10 0.10 95 1014.3
20260510030937 22 98 1.6 9.7 0.00 0.10 0.10 96 1013.0
20260510030812 23 340 1.6 6.4 0.03 0.05 0.05 94 1012.7
20260510030806 23 36 3.2 11.3 0.03 0.05 0.05 94 1012.7
20260510030802 23 343 4.8 11.3 0.00 0.05 0.05 94 1013.0
20260510030756 22 104 1.6 6.4 0.00 0.10 0.10 96 1013.6
20260510030751 23 327 4.8 14.5 0.00 0.05 0.05 94 1013.0
20260510030747 22 200 8.0 12.9 0.00 0.10 0.10 95 1014.4
20260510030741 23 327 6.4 14.5 0.00 0.05 0.05 94 1012.7
20260510030734 23 327 3.2 11.3 0.00 0.05 0.05 94 1013.1
20260510030729 23 315 1.6 8.0 0.00 0.05 0.05 94 1013.0
20260510030723 22 348 3.2 8.0 0.03 0.08 0.08 95 1013.1
20260510030719 23 343 1.6 6.4 0.00 0.05 0.05 94 1013.2
20260510030713 22 247 3.2 8.0 0.05 0.10 0.10 95 1013.4
20260510030709 22 303 1.6 6.4 0.05 0.10 0.10 95 1012.9
20260510030704 22 321 3.2 8.0 0.05 0.10 0.10 95 1013.0
20260510030658 22 304 1.6 4.8 0.05 0.10 0.10 95 1012.8
20260510030653 22 107 6.4 9.7 0.00 0.10 0.10 96 1013.5
20260510030649 22 304 3.2 4.8 0.05 0.10 0.10 95 1012.6
20260510030643 22 304 1.6 4.8 0.03 0.10 0.10 96 1012.7
20260510030636 22 309 0.0 3.2 0.00 0.10 0.10 96 1012.7
20260510030630 22 292 0.0 0.0 0.00 0.10 0.10 96 1012.9
20260510030625 22 292 0.0 0.0 0.00 0.10 0.10 96 1012.8
20260510030619 22 292 0.0 0.0 0.00 0.10 0.10 96 1013.0
20260510030614 23 177 9.7 12.9 0.00 0.10 0.10 96 1013.7
20260510030608 23 203 8.0 12.9 0.00 0.10 0.10 96 1014.0
20260510030603 23 184 6.4 11.3 0.00 0.10 0.10 96 1014.0
20260510030439 23 200 8.0 12.9 0.00 0.10 0.10 95 1014.3
20260510030312 22 104 1.6 6.4 0.00 0.10 0.10 96 1013.6
20260510030301 22 200 8.0 12.9 0.00 0.10 0.10 95 1014.4
20260510030018 23 184 6.4 11.3 0.00 0.10 0.10 96 1014.0
20260510030013 23 203 8.0 12.9 0.00 0.10 0.10 96 1014.0
20260510025847 23 200 8.0 12.9 0.00 0.10 0.10 95 1014.3
20260510025720 23 292 1.6 6.4 0.03 0.08 0.05 93 1012.9
20260510025714 22 104 1.6 6.4 0.00 0.10 0.10 96 1013.6
20260510025710 23 340 1.6 6.4 0.03 0.05 0.05 94 1012.7
20260510025705 23 36 3.2 11.3 0.03 0.05 0.05 94 1012.7
20260510025659 22 104 6.4 9.7 0.00 0.10 0.10 96 1013.5
20260510025655 23 343 4.8 11.3 0.00 0.05 0.05 94 1013.0
20260510025649 23 327 4.8 14.5 0.00 0.05 0.05 94 1013.0
20260510025644 23 327 6.4 14.5 0.00 0.05 0.05 94 1012.7
20260510025639 23 327 3.2 11.3 0.00 0.05 0.05 94 1013.1
20260510025634 23 315 1.6 8.0 0.00 0.05 0.05 94 1013.0
20260510025629 22 348 3.2 8.0 0.03 0.08 0.08 95 1013.1
20260510025621 23 343 1.6 6.4 0.00 0.05 0.05 94 1013.2
20260510025616 22 247 3.2 8.0 0.05 0.10 0.10 95 1013.4
20260510025611 22 303 1.6 6.4 0.05 0.10 0.10 95 1012.9
20260510025606 22 107 6.4 9.7 0.00 0.10 0.10 96 1013.5
20260510025600 22 321 3.2 8.0 0.05 0.10 0.10 95 1013.0
20260510025555 22 292 0.0 0.0 0.00 0.10 0.10 96 1013.0
20260510025549 22 304 1.6 4.8 0.05 0.10 0.10 95 1012.8
20260510025545 22 309 0.0 3.2 0.00 0.10 0.10 96 1012.7
20260510025540 22 292 0.0 0.0 0.00 0.10 0.10 96 1012.9
20260510025534 22 292 0.0 0.0 0.00 0.10 0.10 96 1012.8
20260510025529 22 98 1.6 9.7 0.00 0.10 0.10 96 1013.0
20260510025523 23 177 9.7 12.9 0.00 0.10 0.10 96 1013.7
20260510025516 23 203 8.0 12.9 0.00 0.10 0.10 96 1014.0
20260510025510 23 184 6.4 11.3 0.00 0.10 0.10 96 1014.0
20260510025224 22 304 1.6 4.8 0.03 0.10 0.10 96 1012.7
20260510025218 22 104 6.4 9.7 0.00 0.10 0.10 96 1013.5
20260510025211 22 104 1.6 6.4 0.00 0.10 0.10 96 1013.6
20260510025044 22 309 0.0 3.2 0.00 0.10 0.10 96 1012.7
20260510025039 22 292 0.0 0.0 0.00 0.10 0.10 96 1012.9
20260510025034 22 292 0.0 0.0 0.00 0.10 0.10 96 1012.8
20260510025030 22 292 0.0 0.0 0.00 0.10 0.10 96 1013.0
20260510025024 22 98 1.6 9.7 0.00 0.10 0.10 96 1013.0
20260510025018 23 177 9.7 12.9 0.00 0.10 0.10 96 1013.7
20260510025012 23 203 8.0 12.9 0.00 0.10 0.10 96 1014.0
20260510024725 22 104 1.6 6.4 0.00 0.10 0.10 96 1013.6
20260510024438 19 70 12.9 19.3 0.00 0.69 0.69 75 1018.0
20260510024432 20 74 12.9 19.3 0.00 0.69 0.69 75 1017.8
20260510024427 20 78 12.9 20.9 0.00 0.69 0.69 74 1017.7
20260510024422 20 77 12.9 20.9 0.00 0.69 0.69 74 1017.6
20260510024417 20 84 14.5 19.3 0.00 0.69 0.69 74 1017.4
20260510024412 20 0 14.5 22.5 0.00 0.69 0.69 73 1017.3
20260510024406 25 344 6.4 16.1 0.00 0.74 0.03 89 1012.5
20260510024359 24 355 3.2 11.3 0.03 0.38 0.05 91 1012.7
20260510024355 24 350 4.8 11.3 0.00 0.38 0.03 90 1012.6
20260510024349 23 338 1.6 6.4 0.03 0.05 0.05 93 1012.8
20260510024344 23 340 1.6 6.4 0.03 0.05 0.05 94 1012.7
20260510024338 23 36 3.2 11.3 0.03 0.05 0.05 94 1012.7
20260510024334 23 327 4.8 14.5 0.00 0.05 0.05 94 1013.0
20260510024328 22 247 3.2 8.0 0.05 0.10 0.10 95 1013.4
20260510024323 22 321 3.2 8.0 0.05 0.10 0.10 95 1013.0
20260510024319 23 177 9.7 12.9 0.00 0.10 0.10 96 1013.7
20260510024313 23 203 8.0 12.9 0.00 0.10 0.10 96 1014.0
20260510024307 23 343 4.8 11.3 0.00 0.05 0.05 94 1013.0
20260510024300 22 303 1.6 6.4 0.05 0.10 0.10 95 1012.9
20260510024255 22 304 1.6 4.8 0.05 0.10 0.10 95 1012.8
20260510024251 22 304 3.2 4.8 0.05 0.10 0.10 95 1012.6
20260510024245 22 309 0.0 3.2 0.00 0.10 0.10 96 1012.7
20260510024240 23 184 6.4 11.3 0.00 0.10 0.10 96 1014.0
20260510024236 22 304 1.6 4.8 0.03 0.10 0.10 96 1012.7
20260510024230 22 292 0.0 0.0 0.00 0.10 0.10 96 1012.9
20260510024225 22 292 0.0 0.0 0.00 0.10 0.10 96 1012.8
20260510024219 22 292 0.0 0.0 0.00 0.10 0.10 96 1013.0
20260510024214 22 98 1.6 9.7 0.00 0.10 0.10 96 1013.0
20260510024208 23 306 3.2 8.0 0.03 0.33 0.05 92 1012.7
20260510024042 22 104 1.6 6.4 0.00 0.10 0.10 96 1013.6
20260510024036 22 107 6.4 9.7 0.00 0.10 0.10 96 1013.5
20260510024030 22 104 6.4 9.7 0.00 0.10 0.10 96 1013.5
20260510024025 23 327 6.4 14.5 0.00 0.05 0.05 94 1012.7
20260510024019 23 327 3.2 11.3 0.00 0.05 0.05 94 1013.1
20260510024015 23 315 1.6 8.0 0.00 0.05 0.05 94 1013.0
20260510024010 22 348 3.2 8.0 0.03 0.08 0.08 95 1013.1
20260510024004 23 343 1.6 6.4 0.00 0.05 0.05 94 1013.2
20260510023838 23 177 9.7 12.9 0.00 0.10 0.10 96 1013.7
20260510023832 23 203 8.0 12.9 0.00 0.10 0.10 96 1014.0
20260510023827 23 340 1.6 6.4 0.03 0.05 0.05 94 1012.7
20260510023822 23 36 3.2 11.3 0.03 0.05 0.05 94 1012.7
20260510023816 23 343 4.8 11.3 0.00 0.05 0.05 94 1013.0
20260510023812 23 327 4.8 14.5 0.00 0.05 0.05 94 1013.0
20260510023807 22 247 3.2 8.0 0.05 0.10 0.10 95 1013.4
20260510023802 22 303 1.6 6.4 0.05 0.10 0.10 95 1012.9
20260510023754 22 321 3.2 8.0 0.05 0.10 0.10 95 1013.0
20260510023749 22 304 1.6 4.8 0.05 0.10 0.10 95 1012.8
20260510023744 22 304 3.2 4.8 0.05 0.10 0.10 95 1012.6
20260510023740 22 304 1.6 4.8 0.03 0.10 0.10 96 1012.7
20260510023734 22 309 0.0 3.2 0.00 0.10 0.10 96 1012.7
20260510023729 22 292 0.0 0.0 0.00 0.10 0.10 96 1012.9
20260510023723 22 292 0.0 0.0 0.00 0.10 0.10 96 1013.0
20260510023717 22 292 0.0 0.0 0.00 0.10 0.10 96 1012.8
20260510023713 22 98 1.6 9.7 0.00 0.10 0.10 96 1013.0
20260510023547 22 104 1.6 6.4 0.00 0.10 0.10 96 1013.6
20260510023541 22 107 6.4 9.7 0.00 0.10 0.10 96 1013.5
20260510023416 23 327 3.2 11.3 0.00 0.05 0.05 94 1013.1
20260510023411 23 315 1.6 8.0 0.00 0.05 0.05 94 1013.0
20260510023405 22 348 3.2 8.0 0.03 0.08 0.08 95 1013.1
20260510023401 23 343 1.6 6.4 0.00 0.05 0.05 94 1013.2
20260510023356 23 177 9.7 12.9 0.00 0.10 0.10 96 1013.7
20260510023335 23 203 8.0 12.9 0.00 0.10 0.10 96 1014.0
20260510023223 22 292 0.0 0.0 0.00 0.10 0.10 96 1013.0
20260510023217 20 85 16.1 22.5 0.00 0.69 0.69 73 1017.1
20260510023212 22 321 3.2 8.0 0.05 0.10 0.10 95 1013.0
20260510023207 22 303 1.6 6.4 0.05 0.10 0.10 95 1012.9
20260510023202 20 91 16.1 20.9 0.00 0.69 0.69 72 1017.1
20260510023156 20 86 16.1 22.5 0.00 0.69 0.69 71 1017.1
20260510023149 20 0 14.5 22.5 0.00 0.69 0.69 71 1017.1
20260510023144 20 0 17.7 22.5 0.00 0.69 0.69 70 1017.1
20260510023138 20 0 19.3 24.1 0.00 0.69 0.69 70 1017.0
20260510023133 21 76 19.3 25.7 0.00 0.69 0.69 70 1017.0
20260510023127 21 80 19.3 29.0 0.00 0.69 0.69 69 1017.1
20260510023123 21 91 20.9 29.0 0.00 0.69 0.69 70 1017.1
20260510023118 25 10 6.4 16.1 0.00 0.74 0.03 89 1012.3
20260510023112 25 344 6.4 16.1 0.00 0.74 0.03 89 1012.5
20260510023106 22 304 1.6 4.8 0.05 0.10 0.10 95 1012.8
20260510023101 22 309 0.0 3.2 0.00 0.10 0.10 96 1012.7
20260510023055 24 355 3.2 11.3 0.03 0.38 0.05 91 1012.7
20260510023048 22 304 3.2 4.8 0.05 0.10 0.10 95 1012.6
20260510023044 22 304 1.6 4.8 0.03 0.10 0.10 96 1012.7
20260510023039 22 292 0.0 0.0 0.00 0.10 0.10 96 1012.9
20260510023033 22 292 0.0 0.0 0.00 0.10 0.10 96 1012.8
20260510023028 22 98 1.6 9.7 0.00 0.10 0.10 96 1013.0
20260510023022 22 104 1.6 6.4 0.00 0.10 0.10 96 1013.6
20260510023017 22 104 6.4 9.7 0.00 0.10 0.10 96 1013.5
20260510023011 24 350 4.8 11.3 0.00 0.38 0.03 90 1012.6
20260510023007 23 306 3.2 8.0 0.03 0.33 0.05 92 1012.7
20260510023002 22 107 6.4 9.7 0.00 0.10 0.10 96 1013.5
20260510022835 23 338 1.6 6.4 0.03 0.05 0.05 93 1012.8
20260510022830 23 340 1.6 6.4 0.03 0.05 0.05 94 1012.7
20260510022826 23 36 3.2 11.3 0.03 0.05 0.05 94 1012.7
20260510022820 23 177 9.7 12.9 0.00 0.10 0.10 96 1013.7
20260510022815 23 343 4.8 11.3 0.00 0.05 0.05 94 1013.0
20260510022809 23 327 4.8 14.5 0.00 0.05 0.05 94 1013.0
20260510022803 23 327 6.4 14.5 0.00 0.05 0.05 94 1012.7
20260510022759 23 327 3.2 11.3 0.00 0.05 0.05 94 1013.1
20260510022754 23 315 1.6 8.0 0.00 0.05 0.05 94 1013.0
20260510022749 22 348 3.2 8.0 0.03 0.08 0.08 95 1013.1
20260510022740 23 343 1.6 6.4 0.00 0.05 0.05 94 1013.2
20260510022735 22 247 3.2 8.0 0.05 0.10 0.10 95 1013.4
20260510022731 22 292 0.0 0.0 0.00 0.10 0.10 96 1013.0
20260510022725 22 303 1.6 6.4 0.05 0.10 0.10 95 1012.9
20260510022720 22 321 3.2 8.0 0.05 0.10 0.10 95 1013.0
20260510022553 22 304 3.2 4.8 0.05 0.10 0.10 95 1012.6
20260510022548 22 304 1.6 4.8 0.03 0.10 0.10 96 1012.7
20260510022541 22 309 0.0 3.2 0.00 0.10 0.10 96 1012.7
20260510022536 22 292 0.0 0.0 0.00 0.10 0.10 96 1012.9
20260510022530 22 292 0.0 0.0 0.00 0.10 0.10 96 1012.8
20260510022524 22 98 1.6 9.7 0.00 0.10 0.10 96 1013.0
20260510022519 22 104 6.4 9.7 0.00 0.10 0.10 96 1013.5
20260510022514 22 104 1.6 6.4 0.00 0.10 0.10 96 1013.6
20260510022509 22 107 6.4 9.7 0.00 0.10 0.10 96 1013.5
20260510022059 23 327 4.8 14.5 0.00 0.05 0.05 94 1013.0
20260510022054 23 327 3.2 11.3 0.00 0.05 0.05 94 1013.1
20260510022049 23 315 1.6 8.0 0.00 0.05 0.05 94 1013.0
20260510022044 22 303 1.6 6.4 0.05 0.10 0.10 95 1012.9
20260510022040 22 348 3.2 8.0 0.03 0.08 0.08 95 1013.1
20260510021911 22 247 3.2 8.0 0.05 0.10 0.10 95 1013.4
20260510021905 22 304 1.6 4.8 0.05 0.10 0.10 95 1012.8
20260510021900 22 304 3.2 4.8 0.05 0.10 0.10 95 1012.6
20260510021854 22 304 1.6 4.8 0.03 0.10 0.10 96 1012.7
20260510021849 22 104 6.4 9.7 0.00 0.10 0.10 96 1013.5
20260510021843 22 309 0.0 3.2 0.00 0.10 0.10 96 1012.7
20260510021839 22 104 1.6 6.4 0.00 0.10 0.10 96 1013.6
20260510021831 22 292 0.0 0.0 0.00 0.10 0.10 96 1012.9
20260510021827 22 107 6.4 9.7 0.00 0.10 0.10 96 1013.5
20260510021821 22 292 0.0 0.0 0.00 0.10 0.10 96 1012.8
20260510021816 22 98 1.6 9.7 0.00 0.10 0.10 96 1013.0
20260510021650 22 292 0.0 0.0 0.00 0.10 0.10 96 1013.0
20260510021400 22 104 6.4 9.7 0.00 0.10 0.10 96 1013.5
20260510021355 22 104 1.6 6.4 0.00 0.10 0.10 96 1013.6
20260510021337 22 107 6.4 9.7 0.00 0.10 0.10 96 1013.5
20260510021223 22 304 1.6 4.8 0.03 0.10 0.10 96 1012.7
20260510021219 22 309 0.0 3.2 0.00 0.10 0.10 96 1012.7
20260510021213 22 292 0.0 0.0 0.00 0.10 0.10 96 1012.9
20260510021208 22 292 0.0 0.0 0.00 0.10 0.10 96 1012.8
20260510021203 22 98 1.6 9.7 0.00 0.10 0.10 96 1013.0
20260510020915 22 348 3.2 8.0 0.03 0.08 0.08 95 1013.1
20260510020910 23 343 1.6 6.4 0.00 0.05 0.05 94 1013.2
20260510020904 22 321 3.2 8.0 0.05 0.10 0.10 95 1013.0
20260510020859 22 247 3.2 8.0 0.05 0.10 0.10 95 1013.4
20260510020853 22 104 6.4 9.7 0.00 0.10 0.10 96 1013.5
20260510020848 22 303 1.6 6.4 0.05 0.10 0.10 95 1012.9
20260510020843 22 104 1.6 6.4 0.00 0.10 0.10 96 1013.6
20260510020716 22 304 3.2 4.8 0.05 0.10 0.10 95 1012.6
20260510020712 22 309 0.0 3.2 0.00 0.10 0.10 96 1012.7
20260510020549 23 315 1.6 8.0 0.00 0.05 0.05 94 1013.0
20260510020544 22 292 0.0 0.0 0.00 0.10 0.10 96 1012.9
20260510020538 22 304 1.6 4.8 0.03 0.10 0.10 96 1012.7
20260510020532 22 292 0.0 0.0 0.00 0.10 0.10 96 1012.8
20260510020527 22 292 0.0 0.0 0.00 0.10 0.10 96 1013.0
20260510020522 22 98 1.6 9.7 0.00 0.10 0.10 96 1013.0
20260510020355 23 343 1.6 6.4 0.00 0.05 0.05 94 1013.2
20260510020350 22 247 3.2 8.0 0.05 0.10 0.10 95 1013.4
20260510020344 22 321 3.2 8.0 0.05 0.10 0.10 95 1013.0
20260510020340 22 303 1.6 6.4 0.05 0.10 0.10 95 1012.9
20260510020334 22 104 6.4 9.7 0.00 0.10 0.10 96 1013.5
20260510020319 22 104 1.6 6.4 0.00 0.10 0.10 96 1013.6
20260510020204 22 304 3.2 4.8 0.05 0.10 0.10 95 1012.6
20260510020158 22 309 0.0 3.2 0.00 0.10 0.10 96 1012.7
20260510020033 22 292 0.0 0.0 0.00 0.10 0.10 96 1012.9
20260510020028 22 292 0.0 0.0 0.00 0.10 0.10 96 1012.8
20260510020023 22 292 0.0 0.0 0.00 0.10 0.10 96 1013.0
20260510020017 22 98 1.6 9.7 0.00 0.10 0.10 96 1013.0
20260510015848 25 355 4.8 12.9 0.00 0.74 0.03 89 1012.4
20260510015843 26 355 4.8 12.9 0.00 0.74 0.03 89 1012.4
20260510015837 26 9 3.2 11.3 0.00 0.74 0.03 90 1012.3
20260510015833 25 250 6.4 11.3 0.00 0.74 0.03 91 1012.2
20260510015828 25 288 1.6 6.4 0.00 0.74 0.03 91 1012.3
20260510015822 25 244 1.6 8.0 0.00 0.74 0.03 90 1012.4
20260510015818 25 10 6.4 16.1 0.00 0.74 0.03 89 1012.3
20260510015813 25 344 6.4 16.1 0.00 0.74 0.03 89 1012.5
20260510015806 22 104 6.4 9.7 0.00 0.10 0.10 96 1013.5
20260510015800 24 355 3.2 11.3 0.03 0.38 0.05 91 1012.7
20260510015755 23 292 1.6 6.4 0.03 0.08 0.05 93 1012.9
20260510015750 23 338 1.6 6.4 0.03 0.05 0.05 93 1012.8
20260510015745 23 340 1.6 6.4 0.03 0.05 0.05 94 1012.7
20260510015739 23 36 3.2 11.3 0.03 0.05 0.05 94 1012.7
20260510015734 23 327 6.4 14.5 0.00 0.05 0.05 94 1012.7
20260510015728 23 327 4.8 14.5 0.00 0.05 0.05 94 1013.0
20260510015724 23 343 4.8 11.3 0.00 0.05 0.05 94 1013.0
20260510015720 23 327 3.2 11.3 0.00 0.05 0.05 94 1013.1
20260510015714 23 315 1.6 8.0 0.00 0.05 0.05 94 1013.0
20260510015709 22 348 3.2 8.0 0.03 0.08 0.08 95 1013.1
20260510015702 22 247 3.2 8.0 0.05 0.10 0.10 95 1013.4
20260510015656 22 303 1.6 6.4 0.05 0.10 0.10 95 1012.9
20260510015652 22 304 1.6 4.8 0.05 0.10 0.10 95 1012.8
20260510015646 22 304 3.2 4.8 0.05 0.10 0.10 95 1012.6
20260510015641 22 309 0.0 3.2 0.00 0.10 0.10 96 1012.7
20260510015517 23 306 3.2 8.0 0.03 0.33 0.05 92 1012.7
20260510015512 23 343 1.6 6.4 0.00 0.05 0.05 94 1013.2
20260510015505 22 321 3.2 8.0 0.05 0.10 0.10 95 1013.0
20260510015459 22 304 1.6 4.8 0.03 0.10 0.10 96 1012.7
20260510015454 22 292 0.0 0.0 0.00 0.10 0.10 96 1012.9
20260510015450 22 292 0.0 0.0 0.00 0.10 0.10 96 1012.8
20260510015444 22 292 0.0 0.0 0.00 0.10 0.10 96 1013.0
20260510015438 22 98 1.6 9.7 0.00 0.10 0.10 96 1013.0
20260510015150 23 338 1.6 6.4 0.03 0.05 0.05 93 1012.8
20260510015146 23 340 1.6 6.4 0.03 0.05 0.05 94 1012.7
20260510015141 23 36 3.2 11.3 0.03 0.05 0.05 94 1012.7
20260510015135 23 327 6.4 14.5 0.00 0.05 0.05 94 1012.7
20260510015131 23 327 4.8 14.5 0.00 0.05 0.05 94 1013.0
20260510015126 23 343 4.8 11.3 0.00 0.05 0.05 94 1013.0
20260510015120 23 327 3.2 11.3 0.00 0.05 0.05 94 1013.1
20260510015114 23 315 1.6 8.0 0.00 0.05 0.05 94 1013.0
20260510015108 22 348 3.2 8.0 0.03 0.08 0.08 95 1013.1
20260510015101 22 303 1.6 6.4 0.05 0.10 0.10 95 1012.9
20260510015055 22 304 3.2 4.8 0.05 0.10 0.10 95 1012.6
20260510015051 22 304 1.6 4.8 0.05 0.10 0.10 95 1012.8
20260510015046 22 309 0.0 3.2 0.00 0.10 0.10 96 1012.7
20260510015040 22 247 3.2 8.0 0.05 0.10 0.10 95 1013.4
20260510014914 22 292 0.0 0.0 0.00 0.10 0.10 96 1013.0
20260510014909 22 304 1.6 4.8 0.03 0.10 0.10 96 1012.7
20260510014904 22 292 0.0 0.0 0.00 0.10 0.10 96 1012.8
20260510014857 22 292 0.0 0.0 0.00 0.10 0.10 96 1012.9
20260510014853 22 98 1.6 9.7 0.00 0.10 0.10 96 1013.0
20260510014608 26 346 3.2 9.7 0.00 0.74 0.03 92 1012.3
20260510014603 22 303 1.6 6.4 0.05 0.10 0.10 95 1012.9
20260510014556 26 9 1.6 8.0 0.03 0.74 0.03 92 1012.2
20260510014550 22 304 3.2 4.8 0.05 0.10 0.10 95 1012.6
20260510014545 22 304 1.6 4.8 0.05 0.10 0.10 95 1012.8
20260510014539 26 97 0.0 6.4 0.03 0.74 0.03 92 1012.3
20260510014534 25 10 6.4 16.1 0.00 0.74 0.03 89 1012.3
20260510014530 22 309 0.0 3.2 0.00 0.10 0.10 96 1012.7
20260510014525 25 344 6.4 16.1 0.00 0.74 0.03 89 1012.5
20260510014520 24 355 3.2 11.3 0.03 0.38 0.05 91 1012.7
20260510014514 24 350 4.8 11.3 0.00 0.38 0.03 90 1012.6
20260510014510 23 306 3.2 8.0 0.03 0.33 0.05 92 1012.7
20260510014505 23 292 1.6 6.4 0.03 0.08 0.05 93 1012.9
20260510014459 23 338 1.6 6.4 0.03 0.05 0.05 93 1012.8
20260510014452 23 340 1.6 6.4 0.03 0.05 0.05 94 1012.7
20260510014447 23 36 3.2 11.3 0.03 0.05 0.05 94 1012.7
20260510014442 23 327 6.4 14.5 0.00 0.05 0.05 94 1012.7
20260510014437 23 327 4.8 14.5 0.00 0.05 0.05 94 1013.0
20260510014431 23 343 4.8 11.3 0.00 0.05 0.05 94 1013.0
20260510014427 22 348 3.2 8.0 0.03 0.08 0.08 95 1013.1
20260510014422 22 247 3.2 8.0 0.05 0.10 0.10 95 1013.4
20260510014416 22 292 0.0 0.0 0.00 0.10 0.10 96 1012.8
20260510014411 22 304 1.6 4.8 0.03 0.10 0.10 96 1012.7
20260510014405 22 292 0.0 0.0 0.00 0.10 0.10 96 1012.9
20260510014359 22 292 0.0 0.0 0.00 0.10 0.10 96 1013.0
20260510014233 22 98 1.6 9.7 0.00 0.10 0.10 96 1013.0
20260510014227 23 315 1.6 8.0 0.00 0.05 0.05 94 1013.0
20260510014222 23 343 1.6 6.4 0.00 0.05 0.05 94 1013.2
20260510014216 22 321 3.2 8.0 0.05 0.10 0.10 95 1013.0
20260510014050 22 304 1.6 4.8 0.05 0.10 0.10 95 1012.8
20260510014044 22 304 3.2 4.8 0.05 0.10 0.10 95 1012.6
20260510014039 22 309 0.0 3.2 0.00 0.10 0.10 96 1012.7
20260510013912 26 98 0.0 0.0 0.03 0.74 0.03 92 1012.3
20260510013906 22 292 0.0 0.0 0.00 0.10 0.10 96 1012.9
20260510013901 22 292 0.0 0.0 0.00 0.10 0.10 96 1012.8
20260510013856 26 98 0.0 3.2 0.03 0.74 0.03 91 1012.6
20260510013851 26 98 0.0 8.0 0.03 0.74 0.03 93 1012.2
20260510013844 26 98 4.8 8.0 0.03 0.74 0.03 91 1012.2
20260510013840 26 98 4.8 8.0 0.00 0.71 0.00 89 1012.3
20260510013834 26 98 4.8 8.0 0.00 0.71 0.00 87 1012.5
20260510013830 26 98 8.0 9.7 0.00 0.71 0.00 85 1012.6
20260510013825 27 98 8.0 11.3 0.00 0.71 0.00 84 1012.7
20260510013819 22 247 3.2 8.0 0.05 0.10 0.10 95 1013.4
20260510013814 22 304 1.6 4.8 0.03 0.10 0.10 96 1012.7
20260510013810 22 292 0.0 0.0 0.00 0.10 0.10 96 1013.0
20260510013643 28 96 8.0 11.3 0.00 0.71 0.00 82 1012.6
20260510013638 28 117 6.4 9.7 0.00 0.71 0.00 84 1012.7
20260510013632 27 117 8.0 9.7 0.00 0.71 0.00 85 1013.0
20260510013628 27 115 8.0 9.7 0.00 0.71 0.00 84 1012.8
20260510013622 23 340 1.6 6.4 0.03 0.05 0.05 94 1012.7
20260510013617 27 107 8.0 9.7 0.00 0.71 0.00 85 1012.7
20260510013611 27 90 6.4 9.7 0.00 0.71 0.00 85 1012.9
20260510013606 22 321 3.2 8.0 0.05 0.10 0.10 95 1013.0
20260510013600 22 309 0.0 3.2 0.00 0.10 0.10 96 1012.7
20260510013556 22 303 1.6 6.4 0.05 0.10 0.10 95 1012.9
20260510013550 22 304 1.6 4.8 0.05 0.10 0.10 95 1012.8
20260510013543 25 10 4.8 9.7 0.00 0.74 0.03 89 1012.4
20260510013538 25 10 6.4 16.1 0.00 0.74 0.03 89 1012.3
20260510013534 25 344 6.4 16.1 0.00 0.74 0.03 89 1012.5
20260510013528 24 355 3.2 11.3 0.03 0.38 0.05 91 1012.7
20260510013523 24 350 4.8 11.3 0.00 0.38 0.03 90 1012.6
20260510013518 23 306 3.2 8.0 0.03 0.33 0.05 92 1012.7
20260510013514 23 292 1.6 6.4 0.03 0.08 0.05 93 1012.9
20260510013508 23 338 1.6 6.4 0.03 0.05 0.05 93 1012.8
20260510013503 23 36 3.2 11.3 0.03 0.05 0.05 94 1012.7
20260510013457 22 304 3.2 4.8 0.05 0.10 0.10 95 1012.6
20260510013452 23 327 6.4 14.5 0.00 0.05 0.05 94 1012.7
20260510013446 23 327 4.8 14.5 0.00 0.05 0.05 94 1013.0
20260510013439 23 343 4.8 11.3 0.00 0.05 0.05 94 1013.0
20260510013435 23 327 3.2 11.3 0.00 0.05 0.05 94 1013.1
20260510013429 23 315 1.6 8.0 0.00 0.05 0.05 94 1013.0
20260510013425 22 292 0.0 0.0 0.00 0.10 0.10 96 1012.9
20260510013420 23 343 1.6 6.4 0.00 0.05 0.05 94 1013.2
20260510013414 22 348 3.2 8.0 0.03 0.08 0.08 95 1013.1
20260510013409 22 292 0.0 0.0 0.00 0.10 0.10 96 1012.8
20260510013245 22 304 1.6 4.8 0.03 0.10 0.10 96 1012.7
20260510013237 22 292 0.0 0.0 0.00 0.10 0.10 96 1013.0
20260510013114 22 321 3.2 8.0 0.05 0.10 0.10 95 1013.0
20260510013109 22 303 1.6 6.4 0.05 0.10 0.10 95 1012.9
20260510013104 22 304 1.6 4.8 0.05 0.10 0.10 95 1012.8
20260510013058 22 309 0.0 3.2 0.00 0.10 0.10 96 1012.7
20260510012931 22 304 3.2 4.8 0.05 0.10 0.10 95 1012.6
20260510012925 22 292 0.0 0.0 0.00 0.10 0.10 96 1012.9
20260510012801 24 355 3.2 11.3 0.03 0.38 0.05 91 1012.7
20260510012757 23 306 3.2 8.0 0.03 0.33 0.05 92 1012.7
20260510012752 23 292 1.6 6.4 0.03 0.08 0.05 93 1012.9
20260510012746 23 327 4.8 14.5 0.00 0.05 0.05 94 1013.0
20260510012742 23 343 4.8 11.3 0.00 0.05 0.05 94 1013.0
20260510012734 23 327 3.2 11.3 0.00 0.05 0.05 94 1013.1
20260510012729 23 315 1.6 8.0 0.00 0.05 0.05 94 1013.0
20260510012724 23 343 1.6 6.4 0.00 0.05 0.05 94 1013.2
20260510012718 22 348 3.2 8.0 0.03 0.08 0.08 95 1013.1
20260510012714 22 247 3.2 8.0 0.05 0.10 0.10 95 1013.4
20260510012709 22 304 1.6 4.8 0.03 0.10 0.10 96 1012.7
20260510012544 23 36 3.2 11.3 0.03 0.05 0.05 94 1012.7
20260510012538 23 340 1.6 6.4 0.03 0.05 0.05 94 1012.7
20260510012531 22 321 3.2 8.0 0.05 0.10 0.10 95 1013.0
20260510012527 22 303 1.6 6.4 0.05 0.10 0.10 95 1012.9
20260510012522 22 304 1.6 4.8 0.05 0.10 0.10 95 1012.8
20260510012516 22 309 0.0 3.2 0.00 0.10 0.10 96 1012.7
20260510012352 22 304 3.2 4.8 0.05 0.10 0.10 95 1012.6
20260510012347 22 292 0.0 0.0 0.00 0.10 0.10 96 1012.9
20260510012328 22 292 0.0 0.0 0.00 0.10 0.10 96 1012.8
20260510012215 23 343 4.8 11.3 0.00 0.05 0.05 94 1013.0
20260510012210 23 327 3.2 11.3 0.00 0.05 0.05 94 1013.1
20260510012205 23 315 1.6 8.0 0.00 0.05 0.05 94 1013.0
20260510012200 23 343 1.6 6.4 0.00 0.05 0.05 94 1013.2
20260510012156 22 348 3.2 8.0 0.03 0.08 0.08 95 1013.1
20260510012150 22 247 3.2 8.0 0.05 0.10 0.10 95 1013.4
20260510012145 22 304 1.6 4.8 0.03 0.10 0.10 96 1012.7
20260510012018 22 309 0.0 3.2 0.00 0.10 0.10 96 1012.7
20260510011854 22 304 1.6 4.8 0.05 0.10 0.10 95 1012.8
20260510011849 22 292 0.0 0.0 0.00 0.10 0.10 96 1012.9
20260510011322 22 247 3.2 8.0 0.05 0.10 0.10 95 1013.4
20260510011315 22 321 3.2 8.0 0.05 0.10 0.10 95 1013.0
20260510011305 22 292 0.0 0.0 0.00 0.10 0.10 96 1012.9
20260510011147 23 315 1.6 8.0 0.00 0.05 0.05 94 1013.0
20260510011141 27 84 6.4 9.7 0.00 0.71 0.00 87 1013.1
20260510011137 26 82 8.0 9.7 0.00 0.71 0.00 86 1013.2
20260510011131 22 303 1.6 6.4 0.05 0.10 0.10 95 1012.9
20260510011127 26 95 8.0 11.3 0.00 0.71 0.00 87 1013.2
20260510011122 26 129 4.8 11.3 0.00 0.71 0.00 86 1013.0
20260510011114 26 175 1.6 8.0 0.00 0.71 0.00 85 1013.0
20260510011109 26 175 1.6 6.4 0.00 0.71 0.00 84 1013.4
20260510011103 26 174 3.2 11.3 0.00 0.71 0.00 87 1013.4
20260510011058 25 178 8.0 11.3 0.00 0.71 0.00 87 1013.3
20260510011054 25 148 6.4 9.7 0.00 0.71 0.00 89 1013.1
20260510011048 25 186 1.6 9.7 0.00 0.71 0.00 87 1013.1
20260510011043 25 235 3.2 11.3 0.00 0.71 0.00 86 1013.1
20260510011038 25 192 4.8 11.3 0.00 0.71 0.00 87 1013.3
20260510011033 25 237 8.0 14.5 0.00 0.71 0.00 88 1013.4
20260510011027 25 209 9.7 14.5 0.00 0.71 0.00 88 1013.2
20260510011022 25 205 6.4 16.1 0.00 0.71 0.00 88 1013.1
20260510011014 23 343 1.6 6.4 0.00 0.05 0.05 94 1013.2
20260510011010 25 186 9.7 16.1 0.00 0.71 0.00 89 1013.2
20260510011005 25 175 6.4 11.3 0.00 0.71 0.00 88 1013.1
20260510010959 22 304 3.2 4.8 0.05 0.10 0.10 95 1012.6
20260510010955 25 250 4.8 9.7 0.00 0.71 0.00 89 1013.3
20260510010949 25 355 4.8 12.9 0.00 0.74 0.03 89 1012.4
20260510010944 25 10 4.8 9.7 0.00 0.74 0.03 89 1012.4
20260510010940 25 10 6.4 16.1 0.00 0.74 0.03 89 1012.3
20260510010934 25 344 6.4 16.1 0.00 0.74 0.03 89 1012.5
20260510010929 24 350 4.8 11.3 0.00 0.38 0.03 90 1012.6
20260510010923 24 355 3.2 11.3 0.03 0.38 0.05 91 1012.7
20260510010918 23 306 3.2 8.0 0.03 0.33 0.05 92 1012.7
20260510010912 22 304 1.6 4.8 0.03 0.10 0.10 96 1012.7
20260510010906 22 309 0.0 3.2 0.00 0.10 0.10 96 1012.7
20260510010743 23 338 1.6 6.4 0.03 0.05 0.05 93 1012.8
20260510010738 23 36 3.2 11.3 0.03 0.05 0.05 94 1012.7
20260510010733 23 340 1.6 6.4 0.03 0.05 0.05 94 1012.7
20260510010728 23 327 6.4 14.5 0.00 0.05 0.05 94 1012.7
20260510010723 22 348 3.2 8.0 0.03 0.08 0.08 95 1013.1
20260510010717 23 327 4.8 14.5 0.00 0.05 0.05 94 1013.0
20260510010711 23 343 4.8 11.3 0.00 0.05 0.05 94 1013.0
20260510010705 23 327 3.2 11.3 0.00 0.05 0.05 94 1013.1
20260510010700 23 315 1.6 8.0 0.00 0.05 0.05 94 1013.0
20260510010654 22 247 3.2 8.0 0.05 0.10 0.10 95 1013.4
20260510010650 22 321 3.2 8.0 0.05 0.10 0.10 95 1013.0
20260510010644 22 303 1.6 6.4 0.05 0.10 0.10 95 1012.9
20260510010639 22 304 1.6 4.8 0.05 0.10 0.10 95 1012.8
20260510010515 23 343 1.6 6.4 0.00 0.05 0.05 94 1013.2
20260510010334 22 309 0.0 3.2 0.00 0.10 0.10 96 1012.7
20260510010223 24 236 6.4 11.3 0.00 0.71 0.00 89 1013.5
20260510010218 24 259 6.4 11.3 0.00 0.71 0.00 90 1013.4
20260510010213 23 193 6.4 11.3 0.00 0.71 0.00 91 1013.0
20260510010208 23 187 6.4 11.3 0.00 0.71 0.00 91 1012.9
20260510010201 26 355 4.8 12.9 0.00 0.74 0.03 89 1012.4
20260510010155 26 9 3.2 11.3 0.00 0.74 0.03 90 1012.3
20260510010150 25 250 6.4 11.3 0.00 0.74 0.03 91 1012.2
20260510010144 25 288 1.6 6.4 0.00 0.74 0.03 91 1012.3
20260510010140 25 244 1.6 8.0 0.00 0.74 0.03 90 1012.4
20260510010135 25 314 3.2 9.7 0.00 0.74 0.03 91 1012.2
20260510010129 22 247 3.2 8.0 0.05 0.10 0.10 95 1013.4
20260510010125 26 346 3.2 9.7 0.00 0.74 0.03 92 1012.3
20260510010119 26 9 1.6 8.0 0.03 0.74 0.03 92 1012.2
20260510010115 26 97 0.0 6.4 0.03 0.74 0.03 92 1012.3
20260510010109 26 98 0.0 0.0 0.03 0.74 0.03 92 1012.3
20260510010104 22 321 3.2 8.0 0.05 0.10 0.10 95 1013.0
20260510010058 26 98 0.0 3.2 0.03 0.74 0.03 91 1012.6
20260510010052 23 327 4.8 14.5 0.00 0.05 0.05 94 1013.0
20260510010047 23 343 4.8 11.3 0.00 0.05 0.05 94 1013.0
20260510010041 23 327 3.2 11.3 0.00 0.05 0.05 94 1013.1
20260510010037 22 303 1.6 6.4 0.05 0.10 0.10 95 1012.9
20260510010032 22 304 1.6 4.8 0.05 0.10 0.10 95 1012.8
20260510010026 22 304 3.2 4.8 0.05 0.10 0.10 95 1012.6
20260510005902 25 10 4.8 9.7 0.00 0.74 0.03 89 1012.4
20260510005855 25 10 6.4 16.1 0.00 0.74 0.03 89 1012.3
20260510005849 25 344 6.4 16.1 0.00 0.74 0.03 89 1012.5
20260510005845 24 350 4.8 11.3 0.00 0.38 0.03 90 1012.6
20260510005839 24 355 3.2 11.3 0.03 0.38 0.05 91 1012.7
20260510005834 23 306 3.2 8.0 0.03 0.33 0.05 92 1012.7
20260510005828 23 292 1.6 6.4 0.03 0.08 0.05 93 1012.9
20260510005824 23 338 1.6 6.4 0.03 0.05 0.05 93 1012.8
20260510005818 23 36 3.2 11.3 0.03 0.05 0.05 94 1012.7
20260510005813 23 340 1.6 6.4 0.03 0.05 0.05 94 1012.7
20260510005809 23 327 6.4 14.5 0.00 0.05 0.05 94 1012.7
20260510005803 22 304 1.6 4.8 0.03 0.10 0.10 96 1012.7
20260510005756 23 315 1.6 8.0 0.00 0.05 0.05 94 1013.0
20260510005751 23 343 1.6 6.4 0.00 0.05 0.05 94 1013.2
20260510005746 22 348 3.2 8.0 0.03 0.08 0.08 95 1013.1
20260510005622 22 321 3.2 8.0 0.05 0.10 0.10 95 1013.0
20260510005453 23 343 4.8 11.3 0.00 0.05 0.05 94 1013.0
20260510005447 23 327 3.2 11.3 0.00 0.05 0.05 94 1013.1
20260510005441 22 303 1.6 6.4 0.05 0.10 0.10 95 1012.9
20260510005437 22 304 1.6 4.8 0.05 0.10 0.10 95 1012.8
20260510005432 22 304 3.2 4.8 0.05 0.10 0.10 95 1012.6
20260510005146 23 292 1.6 6.4 0.03 0.08 0.05 93 1012.9
20260510005140 23 338 1.6 6.4 0.03 0.05 0.05 93 1012.8
20260510005136 23 36 3.2 11.3 0.03 0.05 0.05 94 1012.7
20260510005131 23 327 6.4 14.5 0.00 0.05 0.05 94 1012.7
20260510005125 23 315 1.6 8.0 0.00 0.05 0.05 94 1013.0
20260510005121 22 348 3.2 8.0 0.03 0.08 0.08 95 1013.1
20260510005115 23 343 1.6 6.4 0.00 0.05 0.05 94 1013.2
20260510005110 22 247 3.2 8.0 0.05 0.10 0.10 95 1013.4
20260510005106 22 321 3.2 8.0 0.05 0.10 0.10 95 1013.0
20260510004937 24 350 4.8 11.3 0.00 0.38 0.03 90 1012.6
20260510004931 22 303 1.6 6.4 0.05 0.10 0.10 95 1012.9
20260510004926 24 355 3.2 11.3 0.03 0.38 0.05 91 1012.7
20260510004921 23 340 1.6 6.4 0.03 0.05 0.05 94 1012.7
20260510004916 23 327 4.8 14.5 0.00 0.05 0.05 94 1013.0
20260510004910 23 343 4.8 11.3 0.00 0.05 0.05 94 1013.0
20260510004906 23 327 3.2 11.3 0.00 0.05 0.05 94 1013.1
20260510004901 22 304 1.6 4.8 0.05 0.10 0.10 95 1012.8
20260510004613 23 292 1.6 6.4 0.03 0.08 0.05 93 1012.9
20260510004608 22 348 3.2 8.0 0.03 0.08 0.08 95 1013.1
20260510004603 26 98 4.8 8.0 0.03 0.74 0.03 91 1012.2
20260510004558 23 343 1.6 6.4 0.00 0.05 0.05 94 1013.2
20260510004553 26 98 4.8 8.0 0.00 0.71 0.00 89 1012.3
20260510004547 23 36 3.2 11.3 0.03 0.05 0.05 94 1012.7
20260510004541 23 315 1.6 8.0 0.00 0.05 0.05 94 1013.0
20260510004536 26 355 4.8 12.9 0.00 0.74 0.03 89 1012.4
20260510004530 25 355 4.8 12.9 0.00 0.74 0.03 89 1012.4
20260510004525 25 10 4.8 9.7 0.00 0.74 0.03 89 1012.4
20260510004519 25 10 6.4 16.1 0.00 0.74 0.03 89 1012.3
20260510004515 25 344 6.4 16.1 0.00 0.74 0.03 89 1012.5
20260510004510 23 338 1.6 6.4 0.03 0.05 0.05 93 1012.8
20260510004504 23 327 6.4 14.5 0.00 0.05 0.05 94 1012.7
20260510004459 22 247 3.2 8.0 0.05 0.10 0.10 95 1013.4
20260510004453 22 321 3.2 8.0 0.05 0.10 0.10 95 1013.0
20260510004448 22 303 1.6 6.4 0.05 0.10 0.10 95 1012.9
20260510004321 23 343 4.8 11.3 0.00 0.05 0.05 94 1013.0
20260510004316 23 327 3.2 11.3 0.00 0.05 0.05 94 1013.1
20260510004311 22 304 1.6 4.8 0.05 0.10 0.10 95 1012.8
20260510004258 22 304 3.2 4.8 0.05 0.10 0.10 95 1012.6
20260510004140 24 355 3.2 11.3 0.03 0.38 0.05 91 1012.7
20260510004132 23 306 3.2 8.0 0.03 0.33 0.05 92 1012.7
20260510004127 23 292 1.6 6.4 0.03 0.08 0.05 93 1012.9
20260510004122 23 340 1.6 6.4 0.03 0.05 0.05 94 1012.7
20260510004116 23 36 3.2 11.3 0.03 0.05 0.05 94 1012.7
20260510004111 23 315 1.6 8.0 0.00 0.05 0.05 94 1013.0
20260510004107 22 348 3.2 8.0 0.03 0.08 0.08 95 1013.1
20260510004101 23 343 1.6 6.4 0.00 0.05 0.05 94 1013.2
20260510003934 22 247 3.2 8.0 0.05 0.10 0.10 95 1013.4
20260510003928 22 303 1.6 6.4 0.05 0.10 0.10 95 1012.9
20260510003803 23 327 4.8 14.5 0.00 0.05 0.05 94 1013.0
20260510003758 26 9 3.2 11.3 0.00 0.74 0.03 90 1012.3
20260510003754 23 343 4.8 11.3 0.00 0.05 0.05 94 1013.0
20260510003748 23 327 6.4 14.5 0.00 0.05 0.05 94 1012.7
20260510003742 23 327 3.2 11.3 0.00 0.05 0.05 94 1013.1
20260510003737 22 304 1.6 4.8 0.05 0.10 0.10 95 1012.8
20260510003609 25 250 6.4 11.3 0.00 0.74 0.03 91 1012.2
20260510003604 25 355 4.8 12.9 0.00 0.74 0.03 89 1012.4
20260510003558 25 10 4.8 9.7 0.00 0.74 0.03 89 1012.4
20260510003553 23 36 3.2 11.3 0.03 0.05 0.05 94 1012.7
20260510003547 23 315 1.6 8.0 0.00 0.05 0.05 94 1013.0
20260510003543 22 348 3.2 8.0 0.03 0.08 0.08 95 1013.1
20260510003412 22 321 3.2 8.0 0.05 0.10 0.10 95 1013.0
20260510003406 25 288 1.6 6.4 0.00 0.74 0.03 91 1012.3
20260510003402 25 244 1.6 8.0 0.00 0.74 0.03 90 1012.4
20260510003358 22 303 1.6 6.4 0.05 0.10 0.10 95 1012.9
20260510003352 25 314 3.2 9.7 0.00 0.74 0.03 91 1012.2
20260510003346 25 10 6.4 16.1 0.00 0.74 0.03 89 1012.3
20260510003341 25 344 6.4 16.1 0.00 0.74 0.03 89 1012.5
20260510003335 24 350 4.8 11.3 0.00 0.38 0.03 90 1012.6
20260510003331 24 355 3.2 11.3 0.03 0.38 0.05 91 1012.7
20260510003324 23 306 3.2 8.0 0.03 0.33 0.05 92 1012.7
20260510003319 23 292 1.6 6.4 0.03 0.08 0.05 93 1012.9
20260510003313 23 338 1.6 6.4 0.03 0.05 0.05 93 1012.8
20260510003308 23 340 1.6 6.4 0.03 0.05 0.05 94 1012.7
20260510003302 23 327 6.4 14.5 0.00 0.05 0.05 94 1012.7
20260510003257 23 327 4.8 14.5 0.00 0.05 0.05 94 1013.0
20260510003252 23 343 4.8 11.3 0.00 0.05 0.05 94 1013.0
20260510003244 22 304 1.6 4.8 0.05 0.10 0.10 95 1012.8
20260510003122 23 343 1.6 6.4 0.00 0.05 0.05 94 1013.2
20260510003114 26 9 1.6 8.0 0.03 0.74 0.03 92 1012.2
20260510003109 26 355 4.8 12.9 0.00 0.74 0.03 89 1012.4
20260510002945 25 10 4.8 9.7 0.00 0.74 0.03 89 1012.4
20260510002939 23 36 3.2 11.3 0.03 0.05 0.05 94 1012.7
20260510002935 23 315 1.6 8.0 0.00 0.05 0.05 94 1013.0
20260510002929 22 348 3.2 8.0 0.03 0.08 0.08 95 1013.1
20260510002924 22 247 3.2 8.0 0.05 0.10 0.10 95 1013.4
20260510002916 22 321 3.2 8.0 0.05 0.10 0.10 95 1013.0
20260510002911 22 303 1.6 6.4 0.05 0.10 0.10 95 1012.9
20260510002744 26 346 3.2 9.7 0.00 0.74 0.03 92 1012.3
20260510002739 26 97 0.0 6.4 0.03 0.74 0.03 92 1012.3
20260510002734 26 98 0.0 0.0 0.03 0.74 0.03 92 1012.3
20260510002728 25 10 6.4 16.1 0.00 0.74 0.03 89 1012.3
20260510002723 25 344 6.4 16.1 0.00 0.74 0.03 89 1012.5
20260510002716 24 350 4.8 11.3 0.00 0.38 0.03 90 1012.6
20260510002712 24 355 3.2 11.3 0.03 0.38 0.05 91 1012.7
20260510002706 23 306 3.2 8.0 0.03 0.33 0.05 92 1012.7
20260510002701 23 292 1.6 6.4 0.03 0.08 0.05 93 1012.9
20260510002655 23 343 4.8 11.3 0.00 0.05 0.05 94 1013.0
20260510002650 23 338 1.6 6.4 0.03 0.05 0.05 93 1012.8
20260510002644 23 340 1.6 6.4 0.03 0.05 0.05 94 1012.7
20260510002639 23 327 6.4 14.5 0.00 0.05 0.05 94 1012.7
20260510002633 23 327 4.8 14.5 0.00 0.05 0.05 94 1013.0
20260510002629 23 327 3.2 11.3 0.00 0.05 0.05 94 1013.1
20260510002623 23 343 1.6 6.4 0.00 0.05 0.05 94 1013.2
20260510002454 26 98 0.0 8.0 0.03 0.74 0.03 93 1012.2
20260510002450 26 98 4.8 8.0 0.03 0.74 0.03 91 1012.2
20260510002444 26 98 4.8 8.0 0.00 0.71 0.00 89 1012.3
20260510002439 26 9 3.2 11.3 0.00 0.74 0.03 90 1012.3
20260510002433 25 250 6.4 11.3 0.00 0.74 0.03 91 1012.2
20260510002428 25 288 1.6 6.4 0.00 0.74 0.03 91 1012.3
20260510002422 23 315 1.6 8.0 0.00 0.05 0.05 94 1013.0
20260510002418 25 244 1.6 8.0 0.00 0.74 0.03 90 1012.4
20260510002410 25 314 3.2 9.7 0.00 0.74 0.03 91 1012.2
20260510002404 26 9 1.6 8.0 0.03 0.74 0.03 92 1012.2
20260510002359 26 355 4.8 12.9 0.00 0.74 0.03 89 1012.4
20260510002355 25 355 4.8 12.9 0.00 0.74 0.03 89 1012.4
20260510002349 25 10 4.8 9.7 0.00 0.74 0.03 89 1012.4
20260510002344 23 36 3.2 11.3 0.03 0.05 0.05 94 1012.7
20260510002339 22 348 3.2 8.0 0.03 0.08 0.08 95 1013.1
20260510002334 22 247 3.2 8.0 0.05 0.10 0.10 95 1013.4
20260510002329 22 321 3.2 8.0 0.05 0.10 0.10 95 1013.0
20260510002311 22 303 1.6 6.4 0.05 0.10 0.10 95 1012.9
20260510002155 23 343 4.8 11.3 0.00 0.05 0.05 94 1013.0
20260510002151 25 344 6.4 16.1 0.00 0.74 0.03 89 1012.5
20260510002145 24 350 4.8 11.3 0.00 0.38 0.03 90 1012.6
20260510002140 24 355 3.2 11.3 0.03 0.38 0.05 91 1012.7
20260510002136 23 306 3.2 8.0 0.03 0.33 0.05 92 1012.7
20260510002130 23 292 1.6 6.4 0.03 0.08 0.05 93 1012.9
20260510002124 23 338 1.6 6.4 0.03 0.05 0.05 93 1012.8
20260510002119 23 340 1.6 6.4 0.03 0.05 0.05 94 1012.7
20260510002112 23 327 6.4 14.5 0.00 0.05 0.05 94 1012.7
20260510002106 23 327 3.2 11.3 0.00 0.05 0.05 94 1013.1
20260510002102 23 327 4.8 14.5 0.00 0.05 0.05 94 1013.0
20260510002055 23 343 1.6 6.4 0.00 0.05 0.05 94 1013.2
20260510001808 26 97 0.0 6.4 0.03 0.74 0.03 92 1012.3
20260510001803 23 215 8.0 14.5 0.00 0.71 0.00 92 1012.8
20260510001757 23 36 3.2 11.3 0.03 0.05 0.05 94 1012.7
20260510001752 26 355 4.8 12.9 0.00 0.74 0.03 89 1012.4
20260510001746 23 205 9.7 17.7 0.00 0.71 0.00 92 1012.7
20260510001740 23 207 9.7 19.3 0.00 0.71 0.00 92 1012.7
20260510001736 22 247 3.2 8.0 0.05 0.10 0.10 95 1013.4
20260510001731 26 9 3.2 11.3 0.00 0.74 0.03 90 1012.3
20260510001725 22 348 3.2 8.0 0.03 0.08 0.08 95 1013.1
20260510001720 23 343 4.8 11.3 0.00 0.05 0.05 94 1013.0
20260510001715 22 321 3.2 8.0 0.05 0.10 0.10 95 1013.0
20260510001707 22 180 12.9 19.3 0.00 0.71 0.00 93 1012.3
20260510001702 22 187 12.9 17.7 0.00 0.71 0.00 92 1012.3
20260510001657 22 201 14.5 17.7 0.00 0.71 0.00 93 1012.3
20260510001652 26 98 4.8 8.0 0.00 0.71 0.00 87 1012.5
20260510001647 26 98 0.0 0.0 0.03 0.74 0.03 92 1012.3
20260510001641 26 98 0.0 3.2 0.03 0.74 0.03 91 1012.6
20260510001636 26 98 0.0 8.0 0.03 0.74 0.03 93 1012.2
20260510001630 26 98 4.8 8.0 0.03 0.74 0.03 91 1012.2
20260510001625 26 98 4.8 8.0 0.00 0.71 0.00 89 1012.3
20260510001619 25 250 6.4 11.3 0.00 0.74 0.03 91 1012.2
20260510001613 25 288 1.6 6.4 0.00 0.74 0.03 91 1012.3
20260510001606 25 10 4.8 9.7 0.00 0.74 0.03 89 1012.4
20260510001600 25 244 1.6 8.0 0.00 0.74 0.03 90 1012.4
20260510001555 25 10 6.4 16.1 0.00 0.74 0.03 89 1012.3
20260510001550 25 355 4.8 12.9 0.00 0.74 0.03 89 1012.4
20260510001546 23 327 3.2 11.3 0.00 0.05 0.05 94 1013.1
20260510001540 23 338 1.6 6.4 0.03 0.05 0.05 93 1012.8
20260510001535 25 344 6.4 16.1 0.00 0.74 0.03 89 1012.5
20260510001530 24 355 3.2 11.3 0.03 0.38 0.05 91 1012.7
20260510001525 23 327 6.4 14.5 0.00 0.05 0.05 94 1012.7
20260510001519 23 343 1.6 6.4 0.00 0.05 0.05 94 1013.2
20260510001514 23 306 3.2 8.0 0.03 0.33 0.05 92 1012.7
20260510001507 23 340 1.6 6.4 0.03 0.05 0.05 94 1012.7
20260510001338 23 327 4.8 14.5 0.00 0.05 0.05 94 1013.0
20260510001334 24 350 4.8 11.3 0.00 0.38 0.03 90 1012.6
20260510001330 25 314 3.2 9.7 0.00 0.74 0.03 91 1012.2
20260510001323 26 346 3.2 9.7 0.00 0.74 0.03 92 1012.3
20260510001319 23 315 1.6 8.0 0.00 0.05 0.05 94 1013.0
20260510001313 26 9 1.6 8.0 0.03 0.74 0.03 92 1012.2
20260510001306 26 97 0.0 6.4 0.03 0.74 0.03 92 1012.3
20260510001301 22 247 3.2 8.0 0.05 0.10 0.10 95 1013.4
20260510001255 26 9 3.2 11.3 0.00 0.74 0.03 90 1012.3
20260510001251 26 355 4.8 12.9 0.00 0.74 0.03 89 1012.4
20260510001246 23 36 3.2 11.3 0.03 0.05 0.05 94 1012.7
20260510001240 23 343 4.8 11.3 0.00 0.05 0.05 94 1013.0
20260510001235 22 348 3.2 8.0 0.03 0.08 0.08 95 1013.1
20260510001228 22 321 3.2 8.0 0.05 0.10 0.10 95 1013.0
20260510001059 23 338 1.6 6.4 0.03 0.05 0.05 93 1012.8
20260510001054 25 10 6.4 16.1 0.00 0.74 0.03 89 1012.3
20260510001048 23 327 3.2 11.3 0.00 0.05 0.05 94 1013.1
20260510001042 25 355 4.8 12.9 0.00 0.74 0.03 89 1012.4
20260510001038 26 98 0.0 0.0 0.03 0.74 0.03 92 1012.3
20260510001033 23 327 6.4 14.5 0.00 0.05 0.05 94 1012.7
20260510001027 23 340 1.6 6.4 0.03 0.05 0.05 94 1012.7
20260510001023 25 344 6.4 16.1 0.00 0.74 0.03 89 1012.5
20260510001017 23 343 1.6 6.4 0.00 0.05 0.05 94 1013.2
20260510000849 24 355 3.2 11.3 0.03 0.38 0.05 91 1012.7
20260510000844 24 350 4.8 11.3 0.00 0.38 0.03 90 1012.6
20260510000837 23 292 1.6 6.4 0.03 0.08 0.05 93 1012.9
20260510000833 23 327 4.8 14.5 0.00 0.05 0.05 94 1013.0
20260510000828 23 315 1.6 8.0 0.00 0.05 0.05 94 1013.0
20260510000824 26 98 0.0 3.2 0.03 0.74 0.03 91 1012.6
20260510000818 22 247 3.2 8.0 0.05 0.10 0.10 95 1013.4
20260510000651 25 288 1.6 6.4 0.00 0.74 0.03 91 1012.3
20260510000645 23 343 4.8 11.3 0.00 0.05 0.05 94 1013.0
20260510000641 22 348 3.2 8.0 0.03 0.08 0.08 95 1013.1
20260510000635 25 244 1.6 8.0 0.00 0.74 0.03 90 1012.4
20260510000630 23 36 3.2 11.3 0.03 0.05 0.05 94 1012.7
20260510000624 25 314 3.2 9.7 0.00 0.74 0.03 91 1012.2
20260510000619 23 338 1.6 6.4 0.03 0.05 0.05 93 1012.8
20260510000613 23 327 3.2 11.3 0.00 0.05 0.05 94 1013.1
20260510000608 26 346 3.2 9.7 0.00 0.74 0.03 92 1012.3
20260510000601 26 9 3.2 11.3 0.00 0.74 0.03 90 1012.3
20260510000555 26 355 4.8 12.9 0.00 0.74 0.03 89 1012.4
20260510000551 25 355 4.8 12.9 0.00 0.74 0.03 89 1012.4
20260510000545 25 10 4.8 9.7 0.00 0.74 0.03 89 1012.4
20260510000540 25 10 6.4 16.1 0.00 0.74 0.03 89 1012.3
20260510000534 23 340 1.6 6.4 0.03 0.05 0.05 94 1012.7
20260510000530 23 327 6.4 14.5 0.00 0.05 0.05 94 1012.7
20260510000525 23 343 1.6 6.4 0.00 0.05 0.05 94 1013.2
20260510000358 24 350 4.8 11.3 0.00 0.38 0.03 90 1012.6
20260510000353 24 355 3.2 11.3 0.03 0.38 0.05 91 1012.7
20260510000348 23 306 3.2 8.0 0.03 0.33 0.05 92 1012.7
20260510000342 23 292 1.6 6.4 0.03 0.08 0.05 93 1012.9
20260510000337 23 327 4.8 14.5 0.00 0.05 0.05 94 1013.0
20260510000333 23 315 1.6 8.0 0.00 0.05 0.05 94 1013.0
20260510000314 22 247 3.2 8.0 0.05 0.10 0.10 95 1013.4
20260510000204 22 348 3.2 8.0 0.03 0.08 0.08 95 1013.1
20260510000154 26 98 4.8 8.0 0.03 0.74 0.03 91 1012.2
20260510000149 26 9 1.6 8.0 0.03 0.74 0.03 92 1012.2
20260510000143 23 343 4.8 11.3 0.00 0.05 0.05 94 1013.0
20260510000139 26 97 0.0 6.4 0.03 0.74 0.03 92 1012.3
20260510000133 23 36 3.2 11.3 0.03 0.05 0.05 94 1012.7
20260510000128 23 327 3.2 11.3 0.00 0.05 0.05 94 1013.1
20260510000124 23 338 1.6 6.4 0.03 0.05 0.05 93 1012.8
20260509235956 23 340 1.6 6.4 0.03 0.05 0.05 94 1012.7
20260509235951 26 98 0.0 3.2 0.03 0.74 0.03 91 1012.6
20260509235947 25 250 6.4 11.3 0.00 0.74 0.03 91 1012.2
20260509235943 25 288 1.6 6.4 0.00 0.74 0.03 91 1012.3
20260509235939 25 244 1.6 8.0 0.00 0.74 0.03 90 1012.4
20260509235933 25 314 3.2 9.7 0.00 0.74 0.03 91 1012.2
20260509235928 26 346 3.2 9.7 0.00 0.74 0.03 92 1012.3
20260509235923 26 9 3.2 11.3 0.00 0.74 0.03 90 1012.3
20260509235918 23 343 1.6 6.4 0.00 0.05 0.05 94 1013.2
20260509235755 25 355 4.8 12.9 0.00 0.74 0.03 89 1012.4
20260509235750 25 10 4.8 9.7 0.00 0.74 0.03 89 1012.4
20260509235743 25 10 6.4 16.1 0.00 0.74 0.03 89 1012.3
20260509235737 25 344 6.4 16.1 0.00 0.74 0.03 89 1012.5
20260509235732 24 350 4.8 11.3 0.00 0.38 0.03 90 1012.6
20260509235728 23 315 1.6 8.0 0.00 0.05 0.05 94 1013.0
20260509235722 23 327 4.8 14.5 0.00 0.05 0.05 94 1013.0
20260509235717 22 348 3.2 8.0 0.03 0.08 0.08 95 1013.1
20260509235711 24 355 3.2 11.3 0.03 0.38 0.05 91 1012.7
20260509235706 23 306 3.2 8.0 0.03 0.33 0.05 92 1012.7
20260509235700 23 292 1.6 6.4 0.03 0.08 0.05 93 1012.9
20260509235656 23 36 3.2 11.3 0.03 0.05 0.05 94 1012.7
20260509235650 23 343 4.8 11.3 0.00 0.05 0.05 94 1013.0
20260509235643 23 327 3.2 11.3 0.00 0.05 0.05 94 1013.1
20260509235518 23 340 1.6 6.4 0.03 0.05 0.05 94 1012.7
20260509235514 23 327 6.4 14.5 0.00 0.05 0.05 94 1012.7
20260509235228 23 327 4.8 14.5 0.00 0.05 0.05 94 1013.0
20260509235223 22 348 3.2 8.0 0.03 0.08 0.08 95 1013.1
20260509235057 23 36 3.2 11.3 0.03 0.05 0.05 94 1012.7
20260509235051 23 327 3.2 11.3 0.00 0.05 0.05 94 1013.1
20260509235047 21 206 9.7 14.5 0.00 0.71 0.00 93 1012.3
20260509235040 23 343 4.8 11.3 0.00 0.05 0.05 94 1013.0
20260509235034 21 192 8.0 11.3 0.00 0.71 0.00 94 1012.1
20260509235029 20 195 6.4 12.9 0.00 0.71 0.00 94 1012.2
20260509235023 20 196 8.0 14.5 0.00 0.71 0.00 94 1012.1
20260509235018 20 207 9.7 16.1 0.00 0.71 0.00 94 1012.0
20260509235014 20 226 11.3 16.1 0.00 0.71 0.00 94 1012.0
20260509235008 26 98 8.0 9.7 0.00 0.71 0.00 85 1012.6
20260509235003 27 98 8.0 11.3 0.00 0.71 0.00 84 1012.7
20260509234959 26 98 4.8 8.0 0.00 0.71 0.00 87 1012.5
20260509234953 26 98 4.8 8.0 0.00 0.71 0.00 89 1012.3
20260509234948 26 98 0.0 0.0 0.03 0.74 0.03 92 1012.3
20260509234941 25 344 6.4 16.1 0.00 0.74 0.03 89 1012.5
20260509234935 26 98 0.0 8.0 0.03 0.74 0.03 93 1012.2
20260509234929 26 98 4.8 8.0 0.03 0.74 0.03 91 1012.2
20260509234925 24 355 3.2 11.3 0.03 0.38 0.05 91 1012.7
20260509234920 24 350 4.8 11.3 0.00 0.38 0.03 90 1012.6
20260509234916 23 306 3.2 8.0 0.03 0.33 0.05 92 1012.7
20260509234910 26 9 1.6 8.0 0.03 0.74 0.03 92 1012.2
20260509234906 26 97 0.0 6.4 0.03 0.74 0.03 92 1012.3
20260509234900 26 98 0.0 3.2 0.03 0.74 0.03 91 1012.6
20260509234855 25 250 6.4 11.3 0.00 0.74 0.03 91 1012.2
20260509234849 23 292 1.6 6.4 0.03 0.08 0.05 93 1012.9
20260509234842 25 288 1.6 6.4 0.00 0.74 0.03 91 1012.3
20260509234837 25 244 1.6 8.0 0.00 0.74 0.03 90 1012.4
20260509234831 25 314 3.2 9.7 0.00 0.74 0.03 91 1012.2
20260509234827 26 346 3.2 9.7 0.00 0.74 0.03 92 1012.3
20260509234822 26 9 3.2 11.3 0.00 0.74 0.03 90 1012.3
20260509234817 26 355 4.8 12.9 0.00 0.74 0.03 89 1012.4
20260509234812 25 355 4.8 12.9 0.00 0.74 0.03 89 1012.4
20260509234806 25 10 4.8 9.7 0.00 0.74 0.03 89 1012.4
20260509234801 23 327 6.4 14.5 0.00 0.05 0.05 94 1012.7
20260509234756 23 315 1.6 8.0 0.00 0.05 0.05 94 1013.0
20260509234751 23 343 1.6 6.4 0.00 0.05 0.05 94 1013.2
20260509234746 25 10 6.4 16.1 0.00 0.74 0.03 89 1012.3
20260509234618 23 340 1.6 6.4 0.03 0.05 0.05 94 1012.7
20260509234613 23 36 3.2 11.3 0.03 0.05 0.05 94 1012.7
20260509234607 23 327 4.8 14.5 0.00 0.05 0.05 94 1013.0
20260509234602 23 343 4.8 11.3 0.00 0.05 0.05 94 1013.0
20260509234556 23 327 3.2 11.3 0.00 0.05 0.05 94 1013.1
20260509234430 24 350 4.8 11.3 0.00 0.38 0.03 90 1012.6
20260509234424 24 355 3.2 11.3 0.03 0.38 0.05 91 1012.7
20260509234419 23 306 3.2 8.0 0.03 0.33 0.05 92 1012.7
20260509234415 23 292 1.6 6.4 0.03 0.08 0.05 93 1012.9
20260509234249 23 315 1.6 8.0 0.00 0.05 0.05 94 1013.0
20260509234239 23 343 1.6 6.4 0.00 0.05 0.05 94 1013.2
20260509234117 28 96 8.0 11.3 0.00 0.71 0.00 82 1012.6
20260509234112 28 117 6.4 9.7 0.00 0.71 0.00 84 1012.7
20260509234106 26 98 8.0 9.7 0.00 0.71 0.00 85 1012.6
20260509234101 27 98 8.0 11.3 0.00 0.71 0.00 84 1012.7
20260509234055 26 98 4.8 8.0 0.00 0.71 0.00 87 1012.5
20260509234050 23 338 1.6 6.4 0.03 0.05 0.05 93 1012.8
20260509234042 26 98 4.8 8.0 0.00 0.71 0.00 89 1012.3
20260509234038 23 36 3.2 11.3 0.03 0.05 0.05 94 1012.7
20260509234034 23 340 1.6 6.4 0.03 0.05 0.05 94 1012.7
20260509234028 23 327 4.8 14.5 0.00 0.05 0.05 94 1013.0
20260509234023 26 98 0.0 0.0 0.03 0.74 0.03 92 1012.3
20260509234017 26 98 0.0 8.0 0.03 0.74 0.03 93 1012.2
20260509234012 23 343 4.8 11.3 0.00 0.05 0.05 94 1013.0
20260509234007 26 98 4.8 8.0 0.03 0.74 0.03 91 1012.2
20260509234002 23 327 3.2 11.3 0.00 0.05 0.05 94 1013.1
20260509233836 26 97 0.0 6.4 0.03 0.74 0.03 92 1012.3
20260509233831 26 98 0.0 3.2 0.03 0.74 0.03 91 1012.6
20260509233826 25 250 6.4 11.3 0.00 0.74 0.03 91 1012.2
20260509233821 25 288 1.6 6.4 0.00 0.74 0.03 91 1012.3
20260509233816 25 244 1.6 8.0 0.00 0.74 0.03 90 1012.4
20260509233811 25 314 3.2 9.7 0.00 0.74 0.03 91 1012.2
20260509233805 26 346 3.2 9.7 0.00 0.74 0.03 92 1012.3
20260509233800 26 9 3.2 11.3 0.00 0.74 0.03 90 1012.3
20260509233754 26 355 4.8 12.9 0.00 0.74 0.03 89 1012.4
20260509233749 25 355 4.8 12.9 0.00 0.74 0.03 89 1012.4
20260509233743 25 10 4.8 9.7 0.00 0.74 0.03 89 1012.4
20260509233736 25 10 6.4 16.1 0.00 0.74 0.03 89 1012.3
20260509233732 23 315 1.6 8.0 0.00 0.05 0.05 94 1013.0
20260509233726 25 344 6.4 16.1 0.00 0.74 0.03 89 1012.5
20260509233721 24 350 4.8 11.3 0.00 0.38 0.03 90 1012.6
20260509233715 24 355 3.2 11.3 0.03 0.38 0.05 91 1012.7
20260509233711 23 306 3.2 8.0 0.03 0.33 0.05 92 1012.7
20260509233707 23 292 1.6 6.4 0.03 0.08 0.05 93 1012.9
20260509233701 23 327 6.4 14.5 0.00 0.05 0.05 94 1012.7
20260509233534 23 340 1.6 6.4 0.03 0.05 0.05 94 1012.7
20260509233530 23 36 3.2 11.3 0.03 0.05 0.05 94 1012.7
20260509233525 23 327 4.8 14.5 0.00 0.05 0.05 94 1013.0
20260509233521 23 343 4.8 11.3 0.00 0.05 0.05 94 1013.0
20260509233114 23 327 6.4 14.5 0.00 0.05 0.05 94 1012.7
20260509232951 23 327 4.8 14.5 0.00 0.05 0.05 94 1013.0
20260509232946 23 343 4.8 11.3 0.00 0.05 0.05 94 1013.0
20260509232822 26 98 0.0 8.0 0.03 0.74 0.03 93 1012.2
20260509232818 26 9 1.6 8.0 0.03 0.74 0.03 92 1012.2
20260509232812 25 250 6.4 11.3 0.00 0.74 0.03 91 1012.2
20260509232805 23 327 3.2 11.3 0.00 0.05 0.05 94 1013.1
20260509232800 25 244 1.6 8.0 0.00 0.74 0.03 90 1012.4
20260509232756 25 314 3.2 9.7 0.00 0.74 0.03 91 1012.2
20260509232750 26 9 3.2 11.3 0.00 0.74 0.03 90 1012.3
20260509232745 26 355 4.8 12.9 0.00 0.74 0.03 89 1012.4
20260509232739 25 355 4.8 12.9 0.00 0.74 0.03 89 1012.4
20260509232735 25 10 4.8 9.7 0.00 0.74 0.03 89 1012.4
20260509232729 25 10 6.4 16.1 0.00 0.74 0.03 89 1012.3
20260509232724 25 344 6.4 16.1 0.00 0.74 0.03 89 1012.5
20260509232720 24 350 4.8 11.3 0.00 0.38 0.03 90 1012.6
20260509232714 24 355 3.2 11.3 0.03 0.38 0.05 91 1012.7
20260509232707 23 306 3.2 8.0 0.03 0.33 0.05 92 1012.7
20260509232702 23 292 1.6 6.4 0.03 0.08 0.05 93 1012.9
20260509232656 23 338 1.6 6.4 0.03 0.05 0.05 93 1012.8
20260509232651 23 36 3.2 11.3 0.03 0.05 0.05 94 1012.7
20260509232524 26 98 0.0 3.2 0.03 0.74 0.03 91 1012.6
20260509232519 23 340 1.6 6.4 0.03 0.05 0.05 94 1012.7
20260509232515 23 327 6.4 14.5 0.00 0.05 0.05 94 1012.7
20260509232351 26 346 3.2 9.7 0.00 0.74 0.03 92 1012.3
20260509232346 25 288 1.6 6.4 0.00 0.74 0.03 91 1012.3
20260509232340 23 343 4.8 11.3 0.00 0.05 0.05 94 1013.0
20260509232321 23 327 3.2 11.3 0.00 0.05 0.05 94 1013.1
20260509232211 26 355 4.8 12.9 0.00 0.74 0.03 89 1012.4
20260509232205 25 314 3.2 9.7 0.00 0.74 0.03 91 1012.2
20260509232200 25 244 1.6 8.0 0.00 0.74 0.03 90 1012.4
20260509232154 26 98 4.8 8.0 0.03 0.74 0.03 91 1012.2
20260509232147 26 9 3.2 11.3 0.00 0.74 0.03 90 1012.3
20260509232142 25 10 6.4 16.1 0.00 0.74 0.03 89 1012.3
20260509232137 25 10 4.8 9.7 0.00 0.74 0.03 89 1012.4
20260509232132 25 355 4.8 12.9 0.00 0.74 0.03 89 1012.4
20260509232127 26 98 0.0 0.0 0.03 0.74 0.03 92 1012.3
20260509232122 25 344 6.4 16.1 0.00 0.74 0.03 89 1012.5
20260509232117 24 350 4.8 11.3 0.00 0.38 0.03 90 1012.6
20260509232111 24 355 3.2 11.3 0.03 0.38 0.05 91 1012.7
20260509232107 23 306 3.2 8.0 0.03 0.33 0.05 92 1012.7
20260509232101 23 292 1.6 6.4 0.03 0.08 0.05 93 1012.9
20260509232056 23 338 1.6 6.4 0.03 0.05 0.05 93 1012.8
20260509232049 23 36 3.2 11.3 0.03 0.05 0.05 94 1012.7
20260509231925 26 98 0.0 8.0 0.03 0.74 0.03 93 1012.2
20260509231920 23 327 4.8 14.5 0.00 0.05 0.05 94 1013.0
20260509231914 23 327 6.4 14.5 0.00 0.05 0.05 94 1012.7
20260509231748 26 97 0.0 6.4 0.03 0.74 0.03 92 1012.3
20260509231742 23 343 4.8 11.3 0.00 0.05 0.05 94 1013.0
20260509231737 26 98 0.0 3.2 0.03 0.74 0.03 91 1012.6
20260509231731 26 346 3.2 9.7 0.00 0.74 0.03 92 1012.3
20260509231727 25 250 6.4 11.3 0.00 0.74 0.03 91 1012.2
20260509231721 25 288 1.6 6.4 0.00 0.74 0.03 91 1012.3
20260509231716 25 244 1.6 8.0 0.00 0.74 0.03 90 1012.4
20260509231710 25 314 3.2 9.7 0.00 0.74 0.03 91 1012.2
20260509231705 26 355 4.8 12.9 0.00 0.74 0.03 89 1012.4
20260509231659 26 9 3.2 11.3 0.00 0.74 0.03 90 1012.3
20260509231654 25 355 4.8 12.9 0.00 0.74 0.03 89 1012.4
20260509231647 25 10 4.8 9.7 0.00 0.74 0.03 89 1012.4
20260509231642 25 10 6.4 16.1 0.00 0.74 0.03 89 1012.3
20260509231518 24 350 4.8 11.3 0.00 0.38 0.03 90 1012.6
20260509231512 24 355 3.2 11.3 0.03 0.38 0.05 91 1012.7
20260509231507 23 306 3.2 8.0 0.03 0.33 0.05 92 1012.7
20260509231503 23 292 1.6 6.4 0.03 0.08 0.05 93 1012.9
20260509231457 23 338 1.6 6.4 0.03 0.05 0.05 93 1012.8
20260509231450 23 340 1.6 6.4 0.03 0.05 0.05 94 1012.7
20260509231444 23 36 3.2 11.3 0.03 0.05 0.05 94 1012.7
20260509231439 23 327 4.8 14.5 0.00 0.05 0.05 94 1013.0
20260509231305 23 343 4.8 11.3 0.00 0.05 0.05 94 1013.0
20260509231150 25 355 4.8 12.9 0.00 0.74 0.03 89 1012.4
20260509231027 25 10 4.8 9.7 0.00 0.74 0.03 89 1012.4
20260509231022 25 10 6.4 16.1 0.00 0.74 0.03 89 1012.3
20260509231017 25 344 6.4 16.1 0.00 0.74 0.03 89 1012.5
20260509230852 24 355 3.2 11.3 0.03 0.38 0.05 91 1012.7
20260509230846 23 36 3.2 11.3 0.03 0.05 0.05 94 1012.7
20260509230842 23 306 3.2 8.0 0.03 0.33 0.05 92 1012.7
20260509230836 23 292 1.6 6.4 0.03 0.08 0.05 93 1012.9
20260509230831 23 338 1.6 6.4 0.03 0.05 0.05 93 1012.8
20260509230825 23 327 4.8 14.5 0.00 0.05 0.05 94 1013.0
20260509230703 23 340 1.6 6.4 0.03 0.05 0.05 94 1012.7
20260509230537 26 346 3.2 9.7 0.00 0.74 0.03 92 1012.3
20260509230531 25 250 6.4 11.3 0.00 0.74 0.03 91 1012.2
20260509230525 25 355 4.8 12.9 0.00 0.74 0.03 89 1012.4
20260509230520 25 10 6.4 16.1 0.00 0.74 0.03 89 1012.3
20260509230355 23 36 3.2 11.3 0.03 0.05 0.05 94 1012.7
20260509230348 25 10 4.8 9.7 0.00 0.74 0.03 89 1012.4
20260509230222 23 327 4.8 14.5 0.00 0.05 0.05 94 1013.0
20260509230217 24 350 4.8 11.3 0.00 0.38 0.03 90 1012.6
20260509230211 23 327 6.4 14.5 0.00 0.05 0.05 94 1012.7
20260509230207 26 98 4.8 8.0 0.00 0.71 0.00 87 1012.5
20260509230201 23 292 1.6 6.4 0.03 0.08 0.05 93 1012.9
20260509230156 24 355 3.2 11.3 0.03 0.38 0.05 91 1012.7
20260509230148 26 98 4.8 8.0 0.00 0.71 0.00 89 1012.3
20260509230143 23 306 3.2 8.0 0.03 0.33 0.05 92 1012.7
20260509230137 26 98 4.8 8.0 0.03 0.74 0.03 91 1012.2
20260509230133 25 288 1.6 6.4 0.00 0.74 0.03 91 1012.3
20260509230128 26 98 0.0 0.0 0.03 0.74 0.03 92 1012.3
20260509230122 26 98 0.0 8.0 0.03 0.74 0.03 93 1012.2
20260509230117 23 338 1.6 6.4 0.03 0.05 0.05 93 1012.8
20260509230111 26 355 4.8 12.9 0.00 0.74 0.03 89 1012.4
20260509230106 26 9 3.2 11.3 0.00 0.74 0.03 90 1012.3
20260509230101 23 340 1.6 6.4 0.03 0.05 0.05 94 1012.7
20260509225934 26 97 0.0 6.4 0.03 0.74 0.03 92 1012.3
20260509225929 26 98 0.0 3.2 0.03 0.74 0.03 91 1012.6
20260509225923 25 244 1.6 8.0 0.00 0.74 0.03 90 1012.4
20260509225919 25 314 3.2 9.7 0.00 0.74 0.03 91 1012.2
20260509225913 26 346 3.2 9.7 0.00 0.74 0.03 92 1012.3
20260509225908 25 355 4.8 12.9 0.00 0.74 0.03 89 1012.4
20260509225904 25 250 6.4 11.3 0.00 0.74 0.03 91 1012.2
20260509225858 25 10 4.8 9.7 0.00 0.74 0.03 89 1012.4
20260509225851 25 10 6.4 16.1 0.00 0.74 0.03 89 1012.3
20260509225847 25 344 6.4 16.1 0.00 0.74 0.03 89 1012.5
20260509225842 23 36 3.2 11.3 0.03 0.05 0.05 94 1012.7
20260509225716 20 207 8.0 11.3 0.00 0.71 0.00 95 1011.7
20260509225711 23 292 1.6 6.4 0.03 0.08 0.05 93 1012.9
20260509225706 20 201 8.0 11.3 0.00 0.71 0.00 95 1011.8
20260509225701 24 350 4.8 11.3 0.00 0.38 0.03 90 1012.6
20260509225656 24 355 3.2 11.3 0.03 0.38 0.05 91 1012.7
20260509225651 19 215 6.4 11.3 0.00 0.71 0.00 95 1011.7
20260509225643 25 288 1.6 6.4 0.00 0.74 0.03 91 1012.3
20260509225639 23 306 3.2 8.0 0.03 0.33 0.05 92 1012.7
20260509225634 19 212 6.4 11.3 0.00 0.71 0.00 95 1011.8
20260509225628 19 215 4.8 8.0 0.00 0.71 0.00 94 1011.8
20260509225623 19 214 1.6 6.4 0.00 0.71 0.00 94 1011.8
20260509225618 19 214 3.2 6.4 0.00 0.71 0.00 94 1012.3
20260509225613 20 213 3.2 6.4 0.00 0.71 0.00 93 1012.4
20260509225607 20 212 3.2 9.7 0.00 0.71 0.00 93 1012.2
20260509225602 26 9 3.2 11.3 0.00 0.74 0.03 90 1012.3
20260509225556 26 355 4.8 12.9 0.00 0.74 0.03 89 1012.4
20260509225552 23 338 1.6 6.4 0.03 0.05 0.05 93 1012.8
20260509225545 23 340 1.6 6.4 0.03 0.05 0.05 94 1012.7
20260509225419 28 96 8.0 11.3 0.00 0.71 0.00 82 1012.6
20260509225413 28 117 6.4 9.7 0.00 0.71 0.00 84 1012.7
20260509225408 26 98 8.0 9.7 0.00 0.71 0.00 85 1012.6
20260509225402 27 98 8.0 11.3 0.00 0.71 0.00 84 1012.7
20260509225358 27 100 9.7 11.3 0.00 0.71 0.00 83 1012.6
20260509225352 25 355 4.8 12.9 0.00 0.74 0.03 89 1012.4
20260509225345 26 98 4.8 8.0 0.00 0.71 0.00 87 1012.5
20260509225340 25 10 6.4 16.1 0.00 0.74 0.03 89 1012.3
20260509225336 25 10 4.8 9.7 0.00 0.74 0.03 89 1012.4
20260509225330 26 98 4.8 8.0 0.00 0.71 0.00 89 1012.3
20260509225326 26 98 4.8 8.0 0.03 0.74 0.03 91 1012.2
20260509225320 26 98 0.0 0.0 0.03 0.74 0.03 92 1012.3
20260509225315 26 98 0.0 8.0 0.03 0.74 0.03 93 1012.2
20260509225309 26 9 1.6 8.0 0.03 0.74 0.03 92 1012.2
20260509225306 26 97 0.0 6.4 0.03 0.74 0.03 92 1012.3
20260509225258 26 98 0.0 3.2 0.03 0.74 0.03 91 1012.6
20260509225254 25 244 1.6 8.0 0.00 0.74 0.03 90 1012.4
20260509225246 25 314 3.2 9.7 0.00 0.74 0.03 91 1012.2
20260509225240 26 346 3.2 9.7 0.00 0.74 0.03 92 1012.3
20260509225236 23 36 3.2 11.3 0.03 0.05 0.05 94 1012.7
20260509225230 25 250 6.4 11.3 0.00 0.74 0.03 91 1012.2
20260509225225 23 327 6.4 14.5 0.00 0.05 0.05 94 1012.7
20260509225219 25 344 6.4 16.1 0.00 0.74 0.03 89 1012.5
20260509225214 23 292 1.6 6.4 0.03 0.08 0.05 93 1012.9
20260509225210 24 350 4.8 11.3 0.00 0.38 0.03 90 1012.6
20260509225204 24 355 3.2 11.3 0.03 0.38 0.05 91 1012.7
20260509225159 23 306 3.2 8.0 0.03 0.33 0.05 92 1012.7
20260509225153 25 288 1.6 6.4 0.00 0.74 0.03 91 1012.3
20260509225026 26 355 4.8 12.9 0.00 0.74 0.03 89 1012.4
20260509225021 23 340 1.6 6.4 0.03 0.05 0.05 94 1012.7
20260509225016 23 338 1.6 6.4 0.03 0.05 0.05 93 1012.8
20260509224848 25 10 4.8 9.7 0.00 0.74 0.03 89 1012.4
20260509224843 25 10 6.4 16.1 0.00 0.74 0.03 89 1012.3
20260509224719 23 36 3.2 11.3 0.03 0.05 0.05 94 1012.7
20260509224714 24 350 4.8 11.3 0.00 0.38 0.03 90 1012.6
20260509224709 24 355 3.2 11.3 0.03 0.38 0.05 91 1012.7
20260509224704 23 306 3.2 8.0 0.03 0.33 0.05 92 1012.7
20260509224659 23 292 1.6 6.4 0.03 0.08 0.05 93 1012.9
20260509224248 26 98 0.0 0.0 0.03 0.74 0.03 92 1012.3
20260509224243 26 97 0.0 6.4 0.03 0.74 0.03 92 1012.3
20260509224238 28 117 6.4 9.7 0.00 0.71 0.00 84 1012.7
20260509224233 26 9 1.6 8.0 0.03 0.74 0.03 92 1012.2
20260509224227 26 346 3.2 9.7 0.00 0.74 0.03 92 1012.3
20260509224222 23 36 3.2 11.3 0.03 0.05 0.05 94 1012.7
20260509224218 25 244 1.6 8.0 0.00 0.74 0.03 90 1012.4
20260509224212 25 250 6.4 11.3 0.00 0.74 0.03 91 1012.2
20260509224207 25 314 3.2 9.7 0.00 0.74 0.03 91 1012.2
20260509224201 25 288 1.6 6.4 0.00 0.74 0.03 91 1012.3
20260509224156 26 355 4.8 12.9 0.00 0.74 0.03 89 1012.4
20260509224150 26 9 3.2 11.3 0.00 0.74 0.03 90 1012.3
20260509224143 26 98 8.0 9.7 0.00 0.71 0.00 85 1012.6
20260509224138 25 10 4.8 9.7 0.00 0.74 0.03 89 1012.4
20260509224133 24 355 3.2 11.3 0.03 0.38 0.05 91 1012.7
20260509224128 23 306 3.2 8.0 0.03 0.33 0.05 92 1012.7
20260509224123 27 98 8.0 11.3 0.00 0.71 0.00 84 1012.7
20260509224118 26 98 4.8 8.0 0.00 0.71 0.00 87 1012.5
20260509224113 26 98 4.8 8.0 0.00 0.71 0.00 89 1012.3
20260509224107 26 98 4.8 8.0 0.03 0.74 0.03 91 1012.2
20260509224103 23 292 1.6 6.4 0.03 0.08 0.05 93 1012.9
20260509223935 25 355 4.8 12.9 0.00 0.74 0.03 89 1012.4
20260509223930 25 10 6.4 16.1 0.00 0.74 0.03 89 1012.3
20260509223926 25 344 6.4 16.1 0.00 0.74 0.03 89 1012.5
20260509223920 24 350 4.8 11.3 0.00 0.38 0.03 90 1012.6
20260509223915 23 338 1.6 6.4 0.03 0.05 0.05 93 1012.8
20260509223910 23 340 1.6 6.4 0.03 0.05 0.05 94 1012.7
20260509223744 26 98 0.0 3.2 0.03 0.74 0.03 91 1012.6
20260509223739 26 9 1.6 8.0 0.03 0.74 0.03 92 1012.2
20260509223735 26 97 0.0 6.4 0.03 0.74 0.03 92 1012.3
20260509223729 25 244 1.6 8.0 0.00 0.74 0.03 90 1012.4
20260509223724 25 314 3.2 9.7 0.00 0.74 0.03 91 1012.2
20260509223719 26 346 3.2 9.7 0.00 0.74 0.03 92 1012.3
20260509223714 25 250 6.4 11.3 0.00 0.74 0.03 91 1012.2
20260509223709 25 288 1.6 6.4 0.00 0.74 0.03 91 1012.3
20260509223704 26 9 3.2 11.3 0.00 0.74 0.03 90 1012.3
20260509223658 26 355 4.8 12.9 0.00 0.74 0.03 89 1012.4
20260509223653 25 10 4.8 9.7 0.00 0.74 0.03 89 1012.4
20260509223646 24 355 3.2 11.3 0.03 0.38 0.05 91 1012.7
20260509223641 23 306 3.2 8.0 0.03 0.33 0.05 92 1012.7
20260509223358 25 10 6.4 16.1 0.00 0.74 0.03 89 1012.3
20260509223352 25 344 6.4 16.1 0.00 0.74 0.03 89 1012.5
20260509223345 24 350 4.8 11.3 0.00 0.38 0.03 90 1012.6
20260509223340 23 338 1.6 6.4 0.03 0.05 0.05 93 1012.8
20260509223320 23 340 1.6 6.4 0.03 0.05 0.05 94 1012.7
20260509223209 20 224 4.8 9.7 0.00 0.71 0.00 91 1012.0
20260509223204 21 219 6.4 9.7 0.00 0.71 0.00 91 1012.1
20260509223159 21 205 6.4 11.3 0.00 0.71 0.00 91 1012.0
20260509223154 27 115 8.0 9.7 0.00 0.71 0.00 84 1012.8
20260509223149 27 117 8.0 9.7 0.00 0.71 0.00 85 1013.0
20260509223142 25 244 1.6 8.0 0.00 0.74 0.03 90 1012.4
20260509223137 27 100 9.7 11.3 0.00 0.71 0.00 83 1012.6
20260509223132 26 9 3.2 11.3 0.00 0.74 0.03 90 1012.3
20260509223127 25 250 6.4 11.3 0.00 0.74 0.03 91 1012.2
20260509223121 25 10 4.8 9.7 0.00 0.74 0.03 89 1012.4
20260509223115 28 96 8.0 11.3 0.00 0.71 0.00 82 1012.6
20260509223110 24 355 3.2 11.3 0.03 0.38 0.05 91 1012.7
20260509223104 28 117 6.4 9.7 0.00 0.71 0.00 84 1012.7
20260509223100 26 98 8.0 9.7 0.00 0.71 0.00 85 1012.6
20260509223054 27 98 8.0 11.3 0.00 0.71 0.00 84 1012.7
20260509223049 26 98 4.8 8.0 0.00 0.71 0.00 87 1012.5
20260509223042 26 98 4.8 8.0 0.00 0.71 0.00 89 1012.3
20260509223038 26 98 4.8 8.0 0.03 0.74 0.03 91 1012.2
20260509223032 26 98 0.0 8.0 0.03 0.74 0.03 93 1012.2
20260509223027 26 98 0.0 0.0 0.03 0.74 0.03 92 1012.3
20260509223022 26 98 0.0 3.2 0.03 0.74 0.03 91 1012.6
20260509223017 26 9 1.6 8.0 0.03 0.74 0.03 92 1012.2
20260509223011 26 97 0.0 6.4 0.03 0.74 0.03 92 1012.3
20260509223006 25 314 3.2 9.7 0.00 0.74 0.03 91 1012.2
20260509223001 26 346 3.2 9.7 0.00 0.74 0.03 92 1012.3
20260509222955 23 306 3.2 8.0 0.03 0.33 0.05 92 1012.7
20260509222951 26 355 4.8 12.9 0.00 0.74 0.03 89 1012.4
20260509222944 23 292 1.6 6.4 0.03 0.08 0.05 93 1012.9
20260509222817 25 355 4.8 12.9 0.00 0.74 0.03 89 1012.4
20260509222812 25 10 6.4 16.1 0.00 0.74 0.03 89 1012.3
20260509222807 25 344 6.4 16.1 0.00 0.74 0.03 89 1012.5
20260509222801 24 350 4.8 11.3 0.00 0.38 0.03 90 1012.6
20260509222755 23 338 1.6 6.4 0.03 0.05 0.05 93 1012.8
20260509222631 24 355 3.2 11.3 0.03 0.38 0.05 91 1012.7
20260509222627 25 250 6.4 11.3 0.00 0.74 0.03 91 1012.2
20260509222621 26 9 3.2 11.3 0.00 0.74 0.03 90 1012.3
20260509222616 25 10 4.8 9.7 0.00 0.74 0.03 89 1012.4
20260509222451 23 306 3.2 8.0 0.03 0.33 0.05 92 1012.7
20260509222445 26 98 8.0 9.7 0.00 0.71 0.00 85 1012.6
20260509222439 27 98 8.0 11.3 0.00 0.71 0.00 84 1012.7
20260509222433 26 98 4.8 8.0 0.00 0.71 0.00 87 1012.5
20260509222427 26 98 4.8 8.0 0.00 0.71 0.00 89 1012.3
20260509222422 26 98 4.8 8.0 0.03 0.74 0.03 91 1012.2
20260509222418 26 98 0.0 8.0 0.03 0.74 0.03 93 1012.2
20260509222411 25 314 3.2 9.7 0.00 0.74 0.03 91 1012.2
20260509222406 26 355 4.8 12.9 0.00 0.74 0.03 89 1012.4
20260509222400 23 292 1.6 6.4 0.03 0.08 0.05 93 1012.9
20260509222234 26 98 0.0 3.2 0.03 0.74 0.03 91 1012.6
20260509222230 26 9 1.6 8.0 0.03 0.74 0.03 92 1012.2
20260509222225 23 338 1.6 6.4 0.03 0.05 0.05 93 1012.8
20260509222219 26 97 0.0 6.4 0.03 0.74 0.03 92 1012.3
20260509222215 26 346 3.2 9.7 0.00 0.74 0.03 92 1012.3
20260509222210 25 355 4.8 12.9 0.00 0.74 0.03 89 1012.4
20260509222204 25 344 6.4 16.1 0.00 0.74 0.03 89 1012.5
20260509222200 25 10 6.4 16.1 0.00 0.74 0.03 89 1012.3
20260509222154 25 288 1.6 6.4 0.00 0.74 0.03 91 1012.3
20260509222149 24 355 3.2 11.3 0.03 0.38 0.05 91 1012.7
20260509222143 24 350 4.8 11.3 0.00 0.38 0.03 90 1012.6
20260509222017 25 250 6.4 11.3 0.00 0.74 0.03 91 1012.2
20260509222013 26 9 3.2 11.3 0.00 0.74 0.03 90 1012.3
20260509222007 25 10 4.8 9.7 0.00 0.74 0.03 89 1012.4
20260509222002 23 306 3.2 8.0 0.03 0.33 0.05 92 1012.7
20260509221836 26 355 4.8 12.9 0.00 0.74 0.03 89 1012.4
20260509221831 23 292 1.6 6.4 0.03 0.08 0.05 93 1012.9
20260509221706 25 10 6.4 16.1 0.00 0.74 0.03 89 1012.3
20260509221700 25 344 6.4 16.1 0.00 0.74 0.03 89 1012.5
20260509221656 24 350 4.8 11.3 0.00 0.38 0.03 90 1012.6
20260509221651 24 355 3.2 11.3 0.03 0.38 0.05 91 1012.7
20260509221524 26 98 8.0 9.7 0.00 0.71 0.00 85 1012.6
20260509221520 26 98 4.8 8.0 0.00 0.71 0.00 87 1012.5
20260509221515 26 98 4.8 8.0 0.00 0.71 0.00 89 1012.3
20260509221509 26 98 4.8 8.0 0.03 0.74 0.03 91 1012.2
20260509221504 26 98 0.0 8.0 0.03 0.74 0.03 93 1012.2
20260509221458 26 98 0.0 0.0 0.03 0.74 0.03 92 1012.3
20260509221452 26 98 0.0 3.2 0.03 0.74 0.03 91 1012.6
20260509221448 26 9 1.6 8.0 0.03 0.74 0.03 92 1012.2
20260509221443 25 10 4.8 9.7 0.00 0.74 0.03 89 1012.4
20260509221437 25 250 6.4 11.3 0.00 0.74 0.03 91 1012.2
20260509221430 26 97 0.0 6.4 0.03 0.74 0.03 92 1012.3
20260509221426 25 288 1.6 6.4 0.00 0.74 0.03 91 1012.3
20260509221420 26 9 3.2 11.3 0.00 0.74 0.03 90 1012.3
20260509221415 23 306 3.2 8.0 0.03 0.33 0.05 92 1012.7
20260509221136 25 10 6.4 16.1 0.00 0.74 0.03 89 1012.3
20260509221129 25 244 1.6 8.0 0.00 0.74 0.03 90 1012.4
20260509221123 25 314 3.2 9.7 0.00 0.74 0.03 91 1012.2
20260509221117 26 355 4.8 12.9 0.00 0.74 0.03 89 1012.4
20260509221113 25 355 4.8 12.9 0.00 0.74 0.03 89 1012.4
20260509221108 25 344 6.4 16.1 0.00 0.74 0.03 89 1012.5
20260509221102 24 350 4.8 11.3 0.00 0.38 0.03 90 1012.6
20260509221057 24 355 3.2 11.3 0.03 0.38 0.05 91 1012.7
20260509220933 25 10 4.8 9.7 0.00 0.74 0.03 89 1012.4
20260509220648 25 288 1.6 6.4 0.00 0.74 0.03 91 1012.3
20260509220642 25 10 6.4 16.1 0.00 0.74 0.03 89 1012.3
20260509220516 25 355 4.8 12.9 0.00 0.74 0.03 89 1012.4
20260509220510 25 344 6.4 16.1 0.00 0.74 0.03 89 1012.5
20260509220505 24 350 4.8 11.3 0.00 0.38 0.03 90 1012.6
20260509220459 24 355 3.2 11.3 0.03 0.38 0.05 91 1012.7
20260509220318 23 306 3.2 8.0 0.03 0.33 0.05 92 1012.7
20260509220207 27 107 8.0 9.7 0.00 0.71 0.00 85 1012.7
20260509220201 27 115 8.0 9.7 0.00 0.71 0.00 84 1012.8
20260509220155 25 250 6.4 11.3 0.00 0.74 0.03 91 1012.2
20260509220150 27 117 8.0 9.7 0.00 0.71 0.00 85 1013.0
20260509220146 26 98 0.0 0.0 0.03 0.74 0.03 92 1012.3
20260509220140 26 9 1.6 8.0 0.03 0.74 0.03 92 1012.2
20260509220136 26 97 0.0 6.4 0.03 0.74 0.03 92 1012.3
20260509220131 26 9 3.2 11.3 0.00 0.74 0.03 90 1012.3
20260509220126 25 10 6.4 16.1 0.00 0.74 0.03 89 1012.3
20260509215959 28 117 6.4 9.7 0.00 0.71 0.00 84 1012.7
20260509215954 26 346 3.2 9.7 0.00 0.74 0.03 92 1012.3
20260509215948 27 98 8.0 11.3 0.00 0.71 0.00 84 1012.7
20260509215943 27 100 9.7 11.3 0.00 0.71 0.00 83 1012.6
20260509215939 26 98 8.0 9.7 0.00 0.71 0.00 85 1012.6
20260509215933 25 344 6.4 16.1 0.00 0.74 0.03 89 1012.5
20260509215927 26 98 4.8 8.0 0.00 0.71 0.00 87 1012.5
20260509215922 25 314 3.2 9.7 0.00 0.74 0.03 91 1012.2
20260509215915 26 98 4.8 8.0 0.00 0.71 0.00 89 1012.3
20260509215910 26 98 4.8 8.0 0.03 0.74 0.03 91 1012.2
20260509215905 26 355 4.8 12.9 0.00 0.74 0.03 89 1012.4
20260509215900 26 98 0.0 8.0 0.03 0.74 0.03 93 1012.2
20260509215854 25 244 1.6 8.0 0.00 0.74 0.03 90 1012.4
20260509215850 25 288 1.6 6.4 0.00 0.74 0.03 91 1012.3
20260509215844 26 98 0.0 3.2 0.03 0.74 0.03 91 1012.6
20260509215839 25 355 4.8 12.9 0.00 0.74 0.03 89 1012.4
20260509215834 25 10 4.8 9.7 0.00 0.74 0.03 89 1012.4
20260509215829 24 350 4.8 11.3 0.00 0.38 0.03 90 1012.6
20260509215823 24 355 3.2 11.3 0.03 0.38 0.05 91 1012.7
20260509215536 27 84 6.4 9.7 0.00 0.71 0.00 87 1013.1
20260509215531 27 107 8.0 9.7 0.00 0.71 0.00 85 1012.7
20260509215525 26 98 0.0 0.0 0.03 0.74 0.03 92 1012.3
20260509215520 26 97 0.0 6.4 0.03 0.74 0.03 92 1012.3
20260509215516 26 9 3.2 11.3 0.00 0.74 0.03 90 1012.3
20260509215509 26 9 1.6 8.0 0.03 0.74 0.03 92 1012.2
20260509215503 26 346 3.2 9.7 0.00 0.74 0.03 92 1012.3
20260509215458 27 115 8.0 9.7 0.00 0.71 0.00 84 1012.8
20260509215452 25 10 6.4 16.1 0.00 0.74 0.03 89 1012.3
20260509215448 27 117 8.0 9.7 0.00 0.71 0.00 85 1013.0
20260509215443 25 344 6.4 16.1 0.00 0.74 0.03 89 1012.5
20260509215437 28 96 8.0 11.3 0.00 0.71 0.00 82 1012.6
20260509215432 28 117 6.4 9.7 0.00 0.71 0.00 84 1012.7
20260509215428 27 98 8.0 11.3 0.00 0.71 0.00 84 1012.7
20260509215422 27 100 9.7 11.3 0.00 0.71 0.00 83 1012.6
20260509215416 25 244 1.6 8.0 0.00 0.74 0.03 90 1012.4
20260509215409 25 314 3.2 9.7 0.00 0.74 0.03 91 1012.2
20260509215404 25 288 1.6 6.4 0.00 0.74 0.03 91 1012.3
20260509215400 26 355 4.8 12.9 0.00 0.74 0.03 89 1012.4
20260509215234 25 10 4.8 9.7 0.00 0.74 0.03 89 1012.4
20260509215228 26 98 8.0 9.7 0.00 0.71 0.00 85 1012.6
20260509215223 24 350 4.8 11.3 0.00 0.38 0.03 90 1012.6
20260509215217 24 355 3.2 11.3 0.03 0.38 0.05 91 1012.7
20260509215210 26 98 4.8 8.0 0.00 0.71 0.00 87 1012.5
20260509215206 26 98 4.8 8.0 0.00 0.71 0.00 89 1012.3
20260509215200 26 98 4.8 8.0 0.03 0.74 0.03 91 1012.2
20260509215155 26 98 0.0 8.0 0.03 0.74 0.03 93 1012.2
20260509215151 26 98 0.0 3.2 0.03 0.74 0.03 91 1012.6
20260509215145 25 250 6.4 11.3 0.00 0.74 0.03 91 1012.2
20260509215020 26 9 1.6 8.0 0.03 0.74 0.03 92 1012.2
20260509215016 26 97 0.0 6.4 0.03 0.74 0.03 92 1012.3
20260509215009 26 346 3.2 9.7 0.00 0.74 0.03 92 1012.3
20260509215003 26 9 3.2 11.3 0.00 0.74 0.03 90 1012.3
20260509214958 25 10 6.4 16.1 0.00 0.74 0.03 89 1012.3
20260509214953 25 344 6.4 16.1 0.00 0.74 0.03 89 1012.5
20260509214828 21 191 4.8 8.0 0.00 0.71 0.00 91 1012.2
20260509214823 21 181 4.8 9.7 0.00 0.71 0.00 91 1012.3
20260509214818 26 82 8.0 9.7 0.00 0.71 0.00 86 1013.2
20260509214812 26 95 8.0 11.3 0.00 0.71 0.00 87 1013.2
20260509214805 26 355 4.8 12.9 0.00 0.74 0.03 89 1012.4
20260509214801 27 90 6.4 9.7 0.00 0.71 0.00 85 1012.9
20260509214756 25 244 1.6 8.0 0.00 0.74 0.03 90 1012.4
20260509214751 25 314 3.2 9.7 0.00 0.74 0.03 91 1012.2
20260509214745 24 350 4.8 11.3 0.00 0.38 0.03 90 1012.6
20260509214740 25 10 4.8 9.7 0.00 0.74 0.03 89 1012.4
20260509214736 25 355 4.8 12.9 0.00 0.74 0.03 89 1012.4
20260509214730 25 288 1.6 6.4 0.00 0.74 0.03 91 1012.3
20260509214606 27 107 8.0 9.7 0.00 0.71 0.00 85 1012.7
20260509214558 25 250 6.4 11.3 0.00 0.74 0.03 91 1012.2
20260509214553 27 115 8.0 9.7 0.00 0.71 0.00 84 1012.8
20260509214547 27 117 8.0 9.7 0.00 0.71 0.00 85 1013.0
20260509214543 28 96 8.0 11.3 0.00 0.71 0.00 82 1012.6
20260509214538 28 117 6.4 9.7 0.00 0.71 0.00 84 1012.7
20260509214532 27 98 8.0 11.3 0.00 0.71 0.00 84 1012.7
20260509214528 27 100 9.7 11.3 0.00 0.71 0.00 83 1012.6
20260509214522 26 98 8.0 9.7 0.00 0.71 0.00 85 1012.6
20260509214517 26 98 4.8 8.0 0.00 0.71 0.00 87 1012.5
20260509214512 26 98 4.8 8.0 0.00 0.71 0.00 89 1012.3
20260509214507 26 98 4.8 8.0 0.03 0.74 0.03 91 1012.2
20260509214502 26 98 0.0 8.0 0.03 0.74 0.03 93 1012.2
20260509214455 26 98 0.0 3.2 0.03 0.74 0.03 91 1012.6
20260509214451 26 98 0.0 0.0 0.03 0.74 0.03 92 1012.3
20260509214445 26 9 1.6 8.0 0.03 0.74 0.03 92 1012.2
20260509214440 26 97 0.0 6.4 0.03 0.74 0.03 92 1012.3
20260509214435 26 9 3.2 11.3 0.00 0.74 0.03 90 1012.3
20260509214430 26 346 3.2 9.7 0.00 0.74 0.03 92 1012.3
20260509214426 25 10 6.4 16.1 0.00 0.74 0.03 89 1012.3
20260509214420 25 344 6.4 16.1 0.00 0.74 0.03 89 1012.5
20260509214254 26 355 4.8 12.9 0.00 0.74 0.03 89 1012.4
20260509214250 25 314 3.2 9.7 0.00 0.74 0.03 91 1012.2
20260509214244 25 288 1.6 6.4 0.00 0.74 0.03 91 1012.3
20260509214239 25 355 4.8 12.9 0.00 0.74 0.03 89 1012.4
20260509214235 25 10 4.8 9.7 0.00 0.74 0.03 89 1012.4
20260509214227 24 350 4.8 11.3 0.00 0.38 0.03 90 1012.6
20260509213820 25 10 6.4 16.1 0.00 0.74 0.03 89 1012.3
20260509213815 25 344 6.4 16.1 0.00 0.74 0.03 89 1012.5
20260509213809 26 355 4.8 12.9 0.00 0.74 0.03 89 1012.4
20260509213803 25 355 4.8 12.9 0.00 0.74 0.03 89 1012.4
20260509213518 26 98 0.0 0.0 0.03 0.74 0.03 92 1012.3
20260509213513 26 97 0.0 6.4 0.03 0.74 0.03 92 1012.3
20260509213508 26 346 3.2 9.7 0.00 0.74 0.03 92 1012.3
20260509213341 25 314 3.2 9.7 0.00 0.74 0.03 91 1012.2
20260509213335 25 288 1.6 6.4 0.00 0.74 0.03 91 1012.3
20260509213331 26 9 3.2 11.3 0.00 0.74 0.03 90 1012.3
20260509213325 25 10 6.4 16.1 0.00 0.74 0.03 89 1012.3
20260509213320 25 250 6.4 11.3 0.00 0.74 0.03 91 1012.2
20260509213303 25 344 6.4 16.1 0.00 0.74 0.03 89 1012.5
20260509213149 26 355 4.8 12.9 0.00 0.74 0.03 89 1012.4
20260509213141 25 355 4.8 12.9 0.00 0.74 0.03 89 1012.4
20260509213136 27 107 8.0 9.7 0.00 0.71 0.00 85 1012.7
20260509213132 27 115 8.0 9.7 0.00 0.71 0.00 84 1012.8
20260509213126 27 117 8.0 9.7 0.00 0.71 0.00 85 1013.0
20260509213120 28 96 8.0 11.3 0.00 0.71 0.00 82 1012.6
20260509213115 28 117 6.4 9.7 0.00 0.71 0.00 84 1012.7
20260509213110 27 98 8.0 11.3 0.00 0.71 0.00 84 1012.7
20260509213104 27 100 9.7 11.3 0.00 0.71 0.00 83 1012.6
20260509213059 26 98 8.0 9.7 0.00 0.71 0.00 85 1012.6
20260509213054 26 98 4.8 8.0 0.00 0.71 0.00 87 1012.5
20260509213050 25 10 4.8 9.7 0.00 0.74 0.03 89 1012.4
20260509213043 26 98 4.8 8.0 0.00 0.71 0.00 89 1012.3
20260509213037 26 98 4.8 8.0 0.03 0.74 0.03 91 1012.2
20260509213032 26 9 1.6 8.0 0.03 0.74 0.03 92 1012.2
20260509213028 26 98 0.0 3.2 0.03 0.74 0.03 91 1012.6
20260509212902 26 98 0.0 8.0 0.03 0.74 0.03 93 1012.2
20260509212857 26 346 3.2 9.7 0.00 0.74 0.03 92 1012.3
20260509212852 26 98 0.0 0.0 0.03 0.74 0.03 92 1012.3
20260509212848 25 244 1.6 8.0 0.00 0.74 0.03 90 1012.4
20260509212841 25 314 3.2 9.7 0.00 0.74 0.03 91 1012.2
20260509212835 25 288 1.6 6.4 0.00 0.74 0.03 91 1012.3
20260509212830 25 250 6.4 11.3 0.00 0.74 0.03 91 1012.2
20260509212826 26 9 3.2 11.3 0.00 0.74 0.03 90 1012.3
20260509212820 25 10 6.4 16.1 0.00 0.74 0.03 89 1012.3
20260509212654 25 355 4.8 12.9 0.00 0.74 0.03 89 1012.4
20260509212527 25 10 4.8 9.7 0.00 0.74 0.03 89 1012.4
20260509212402 26 346 3.2 9.7 0.00 0.74 0.03 92 1012.3
20260509212234 27 117 8.0 9.7 0.00 0.71 0.00 85 1013.0
20260509212230 28 96 8.0 11.3 0.00 0.71 0.00 82 1012.6
20260509212224 28 117 6.4 9.7 0.00 0.71 0.00 84 1012.7
20260509212219 25 10 6.4 16.1 0.00 0.74 0.03 89 1012.3
20260509212213 27 98 8.0 11.3 0.00 0.71 0.00 84 1012.7
20260509212207 27 100 9.7 11.3 0.00 0.71 0.00 83 1012.6
20260509212203 25 244 1.6 8.0 0.00 0.74 0.03 90 1012.4
20260509212158 26 98 8.0 9.7 0.00 0.71 0.00 85 1012.6
20260509212152 26 98 4.8 8.0 0.00 0.71 0.00 87 1012.5
20260509212147 25 314 3.2 9.7 0.00 0.74 0.03 91 1012.2
20260509212141 25 288 1.6 6.4 0.00 0.74 0.03 91 1012.3
20260509212134 25 250 6.4 11.3 0.00 0.74 0.03 91 1012.2
20260509212129 26 9 3.2 11.3 0.00 0.74 0.03 90 1012.3
20260509212123 26 355 4.8 12.9 0.00 0.74 0.03 89 1012.4
20260509212119 25 355 4.8 12.9 0.00 0.74 0.03 89 1012.4
20260509211953 26 98 4.8 8.0 0.03 0.74 0.03 91 1012.2
20260509211947 26 98 0.0 3.2 0.03 0.74 0.03 91 1012.6
20260509211942 25 10 4.8 9.7 0.00 0.74 0.03 89 1012.4
20260509211818 26 98 0.0 0.0 0.03 0.74 0.03 92 1012.3
20260509211812 26 9 1.6 8.0 0.03 0.74 0.03 92 1012.2
20260509211807 26 97 0.0 6.4 0.03 0.74 0.03 92 1012.3
20260509211802 26 346 3.2 9.7 0.00 0.74 0.03 92 1012.3
20260509211635 25 314 3.2 9.7 0.00 0.74 0.03 91 1012.2
20260509211629 25 288 1.6 6.4 0.00 0.74 0.03 91 1012.3
20260509211624 25 250 6.4 11.3 0.00 0.74 0.03 91 1012.2
20260509211620 26 9 3.2 11.3 0.00 0.74 0.03 90 1012.3
20260509211614 26 355 4.8 12.9 0.00 0.74 0.03 89 1012.4
20260509211206 26 98 8.0 9.7 0.00 0.71 0.00 85 1012.6
20260509211202 26 98 4.8 8.0 0.00 0.71 0.00 87 1012.5
20260509211156 26 98 4.8 8.0 0.00 0.71 0.00 89 1012.3
20260509211151 26 98 4.8 8.0 0.03 0.74 0.03 91 1012.2
20260509211145 26 98 0.0 3.2 0.03 0.74 0.03 91 1012.6
20260509211140 26 98 0.0 8.0 0.03 0.74 0.03 93 1012.2
20260509211133 26 98 0.0 0.0 0.03 0.74 0.03 92 1012.3
20260509211129 26 9 1.6 8.0 0.03 0.74 0.03 92 1012.2
20260509211123 26 97 0.0 6.4 0.03 0.74 0.03 92 1012.3
20260509211118 26 346 3.2 9.7 0.00 0.74 0.03 92 1012.3
20260509210951 26 9 3.2 11.3 0.00 0.74 0.03 90 1012.3
20260509210946 25 288 1.6 6.4 0.00 0.74 0.03 91 1012.3
20260509210942 25 314 3.2 9.7 0.00 0.74 0.03 91 1012.2
20260509210936 25 250 6.4 11.3 0.00 0.74 0.03 91 1012.2
20260509210808 25 355 4.8 12.9 0.00 0.74 0.03 89 1012.4
20260509210642 21 190 8.0 17.7 0.00 0.71 0.00 89 1012.5
20260509210638 26 82 8.0 9.7 0.00 0.71 0.00 86 1013.2
20260509210632 26 95 8.0 11.3 0.00 0.71 0.00 87 1013.2
20260509210625 26 9 1.6 8.0 0.03 0.74 0.03 92 1012.2
20260509210620 27 84 6.4 9.7 0.00 0.71 0.00 87 1013.1
20260509210614 27 90 6.4 9.7 0.00 0.71 0.00 85 1012.9
20260509210610 27 115 8.0 9.7 0.00 0.71 0.00 84 1012.8
20260509210604 27 107 8.0 9.7 0.00 0.71 0.00 85 1012.7
20260509210559 27 117 8.0 9.7 0.00 0.71 0.00 85 1013.0
20260509210553 28 96 8.0 11.3 0.00 0.71 0.00 82 1012.6
20260509210549 28 117 6.4 9.7 0.00 0.71 0.00 84 1012.7
20260509210544 27 100 9.7 11.3 0.00 0.71 0.00 83 1012.6
20260509210540 27 98 8.0 11.3 0.00 0.71 0.00 84 1012.7
20260509210534 26 98 8.0 9.7 0.00 0.71 0.00 85 1012.6
20260509210528 26 98 4.8 8.0 0.00 0.71 0.00 87 1012.5
20260509210522 26 98 4.8 8.0 0.00 0.71 0.00 89 1012.3
20260509210517 26 98 4.8 8.0 0.03 0.74 0.03 91 1012.2
20260509210512 26 98 0.0 3.2 0.03 0.74 0.03 91 1012.6
20260509210506 26 98 0.0 8.0 0.03 0.74 0.03 93 1012.2
20260509210502 26 98 0.0 0.0 0.03 0.74 0.03 92 1012.3
20260509210456 26 97 0.0 6.4 0.03 0.74 0.03 92 1012.3
20260509210452 25 288 1.6 6.4 0.00 0.74 0.03 91 1012.3
20260509210447 25 250 6.4 11.3 0.00 0.74 0.03 91 1012.2
20260509210441 26 9 3.2 11.3 0.00 0.74 0.03 90 1012.3
20260509210315 25 244 1.6 8.0 0.00 0.74 0.03 90 1012.4
20260509210309 25 314 3.2 9.7 0.00 0.74 0.03 91 1012.2
20260509210304 26 355 4.8 12.9 0.00 0.74 0.03 89 1012.4
20260509210248 25 355 4.8 12.9 0.00 0.74 0.03 89 1012.4
20260509210134 26 9 1.6 8.0 0.03 0.74 0.03 92 1012.2
20260509210128 22 123 14.5 17.7 0.00 0.71 0.00 89 1012.4
20260509210121 22 122 12.9 17.7 0.00 0.71 0.00 90 1012.4
20260509210115 21 127 9.7 12.9 0.00 0.71 0.00 91 1012.5
20260509210111 21 120 8.0 11.3 0.00 0.71 0.00 91 1012.9
20260509210106 21 117 8.0 11.3 0.00 0.71 0.00 92 1013.0
20260509210100 21 119 9.7 14.5 0.00 0.71 0.00 92 1013.1
20260509210054 21 116 8.0 11.3 0.00 0.71 0.00 92 1013.3
20260509210050 21 124 8.0 14.5 0.00 0.71 0.00 92 1013.6
20260509210045 21 111 8.0 14.5 0.00 0.71 0.00 92 1013.7
20260509210039 21 97 6.4 12.9 0.00 0.71 0.00 92 1013.8
20260509210034 26 129 4.8 11.3 0.00 0.71 0.00 86 1013.0
20260509210030 26 175 1.6 8.0 0.00 0.71 0.00 85 1013.0
20260509210023 26 175 1.6 6.4 0.00 0.71 0.00 84 1013.4
20260509210017 26 174 3.2 11.3 0.00 0.71 0.00 87 1013.4
20260509210012 25 288 1.6 6.4 0.00 0.74 0.03 91 1012.3
20260509210008 26 82 8.0 9.7 0.00 0.71 0.00 86 1013.2
20260509210002 26 95 8.0 11.3 0.00 0.71 0.00 87 1013.2
20260509205957 27 84 6.4 9.7 0.00 0.71 0.00 87 1013.1
20260509205952 27 90 6.4 9.7 0.00 0.71 0.00 85 1012.9
20260509205947 27 115 8.0 9.7 0.00 0.71 0.00 84 1012.8
20260509205941 27 107 8.0 9.7 0.00 0.71 0.00 85 1012.7
20260509205935 27 117 8.0 9.7 0.00 0.71 0.00 85 1013.0
20260509205930 28 96 8.0 11.3 0.00 0.71 0.00 82 1012.6
20260509205925 28 117 6.4 9.7 0.00 0.71 0.00 84 1012.7
20260509205919 25 250 6.4 11.3 0.00 0.74 0.03 91 1012.2
20260509205913 26 9 3.2 11.3 0.00 0.74 0.03 90 1012.3
20260509205749 27 98 8.0 11.3 0.00 0.71 0.00 84 1012.7
20260509205744 26 98 8.0 9.7 0.00 0.71 0.00 85 1012.6
20260509205740 26 98 4.8 8.0 0.00 0.71 0.00 87 1012.5
20260509205734 26 98 4.8 8.0 0.00 0.71 0.00 89 1012.3
20260509205728 26 98 4.8 8.0 0.03 0.74 0.03 91 1012.2
20260509205721 26 98 0.0 3.2 0.03 0.74 0.03 91 1012.6
20260509205716 26 98 0.0 8.0 0.03 0.74 0.03 93 1012.2
20260509205710 26 355 4.8 12.9 0.00 0.74 0.03 89 1012.4
20260509205706 26 98 0.0 0.0 0.03 0.74 0.03 92 1012.3
20260509205700 26 97 0.0 6.4 0.03 0.74 0.03 92 1012.3
20260509205656 26 9 1.6 8.0 0.03 0.74 0.03 92 1012.2
20260509205650 26 346 3.2 9.7 0.00 0.74 0.03 92 1012.3
20260509205645 25 244 1.6 8.0 0.00 0.74 0.03 90 1012.4
20260509205641 25 314 3.2 9.7 0.00 0.74 0.03 91 1012.2
20260509205352 26 9 3.2 11.3 0.00 0.74 0.03 90 1012.3
20260509204826 26 9 1.6 8.0 0.03 0.74 0.03 92 1012.2
20260509204820 25 314 3.2 9.7 0.00 0.74 0.03 91 1012.2
20260509204813 25 250 6.4 11.3 0.00 0.74 0.03 91 1012.2
20260509204809 26 9 3.2 11.3 0.00 0.74 0.03 90 1012.3
20260509204643 21 112 8.0 11.3 0.00 0.71 0.00 93 1014.2
20260509204637 21 81 9.7 16.1 0.00 0.71 0.00 94 1014.2
20260509204632 21 82 9.7 16.1 0.00 0.71 0.00 94 1014.0
20260509204628 25 178 8.0 11.3 0.00 0.71 0.00 87 1013.3
20260509204622 25 148 6.4 9.7 0.00 0.71 0.00 89 1013.1
20260509204618 26 129 4.8 11.3 0.00 0.71 0.00 86 1013.0
20260509204612 26 175 1.6 8.0 0.00 0.71 0.00 85 1013.0
20260509204604 26 175 1.6 6.4 0.00 0.71 0.00 84 1013.4
20260509204600 26 174 3.2 11.3 0.00 0.71 0.00 87 1013.4
20260509204554 26 98 0.0 0.0 0.03 0.74 0.03 92 1012.3
20260509204549 26 82 8.0 9.7 0.00 0.71 0.00 86 1013.2
20260509204543 26 98 0.0 3.2 0.03 0.74 0.03 91 1012.6
20260509204418 26 98 4.8 8.0 0.03 0.74 0.03 91 1012.2
20260509204412 26 97 0.0 6.4 0.03 0.74 0.03 92 1012.3
20260509204405 27 84 6.4 9.7 0.00 0.71 0.00 87 1013.1
20260509204359 27 98 8.0 11.3 0.00 0.71 0.00 84 1012.7
20260509204354 26 98 4.8 8.0 0.00 0.71 0.00 87 1012.5
20260509204349 26 98 4.8 8.0 0.00 0.71 0.00 89 1012.3
20260509204344 26 98 0.0 8.0 0.03 0.74 0.03 93 1012.2
20260509204338 25 288 1.6 6.4 0.00 0.74 0.03 91 1012.3
20260509204334 27 115 8.0 9.7 0.00 0.71 0.00 84 1012.8
20260509204329 26 346 3.2 9.7 0.00 0.74 0.03 92 1012.3
20260509204323 27 107 8.0 9.7 0.00 0.71 0.00 85 1012.7
20260509204318 27 117 8.0 9.7 0.00 0.71 0.00 85 1013.0
20260509204312 25 244 1.6 8.0 0.00 0.74 0.03 90 1012.4
20260509204305 27 90 6.4 9.7 0.00 0.71 0.00 85 1012.9
20260509204301 28 96 8.0 11.3 0.00 0.71 0.00 82 1012.6
20260509204255 26 9 1.6 8.0 0.03 0.74 0.03 92 1012.2
20260509204250 25 250 6.4 11.3 0.00 0.74 0.03 91 1012.2
20260509204244 26 95 8.0 11.3 0.00 0.71 0.00 87 1013.2
20260509204239 25 314 3.2 9.7 0.00 0.74 0.03 91 1012.2
20260509204234 28 117 6.4 9.7 0.00 0.71 0.00 84 1012.7
20260509204229 27 100 9.7 11.3 0.00 0.71 0.00 83 1012.6
20260509204221 26 9 3.2 11.3 0.00 0.74 0.03 90 1012.3
20260509204056 26 98 0.0 0.0 0.03 0.74 0.03 92 1012.3
20260509203929 25 178 8.0 11.3 0.00 0.71 0.00 87 1013.3
20260509203924 27 98 8.0 11.3 0.00 0.71 0.00 84 1012.7
20260509203918 26 129 4.8 11.3 0.00 0.71 0.00 86 1013.0
20260509203914 26 97 0.0 6.4 0.03 0.74 0.03 92 1012.3
20260509203909 26 98 4.8 8.0 0.00 0.71 0.00 89 1012.3
20260509203902 26 98 4.8 8.0 0.00 0.71 0.00 87 1012.5
20260509203856 26 98 4.8 8.0 0.03 0.74 0.03 91 1012.2
20260509203851 26 175 1.6 8.0 0.00 0.71 0.00 85 1013.0
20260509203846 26 346 3.2 9.7 0.00 0.74 0.03 92 1012.3
20260509203841 26 98 0.0 8.0 0.03 0.74 0.03 93 1012.2
20260509203835 25 288 1.6 6.4 0.00 0.74 0.03 91 1012.3
20260509203831 25 244 1.6 8.0 0.00 0.74 0.03 90 1012.4
20260509203825 26 82 8.0 9.7 0.00 0.71 0.00 86 1013.2
20260509203820 27 84 6.4 9.7 0.00 0.71 0.00 87 1013.1
20260509203815 27 90 6.4 9.7 0.00 0.71 0.00 85 1012.9
20260509203810 27 115 8.0 9.7 0.00 0.71 0.00 84 1012.8
20260509203802 27 107 8.0 9.7 0.00 0.71 0.00 85 1012.7
20260509203758 27 117 8.0 9.7 0.00 0.71 0.00 85 1013.0
20260509203753 28 96 8.0 11.3 0.00 0.71 0.00 82 1012.6
20260509203748 26 9 1.6 8.0 0.03 0.74 0.03 92 1012.2
20260509203742 25 314 3.2 9.7 0.00 0.74 0.03 91 1012.2
20260509203737 25 250 6.4 11.3 0.00 0.74 0.03 91 1012.2
20260509203612 27 100 9.7 11.3 0.00 0.71 0.00 83 1012.6
20260509203607 26 98 0.0 3.2 0.03 0.74 0.03 91 1012.6
20260509203602 26 98 0.0 0.0 0.03 0.74 0.03 92 1012.3
20260509203435 26 97 0.0 6.4 0.03 0.74 0.03 92 1012.3
20260509203431 26 95 8.0 11.3 0.00 0.71 0.00 87 1013.2
20260509203425 27 98 8.0 11.3 0.00 0.71 0.00 84 1012.7
20260509203420 26 98 8.0 9.7 0.00 0.71 0.00 85 1012.6
20260509203414 26 98 4.8 8.0 0.00 0.71 0.00 87 1012.5
20260509203410 26 98 4.8 8.0 0.00 0.71 0.00 89 1012.3
20260509203404 26 98 4.8 8.0 0.03 0.74 0.03 91 1012.2
20260509203400 26 98 0.0 8.0 0.03 0.74 0.03 93 1012.2
20260509203352 26 346 3.2 9.7 0.00 0.74 0.03 92 1012.3
20260509203348 25 244 1.6 8.0 0.00 0.74 0.03 90 1012.4
20260509203342 25 288 1.6 6.4 0.00 0.74 0.03 91 1012.3
20260509203218 26 9 1.6 8.0 0.03 0.74 0.03 92 1012.2
20260509203213 25 250 6.4 11.3 0.00 0.74 0.03 91 1012.2
20260509203046 27 84 6.4 9.7 0.00 0.71 0.00 87 1013.1
20260509203041 27 90 6.4 9.7 0.00 0.71 0.00 85 1012.9
20260509203035 27 115 8.0 9.7 0.00 0.71 0.00 84 1012.8
20260509203030 27 107 8.0 9.7 0.00 0.71 0.00 85 1012.7
20260509203024 27 117 8.0 9.7 0.00 0.71 0.00 85 1013.0
20260509203019 28 96 8.0 11.3 0.00 0.71 0.00 82 1012.6
20260509203014 28 117 6.4 9.7 0.00 0.71 0.00 84 1012.7
20260509203009 27 100 9.7 11.3 0.00 0.71 0.00 83 1012.6
20260509203004 26 98 0.0 3.2 0.03 0.74 0.03 91 1012.6
20260509202958 26 98 0.0 0.0 0.03 0.74 0.03 92 1012.3
20260509202951 26 97 0.0 6.4 0.03 0.74 0.03 92 1012.3
20260509202826 21 46 11.3 16.1 0.00 0.71 0.00 95 1014.6
20260509202822 21 27 6.4 14.5 0.00 0.71 0.00 95 1014.9
20260509202817 25 186 1.6 9.7 0.00 0.71 0.00 87 1013.1
20260509202811 25 235 3.2 11.3 0.00 0.71 0.00 86 1013.1
20260509202806 25 148 6.4 9.7 0.00 0.71 0.00 89 1013.1
20260509202800 26 174 3.2 11.3 0.00 0.71 0.00 87 1013.4
20260509202755 26 98 8.0 9.7 0.00 0.71 0.00 85 1012.6
20260509202748 27 98 8.0 11.3 0.00 0.71 0.00 84 1012.7
20260509202743 25 244 1.6 8.0 0.00 0.74 0.03 90 1012.4
20260509202738 26 98 4.8 8.0 0.00 0.71 0.00 87 1012.5
20260509202733 26 346 3.2 9.7 0.00 0.74 0.03 92 1012.3
20260509202728 26 98 4.8 8.0 0.00 0.71 0.00 89 1012.3
20260509202724 26 98 4.8 8.0 0.03 0.74 0.03 91 1012.2
20260509202718 26 9 1.6 8.0 0.03 0.74 0.03 92 1012.2
20260509202713 25 314 3.2 9.7 0.00 0.74 0.03 91 1012.2
20260509202707 25 288 1.6 6.4 0.00 0.74 0.03 91 1012.3
20260509202702 25 178 8.0 11.3 0.00 0.71 0.00 87 1013.3
20260509202658 26 98 0.0 8.0 0.03 0.74 0.03 93 1012.2
20260509202531 26 175 1.6 8.0 0.00 0.71 0.00 85 1013.0
20260509202525 26 175 1.6 6.4 0.00 0.71 0.00 84 1013.4
20260509202520 26 95 8.0 11.3 0.00 0.71 0.00 87 1013.2
20260509202515 26 82 8.0 9.7 0.00 0.71 0.00 86 1013.2
20260509202510 27 84 6.4 9.7 0.00 0.71 0.00 87 1013.1
20260509202505 27 90 6.4 9.7 0.00 0.71 0.00 85 1012.9
20260509202459 27 115 8.0 9.7 0.00 0.71 0.00 84 1012.8
20260509202454 27 107 8.0 9.7 0.00 0.71 0.00 85 1012.7
20260509202447 27 117 8.0 9.7 0.00 0.71 0.00 85 1013.0
20260509202443 28 96 8.0 11.3 0.00 0.71 0.00 82 1012.6
20260509202437 28 117 6.4 9.7 0.00 0.71 0.00 84 1012.7
20260509202431 27 100 9.7 11.3 0.00 0.71 0.00 83 1012.6
20260509202426 26 98 0.0 3.2 0.03 0.74 0.03 91 1012.6
20260509202422 26 98 0.0 0.0 0.03 0.74 0.03 92 1012.3
20260509202416 26 97 0.0 6.4 0.03 0.74 0.03 92 1012.3
20260509202252 26 98 8.0 9.7 0.00 0.71 0.00 85 1012.6
20260509202247 25 244 1.6 8.0 0.00 0.74 0.03 90 1012.4
20260509202240 26 346 3.2 9.7 0.00 0.74 0.03 92 1012.3
20260509202236 26 9 1.6 8.0 0.03 0.74 0.03 92 1012.2
20260509202230 26 98 4.8 8.0 0.00 0.71 0.00 87 1012.5
20260509202226 26 98 4.8 8.0 0.00 0.71 0.00 89 1012.3
20260509202221 26 98 4.8 8.0 0.03 0.74 0.03 91 1012.2
20260509202215 25 314 3.2 9.7 0.00 0.74 0.03 91 1012.2
20260509202210 25 288 1.6 6.4 0.00 0.74 0.03 91 1012.3
20260509201924 26 98 0.0 0.0 0.03 0.74 0.03 92 1012.3
20260509201918 26 97 0.0 6.4 0.03 0.74 0.03 92 1012.3
20260509201753 26 346 3.2 9.7 0.00 0.74 0.03 92 1012.3
20260509201748 25 244 1.6 8.0 0.00 0.74 0.03 90 1012.4
20260509201742 26 9 1.6 8.0 0.03 0.74 0.03 92 1012.2
20260509201616 28 96 8.0 11.3 0.00 0.71 0.00 82 1012.6
20260509201610 28 117 6.4 9.7 0.00 0.71 0.00 84 1012.7
20260509201606 27 100 9.7 11.3 0.00 0.71 0.00 83 1012.6
20260509201600 25 314 3.2 9.7 0.00 0.74 0.03 91 1012.2
20260509201432 26 98 8.0 9.7 0.00 0.71 0.00 85 1012.6
20260509201427 26 98 4.8 8.0 0.00 0.71 0.00 87 1012.5
20260509201423 26 98 4.8 8.0 0.00 0.71 0.00 89 1012.3
20260509201417 26 98 4.8 8.0 0.03 0.74 0.03 91 1012.2
20260509201412 26 98 0.0 8.0 0.03 0.74 0.03 93 1012.2
20260509201407 26 98 0.0 3.2 0.03 0.74 0.03 91 1012.6
20260509201402 26 98 0.0 0.0 0.03 0.74 0.03 92 1012.3
20260509201357 26 97 0.0 6.4 0.03 0.74 0.03 92 1012.3
20260509201230 26 346 3.2 9.7 0.00 0.74 0.03 92 1012.3
20260509201224 25 244 1.6 8.0 0.00 0.74 0.03 90 1012.4
20260509201024 25 314 3.2 9.7 0.00 0.74 0.03 91 1012.2
20260509195127 26 129 4.8 11.3 0.00 0.71 0.00 86 1013.0
20260509195121 26 175 1.6 8.0 0.00 0.71 0.00 85 1013.0
20260509195115 26 95 8.0 11.3 0.00 0.71 0.00 87 1013.2
20260509195111 26 98 0.0 0.0 0.03 0.74 0.03 92 1012.3
20260509194942 27 84 6.4 9.7 0.00 0.71 0.00 87 1013.1
20260509194937 27 90 6.4 9.7 0.00 0.71 0.00 85 1012.9
20260509194932 27 107 8.0 9.7 0.00 0.71 0.00 85 1012.7
20260509194927 27 115 8.0 9.7 0.00 0.71 0.00 84 1012.8
20260509194921 27 117 8.0 9.7 0.00 0.71 0.00 85 1013.0
20260509194916 28 96 8.0 11.3 0.00 0.71 0.00 82 1012.6
20260509194910 28 117 6.4 9.7 0.00 0.71 0.00 84 1012.7
20260509194906 27 100 9.7 11.3 0.00 0.71 0.00 83 1012.6
20260509194740 27 98 8.0 11.3 0.00 0.71 0.00 84 1012.7
20260509194734 26 97 0.0 6.4 0.03 0.74 0.03 92 1012.3
20260509194728 26 98 8.0 9.7 0.00 0.71 0.00 85 1012.6
20260509194723 26 98 4.8 8.0 0.00 0.71 0.00 87 1012.5
20260509194719 26 98 4.8 8.0 0.00 0.71 0.00 89 1012.3
20260509194713 26 98 4.8 8.0 0.03 0.74 0.03 91 1012.2
20260509194708 26 98 0.0 8.0 0.03 0.74 0.03 93 1012.2
20260509194701 26 9 1.6 8.0 0.03 0.74 0.03 92 1012.2
20260509194254 26 98 0.0 3.2 0.03 0.74 0.03 91 1012.6
20260509194249 25 148 6.4 9.7 0.00 0.71 0.00 89 1013.1
20260509194243 26 97 0.0 6.4 0.03 0.74 0.03 92 1012.3
20260509194238 26 174 3.2 11.3 0.00 0.71 0.00 87 1013.4
20260509194232 25 178 8.0 11.3 0.00 0.71 0.00 87 1013.3
20260509194228 26 175 1.6 6.4 0.00 0.71 0.00 84 1013.4
20260509194222 26 129 4.8 11.3 0.00 0.71 0.00 86 1013.0
20260509194217 26 175 1.6 8.0 0.00 0.71 0.00 85 1013.0
20260509194212 27 100 9.7 11.3 0.00 0.71 0.00 83 1012.6
20260509194207 26 9 1.6 8.0 0.03 0.74 0.03 92 1012.2
20260509194201 26 98 8.0 9.7 0.00 0.71 0.00 85 1012.6
20260509194035 27 98 8.0 11.3 0.00 0.71 0.00 84 1012.7
20260509194029 26 98 4.8 8.0 0.00 0.71 0.00 87 1012.5
20260509194024 26 98 4.8 8.0 0.00 0.71 0.00 89 1012.3
20260509194018 26 98 4.8 8.0 0.03 0.74 0.03 91 1012.2
20260509194013 26 98 0.0 8.0 0.03 0.74 0.03 93 1012.2
20260509194008 26 98 0.0 0.0 0.03 0.74 0.03 92 1012.3
20260509193842 27 84 6.4 9.7 0.00 0.71 0.00 87 1013.1
20260509193836 27 90 6.4 9.7 0.00 0.71 0.00 85 1012.9
20260509193831 27 107 8.0 9.7 0.00 0.71 0.00 85 1012.7
20260509193827 27 115 8.0 9.7 0.00 0.71 0.00 84 1012.8
20260509193821 27 117 8.0 9.7 0.00 0.71 0.00 85 1013.0
20260509193816 28 117 6.4 9.7 0.00 0.71 0.00 84 1012.7
20260509193810 28 96 8.0 11.3 0.00 0.71 0.00 82 1012.6
20260509193806 26 98 0.0 3.2 0.03 0.74 0.03 91 1012.6
20260509193800 26 97 0.0 6.4 0.03 0.74 0.03 92 1012.3
20260509193513 27 98 8.0 11.3 0.00 0.71 0.00 84 1012.7
20260509193508 26 98 4.8 8.0 0.00 0.71 0.00 87 1012.5
20260509193503 26 98 4.8 8.0 0.00 0.71 0.00 89 1012.3
20260509193459 26 98 0.0 8.0 0.03 0.74 0.03 93 1012.2
20260509193454 26 98 4.8 8.0 0.03 0.74 0.03 91 1012.2
20260509193448 26 98 0.0 0.0 0.03 0.74 0.03 92 1012.3
20260509193321 21 12 4.8 14.5 0.00 0.71 0.00 95 1015.4
20260509193317 21 343 8.0 16.1 0.00 0.71 0.00 94 1015.2
20260509193312 21 0 8.0 22.5 0.00 0.71 0.00 95 1015.5
20260509193306 21 12 11.3 27.4 0.00 0.71 0.00 95 1015.6
20260509193302 26 98 0.0 3.2 0.03 0.74 0.03 91 1012.6
20260509193257 25 192 4.8 11.3 0.00 0.71 0.00 87 1013.3
20260509193251 25 235 3.2 11.3 0.00 0.71 0.00 86 1013.1
20260509193244 25 186 1.6 9.7 0.00 0.71 0.00 87 1013.1
20260509193238 25 148 6.4 9.7 0.00 0.71 0.00 89 1013.1
20260509193233 27 84 6.4 9.7 0.00 0.71 0.00 87 1013.1
20260509193228 26 174 3.2 11.3 0.00 0.71 0.00 87 1013.4
20260509193223 25 178 8.0 11.3 0.00 0.71 0.00 87 1013.3
20260509193218 26 175 1.6 6.4 0.00 0.71 0.00 84 1013.4
20260509193213 26 129 4.8 11.3 0.00 0.71 0.00 86 1013.0
20260509193207 26 97 0.0 6.4 0.03 0.74 0.03 92 1012.3
20260509193202 26 175 1.6 8.0 0.00 0.71 0.00 85 1013.0
20260509193156 26 95 8.0 11.3 0.00 0.71 0.00 87 1013.2
20260509193152 27 90 6.4 9.7 0.00 0.71 0.00 85 1012.9
20260509193144 27 107 8.0 9.7 0.00 0.71 0.00 85 1012.7
20260509193140 26 82 8.0 9.7 0.00 0.71 0.00 86 1013.2
20260509193135 27 115 8.0 9.7 0.00 0.71 0.00 84 1012.8
20260509193130 27 117 8.0 9.7 0.00 0.71 0.00 85 1013.0
20260509193124 28 117 6.4 9.7 0.00 0.71 0.00 84 1012.7
20260509193120 28 96 8.0 11.3 0.00 0.71 0.00 82 1012.6
20260509193114 26 98 8.0 9.7 0.00 0.71 0.00 85 1012.6
20260509192951 27 98 8.0 11.3 0.00 0.71 0.00 84 1012.7
20260509192945 26 98 0.0 8.0 0.03 0.74 0.03 93 1012.2
20260509192938 26 98 4.8 8.0 0.00 0.71 0.00 87 1012.5
20260509192934 26 98 4.8 8.0 0.00 0.71 0.00 89 1012.3
20260509192928 26 98 4.8 8.0 0.03 0.74 0.03 91 1012.2
20260509192924 26 98 0.0 0.0 0.03 0.74 0.03 92 1012.3
20260509192758 27 84 6.4 9.7 0.00 0.71 0.00 87 1013.1
20260509192632 27 107 8.0 9.7 0.00 0.71 0.00 85 1012.7
20260509192628 27 115 8.0 9.7 0.00 0.71 0.00 84 1012.8
20260509192623 27 117 8.0 9.7 0.00 0.71 0.00 85 1013.0
20260509192617 28 117 6.4 9.7 0.00 0.71 0.00 84 1012.7
20260509192452 27 100 9.7 11.3 0.00 0.71 0.00 83 1012.6
20260509192448 27 98 8.0 11.3 0.00 0.71 0.00 84 1012.7
20260509192442 26 98 8.0 9.7 0.00 0.71 0.00 85 1012.6
20260509192437 26 98 4.8 8.0 0.00 0.71 0.00 87 1012.5
20260509192430 26 98 4.8 8.0 0.00 0.71 0.00 89 1012.3
20260509192424 26 98 4.8 8.0 0.03 0.74 0.03 91 1012.2
20260509192420 26 98 0.0 8.0 0.03 0.74 0.03 93 1012.2
20260509192245 26 98 0.0 0.0 0.03 0.74 0.03 92 1012.3
20260509192128 21 346 11.3 25.7 0.00 0.71 0.71 95 1015.4
20260509192124 22 317 6.4 20.9 0.00 0.71 0.71 95 1015.3
20260509192118 22 339 8.0 20.9 0.00 0.71 0.71 95 1015.4
20260509192113 22 5 16.1 24.1 0.00 0.71 0.71 96 1015.1
20260509192108 22 27 17.7 24.1 0.00 0.71 0.71 96 1014.9
20260509192103 22 9 16.1 19.3 0.00 0.71 0.71 96 1015.0
20260509192057 25 237 8.0 14.5 0.00 0.71 0.00 88 1013.4
20260509192051 25 192 4.8 11.3 0.00 0.71 0.00 87 1013.3
20260509192047 25 235 3.2 11.3 0.00 0.71 0.00 86 1013.1
20260509192042 25 186 1.6 9.7 0.00 0.71 0.00 87 1013.1
20260509192036 27 115 8.0 9.7 0.00 0.71 0.00 84 1012.8
20260509192031 26 174 3.2 11.3 0.00 0.71 0.00 87 1013.4
20260509192024 25 148 6.4 9.7 0.00 0.71 0.00 89 1013.1
20260509192019 25 178 8.0 11.3 0.00 0.71 0.00 87 1013.3
20260509192014 26 175 1.6 6.4 0.00 0.71 0.00 84 1013.4
20260509192010 26 129 4.8 11.3 0.00 0.71 0.00 86 1013.0
20260509192004 26 82 8.0 9.7 0.00 0.71 0.00 86 1013.2
20260509191959 22 13 14.5 19.3 0.00 0.71 0.71 96 1014.9
20260509191953 27 84 6.4 9.7 0.00 0.71 0.00 87 1013.1
20260509191948 26 175 1.6 8.0 0.00 0.71 0.00 85 1013.0
20260509191943 26 95 8.0 11.3 0.00 0.71 0.00 87 1013.2
20260509191938 27 90 6.4 9.7 0.00 0.71 0.00 85 1012.9
20260509191932 27 107 8.0 9.7 0.00 0.71 0.00 85 1012.7
20260509191925 22 42 12.9 17.7 0.00 0.71 0.71 96 1014.8
20260509191920 28 117 6.4 9.7 0.00 0.71 0.00 84 1012.7
20260509191914 26 98 8.0 9.7 0.00 0.71 0.00 85 1012.6
20260509191910 27 100 9.7 11.3 0.00 0.71 0.00 83 1012.6
20260509191904 27 117 8.0 9.7 0.00 0.71 0.00 85 1013.0
20260509191859 26 98 4.8 8.0 0.00 0.71 0.00 89 1012.3
20260509191854 28 96 8.0 11.3 0.00 0.71 0.00 82 1012.6
20260509191849 27 98 8.0 11.3 0.00 0.71 0.00 84 1012.7
20260509191844 26 98 4.8 8.0 0.00 0.71 0.00 87 1012.5
20260509191838 26 98 4.8 8.0 0.03 0.74 0.03 91 1012.2
20260509191834 26 98 0.0 8.0 0.03 0.74 0.03 93 1012.2
20260509191828 22 0 8.0 12.9 0.00 0.71 0.71 96 1014.6
20260509191822 22 45 3.2 8.0 0.00 0.71 0.71 95 1014.6
20260509191817 22 34 6.4 9.7 0.00 0.71 0.71 95 1014.5
20260509191812 22 39 6.4 9.7 0.00 0.71 0.71 95 1014.1
20260509191806 22 63 4.8 9.7 0.00 0.71 0.71 95 1013.9
20260509191802 22 86 3.2 8.0 0.00 0.71 0.71 94 1014.0
20260509191758 22 86 4.8 9.7 0.00 0.71 0.71 94 1014.0
20260509191752 22 89 3.2 11.3 0.00 0.71 0.71 94 1013.8
20260509191747 22 89 4.8 12.9 0.00 0.71 0.71 94 1013.8
20260509191742 22 75 8.0 12.9 0.00 0.71 0.71 94 1013.7
20260509191737 22 74 9.7 12.9 0.00 0.71 0.71 94 1013.7
20260509191731 26 98 0.0 3.2 0.03 0.74 0.03 91 1012.6
20260509191603 22 98 8.0 12.9 0.00 0.71 0.71 94 1013.6
20260509191558 22 87 9.7 14.5 0.00 0.71 0.71 94 1013.6
20260509191553 27 115 8.0 9.7 0.00 0.71 0.00 84 1012.8
20260509191548 25 209 9.7 14.5 0.00 0.71 0.00 88 1013.2
20260509191543 25 237 8.0 14.5 0.00 0.71 0.00 88 1013.4
20260509191537 25 192 4.8 11.3 0.00 0.71 0.00 87 1013.3
20260509191533 25 235 3.2 11.3 0.00 0.71 0.00 86 1013.1
20260509191524 25 186 1.6 9.7 0.00 0.71 0.00 87 1013.1
20260509191520 25 148 6.4 9.7 0.00 0.71 0.00 89 1013.1
20260509191514 26 174 3.2 11.3 0.00 0.71 0.00 87 1013.4
20260509191509 25 178 8.0 11.3 0.00 0.71 0.00 87 1013.3
20260509191504 26 175 1.6 6.4 0.00 0.71 0.00 84 1013.4
20260509191458 26 129 4.8 11.3 0.00 0.71 0.00 86 1013.0
20260509191454 26 175 1.6 8.0 0.00 0.71 0.00 85 1013.0
20260509191448 26 95 8.0 11.3 0.00 0.71 0.00 87 1013.2
20260509191443 26 82 8.0 9.7 0.00 0.71 0.00 86 1013.2
20260509191439 27 84 6.4 9.7 0.00 0.71 0.00 87 1013.1
20260509191433 27 90 6.4 9.7 0.00 0.71 0.00 85 1012.9
20260509191427 27 107 8.0 9.7 0.00 0.71 0.00 85 1012.7
20260509191420 27 117 8.0 9.7 0.00 0.71 0.00 85 1013.0
20260509191416 28 117 6.4 9.7 0.00 0.71 0.00 84 1012.7
20260509191410 26 98 8.0 9.7 0.00 0.71 0.00 85 1012.6
20260509191405 28 96 8.0 11.3 0.00 0.71 0.00 82 1012.6
20260509191400 27 100 9.7 11.3 0.00 0.71 0.00 83 1012.6
20260509191355 27 98 8.0 11.3 0.00 0.71 0.00 84 1012.7
20260509191350 26 98 4.8 8.0 0.00 0.71 0.00 87 1012.5
20260509191344 26 98 4.8 8.0 0.03 0.74 0.03 91 1012.2
20260509191340 26 98 4.8 8.0 0.00 0.71 0.00 89 1012.3
20260509191334 26 98 0.0 8.0 0.03 0.74 0.03 93 1012.2
20260509190928 22 94 11.3 14.5 0.00 0.71 0.71 94 1013.3
20260509190922 22 92 8.0 12.9 0.00 0.71 0.71 94 1013.2
20260509190915 25 205 6.4 16.1 0.00 0.71 0.00 88 1013.1
20260509190909 26 98 8.0 9.7 0.00 0.71 0.00 85 1012.6
20260509190904 26 98 4.8 8.0 0.03 0.74 0.03 91 1012.2
20260509190858 28 96 8.0 11.3 0.00 0.71 0.00 82 1012.6
20260509190854 25 209 9.7 14.5 0.00 0.71 0.00 88 1013.2
20260509190849 25 237 8.0 14.5 0.00 0.71 0.00 88 1013.4
20260509190843 25 192 4.8 11.3 0.00 0.71 0.00 87 1013.3
20260509190837 25 235 3.2 11.3 0.00 0.71 0.00 86 1013.1
20260509190833 25 186 1.6 9.7 0.00 0.71 0.00 87 1013.1
20260509190828 25 148 6.4 9.7 0.00 0.71 0.00 89 1013.1
20260509190822 26 174 3.2 11.3 0.00 0.71 0.00 87 1013.4
20260509190816 26 175 1.6 6.4 0.00 0.71 0.00 84 1013.4
20260509190811 26 129 4.8 11.3 0.00 0.71 0.00 86 1013.0
20260509190805 26 175 1.6 8.0 0.00 0.71 0.00 85 1013.0
20260509190800 26 95 8.0 11.3 0.00 0.71 0.00 87 1013.2
20260509190754 27 90 6.4 9.7 0.00 0.71 0.00 85 1012.9
20260509190750 27 107 8.0 9.7 0.00 0.71 0.00 85 1012.7
20260509190745 27 117 8.0 9.7 0.00 0.71 0.00 85 1013.0
20260509190739 27 100 9.7 11.3 0.00 0.71 0.00 83 1012.6
20260509190735 26 98 4.8 8.0 0.00 0.71 0.00 89 1012.3
20260509190729 26 98 4.8 8.0 0.00 0.71 0.00 87 1012.5
20260509190724 26 98 0.0 8.0 0.03 0.74 0.03 93 1012.2
20260509190556 26 82 8.0 9.7 0.00 0.71 0.00 86 1013.2
20260509190552 27 84 6.4 9.7 0.00 0.71 0.00 87 1013.1
20260509190546 27 115 8.0 9.7 0.00 0.71 0.00 84 1012.8
20260509190541 28 117 6.4 9.7 0.00 0.71 0.00 84 1012.7
20260509190537 27 98 8.0 11.3 0.00 0.71 0.00 84 1012.7
20260509190412 26 98 8.0 9.7 0.00 0.71 0.00 85 1012.6
20260509190406 26 98 4.8 8.0 0.03 0.74 0.03 91 1012.2
20260509190240 26 175 1.6 6.4 0.00 0.71 0.00 84 1013.4
20260509190234 26 129 4.8 11.3 0.00 0.71 0.00 86 1013.0
20260509190230 26 175 1.6 8.0 0.00 0.71 0.00 85 1013.0
20260509190225 26 95 8.0 11.3 0.00 0.71 0.00 87 1013.2
20260509190220 27 90 6.4 9.7 0.00 0.71 0.00 85 1012.9
20260509190215 27 107 8.0 9.7 0.00 0.71 0.00 85 1012.7
20260509190206 26 98 0.0 8.0 0.03 0.74 0.03 93 1012.2
20260509190202 26 98 4.8 8.0 0.00 0.71 0.00 89 1012.3
20260509190157 26 98 4.8 8.0 0.00 0.71 0.00 87 1012.5
20260509190152 27 100 9.7 11.3 0.00 0.71 0.00 83 1012.6
20260509190147 27 117 8.0 9.7 0.00 0.71 0.00 85 1013.0
20260509185901 27 84 6.4 9.7 0.00 0.71 0.00 87 1013.1
20260509185856 27 115 8.0 9.7 0.00 0.71 0.00 84 1012.8
20260509185850 28 117 6.4 9.7 0.00 0.71 0.00 84 1012.7
20260509185846 28 96 8.0 11.3 0.00 0.71 0.00 82 1012.6
20260509185840 26 98 8.0 9.7 0.00 0.71 0.00 85 1012.6
20260509185835 26 98 4.8 8.0 0.03 0.74 0.03 91 1012.2
20260509185708 26 98 4.8 8.0 0.00 0.71 0.00 87 1012.5
20260509185701 26 98 4.8 8.0 0.00 0.71 0.00 89 1012.3
20260509185538 25 186 1.6 9.7 0.00 0.71 0.00 87 1013.1
20260509185533 25 148 6.4 9.7 0.00 0.71 0.00 89 1013.1
20260509185528 25 178 8.0 11.3 0.00 0.71 0.00 87 1013.3
20260509185523 26 174 3.2 11.3 0.00 0.71 0.00 87 1013.4
20260509185517 26 175 1.6 6.4 0.00 0.71 0.00 84 1013.4
20260509185512 26 129 4.8 11.3 0.00 0.71 0.00 86 1013.0
20260509185506 27 90 6.4 9.7 0.00 0.71 0.00 85 1012.9
20260509185502 27 107 8.0 9.7 0.00 0.71 0.00 85 1012.7
20260509185454 27 117 8.0 9.7 0.00 0.71 0.00 85 1013.0
20260509185450 27 98 8.0 11.3 0.00 0.71 0.00 84 1012.7
20260509185325 26 98 8.0 9.7 0.00 0.71 0.00 85 1012.6
20260509185306 26 98 4.8 8.0 0.03 0.74 0.03 91 1012.2
20260509185152 26 82 8.0 9.7 0.00 0.71 0.00 86 1013.2
20260509185148 27 84 6.4 9.7 0.00 0.71 0.00 87 1013.1
20260509185142 26 98 4.8 8.0 0.00 0.71 0.00 89 1012.3
20260509185137 26 98 4.8 8.0 0.00 0.71 0.00 87 1012.5
20260509185131 27 115 8.0 9.7 0.00 0.71 0.00 84 1012.8
20260509185126 28 117 6.4 9.7 0.00 0.71 0.00 84 1012.7
20260509185122 28 96 8.0 11.3 0.00 0.71 0.00 82 1012.6
20260509185116 27 100 9.7 11.3 0.00 0.71 0.00 83 1012.6
20260509184949 22 124 8.0 11.3 0.00 0.71 0.71 94 1013.4
20260509184943 25 186 9.7 16.1 0.00 0.71 0.00 89 1013.2
20260509184938 26 174 3.2 11.3 0.00 0.71 0.00 87 1013.4
20260509184932 26 175 1.6 6.4 0.00 0.71 0.00 84 1013.4
20260509184926 26 129 4.8 11.3 0.00 0.71 0.00 86 1013.0
20260509184922 27 90 6.4 9.7 0.00 0.71 0.00 85 1012.9
20260509184917 27 107 8.0 9.7 0.00 0.71 0.00 85 1012.7
20260509184911 27 117 8.0 9.7 0.00 0.71 0.00 85 1013.0
20260509184907 27 98 8.0 11.3 0.00 0.71 0.00 84 1012.7
20260509184740 25 250 4.8 9.7 0.00 0.71 0.00 89 1013.3
20260509184735 24 236 6.4 11.3 0.00 0.71 0.00 89 1013.5
20260509184729 24 259 6.4 11.3 0.00 0.71 0.00 90 1013.4
20260509184725 23 193 6.4 11.3 0.00 0.71 0.00 91 1013.0
20260509184720 26 175 1.6 8.0 0.00 0.71 0.00 85 1013.0
20260509184715 26 98 8.0 9.7 0.00 0.71 0.00 85 1012.6
20260509184710 26 98 4.8 8.0 0.00 0.71 0.00 89 1012.3
20260509184704 23 187 6.4 11.3 0.00 0.71 0.00 91 1012.9
20260509184659 25 205 6.4 16.1 0.00 0.71 0.00 88 1013.1
20260509184655 26 98 4.8 8.0 0.00 0.71 0.00 87 1012.5
20260509184646 25 209 9.7 14.5 0.00 0.71 0.00 88 1013.2
20260509184642 25 237 8.0 14.5 0.00 0.71 0.00 88 1013.4
20260509184637 25 192 4.8 11.3 0.00 0.71 0.00 87 1013.3
20260509184631 25 235 3.2 11.3 0.00 0.71 0.00 86 1013.1
20260509184627 25 186 1.6 9.7 0.00 0.71 0.00 87 1013.1
20260509184621 25 148 6.4 9.7 0.00 0.71 0.00 89 1013.1
20260509184615 26 95 8.0 11.3 0.00 0.71 0.00 87 1013.2
20260509184611 26 82 8.0 9.7 0.00 0.71 0.00 86 1013.2
20260509184606 27 84 6.4 9.7 0.00 0.71 0.00 87 1013.1
20260509184600 27 115 8.0 9.7 0.00 0.71 0.00 84 1012.8
20260509184555 28 117 6.4 9.7 0.00 0.71 0.00 84 1012.7
20260509184548 28 96 8.0 11.3 0.00 0.71 0.00 82 1012.6
20260509184542 27 100 9.7 11.3 0.00 0.71 0.00 83 1012.6
20260509184416 26 174 3.2 11.3 0.00 0.71 0.00 87 1013.4
20260509184411 27 90 6.4 9.7 0.00 0.71 0.00 85 1012.9
20260509184405 26 175 1.6 6.4 0.00 0.71 0.00 84 1013.4
20260509184400 26 129 4.8 11.3 0.00 0.71 0.00 86 1013.0
20260509184356 27 107 8.0 9.7 0.00 0.71 0.00 85 1012.7
20260509184350 27 117 8.0 9.7 0.00 0.71 0.00 85 1013.0
20260509184342 27 98 8.0 11.3 0.00 0.71 0.00 84 1012.7
20260509184216 26 98 4.8 8.0 0.00 0.71 0.00 87 1012.5
20260509184210 26 175 1.6 8.0 0.00 0.71 0.00 85 1013.0
20260509184205 26 98 4.8 8.0 0.00 0.71 0.00 89 1012.3
20260509184038 23 211 6.4 12.9 0.00 0.71 0.00 91 1012.7
20260509184034 25 175 6.4 11.3 0.00 0.71 0.00 88 1013.1
20260509184029 26 95 8.0 11.3 0.00 0.71 0.00 87 1013.2
20260509184023 25 209 9.7 14.5 0.00 0.71 0.00 88 1013.2
20260509184018 27 115 8.0 9.7 0.00 0.71 0.00 84 1012.8
20260509184012 28 96 8.0 11.3 0.00 0.71 0.00 82 1012.6
20260509184007 28 117 6.4 9.7 0.00 0.71 0.00 84 1012.7
20260509184001 25 205 6.4 16.1 0.00 0.71 0.00 88 1013.1
20260509183956 25 192 4.8 11.3 0.00 0.71 0.00 87 1013.3
20260509183950 27 100 9.7 11.3 0.00 0.71 0.00 83 1012.6
20260509183946 25 235 3.2 11.3 0.00 0.71 0.00 86 1013.1
20260509183938 25 237 8.0 14.5 0.00 0.71 0.00 88 1013.4
20260509183932 26 82 8.0 9.7 0.00 0.71 0.00 86 1013.2
20260509183928 25 186 1.6 9.7 0.00 0.71 0.00 87 1013.1
20260509183922 27 84 6.4 9.7 0.00 0.71 0.00 87 1013.1
20260509183917 27 90 6.4 9.7 0.00 0.71 0.00 85 1012.9
20260509183911 27 107 8.0 9.7 0.00 0.71 0.00 85 1012.7
20260509183906 25 148 6.4 9.7 0.00 0.71 0.00 89 1013.1
20260509183901 27 117 8.0 9.7 0.00 0.71 0.00 85 1013.0
20260509183735 25 178 8.0 11.3 0.00 0.71 0.00 87 1013.3
20260509183729 27 98 8.0 11.3 0.00 0.71 0.00 84 1012.7
20260509183724 26 174 3.2 11.3 0.00 0.71 0.00 87 1013.4
20260509183718 26 98 4.8 8.0 0.00 0.71 0.00 87 1012.5
20260509183714 26 175 1.6 6.4 0.00 0.71 0.00 84 1013.4
20260509183710 26 129 4.8 11.3 0.00 0.71 0.00 86 1013.0
20260509183704 26 175 1.6 8.0 0.00 0.71 0.00 85 1013.0
20260509183535 27 115 8.0 9.7 0.00 0.71 0.00 84 1012.8
20260509183530 23 215 8.0 14.5 0.00 0.71 0.00 92 1012.8
20260509183526 25 186 9.7 16.1 0.00 0.71 0.00 89 1013.2
20260509183520 28 117 6.4 9.7 0.00 0.71 0.00 84 1012.7
20260509183515 27 100 9.7 11.3 0.00 0.71 0.00 83 1012.6
20260509183510 28 96 8.0 11.3 0.00 0.71 0.00 82 1012.6
20260509183505 25 175 6.4 11.3 0.00 0.71 0.00 88 1013.1
20260509183459 25 205 6.4 16.1 0.00 0.71 0.00 88 1013.1
20260509183454 25 209 9.7 14.5 0.00 0.71 0.00 88 1013.2
20260509183450 25 237 8.0 14.5 0.00 0.71 0.00 88 1013.4
20260509183444 25 192 4.8 11.3 0.00 0.71 0.00 87 1013.3
20260509183439 25 235 3.2 11.3 0.00 0.71 0.00 86 1013.1
20260509183432 25 186 1.6 9.7 0.00 0.71 0.00 87 1013.1
20260509183426 26 82 8.0 9.7 0.00 0.71 0.00 86 1013.2
20260509183422 27 84 6.4 9.7 0.00 0.71 0.00 87 1013.1
20260509183416 27 90 6.4 9.7 0.00 0.71 0.00 85 1012.9
20260509183411 27 107 8.0 9.7 0.00 0.71 0.00 85 1012.7
20260509183405 27 117 8.0 9.7 0.00 0.71 0.00 85 1013.0
20260509183239 26 98 8.0 9.7 0.00 0.71 0.00 85 1012.6
20260509183227 26 98 4.8 8.0 0.00 0.71 0.00 87 1012.5
20260509183107 25 178 8.0 11.3 0.00 0.71 0.00 87 1013.3
20260509183102 26 175 1.6 6.4 0.00 0.71 0.00 84 1013.4
20260509183056 26 174 3.2 11.3 0.00 0.71 0.00 87 1013.4
20260509183052 26 129 4.8 11.3 0.00 0.71 0.00 86 1013.0
20260509183046 26 175 1.6 8.0 0.00 0.71 0.00 85 1013.0
20260509183041 26 95 8.0 11.3 0.00 0.71 0.00 87 1013.2
20260509183035 27 115 8.0 9.7 0.00 0.71 0.00 84 1012.8
20260509183028 28 117 6.4 9.7 0.00 0.71 0.00 84 1012.7
20260509183023 28 96 8.0 11.3 0.00 0.71 0.00 82 1012.6
20260509183019 27 100 9.7 11.3 0.00 0.71 0.00 83 1012.6
20260509182852 23 207 9.7 19.3 0.00 0.71 0.00 92 1012.7
20260509182847 25 250 4.8 9.7 0.00 0.71 0.00 89 1013.3
20260509182841 27 84 6.4 9.7 0.00 0.71 0.00 87 1013.1
20260509182837 27 90 6.4 9.7 0.00 0.71 0.00 85 1012.9
20260509182830 26 82 8.0 9.7 0.00 0.71 0.00 86 1013.2
20260509182825 24 236 6.4 11.3 0.00 0.71 0.00 89 1013.5
20260509182820 24 259 6.4 11.3 0.00 0.71 0.00 90 1013.4
20260509182815 27 107 8.0 9.7 0.00 0.71 0.00 85 1012.7
20260509182809 25 186 9.7 16.1 0.00 0.71 0.00 89 1013.2
20260509182804 27 117 8.0 9.7 0.00 0.71 0.00 85 1013.0
20260509182758 25 175 6.4 11.3 0.00 0.71 0.00 88 1013.1
20260509182754 25 205 6.4 16.1 0.00 0.71 0.00 88 1013.1
20260509182748 26 98 8.0 9.7 0.00 0.71 0.00 85 1012.6
20260509182742 25 209 9.7 14.5 0.00 0.71 0.00 88 1013.2
20260509182737 25 237 8.0 14.5 0.00 0.71 0.00 88 1013.4
20260509182730 27 98 8.0 11.3 0.00 0.71 0.00 84 1012.7
20260509182605 25 235 3.2 11.3 0.00 0.71 0.00 86 1013.1
20260509182559 25 186 1.6 9.7 0.00 0.71 0.00 87 1013.1
20260509182554 25 148 6.4 9.7 0.00 0.71 0.00 89 1013.1
20260509182548 25 178 8.0 11.3 0.00 0.71 0.00 87 1013.3
20260509182544 26 174 3.2 11.3 0.00 0.71 0.00 87 1013.4
20260509182539 26 129 4.8 11.3 0.00 0.71 0.00 86 1013.0
20260509182534 26 175 1.6 6.4 0.00 0.71 0.00 84 1013.4
20260509182526 26 175 1.6 8.0 0.00 0.71 0.00 85 1013.0
20260509182522 26 95 8.0 11.3 0.00 0.71 0.00 87 1013.2
20260509182516 27 115 8.0 9.7 0.00 0.71 0.00 84 1012.8
20260509182512 28 96 8.0 11.3 0.00 0.71 0.00 82 1012.6
20260509182507 28 117 6.4 9.7 0.00 0.71 0.00 84 1012.7
20260509182501 27 100 9.7 11.3 0.00 0.71 0.00 83 1012.6
20260509182336 27 84 6.4 9.7 0.00 0.71 0.00 87 1013.1
20260509182331 27 90 6.4 9.7 0.00 0.71 0.00 85 1012.9
20260509182326 27 107 8.0 9.7 0.00 0.71 0.00 85 1012.7
20260509182318 27 117 8.0 9.7 0.00 0.71 0.00 85 1013.0
20260509182300 26 98 8.0 9.7 0.00 0.71 0.00 85 1012.6
20260509182029 28 117 6.4 9.7 0.00 0.71 0.00 84 1012.7
20260509182023 28 96 8.0 11.3 0.00 0.71 0.00 82 1012.6
20260509181856 27 100 9.7 11.3 0.00 0.71 0.00 83 1012.6
20260509181730 22 187 12.9 17.7 0.00 0.71 0.00 92 1012.3
20260509181725 23 193 6.4 11.3 0.00 0.71 0.00 91 1013.0
20260509181718 23 187 6.4 11.3 0.00 0.71 0.00 91 1012.9
20260509181713 23 211 6.4 12.9 0.00 0.71 0.00 91 1012.7
20260509181707 23 215 8.0 14.5 0.00 0.71 0.00 92 1012.8
20260509181702 26 175 1.6 8.0 0.00 0.71 0.00 85 1013.0
20260509181656 25 250 4.8 9.7 0.00 0.71 0.00 89 1013.3
20260509181652 26 95 8.0 11.3 0.00 0.71 0.00 87 1013.2
20260509181646 24 236 6.4 11.3 0.00 0.71 0.00 89 1013.5
20260509181642 27 90 6.4 9.7 0.00 0.71 0.00 85 1012.9
20260509181637 27 98 8.0 11.3 0.00 0.71 0.00 84 1012.7
20260509181631 27 84 6.4 9.7 0.00 0.71 0.00 87 1013.1
20260509181626 26 82 8.0 9.7 0.00 0.71 0.00 86 1013.2
20260509181620 27 107 8.0 9.7 0.00 0.71 0.00 85 1012.7
20260509181614 27 117 8.0 9.7 0.00 0.71 0.00 85 1013.0
20260509181609 24 259 6.4 11.3 0.00 0.71 0.00 90 1013.4
20260509181603 25 186 9.7 16.1 0.00 0.71 0.00 89 1013.2
20260509181558 25 175 6.4 11.3 0.00 0.71 0.00 88 1013.1
20260509181553 25 205 6.4 16.1 0.00 0.71 0.00 88 1013.1
20260509181548 25 209 9.7 14.5 0.00 0.71 0.00 88 1013.2
20260509181543 25 237 8.0 14.5 0.00 0.71 0.00 88 1013.4
20260509181537 25 192 4.8 11.3 0.00 0.71 0.00 87 1013.3
20260509181531 25 235 3.2 11.3 0.00 0.71 0.00 86 1013.1
20260509181526 28 117 6.4 9.7 0.00 0.71 0.00 84 1012.7
20260509181522 28 96 8.0 11.3 0.00 0.71 0.00 82 1012.6
20260509181354 25 148 6.4 9.7 0.00 0.71 0.00 89 1013.1
20260509181349 25 178 8.0 11.3 0.00 0.71 0.00 87 1013.3
20260509181343 26 174 3.2 11.3 0.00 0.71 0.00 87 1013.4
20260509181338 26 175 1.6 6.4 0.00 0.71 0.00 84 1013.4
20260509181333 26 129 4.8 11.3 0.00 0.71 0.00 86 1013.0
20260509181328 27 115 8.0 9.7 0.00 0.71 0.00 84 1012.8
20260509181323 27 100 9.7 11.3 0.00 0.71 0.00 83 1012.6
20260509181155 26 175 1.6 8.0 0.00 0.71 0.00 85 1013.0
20260509181149 26 95 8.0 11.3 0.00 0.71 0.00 87 1013.2
20260509181145 26 82 8.0 9.7 0.00 0.71 0.00 86 1013.2
20260509181141 27 84 6.4 9.7 0.00 0.71 0.00 87 1013.1
20260509181135 27 90 6.4 9.7 0.00 0.71 0.00 85 1012.9
20260509181130 27 107 8.0 9.7 0.00 0.71 0.00 85 1012.7
20260509181126 27 117 8.0 9.7 0.00 0.71 0.00 85 1013.0
20260509180959 25 250 4.8 9.7 0.00 0.71 0.00 89 1013.3
20260509180954 24 236 6.4 11.3 0.00 0.71 0.00 89 1013.5
20260509180948 25 186 9.7 16.1 0.00 0.71 0.00 89 1013.2
20260509180943 25 175 6.4 11.3 0.00 0.71 0.00 88 1013.1
20260509180937 25 205 6.4 16.1 0.00 0.71 0.00 88 1013.1
20260509180932 25 209 9.7 14.5 0.00 0.71 0.00 88 1013.2
20260509180926 25 237 8.0 14.5 0.00 0.71 0.00 88 1013.4
20260509180922 28 96 8.0 11.3 0.00 0.71 0.00 82 1012.6
20260509180754 25 235 3.2 11.3 0.00 0.71 0.00 86 1013.1
20260509180749 25 186 1.6 9.7 0.00 0.71 0.00 87 1013.1
20260509180744 25 148 6.4 9.7 0.00 0.71 0.00 89 1013.1
20260509180739 27 100 9.7 11.3 0.00 0.71 0.00 83 1012.6
20260509180733 25 178 8.0 11.3 0.00 0.71 0.00 87 1013.3
20260509180729 27 115 8.0 9.7 0.00 0.71 0.00 84 1012.8
20260509180602 26 175 1.6 6.4 0.00 0.71 0.00 84 1013.4
20260509180557 26 129 4.8 11.3 0.00 0.71 0.00 86 1013.0
20260509180551 26 82 8.0 9.7 0.00 0.71 0.00 86 1013.2
20260509180546 26 175 1.6 8.0 0.00 0.71 0.00 85 1013.0
20260509180540 26 95 8.0 11.3 0.00 0.71 0.00 87 1013.2
20260509180536 27 117 8.0 9.7 0.00 0.71 0.00 85 1013.0
20260509180530 27 84 6.4 9.7 0.00 0.71 0.00 87 1013.1
20260509180526 27 90 6.4 9.7 0.00 0.71 0.00 85 1012.9
20260509180521 27 107 8.0 9.7 0.00 0.71 0.00 85 1012.7
20260509180515 28 117 6.4 9.7 0.00 0.71 0.00 84 1012.7
20260509180109 27 115 8.0 9.7 0.00 0.71 0.00 84 1012.8
20260509180103 25 178 8.0 11.3 0.00 0.71 0.00 87 1013.3
20260509180056 26 82 8.0 9.7 0.00 0.71 0.00 86 1013.2
20260509180051 27 117 8.0 9.7 0.00 0.71 0.00 85 1013.0
20260509175927 28 117 6.4 9.7 0.00 0.71 0.00 84 1012.7
20260509175802 27 107 8.0 9.7 0.00 0.71 0.00 85 1012.7
20260509175755 28 96 8.0 11.3 0.00 0.71 0.00 82 1012.6
20260509175628 26 175 1.6 6.4 0.00 0.71 0.00 84 1013.4
20260509175623 26 129 4.8 11.3 0.00 0.71 0.00 86 1013.0
20260509175617 26 175 1.6 8.0 0.00 0.71 0.00 85 1013.0
20260509175612 26 95 8.0 11.3 0.00 0.71 0.00 87 1013.2
20260509175606 26 82 8.0 9.7 0.00 0.71 0.00 86 1013.2
20260509175601 27 115 8.0 9.7 0.00 0.71 0.00 84 1012.8
20260509175313 27 84 6.4 9.7 0.00 0.71 0.00 87 1013.1
20260509175308 28 117 6.4 9.7 0.00 0.71 0.00 84 1012.7
20260509175306 23 193 6.4 11.3 0.00 0.71 0.00 91 1013.0
20260509175300 24 259 6.4 11.3 0.00 0.71 0.00 90 1013.4
20260509175254 25 250 4.8 9.7 0.00 0.71 0.00 89 1013.3
20260509175249 27 90 6.4 9.7 0.00 0.71 0.00 85 1012.9
20260509175242 24 236 6.4 11.3 0.00 0.71 0.00 89 1013.5
20260509175236 25 186 9.7 16.1 0.00 0.71 0.00 89 1013.2
20260509175231 25 175 6.4 11.3 0.00 0.71 0.00 88 1013.1
20260509175225 25 205 6.4 16.1 0.00 0.71 0.00 88 1013.1
20260509175219 27 107 8.0 9.7 0.00 0.71 0.00 85 1012.7
20260509175213 28 96 8.0 11.3 0.00 0.71 0.00 82 1012.6
20260509175048 25 237 8.0 14.5 0.00 0.71 0.00 88 1013.4
20260509175041 25 192 4.8 11.3 0.00 0.71 0.00 87 1013.3
20260509175036 25 235 3.2 11.3 0.00 0.71 0.00 86 1013.1
20260509175030 25 186 1.6 9.7 0.00 0.71 0.00 87 1013.1
20260509175026 26 129 4.8 11.3 0.00 0.71 0.00 86 1013.0
20260509175020 26 175 1.6 6.4 0.00 0.71 0.00 84 1013.4
20260509175016 25 148 6.4 9.7 0.00 0.71 0.00 89 1013.1
20260509175010 26 175 1.6 8.0 0.00 0.71 0.00 85 1013.0
20260509175005 27 115 8.0 9.7 0.00 0.71 0.00 84 1012.8
20260509174959 26 95 8.0 11.3 0.00 0.71 0.00 87 1013.2
20260509174954 27 117 8.0 9.7 0.00 0.71 0.00 85 1013.0
20260509174827 26 174 3.2 11.3 0.00 0.71 0.00 87 1013.4
20260509174821 26 82 8.0 9.7 0.00 0.71 0.00 86 1013.2
20260509174815 27 84 6.4 9.7 0.00 0.71 0.00 87 1013.1
20260509174811 27 90 6.4 9.7 0.00 0.71 0.00 85 1012.9
20260509174806 28 117 6.4 9.7 0.00 0.71 0.00 84 1012.7
20260509174520 25 186 9.7 16.1 0.00 0.71 0.00 89 1013.2
20260509174515 26 175 1.6 6.4 0.00 0.71 0.00 84 1013.4
20260509174510 26 129 4.8 11.3 0.00 0.71 0.00 86 1013.0
20260509174505 26 175 1.6 8.0 0.00 0.71 0.00 85 1013.0
20260509174500 26 95 8.0 11.3 0.00 0.71 0.00 87 1013.2
20260509174455 27 115 8.0 9.7 0.00 0.71 0.00 84 1012.8
20260509174206 25 205 6.4 16.1 0.00 0.71 0.00 88 1013.1
20260509174201 28 117 6.4 9.7 0.00 0.71 0.00 84 1012.7
20260509174156 25 209 9.7 14.5 0.00 0.71 0.00 88 1013.2
20260509174151 25 237 8.0 14.5 0.00 0.71 0.00 88 1013.4
20260509174146 25 192 4.8 11.3 0.00 0.71 0.00 87 1013.3
20260509174140 25 235 3.2 11.3 0.00 0.71 0.00 86 1013.1
20260509174134 27 84 6.4 9.7 0.00 0.71 0.00 87 1013.1
20260509174129 25 186 1.6 9.7 0.00 0.71 0.00 87 1013.1
20260509174124 25 148 6.4 9.7 0.00 0.71 0.00 89 1013.1
20260509174118 25 178 8.0 11.3 0.00 0.71 0.00 87 1013.3
20260509174112 26 174 3.2 11.3 0.00 0.71 0.00 87 1013.4
20260509174108 26 82 8.0 9.7 0.00 0.71 0.00 86 1013.2
20260509174102 27 90 6.4 9.7 0.00 0.71 0.00 85 1012.9
20260509174058 27 107 8.0 9.7 0.00 0.71 0.00 85 1012.7
20260509173931 26 129 4.8 11.3 0.00 0.71 0.00 86 1013.0
20260509173927 27 115 8.0 9.7 0.00 0.71 0.00 84 1012.8
20260509173921 26 175 1.6 8.0 0.00 0.71 0.00 85 1013.0
20260509173915 26 95 8.0 11.3 0.00 0.71 0.00 87 1013.2
20260509173506 26 82 8.0 9.7 0.00 0.71 0.00 86 1013.2
20260509173501 23 187 6.4 11.3 0.00 0.71 0.00 91 1012.9
20260509173456 27 107 8.0 9.7 0.00 0.71 0.00 85 1012.7
20260509173451 27 115 8.0 9.7 0.00 0.71 0.00 84 1012.8
20260509173326 25 209 9.7 14.5 0.00 0.71 0.00 88 1013.2
20260509173320 25 237 8.0 14.5 0.00 0.71 0.00 88 1013.4
20260509173316 25 192 4.8 11.3 0.00 0.71 0.00 87 1013.3
20260509173311 25 235 3.2 11.3 0.00 0.71 0.00 86 1013.1
20260509173305 26 129 4.8 11.3 0.00 0.71 0.00 86 1013.0
20260509173247 27 117 8.0 9.7 0.00 0.71 0.00 85 1013.0
20260509173133 23 193 6.4 11.3 0.00 0.71 0.00 91 1013.0
20260509173128 26 95 8.0 11.3 0.00 0.71 0.00 87 1013.2
20260509173122 25 250 4.8 9.7 0.00 0.71 0.00 89 1013.3
20260509173117 24 236 6.4 11.3 0.00 0.71 0.00 89 1013.5
20260509173111 24 259 6.4 11.3 0.00 0.71 0.00 90 1013.4
20260509173106 25 186 9.7 16.1 0.00 0.71 0.00 89 1013.2
20260509173100 25 175 6.4 11.3 0.00 0.71 0.00 88 1013.1
20260509173056 25 186 1.6 9.7 0.00 0.71 0.00 87 1013.1
20260509173050 25 148 6.4 9.7 0.00 0.71 0.00 89 1013.1
20260509173046 25 178 8.0 11.3 0.00 0.71 0.00 87 1013.3
20260509173040 26 174 3.2 11.3 0.00 0.71 0.00 87 1013.4
20260509173035 26 175 1.6 6.4 0.00 0.71 0.00 84 1013.4
20260509173030 26 175 1.6 8.0 0.00 0.71 0.00 85 1013.0
20260509173023 26 82 8.0 9.7 0.00 0.71 0.00 86 1013.2
20260509173019 27 84 6.4 9.7 0.00 0.71 0.00 87 1013.1
20260509173013 27 90 6.4 9.7 0.00 0.71 0.00 85 1012.9
20260509173007 27 107 8.0 9.7 0.00 0.71 0.00 85 1012.7
20260509172722 25 209 9.7 14.5 0.00 0.71 0.00 88 1013.2
20260509172715 25 237 8.0 14.5 0.00 0.71 0.00 88 1013.4
20260509172709 25 192 4.8 11.3 0.00 0.71 0.00 87 1013.3
20260509172704 25 235 3.2 11.3 0.00 0.71 0.00 86 1013.1
20260509172659 26 129 4.8 11.3 0.00 0.71 0.00 86 1013.0
20260509172653 26 95 8.0 11.3 0.00 0.71 0.00 87 1013.2
20260509172529 23 193 6.4 11.3 0.00 0.71 0.00 91 1013.0
20260509172523 25 250 4.8 9.7 0.00 0.71 0.00 89 1013.3
20260509172516 24 236 6.4 11.3 0.00 0.71 0.00 89 1013.5
20260509172511 24 259 6.4 11.3 0.00 0.71 0.00 90 1013.4
20260509172505 25 186 9.7 16.1 0.00 0.71 0.00 89 1013.2
20260509172500 25 175 6.4 11.3 0.00 0.71 0.00 88 1013.1
20260509172454 25 186 1.6 9.7 0.00 0.71 0.00 87 1013.1
20260509172450 25 148 6.4 9.7 0.00 0.71 0.00 89 1013.1
20260509172445 25 178 8.0 11.3 0.00 0.71 0.00 87 1013.3
20260509172439 26 174 3.2 11.3 0.00 0.71 0.00 87 1013.4
20260509172435 27 84 6.4 9.7 0.00 0.71 0.00 87 1013.1
20260509172429 27 90 6.4 9.7 0.00 0.71 0.00 85 1012.9
20260509172306 26 175 1.6 8.0 0.00 0.71 0.00 85 1013.0
20260509172256 27 107 8.0 9.7 0.00 0.71 0.00 85 1012.7
20260509172241 27 115 8.0 9.7 0.00 0.71 0.00 84 1012.8
20260509172125 25 209 9.7 14.5 0.00 0.71 0.00 88 1013.2
20260509172120 25 237 8.0 14.5 0.00 0.71 0.00 88 1013.4
20260509172115 25 192 4.8 11.3 0.00 0.71 0.00 87 1013.3
20260509172108 25 235 3.2 11.3 0.00 0.71 0.00 86 1013.1
20260509172102 26 95 8.0 11.3 0.00 0.71 0.00 87 1013.2
20260509172056 26 129 4.8 11.3 0.00 0.71 0.00 86 1013.0
20260509172052 26 82 8.0 9.7 0.00 0.71 0.00 86 1013.2
20260509171924 25 186 1.6 9.7 0.00 0.71 0.00 87 1013.1
20260509171919 25 148 6.4 9.7 0.00 0.71 0.00 89 1013.1
20260509171913 27 90 6.4 9.7 0.00 0.71 0.00 85 1012.9
20260509171745 27 107 8.0 9.7 0.00 0.71 0.00 85 1012.7
20260509171740 26 174 3.2 11.3 0.00 0.71 0.00 87 1013.4
20260509171735 26 175 1.6 6.4 0.00 0.71 0.00 84 1013.4
20260509171730 26 175 1.6 8.0 0.00 0.71 0.00 85 1013.0
20260509171601 23 207 9.7 19.3 0.00 0.71 0.00 92 1012.7
20260509171556 23 215 8.0 14.5 0.00 0.71 0.00 92 1012.8
20260509171550 26 95 8.0 11.3 0.00 0.71 0.00 87 1013.2
20260509171546 26 129 4.8 11.3 0.00 0.71 0.00 86 1013.0
20260509171540 26 82 8.0 9.7 0.00 0.71 0.00 86 1013.2
20260509171536 23 205 9.7 17.7 0.00 0.71 0.00 92 1012.7
20260509171530 23 187 6.4 11.3 0.00 0.71 0.00 91 1012.9
20260509171525 23 211 6.4 12.9 0.00 0.71 0.00 91 1012.7
20260509171519 23 193 6.4 11.3 0.00 0.71 0.00 91 1013.0
20260509171515 25 250 4.8 9.7 0.00 0.71 0.00 89 1013.3
20260509171509 24 236 6.4 11.3 0.00 0.71 0.00 89 1013.5
20260509171503 24 259 6.4 11.3 0.00 0.71 0.00 90 1013.4
20260509171458 25 186 9.7 16.1 0.00 0.71 0.00 89 1013.2
20260509171453 25 175 6.4 11.3 0.00 0.71 0.00 88 1013.1
20260509171447 27 84 6.4 9.7 0.00 0.71 0.00 87 1013.1
20260509171443 25 205 6.4 16.1 0.00 0.71 0.00 88 1013.1
20260509171301 27 107 8.0 9.7 0.00 0.71 0.00 85 1012.7
20260509171151 25 237 8.0 14.5 0.00 0.71 0.00 88 1013.4
20260509171146 25 192 4.8 11.3 0.00 0.71 0.00 87 1013.3
20260509171141 25 235 3.2 11.3 0.00 0.71 0.00 86 1013.1
20260509171136 25 186 1.6 9.7 0.00 0.71 0.00 87 1013.1
20260509171131 25 148 6.4 9.7 0.00 0.71 0.00 89 1013.1
20260509171127 25 178 8.0 11.3 0.00 0.71 0.00 87 1013.3
20260509171121 26 174 3.2 11.3 0.00 0.71 0.00 87 1013.4
20260509171116 26 175 1.6 6.4 0.00 0.71 0.00 84 1013.4
20260509171110 26 175 1.6 8.0 0.00 0.71 0.00 85 1013.0
20260509171104 26 129 4.8 11.3 0.00 0.71 0.00 86 1013.0
20260509171100 26 95 8.0 11.3 0.00 0.71 0.00 87 1013.2
20260509171053 26 82 8.0 9.7 0.00 0.71 0.00 86 1013.2
20260509170646 23 187 6.4 11.3 0.00 0.71 0.00 91 1012.9
20260509170641 23 211 6.4 12.9 0.00 0.71 0.00 91 1012.7
20260509170637 23 193 6.4 11.3 0.00 0.71 0.00 91 1013.0
20260509170631 25 250 4.8 9.7 0.00 0.71 0.00 89 1013.3
20260509170626 24 236 6.4 11.3 0.00 0.71 0.00 89 1013.5
20260509170622 24 259 6.4 11.3 0.00 0.71 0.00 90 1013.4
20260509170616 25 186 9.7 16.1 0.00 0.71 0.00 89 1013.2
20260509170611 25 175 6.4 11.3 0.00 0.71 0.00 88 1013.1
20260509170606 25 205 6.4 16.1 0.00 0.71 0.00 88 1013.1
20260509170601 25 209 9.7 14.5 0.00 0.71 0.00 88 1013.2
20260509170555 25 237 8.0 14.5 0.00 0.71 0.00 88 1013.4
20260509170548 25 192 4.8 11.3 0.00 0.71 0.00 87 1013.3
20260509170543 26 129 4.8 11.3 0.00 0.71 0.00 86 1013.0
20260509170537 25 235 3.2 11.3 0.00 0.71 0.00 86 1013.1
20260509170532 25 186 1.6 9.7 0.00 0.71 0.00 87 1013.1
20260509170528 25 148 6.4 9.7 0.00 0.71 0.00 89 1013.1
20260509170522 26 174 3.2 11.3 0.00 0.71 0.00 87 1013.4
20260509170516 26 95 8.0 11.3 0.00 0.71 0.00 87 1013.2
20260509170350 26 175 1.6 6.4 0.00 0.71 0.00 84 1013.4
20260509170346 26 175 1.6 8.0 0.00 0.71 0.00 85 1013.0
20260509170341 26 82 8.0 9.7 0.00 0.71 0.00 86 1013.2
20260509170336 27 84 6.4 9.7 0.00 0.71 0.00 87 1013.1
20260509165928 26 95 8.0 11.3 0.00 0.71 0.00 87 1013.2
20260509165802 23 193 6.4 11.3 0.00 0.71 0.00 91 1013.0
20260509165758 25 250 4.8 9.7 0.00 0.71 0.00 89 1013.3
20260509165753 24 236 6.4 11.3 0.00 0.71 0.00 89 1013.5
20260509165747 24 259 6.4 11.3 0.00 0.71 0.00 90 1013.4
20260509165742 25 186 9.7 16.1 0.00 0.71 0.00 89 1013.2
20260509165735 26 82 8.0 9.7 0.00 0.71 0.00 86 1013.2
20260509165730 27 84 6.4 9.7 0.00 0.71 0.00 87 1013.1
20260509165605 25 205 6.4 16.1 0.00 0.71 0.00 88 1013.1
20260509165600 25 209 9.7 14.5 0.00 0.71 0.00 88 1013.2
20260509165554 25 148 6.4 9.7 0.00 0.71 0.00 89 1013.1
20260509165550 25 237 8.0 14.5 0.00 0.71 0.00 88 1013.4
20260509165545 26 175 1.6 6.4 0.00 0.71 0.00 84 1013.4
20260509165538 25 192 4.8 11.3 0.00 0.71 0.00 87 1013.3
20260509165532 26 129 4.8 11.3 0.00 0.71 0.00 86 1013.0
20260509165526 25 235 3.2 11.3 0.00 0.71 0.00 86 1013.1
20260509165522 25 178 8.0 11.3 0.00 0.71 0.00 87 1013.3
20260509165517 25 186 1.6 9.7 0.00 0.71 0.00 87 1013.1
20260509165511 26 175 1.6 8.0 0.00 0.71 0.00 85 1013.0
20260509165346 26 95 8.0 11.3 0.00 0.71 0.00 87 1013.2
20260509165215 27 84 6.4 9.7 0.00 0.71 0.00 87 1013.1
20260509165054 23 205 9.7 17.7 0.00 0.71 0.00 92 1012.7
20260509165048 26 175 1.6 6.4 0.00 0.71 0.00 84 1013.4
20260509165044 25 178 8.0 11.3 0.00 0.71 0.00 87 1013.3
20260509165039 26 129 4.8 11.3 0.00 0.71 0.00 86 1013.0
20260509165032 25 237 8.0 14.5 0.00 0.71 0.00 88 1013.4
20260509164906 22 74 8.0 11.3 0.00 0.71 0.71 94 1013.3
20260509164901 25 192 4.8 11.3 0.00 0.71 0.00 87 1013.3
20260509164856 23 211 6.4 12.9 0.00 0.71 0.00 91 1012.7
20260509164851 26 174 3.2 11.3 0.00 0.71 0.00 87 1013.4
20260509164724 23 193 6.4 11.3 0.00 0.71 0.00 91 1013.0
20260509164719 25 250 4.8 9.7 0.00 0.71 0.00 89 1013.3
20260509164715 24 236 6.4 11.3 0.00 0.71 0.00 89 1013.5
20260509164709 22 180 12.9 19.3 0.00 0.71 0.00 93 1012.3
20260509164704 25 186 9.7 16.1 0.00 0.71 0.00 89 1013.2
20260509164659 24 259 6.4 11.3 0.00 0.71 0.00 90 1013.4
20260509164654 22 187 12.9 17.7 0.00 0.71 0.00 92 1012.3
20260509164648 25 175 6.4 11.3 0.00 0.71 0.00 88 1013.1
20260509164644 25 186 1.6 9.7 0.00 0.71 0.00 87 1013.1
20260509164640 26 82 8.0 9.7 0.00 0.71 0.00 86 1013.2
20260509164635 26 95 8.0 11.3 0.00 0.71 0.00 87 1013.2
20260509164627 22 201 14.5 17.7 0.00 0.71 0.00 93 1012.3
20260509164622 25 205 6.4 16.1 0.00 0.71 0.00 88 1013.1
20260509164618 25 209 9.7 14.5 0.00 0.71 0.00 88 1013.2
20260509164612 25 235 3.2 11.3 0.00 0.71 0.00 86 1013.1
20260509164606 25 148 6.4 9.7 0.00 0.71 0.00 89 1013.1
20260509164601 25 178 8.0 11.3 0.00 0.71 0.00 87 1013.3
20260509164555 26 175 1.6 6.4 0.00 0.71 0.00 84 1013.4
20260509164550 26 129 4.8 11.3 0.00 0.71 0.00 86 1013.0
20260509164425 26 175 1.6 8.0 0.00 0.71 0.00 85 1013.0
20260509164419 23 215 8.0 14.5 0.00 0.71 0.00 92 1012.8
20260509164414 23 205 9.7 17.7 0.00 0.71 0.00 92 1012.7
20260509164408 23 211 6.4 12.9 0.00 0.71 0.00 91 1012.7
20260509164403 25 237 8.0 14.5 0.00 0.71 0.00 88 1013.4
20260509164358 25 192 4.8 11.3 0.00 0.71 0.00 87 1013.3
20260509164353 26 174 3.2 11.3 0.00 0.71 0.00 87 1013.4
20260509164225 23 193 6.4 11.3 0.00 0.71 0.00 91 1013.0
20260509164220 25 250 4.8 9.7 0.00 0.71 0.00 89 1013.3
20260509164214 24 236 6.4 11.3 0.00 0.71 0.00 89 1013.5
20260509164209 24 259 6.4 11.3 0.00 0.71 0.00 90 1013.4
20260509164205 25 186 9.7 16.1 0.00 0.71 0.00 89 1013.2
20260509164158 26 82 8.0 9.7 0.00 0.71 0.00 86 1013.2
20260509164154 25 175 6.4 11.3 0.00 0.71 0.00 88 1013.1
20260509164148 26 95 8.0 11.3 0.00 0.71 0.00 87 1013.2
20260509164143 25 186 1.6 9.7 0.00 0.71 0.00 87 1013.1
20260509164016 25 235 3.2 11.3 0.00 0.71 0.00 86 1013.1
20260509164011 26 175 1.6 6.4 0.00 0.71 0.00 84 1013.4
20260509164005 25 178 8.0 11.3 0.00 0.71 0.00 87 1013.3
20260509164000 25 209 9.7 14.5 0.00 0.71 0.00 88 1013.2
20260509163954 25 148 6.4 9.7 0.00 0.71 0.00 89 1013.1
20260509163950 26 175 1.6 8.0 0.00 0.71 0.00 85 1013.0
20260509163945 26 129 4.8 11.3 0.00 0.71 0.00 86 1013.0
20260509163817 25 192 4.8 11.3 0.00 0.71 0.00 87 1013.3
20260509163811 26 174 3.2 11.3 0.00 0.71 0.00 87 1013.4
20260509163522 25 235 3.2 11.3 0.00 0.71 0.00 86 1013.1
20260509163516 25 148 6.4 9.7 0.00 0.71 0.00 89 1013.1
20260509163509 25 178 8.0 11.3 0.00 0.71 0.00 87 1013.3
20260509163505 26 175 1.6 6.4 0.00 0.71 0.00 84 1013.4
20260509163459 26 175 1.6 8.0 0.00 0.71 0.00 85 1013.0
20260509163208 26 95 8.0 11.3 0.00 0.71 0.00 87 1013.2
20260509163047 21 188 11.3 16.1 0.00 0.71 0.00 93 1012.1
20260509163041 22 180 12.9 19.3 0.00 0.71 0.00 93 1012.3
20260509163036 22 187 12.9 17.7 0.00 0.71 0.00 92 1012.3
20260509163032 25 186 1.6 9.7 0.00 0.71 0.00 87 1013.1
20260509163026 22 201 14.5 17.7 0.00 0.71 0.00 93 1012.3
20260509163021 23 207 9.7 19.3 0.00 0.71 0.00 92 1012.7
20260509163015 23 215 8.0 14.5 0.00 0.71 0.00 92 1012.8
20260509163008 23 205 9.7 17.7 0.00 0.71 0.00 92 1012.7
20260509163003 23 211 6.4 12.9 0.00 0.71 0.00 91 1012.7
20260509162958 23 187 6.4 11.3 0.00 0.71 0.00 91 1012.9
20260509162953 23 193 6.4 11.3 0.00 0.71 0.00 91 1013.0
20260509162947 25 250 4.8 9.7 0.00 0.71 0.00 89 1013.3
20260509162943 24 236 6.4 11.3 0.00 0.71 0.00 89 1013.5
20260509162938 24 259 6.4 11.3 0.00 0.71 0.00 90 1013.4
20260509162932 25 186 9.7 16.1 0.00 0.71 0.00 89 1013.2
20260509162927 25 175 6.4 11.3 0.00 0.71 0.00 88 1013.1
20260509162921 25 205 6.4 16.1 0.00 0.71 0.00 88 1013.1
20260509162916 25 209 9.7 14.5 0.00 0.71 0.00 88 1013.2
20260509162908 25 237 8.0 14.5 0.00 0.71 0.00 88 1013.4
20260509162904 26 175 1.6 6.4 0.00 0.71 0.00 84 1013.4
20260509162739 25 192 4.8 11.3 0.00 0.71 0.00 87 1013.3
20260509162733 26 175 1.6 8.0 0.00 0.71 0.00 85 1013.0
20260509162728 26 129 4.8 11.3 0.00 0.71 0.00 86 1013.0
20260509162602 25 148 6.4 9.7 0.00 0.71 0.00 89 1013.1
20260509162556 26 174 3.2 11.3 0.00 0.71 0.00 87 1013.4
20260509162551 25 186 1.6 9.7 0.00 0.71 0.00 87 1013.1
20260509162425 22 0 14.5 20.9 0.33 0.71 0.71 94 1012.7
20260509162419 22 54 14.5 22.5 0.43 0.71 0.71 94 1012.4
20260509162414 22 70 17.7 22.5 0.71 0.71 0.71 94 1012.4
20260509162408 26 175 1.6 6.4 0.00 0.71 0.00 84 1013.4
20260509162401 22 69 19.3 25.7 0.71 0.71 0.71 93 1012.4
20260509162356 22 88 20.9 32.2 0.69 0.69 0.69 93 1012.5
20260509162350 22 138 22.5 35.4 0.41 0.41 0.41 92 1013.1
20260509162346 23 129 29.0 37.0 0.38 0.38 0.38 91 1012.7
20260509162340 24 86 14.5 33.8 0.28 0.28 0.30 88 1011.8
20260509162335 25 76 14.5 20.9 0.00 0.00 0.00 82 1013.0
20260509162329 25 76 14.5 30.6 0.00 0.00 0.00 83 1012.7
20260509162324 22 180 12.9 19.3 0.00 0.71 0.00 93 1012.3
20260509162320 26 74 19.3 30.6 0.00 0.00 0.00 81 1012.4
20260509162314 22 187 12.9 17.7 0.00 0.71 0.00 92 1012.3
20260509162308 26 85 20.9 29.0 0.00 0.00 0.00 80 1012.0
20260509162301 21 206 9.7 14.5 0.00 0.71 0.00 93 1012.3
20260509162257 21 192 8.0 11.3 0.00 0.71 0.00 94 1012.1
20260509162253 23 207 9.7 19.3 0.00 0.71 0.00 92 1012.7
20260509162247 25 250 4.8 9.7 0.00 0.71 0.00 89 1013.3
20260509162242 23 215 8.0 14.5 0.00 0.71 0.00 92 1012.8
20260509162236 25 186 9.7 16.1 0.00 0.71 0.00 89 1013.2
20260509162232 25 175 6.4 11.3 0.00 0.71 0.00 88 1013.1
20260509162227 25 205 6.4 16.1 0.00 0.71 0.00 88 1013.1
20260509162221 26 175 1.6 8.0 0.00 0.71 0.00 85 1013.0
20260509162215 25 235 3.2 11.3 0.00 0.71 0.00 86 1013.1
20260509162210 25 192 4.8 11.3 0.00 0.71 0.00 87 1013.3
20260509162205 21 188 11.3 16.1 0.00 0.71 0.00 93 1012.1
20260509162158 26 129 4.8 11.3 0.00 0.71 0.00 86 1013.0
20260509162152 22 201 14.5 17.7 0.00 0.71 0.00 93 1012.3
20260509162147 23 205 9.7 17.7 0.00 0.71 0.00 92 1012.7
20260509162142 23 211 6.4 12.9 0.00 0.71 0.00 91 1012.7
20260509162137 23 187 6.4 11.3 0.00 0.71 0.00 91 1012.9
20260509162132 23 193 6.4 11.3 0.00 0.71 0.00 91 1013.0
20260509162126 24 236 6.4 11.3 0.00 0.71 0.00 89 1013.5
20260509162122 24 259 6.4 11.3 0.00 0.71 0.00 90 1013.4
20260509162116 25 209 9.7 14.5 0.00 0.71 0.00 88 1013.2
20260509162111 25 237 8.0 14.5 0.00 0.71 0.00 88 1013.4
20260509162106 25 186 1.6 9.7 0.00 0.71 0.00 87 1013.1
20260509162101 25 148 6.4 9.7 0.00 0.71 0.00 89 1013.1
20260509162053 25 178 8.0 11.3 0.00 0.71 0.00 87 1013.3
20260509162048 26 174 3.2 11.3 0.00 0.71 0.00 87 1013.4
20260509161800 22 187 12.9 17.7 0.00 0.71 0.00 92 1012.3
20260509161753 23 207 9.7 19.3 0.00 0.71 0.00 92 1012.7
20260509161748 23 215 8.0 14.5 0.00 0.71 0.00 92 1012.8
20260509161744 25 250 4.8 9.7 0.00 0.71 0.00 89 1013.3
20260509161738 25 186 9.7 16.1 0.00 0.71 0.00 89 1013.2
20260509161733 25 175 6.4 11.3 0.00 0.71 0.00 88 1013.1
20260509161728 25 205 6.4 16.1 0.00 0.71 0.00 88 1013.1
20260509161723 25 192 4.8 11.3 0.00 0.71 0.00 87 1013.3
20260509161718 25 235 3.2 11.3 0.00 0.71 0.00 86 1013.1
20260509161713 26 175 1.6 8.0 0.00 0.71 0.00 85 1013.0
20260509161547 23 211 6.4 12.9 0.00 0.71 0.00 91 1012.7
20260509161541 23 187 6.4 11.3 0.00 0.71 0.00 91 1012.9
20260509161536 23 193 6.4 11.3 0.00 0.71 0.00 91 1013.0
20260509161530 25 209 9.7 14.5 0.00 0.71 0.00 88 1013.2
20260509161526 25 186 1.6 9.7 0.00 0.71 0.00 87 1013.1
20260509161521 25 237 8.0 14.5 0.00 0.71 0.00 88 1013.4
20260509161516 25 148 6.4 9.7 0.00 0.71 0.00 89 1013.1
20260509161511 24 236 6.4 11.3 0.00 0.71 0.00 89 1013.5
20260509161505 25 178 8.0 11.3 0.00 0.71 0.00 87 1013.3
20260509161500 26 174 3.2 11.3 0.00 0.71 0.00 87 1013.4
20260509161333 26 175 1.6 6.4 0.00 0.71 0.00 84 1013.4
20260509161207 25 186 9.7 16.1 0.00 0.71 0.00 89 1013.2
20260509161202 25 175 6.4 11.3 0.00 0.71 0.00 88 1013.1
20260509161158 26 175 1.6 8.0 0.00 0.71 0.00 85 1013.0
20260509161151 25 205 6.4 16.1 0.00 0.71 0.00 88 1013.1
20260509161145 25 192 4.8 11.3 0.00 0.71 0.00 87 1013.3
20260509161140 25 235 3.2 11.3 0.00 0.71 0.00 86 1013.1
20260509161015 21 206 9.7 14.5 0.00 0.71 0.00 93 1012.3
20260509161009 25 186 1.6 9.7 0.00 0.71 0.00 87 1013.1
20260509161004 25 237 8.0 14.5 0.00 0.71 0.00 88 1013.4
20260509160958 21 188 11.3 16.1 0.00 0.71 0.00 93 1012.1
20260509160954 22 201 14.5 17.7 0.00 0.71 0.00 93 1012.3
20260509160946 25 148 6.4 9.7 0.00 0.71 0.00 89 1013.1
20260509160940 25 178 8.0 11.3 0.00 0.71 0.00 87 1013.3
20260509160936 26 174 3.2 11.3 0.00 0.71 0.00 87 1013.4
20260509160808 22 187 12.9 17.7 0.00 0.71 0.00 92 1012.3
20260509160803 23 207 9.7 19.3 0.00 0.71 0.00 92 1012.7
20260509160757 23 215 8.0 14.5 0.00 0.71 0.00 92 1012.8
20260509160753 23 205 9.7 17.7 0.00 0.71 0.00 92 1012.7
20260509160748 23 211 6.4 12.9 0.00 0.71 0.00 91 1012.7
20260509160741 23 187 6.4 11.3 0.00 0.71 0.00 91 1012.9
20260509160735 26 175 1.6 6.4 0.00 0.71 0.00 84 1013.4
20260509160730 23 193 6.4 11.3 0.00 0.71 0.00 91 1013.0
20260509160605 24 259 6.4 11.3 0.00 0.71 0.00 90 1013.4
20260509160559 25 250 4.8 9.7 0.00 0.71 0.00 89 1013.3
20260509160554 25 192 4.8 11.3 0.00 0.71 0.00 87 1013.3
20260509160550 25 186 9.7 16.1 0.00 0.71 0.00 89 1013.2
20260509160544 25 175 6.4 11.3 0.00 0.71 0.00 88 1013.1
20260509160537 25 205 6.4 16.1 0.00 0.71 0.00 88 1013.1
20260509160532 25 209 9.7 14.5 0.00 0.71 0.00 88 1013.2
20260509160526 25 237 8.0 14.5 0.00 0.71 0.00 88 1013.4
20260509160522 25 235 3.2 11.3 0.00 0.71 0.00 86 1013.1
20260509160516 25 186 1.6 9.7 0.00 0.71 0.00 87 1013.1
20260509160350 25 178 8.0 11.3 0.00 0.71 0.00 87 1013.3
20260509160344 26 174 3.2 11.3 0.00 0.71 0.00 87 1013.4
20260509155940 25 235 3.2 11.3 0.00 0.71 0.00 86 1013.1
20260509155933 20 196 8.0 14.5 0.00 0.71 0.00 94 1012.1
20260509155927 20 207 9.7 16.1 0.00 0.71 0.00 94 1012.0
20260509155923 20 226 11.3 16.1 0.00 0.71 0.00 94 1012.0
20260509155917 21 192 8.0 11.3 0.00 0.71 0.00 94 1012.1
20260509155912 21 206 9.7 14.5 0.00 0.71 0.00 93 1012.3
20260509155908 21 188 11.3 16.1 0.00 0.71 0.00 93 1012.1
20260509155902 22 201 14.5 17.7 0.00 0.71 0.00 93 1012.3
20260509155857 22 180 12.9 19.3 0.00 0.71 0.00 93 1012.3
20260509155851 22 187 12.9 17.7 0.00 0.71 0.00 92 1012.3
20260509155846 23 207 9.7 19.3 0.00 0.71 0.00 92 1012.7
20260509155842 23 215 8.0 14.5 0.00 0.71 0.00 92 1012.8
20260509155834 23 205 9.7 17.7 0.00 0.71 0.00 92 1012.7
20260509155829 23 211 6.4 12.9 0.00 0.71 0.00 91 1012.7
20260509155825 25 209 9.7 14.5 0.00 0.71 0.00 88 1013.2
20260509155819 25 186 9.7 16.1 0.00 0.71 0.00 89 1013.2
20260509155814 23 187 6.4 11.3 0.00 0.71 0.00 91 1012.9
20260509155809 23 193 6.4 11.3 0.00 0.71 0.00 91 1013.0
20260509155804 25 148 6.4 9.7 0.00 0.71 0.00 89 1013.1
20260509155759 25 237 8.0 14.5 0.00 0.71 0.00 88 1013.4
20260509155753 25 178 8.0 11.3 0.00 0.71 0.00 87 1013.3
20260509155749 24 236 6.4 11.3 0.00 0.71 0.00 89 1013.5
20260509155743 26 174 3.2 11.3 0.00 0.71 0.00 87 1013.4
20260509155738 25 186 1.6 9.7 0.00 0.71 0.00 87 1013.1
20260509155731 24 259 6.4 11.3 0.00 0.71 0.00 90 1013.4
20260509155607 25 175 6.4 11.3 0.00 0.71 0.00 88 1013.1
20260509155601 25 205 6.4 16.1 0.00 0.71 0.00 88 1013.1
20260509155556 25 192 4.8 11.3 0.00 0.71 0.00 87 1013.3
20260509155310 25 209 9.7 14.5 0.00 0.71 0.00 88 1013.2
20260509155306 25 237 8.0 14.5 0.00 0.71 0.00 88 1013.4
20260509155300 25 148 6.4 9.7 0.00 0.71 0.00 89 1013.1
20260509155254 25 178 8.0 11.3 0.00 0.71 0.00 87 1013.3
20260509155250 25 186 1.6 9.7 0.00 0.71 0.00 87 1013.1
20260509155235 26 174 3.2 11.3 0.00 0.71 0.00 87 1013.4
20260509155118 20 201 8.0 11.3 0.00 0.71 0.00 95 1011.8
20260509155114 20 195 6.4 12.9 0.00 0.71 0.00 94 1012.2
20260509155108 23 187 6.4 11.3 0.00 0.71 0.00 91 1012.9
20260509154942 20 196 8.0 14.5 0.00 0.71 0.00 94 1012.1
20260509154938 25 205 6.4 16.1 0.00 0.71 0.00 88 1013.1
20260509154933 25 235 3.2 11.3 0.00 0.71 0.00 86 1013.1
20260509154927 23 193 6.4 11.3 0.00 0.71 0.00 91 1013.0
20260509154920 21 192 8.0 11.3 0.00 0.71 0.00 94 1012.1
20260509154915 21 206 9.7 14.5 0.00 0.71 0.00 93 1012.3
20260509154910 21 188 11.3 16.1 0.00 0.71 0.00 93 1012.1
20260509154905 22 201 14.5 17.7 0.00 0.71 0.00 93 1012.3
20260509154859 22 180 12.9 19.3 0.00 0.71 0.00 93 1012.3
20260509154855 22 187 12.9 17.7 0.00 0.71 0.00 92 1012.3
20260509154849 23 207 9.7 19.3 0.00 0.71 0.00 92 1012.7
20260509154845 23 215 8.0 14.5 0.00 0.71 0.00 92 1012.8
20260509154840 23 205 9.7 17.7 0.00 0.71 0.00 92 1012.7
20260509154834 23 211 6.4 12.9 0.00 0.71 0.00 91 1012.7
20260509154830 24 259 6.4 11.3 0.00 0.71 0.00 90 1013.4
20260509154825 25 250 4.8 9.7 0.00 0.71 0.00 89 1013.3
20260509154816 24 236 6.4 11.3 0.00 0.71 0.00 89 1013.5
20260509154812 25 175 6.4 11.3 0.00 0.71 0.00 88 1013.1
20260509154807 25 186 9.7 16.1 0.00 0.71 0.00 89 1013.2
20260509154801 25 209 9.7 14.5 0.00 0.71 0.00 88 1013.2
20260509154756 25 237 8.0 14.5 0.00 0.71 0.00 88 1013.4
20260509154750 25 186 1.6 9.7 0.00 0.71 0.00 87 1013.1
20260509154745 25 148 6.4 9.7 0.00 0.71 0.00 89 1013.1
20260509154741 25 178 8.0 11.3 0.00 0.71 0.00 87 1013.3
20260509154451 25 192 4.8 11.3 0.00 0.71 0.00 87 1013.3
20260509154446 23 193 6.4 11.3 0.00 0.71 0.00 91 1013.0
20260509154441 25 235 3.2 11.3 0.00 0.71 0.00 86 1013.1
20260509154315 20 207 9.7 16.1 0.00 0.71 0.00 94 1012.0
20260509154309 20 226 11.3 16.1 0.00 0.71 0.00 94 1012.0
20260509154304 24 236 6.4 11.3 0.00 0.71 0.00 89 1013.5
20260509154300 20 207 8.0 11.3 0.00 0.71 0.00 95 1011.7
20260509154254 24 259 6.4 11.3 0.00 0.71 0.00 90 1013.4
20260509154249 25 250 4.8 9.7 0.00 0.71 0.00 89 1013.3
20260509154243 25 175 6.4 11.3 0.00 0.71 0.00 88 1013.1
20260509154239 25 186 1.6 9.7 0.00 0.71 0.00 87 1013.1
20260509154233 25 186 9.7 16.1 0.00 0.71 0.00 89 1013.2
20260509154228 25 148 6.4 9.7 0.00 0.71 0.00 89 1013.1
20260509154224 25 209 9.7 14.5 0.00 0.71 0.00 88 1013.2
20260509154218 25 237 8.0 14.5 0.00 0.71 0.00 88 1013.4
20260509154211 20 201 8.0 11.3 0.00 0.71 0.00 95 1011.8
20260509154205 20 195 6.4 12.9 0.00 0.71 0.00 94 1012.2
20260509154200 20 196 8.0 14.5 0.00 0.71 0.00 94 1012.1
20260509154154 25 178 8.0 11.3 0.00 0.71 0.00 87 1013.3
20260509154150 21 192 8.0 11.3 0.00 0.71 0.00 94 1012.1
20260509154145 21 206 9.7 14.5 0.00 0.71 0.00 93 1012.3
20260509154140 21 188 11.3 16.1 0.00 0.71 0.00 93 1012.1
20260509154135 22 201 14.5 17.7 0.00 0.71 0.00 93 1012.3
20260509154007 25 192 4.8 11.3 0.00 0.71 0.00 87 1013.3
20260509154002 25 205 6.4 16.1 0.00 0.71 0.00 88 1013.1
20260509153956 22 187 12.9 17.7 0.00 0.71 0.00 92 1012.3
20260509153951 23 207 9.7 19.3 0.00 0.71 0.00 92 1012.7
20260509153946 23 215 8.0 14.5 0.00 0.71 0.00 92 1012.8
20260509153941 23 205 9.7 17.7 0.00 0.71 0.00 92 1012.7
20260509153936 23 211 6.4 12.9 0.00 0.71 0.00 91 1012.7
20260509153932 23 187 6.4 11.3 0.00 0.71 0.00 91 1012.9
20260509153926 23 193 6.4 11.3 0.00 0.71 0.00 91 1013.0
20260509153920 25 235 3.2 11.3 0.00 0.71 0.00 86 1013.1
20260509153753 24 259 6.4 11.3 0.00 0.71 0.00 90 1013.4
20260509153747 25 250 4.8 9.7 0.00 0.71 0.00 89 1013.3
20260509153742 25 209 9.7 14.5 0.00 0.71 0.00 88 1013.2
20260509153738 25 186 1.6 9.7 0.00 0.71 0.00 87 1013.1
20260509153732 25 175 6.4 11.3 0.00 0.71 0.00 88 1013.1
20260509153726 25 186 9.7 16.1 0.00 0.71 0.00 89 1013.2
20260509153721 25 237 8.0 14.5 0.00 0.71 0.00 88 1013.4
20260509153717 25 148 6.4 9.7 0.00 0.71 0.00 89 1013.1
20260509153550 19 215 6.4 11.3 0.00 0.71 0.00 95 1011.7
20260509153545 19 212 6.4 11.3 0.00 0.71 0.00 95 1011.8
20260509153540 20 207 9.7 16.1 0.00 0.71 0.00 94 1012.0
20260509153535 20 226 11.3 16.1 0.00 0.71 0.00 94 1012.0
20260509153529 20 207 8.0 11.3 0.00 0.71 0.00 95 1011.7
20260509153524 25 192 4.8 11.3 0.00 0.71 0.00 87 1013.3
20260509153520 20 201 8.0 11.3 0.00 0.71 0.00 95 1011.8
20260509153514 25 205 6.4 16.1 0.00 0.71 0.00 88 1013.1
20260509153347 25 235 3.2 11.3 0.00 0.71 0.00 86 1013.1
20260509153342 20 196 8.0 14.5 0.00 0.71 0.00 94 1012.1
20260509153336 21 192 8.0 11.3 0.00 0.71 0.00 94 1012.1
20260509153332 21 206 9.7 14.5 0.00 0.71 0.00 93 1012.3
20260509153327 21 188 11.3 16.1 0.00 0.71 0.00 93 1012.1
20260509153322 22 201 14.5 17.7 0.00 0.71 0.00 93 1012.3
20260509153317 22 180 12.9 19.3 0.00 0.71 0.00 93 1012.3
20260509153311 22 187 12.9 17.7 0.00 0.71 0.00 92 1012.3
20260509153304 23 207 9.7 19.3 0.00 0.71 0.00 92 1012.7
20260509153259 23 215 8.0 14.5 0.00 0.71 0.00 92 1012.8
20260509153254 23 205 9.7 17.7 0.00 0.71 0.00 92 1012.7
20260509153248 23 211 6.4 12.9 0.00 0.71 0.00 91 1012.7
20260509153244 23 187 6.4 11.3 0.00 0.71 0.00 91 1012.9
20260509153238 23 193 6.4 11.3 0.00 0.71 0.00 91 1013.0
20260509153233 25 209 9.7 14.5 0.00 0.71 0.00 88 1013.2
20260509153228 24 236 6.4 11.3 0.00 0.71 0.00 89 1013.5
20260509153223 25 186 1.6 9.7 0.00 0.71 0.00 87 1013.1
20260509153217 24 259 6.4 11.3 0.00 0.71 0.00 90 1013.4
20260509153212 25 250 4.8 9.7 0.00 0.71 0.00 89 1013.3
20260509153207 25 175 6.4 11.3 0.00 0.71 0.00 88 1013.1
20260509153159 25 186 9.7 16.1 0.00 0.71 0.00 89 1013.2
20260509153154 25 148 6.4 9.7 0.00 0.71 0.00 89 1013.1
20260509153150 25 237 8.0 14.5 0.00 0.71 0.00 88 1013.4
20260509153022 25 192 4.8 11.3 0.00 0.71 0.00 87 1013.3
20260509152734 25 186 1.6 9.7 0.00 0.71 0.00 87 1013.1
20260509152609 25 250 4.8 9.7 0.00 0.71 0.00 89 1013.3
20260509152604 25 186 9.7 16.1 0.00 0.71 0.00 89 1013.2
20260509152558 25 237 8.0 14.5 0.00 0.71 0.00 88 1013.4
20260509152311 27 68 17.7 27.4 0.00 0.00 0.00 78 1012.3
20260509152306 27 0 17.7 27.4 0.00 0.00 0.00 77 1012.4
20260509152300 27 44 20.9 29.0 0.00 0.00 0.00 78 1012.1
20260509152254 19 215 4.8 8.0 0.00 0.71 0.00 94 1011.8
20260509152247 19 214 1.6 6.4 0.00 0.71 0.00 94 1011.8
20260509152242 19 215 6.4 11.3 0.00 0.71 0.00 95 1011.7
20260509152236 19 212 6.4 11.3 0.00 0.71 0.00 95 1011.8
20260509152232 25 235 3.2 11.3 0.00 0.71 0.00 86 1013.1
20260509152227 20 207 9.7 16.1 0.00 0.71 0.00 94 1012.0
20260509152221 20 226 11.3 16.1 0.00 0.71 0.00 94 1012.0
20260509152215 25 175 6.4 11.3 0.00 0.71 0.00 88 1013.1
20260509152210 25 205 6.4 16.1 0.00 0.71 0.00 88 1013.1
20260509152205 25 209 9.7 14.5 0.00 0.71 0.00 88 1013.2
20260509152159 25 186 1.6 9.7 0.00 0.71 0.00 87 1013.1
20260509152034 20 201 8.0 11.3 0.00 0.71 0.00 95 1011.8
20260509152028 20 195 6.4 12.9 0.00 0.71 0.00 94 1012.2
20260509152023 20 196 8.0 14.5 0.00 0.71 0.00 94 1012.1
20260509152019 21 192 8.0 11.3 0.00 0.71 0.00 94 1012.1
20260509152013 21 206 9.7 14.5 0.00 0.71 0.00 93 1012.3
20260509152008 21 188 11.3 16.1 0.00 0.71 0.00 93 1012.1
20260509152003 22 201 14.5 17.7 0.00 0.71 0.00 93 1012.3
20260509151958 22 180 12.9 19.3 0.00 0.71 0.00 93 1012.3
20260509151952 22 187 12.9 17.7 0.00 0.71 0.00 92 1012.3
20260509151947 23 207 9.7 19.3 0.00 0.71 0.00 92 1012.7
20260509151940 23 215 8.0 14.5 0.00 0.71 0.00 92 1012.8
20260509151934 23 205 9.7 17.7 0.00 0.71 0.00 92 1012.7
20260509151929 23 211 6.4 12.9 0.00 0.71 0.00 91 1012.7
20260509151925 23 187 6.4 11.3 0.00 0.71 0.00 91 1012.9
20260509151919 25 237 8.0 14.5 0.00 0.71 0.00 88 1013.4
20260509151914 23 193 6.4 11.3 0.00 0.71 0.00 91 1013.0
20260509151908 24 259 6.4 11.3 0.00 0.71 0.00 90 1013.4
20260509151904 24 236 6.4 11.3 0.00 0.71 0.00 89 1013.5
20260509151858 25 250 4.8 9.7 0.00 0.71 0.00 89 1013.3
20260509151854 25 186 9.7 16.1 0.00 0.71 0.00 89 1013.2
20260509151849 25 192 4.8 11.3 0.00 0.71 0.00 87 1013.3
20260509151549 25 205 6.4 16.1 0.00 0.71 0.00 88 1013.1
20260509151543 25 209 9.7 14.5 0.00 0.71 0.00 88 1013.2
20260509151414 28 57 19.3 29.0 0.00 0.00 0.00 77 1012.4
20260509151408 28 0 22.5 29.0 0.00 0.00 0.00 75 1012.7
20260509151404 28 0 17.7 25.7 0.00 0.00 0.00 77 1012.8
20260509151359 28 22 20.9 25.7 0.00 0.00 0.00 74 1013.1
20260509151353 28 15 16.1 25.7 0.00 0.00 0.00 75 1013.1
20260509151349 28 24 14.5 20.9 0.00 0.00 0.00 75 1013.2
20260509151341 22 180 12.9 19.3 0.00 0.71 0.00 93 1012.3
20260509151337 23 215 8.0 14.5 0.00 0.71 0.00 92 1012.8
20260509151331 23 205 9.7 17.7 0.00 0.71 0.00 92 1012.7
20260509151326 23 211 6.4 12.9 0.00 0.71 0.00 91 1012.7
20260509151320 25 192 4.8 11.3 0.00 0.71 0.00 87 1013.3
20260509151153 25 235 3.2 11.3 0.00 0.71 0.00 86 1013.1
20260509151148 19 214 1.6 6.4 0.00 0.71 0.00 94 1011.8
20260509151143 20 226 11.3 16.1 0.00 0.71 0.00 94 1012.0
20260509151136 20 207 9.7 16.1 0.00 0.71 0.00 94 1012.0
20260509151131 20 207 8.0 11.3 0.00 0.71 0.00 95 1011.7
20260509151126 19 215 6.4 11.3 0.00 0.71 0.00 95 1011.7
20260509151120 25 186 9.7 16.1 0.00 0.71 0.00 89 1013.2
20260509151116 20 196 8.0 14.5 0.00 0.71 0.00 94 1012.1
20260509151111 19 212 6.4 11.3 0.00 0.71 0.00 95 1011.8
20260509151105 20 201 8.0 11.3 0.00 0.71 0.00 95 1011.8
20260509151100 21 206 9.7 14.5 0.00 0.71 0.00 93 1012.3
20260509151054 20 195 6.4 12.9 0.00 0.71 0.00 94 1012.2
20260509151050 21 188 11.3 16.1 0.00 0.71 0.00 93 1012.1
20260509151044 23 187 6.4 11.3 0.00 0.71 0.00 91 1012.9
20260509151039 21 192 8.0 11.3 0.00 0.71 0.00 94 1012.1
20260509151032 22 201 14.5 17.7 0.00 0.71 0.00 93 1012.3
20260509151026 23 193 6.4 11.3 0.00 0.71 0.00 91 1013.0
20260509151021 24 259 6.4 11.3 0.00 0.71 0.00 90 1013.4
20260509151016 25 209 9.7 14.5 0.00 0.71 0.00 88 1013.2
20260509151011 24 236 6.4 11.3 0.00 0.71 0.00 89 1013.5
20260509151005 25 250 4.8 9.7 0.00 0.71 0.00 89 1013.3
20260509151000 25 175 6.4 11.3 0.00 0.71 0.00 88 1013.1
20260509150955 22 187 12.9 17.7 0.00 0.71 0.00 92 1012.3
20260509150950 25 205 6.4 16.1 0.00 0.71 0.00 88 1013.1
20260509150945 23 207 9.7 19.3 0.00 0.71 0.00 92 1012.7
20260509150939 25 237 8.0 14.5 0.00 0.71 0.00 88 1013.4
20260509150809 23 215 8.0 14.5 0.00 0.71 0.00 92 1012.8
20260509150805 23 205 9.7 17.7 0.00 0.71 0.00 92 1012.7
20260509150759 23 211 6.4 12.9 0.00 0.71 0.00 91 1012.7
20260509150754 25 192 4.8 11.3 0.00 0.71 0.00 87 1013.3
20260509150625 20 207 9.7 16.1 0.00 0.71 0.00 94 1012.0
20260509150621 20 226 11.3 16.1 0.00 0.71 0.00 94 1012.0
20260509150615 20 207 8.0 11.3 0.00 0.71 0.00 95 1011.7
20260509150610 20 195 6.4 12.9 0.00 0.71 0.00 94 1012.2
20260509150605 20 196 8.0 14.5 0.00 0.71 0.00 94 1012.1
20260509150600 21 192 8.0 11.3 0.00 0.71 0.00 94 1012.1
20260509150554 21 206 9.7 14.5 0.00 0.71 0.00 93 1012.3
20260509150549 21 188 11.3 16.1 0.00 0.71 0.00 93 1012.1
20260509150543 23 187 6.4 11.3 0.00 0.71 0.00 91 1012.9
20260509150537 23 193 6.4 11.3 0.00 0.71 0.00 91 1013.0
20260509150530 24 259 6.4 11.3 0.00 0.71 0.00 90 1013.4
20260509150524 24 236 6.4 11.3 0.00 0.71 0.00 89 1013.5
20260509150518 25 250 4.8 9.7 0.00 0.71 0.00 89 1013.3
20260509150514 25 175 6.4 11.3 0.00 0.71 0.00 88 1013.1
20260509150509 25 205 6.4 16.1 0.00 0.71 0.00 88 1013.1
20260509150503 25 209 9.7 14.5 0.00 0.71 0.00 88 1013.2
20260509150335 25 237 8.0 14.5 0.00 0.71 0.00 88 1013.4
20260509150207 23 207 9.7 19.3 0.00 0.71 0.00 92 1012.7
20260509150201 22 180 12.9 19.3 0.00 0.71 0.00 93 1012.3
20260509150155 23 215 8.0 14.5 0.00 0.71 0.00 92 1012.8
20260509150151 25 192 4.8 11.3 0.00 0.71 0.00 87 1013.3
20260509150146 23 205 9.7 17.7 0.00 0.71 0.00 92 1012.7
20260509150140 25 186 9.7 16.1 0.00 0.71 0.00 89 1013.2
20260509150135 23 211 6.4 12.9 0.00 0.71 0.00 91 1012.7
20260509150007 23 193 6.4 11.3 0.00 0.71 0.00 91 1013.0
20260509150002 24 259 6.4 11.3 0.00 0.71 0.00 90 1013.4
20260509145956 24 236 6.4 11.3 0.00 0.71 0.00 89 1013.5
20260509145950 25 250 4.8 9.7 0.00 0.71 0.00 89 1013.3
20260509145945 25 205 6.4 16.1 0.00 0.71 0.00 88 1013.1
20260509145939 25 175 6.4 11.3 0.00 0.71 0.00 88 1013.1
20260509145935 25 209 9.7 14.5 0.00 0.71 0.00 88 1013.2
20260509145644 21 206 9.7 14.5 0.00 0.71 0.00 93 1012.3
20260509145638 21 188 11.3 16.1 0.00 0.71 0.00 93 1012.1
20260509145633 22 201 14.5 17.7 0.00 0.71 0.00 93 1012.3
20260509145628 25 186 9.7 16.1 0.00 0.71 0.00 89 1013.2
20260509145459 23 207 9.7 19.3 0.00 0.71 0.00 92 1012.7
20260509145455 22 180 12.9 19.3 0.00 0.71 0.00 93 1012.3
20260509145449 23 215 8.0 14.5 0.00 0.71 0.00 92 1012.8
20260509145444 23 205 9.7 17.7 0.00 0.71 0.00 92 1012.7
20260509145438 23 211 6.4 12.9 0.00 0.71 0.00 91 1012.7
20260509145433 23 187 6.4 11.3 0.00 0.71 0.00 91 1012.9
20260509145428 23 193 6.4 11.3 0.00 0.71 0.00 91 1013.0
20260509145423 24 259 6.4 11.3 0.00 0.71 0.00 90 1013.4
20260509145419 25 205 6.4 16.1 0.00 0.71 0.00 88 1013.1
20260509145413 24 236 6.4 11.3 0.00 0.71 0.00 89 1013.5
20260509145406 25 250 4.8 9.7 0.00 0.71 0.00 89 1013.3
20260509145400 25 175 6.4 11.3 0.00 0.71 0.00 88 1013.1
20260509145356 25 209 9.7 14.5 0.00 0.71 0.00 88 1013.2
20260509144742 23 205 9.7 17.7 0.00 0.71 0.00 92 1012.7
20260509144736 23 211 6.4 12.9 0.00 0.71 0.00 91 1012.7
20260509144731 25 209 9.7 14.5 0.00 0.71 0.00 88 1013.2
20260509144726 23 187 6.4 11.3 0.00 0.71 0.00 91 1012.9
20260509144721 23 193 6.4 11.3 0.00 0.71 0.00 91 1013.0
20260509144712 24 259 6.4 11.3 0.00 0.71 0.00 90 1013.4
20260509144707 24 236 6.4 11.3 0.00 0.71 0.00 89 1013.5
20260509144655 25 175 6.4 11.3 0.00 0.71 0.00 88 1013.1
20260509144359 25 205 6.4 16.1 0.00 0.71 0.00 88 1013.1
20260509144109 23 207 9.7 19.3 0.00 0.71 0.00 92 1012.7
20260509144104 22 180 12.9 19.3 0.00 0.71 0.00 93 1012.3
20260509144058 23 215 8.0 14.5 0.00 0.71 0.00 92 1012.8
20260509144051 23 205 9.7 17.7 0.00 0.71 0.00 92 1012.7
20260509144047 23 211 6.4 12.9 0.00 0.71 0.00 91 1012.7
20260509144041 25 175 6.4 11.3 0.00 0.71 0.00 88 1013.1
20260509143914 24 236 6.4 11.3 0.00 0.71 0.00 89 1013.5
20260509143909 23 193 6.4 11.3 0.00 0.71 0.00 91 1013.0
20260509143903 25 250 4.8 9.7 0.00 0.71 0.00 89 1013.3
20260509143859 24 259 6.4 11.3 0.00 0.71 0.00 90 1013.4
20260509143853 25 186 9.7 16.1 0.00 0.71 0.00 89 1013.2
20260509143435 23 205 9.7 17.7 0.00 0.71 0.00 92 1012.7
20260509143430 24 236 6.4 11.3 0.00 0.71 0.00 89 1013.5
20260509143424 25 250 4.8 9.7 0.00 0.71 0.00 89 1013.3
20260509143419 25 175 6.4 11.3 0.00 0.71 0.00 88 1013.1
20260509143252 23 187 6.4 11.3 0.00 0.71 0.00 91 1012.9
20260509143244 23 193 6.4 11.3 0.00 0.71 0.00 91 1013.0
20260509143239 24 259 6.4 11.3 0.00 0.71 0.00 90 1013.4
20260509143234 25 186 9.7 16.1 0.00 0.71 0.00 89 1013.2
20260509143222 25 205 6.4 16.1 0.00 0.71 0.00 88 1013.1
20260509143100 20 195 6.4 12.9 0.00 0.71 0.00 94 1012.2
20260509143055 20 196 8.0 14.5 0.00 0.71 0.00 94 1012.1
20260509142927 21 206 9.7 14.5 0.00 0.71 0.00 93 1012.3
20260509142921 21 188 11.3 16.1 0.00 0.71 0.00 93 1012.1
20260509142916 22 201 14.5 17.7 0.00 0.71 0.00 93 1012.3
20260509142912 23 215 8.0 14.5 0.00 0.71 0.00 92 1012.8
20260509142906 24 236 6.4 11.3 0.00 0.71 0.00 89 1013.5
20260509142901 25 250 4.8 9.7 0.00 0.71 0.00 89 1013.3
20260509142855 25 175 6.4 11.3 0.00 0.71 0.00 88 1013.1
20260509142728 25 186 9.7 16.1 0.00 0.71 0.00 89 1013.2
20260509142723 19 212 6.4 11.3 0.00 0.71 0.00 95 1011.8
20260509142717 20 201 8.0 11.3 0.00 0.71 0.00 95 1011.8
20260509142712 22 187 12.9 17.7 0.00 0.71 0.00 92 1012.3
20260509142708 22 180 12.9 19.3 0.00 0.71 0.00 93 1012.3
20260509142702 23 207 9.7 19.3 0.00 0.71 0.00 92 1012.7
20260509142657 23 205 9.7 17.7 0.00 0.71 0.00 92 1012.7
20260509142651 23 211 6.4 12.9 0.00 0.71 0.00 91 1012.7
20260509142645 23 187 6.4 11.3 0.00 0.71 0.00 91 1012.9
20260509142640 23 193 6.4 11.3 0.00 0.71 0.00 91 1013.0
20260509142633 24 259 6.4 11.3 0.00 0.71 0.00 90 1013.4
20260509142506 20 207 8.0 11.3 0.00 0.71 0.00 95 1011.7
20260509142500 20 207 9.7 16.1 0.00 0.71 0.00 94 1012.0
20260509142334 20 195 6.4 12.9 0.00 0.71 0.00 94 1012.2
20260509142326 20 196 8.0 14.5 0.00 0.71 0.00 94 1012.1
20260509142321 21 192 8.0 11.3 0.00 0.71 0.00 94 1012.1
20260509142316 21 206 9.7 14.5 0.00 0.71 0.00 93 1012.3
20260509142311 21 188 11.3 16.1 0.00 0.71 0.00 93 1012.1
20260509142307 22 201 14.5 17.7 0.00 0.71 0.00 93 1012.3
20260509142300 24 236 6.4 11.3 0.00 0.71 0.00 89 1013.5
20260509142254 25 250 4.8 9.7 0.00 0.71 0.00 89 1013.3
20260509142249 25 175 6.4 11.3 0.00 0.71 0.00 88 1013.1
20260509142232 25 186 9.7 16.1 0.00 0.71 0.00 89 1013.2
20260509142115 23 207 9.7 19.3 0.00 0.71 0.00 92 1012.7
20260509142111 22 180 12.9 19.3 0.00 0.71 0.00 93 1012.3
20260509142106 19 214 3.2 6.4 0.00 0.71 0.00 94 1012.3
20260509142100 23 187 6.4 11.3 0.00 0.71 0.00 91 1012.9
20260509142055 23 205 9.7 17.7 0.00 0.71 0.00 92 1012.7
20260509142049 23 211 6.4 12.9 0.00 0.71 0.00 91 1012.7
20260509142044 23 193 6.4 11.3 0.00 0.71 0.00 91 1013.0
20260509142039 19 215 4.8 8.0 0.00 0.71 0.00 94 1011.8
20260509142034 24 259 6.4 11.3 0.00 0.71 0.00 90 1013.4
20260509141906 19 215 6.4 11.3 0.00 0.71 0.00 95 1011.7
20260509141901 19 212 6.4 11.3 0.00 0.71 0.00 95 1011.8
20260509141857 23 215 8.0 14.5 0.00 0.71 0.00 92 1012.8
20260509141728 20 226 11.3 16.1 0.00 0.71 0.00 94 1012.0
20260509141722 20 207 8.0 11.3 0.00 0.71 0.00 95 1011.7
20260509141717 25 250 4.8 9.7 0.00 0.71 0.00 89 1013.3
20260509141713 20 207 9.7 16.1 0.00 0.71 0.00 94 1012.0
20260509141707 20 195 6.4 12.9 0.00 0.71 0.00 94 1012.2
20260509141702 20 196 8.0 14.5 0.00 0.71 0.00 94 1012.1
20260509141657 21 192 8.0 11.3 0.00 0.71 0.00 94 1012.1
20260509141653 25 175 6.4 11.3 0.00 0.71 0.00 88 1013.1
20260509141649 21 206 9.7 14.5 0.00 0.71 0.00 93 1012.3
20260509141644 24 236 6.4 11.3 0.00 0.71 0.00 89 1013.5
20260509141639 21 188 11.3 16.1 0.00 0.71 0.00 93 1012.1
20260509141634 22 201 14.5 17.7 0.00 0.71 0.00 93 1012.3
20260509141626 22 187 12.9 17.7 0.00 0.71 0.00 92 1012.3
20260509141621 22 180 12.9 19.3 0.00 0.71 0.00 93 1012.3
20260509141615 23 207 9.7 19.3 0.00 0.71 0.00 92 1012.7
20260509141611 23 205 9.7 17.7 0.00 0.71 0.00 92 1012.7
20260509141605 23 211 6.4 12.9 0.00 0.71 0.00 91 1012.7
20260509141600 23 187 6.4 11.3 0.00 0.71 0.00 91 1012.9
20260509141554 23 193 6.4 11.3 0.00 0.71 0.00 91 1013.0
20260509141428 29 15 14.5 17.7 0.00 0.00 0.00 70 1013.4
20260509141422 29 22 11.3 17.7 0.00 0.00 0.00 75 1013.6
20260509141417 28 346 4.8 16.1 0.00 0.00 0.00 75 1013.6
20260509141412 28 31 6.4 12.9 0.00 0.00 0.00 71 1013.6
20260509141407 28 23 8.0 12.9 0.00 0.00 0.00 73 1013.7
20260509141401 29 96 8.0 11.3 0.00 0.00 0.00 74 1013.7
20260509141356 28 96 9.7 16.1 0.00 0.00 0.00 75 1013.9
20260509141350 28 47 8.0 14.5 0.00 0.00 0.00 76 1014.0
20260509141345 28 88 11.3 14.5 0.00 0.00 0.00 74 1014.2
20260509141341 27 109 9.7 12.9 0.00 0.00 0.00 79 1014.2
20260509141335 27 63 9.7 14.5 0.00 0.00 0.00 77 1014.3
20260509141329 27 98 11.3 16.1 0.00 0.00 0.00 79 1014.5
20260509141327 26 70 8.0 17.7 0.00 0.00 0.00 79 1014.7
20260509141319 26 50 8.0 17.7 0.00 0.00 0.00 80 1014.9
20260509141313 26 81 6.4 8.0 0.00 0.00 0.00 81 1014.9
20260509141309 26 85 8.0 11.3 0.00 0.00 0.00 80 1015.0
20260509141303 23 215 8.0 14.5 0.00 0.71 0.00 92 1012.8
20260509141258 25 78 8.0 16.1 0.00 0.00 0.00 82 1015.1
20260509141248 25 79 8.0 16.1 0.00 0.00 0.00 81 1015.3
20260509141243 25 72 11.3 14.5 0.00 0.00 0.00 79 1015.3
20260509141227 26 96 11.3 17.7 0.00 0.00 0.00 82 1015.4
20260509141222 20 211 6.4 9.7 0.00 0.71 0.00 92 1011.9
20260509141216 20 224 4.8 9.7 0.00 0.71 0.00 91 1012.0
20260509141211 20 213 3.2 6.4 0.00 0.71 0.00 93 1012.4
20260509141207 25 250 4.8 9.7 0.00 0.71 0.00 89 1013.3
20260509141201 20 212 3.2 9.7 0.00 0.71 0.00 93 1012.2
20260509141156 24 236 6.4 11.3 0.00 0.71 0.00 89 1013.5
20260509141150 25 175 6.4 11.3 0.00 0.71 0.00 88 1013.1
20260509141145 19 214 3.2 6.4 0.00 0.71 0.00 94 1012.3
20260509141140 19 215 4.8 8.0 0.00 0.71 0.00 94 1011.8
20260509141136 19 214 1.6 6.4 0.00 0.71 0.00 94 1011.8
20260509141132 19 215 6.4 11.3 0.00 0.71 0.00 95 1011.7
20260509141125 19 212 6.4 11.3 0.00 0.71 0.00 95 1011.8
20260509141120 20 201 8.0 11.3 0.00 0.71 0.00 95 1011.8
20260509141114 20 226 11.3 16.1 0.00 0.71 0.00 94 1012.0
20260509141109 20 207 8.0 11.3 0.00 0.71 0.00 95 1011.7
20260509141103 20 207 9.7 16.1 0.00 0.71 0.00 94 1012.0
20260509141059 20 195 6.4 12.9 0.00 0.71 0.00 94 1012.2
20260509141053 20 196 8.0 14.5 0.00 0.71 0.00 94 1012.1
20260509141048 21 188 11.3 16.1 0.00 0.71 0.00 93 1012.1
20260509141044 21 192 8.0 11.3 0.00 0.71 0.00 94 1012.1
20260509141038 22 201 14.5 17.7 0.00 0.71 0.00 93 1012.3
20260509141033 22 180 12.9 19.3 0.00 0.71 0.00 93 1012.3
20260509141027 23 207 9.7 19.3 0.00 0.71 0.00 92 1012.7
20260509141021 23 211 6.4 12.9 0.00 0.71 0.00 91 1012.7
20260509141016 23 187 6.4 11.3 0.00 0.71 0.00 91 1012.9
20260509141010 22 187 12.9 17.7 0.00 0.71 0.00 92 1012.3
20260509141006 23 193 6.4 11.3 0.00 0.71 0.00 91 1013.0
20260509141001 21 206 9.7 14.5 0.00 0.71 0.00 93 1012.3
20260509140955 23 205 9.7 17.7 0.00 0.71 0.00 92 1012.7
20260509140950 24 259 6.4 11.3 0.00 0.71 0.00 90 1013.4
20260509140701 25 250 4.8 9.7 0.00 0.71 0.00 89 1013.3
20260509140536 22 201 14.5 17.7 0.00 0.71 0.00 93 1012.3
20260509140529 23 211 6.4 12.9 0.00 0.71 0.00 91 1012.7
20260509140524 23 187 6.4 11.3 0.00 0.71 0.00 91 1012.9
20260509140519 22 187 12.9 17.7 0.00 0.71 0.00 92 1012.3
20260509140515 22 180 12.9 19.3 0.00 0.71 0.00 93 1012.3
20260509140509 23 207 9.7 19.3 0.00 0.71 0.00 92 1012.7
20260509140504 23 193 6.4 11.3 0.00 0.71 0.00 91 1013.0
20260509140340 24 259 6.4 11.3 0.00 0.71 0.00 90 1013.4
20260509140212 24 236 6.4 11.3 0.00 0.71 0.00 89 1013.5
20260509140203 25 250 4.8 9.7 0.00 0.71 0.00 89 1013.3
20260509140041 20 196 8.0 14.5 0.00 0.71 0.00 94 1012.1
20260509140035 20 195 6.4 12.9 0.00 0.71 0.00 94 1012.2
20260509140028 20 207 9.7 16.1 0.00 0.71 0.00 94 1012.0
20260509140024 23 187 6.4 11.3 0.00 0.71 0.00 91 1012.9
20260509140019 23 211 6.4 12.9 0.00 0.71 0.00 91 1012.7
20260509135853 21 206 9.7 14.5 0.00 0.71 0.00 93 1012.3
20260509135848 23 193 6.4 11.3 0.00 0.71 0.00 91 1013.0
20260509135723 22 201 14.5 17.7 0.00 0.71 0.00 93 1012.3
20260509135717 22 187 12.9 17.7 0.00 0.71 0.00 92 1012.3
20260509135712 22 180 12.9 19.3 0.00 0.71 0.00 93 1012.3
20260509135706 23 207 9.7 19.3 0.00 0.71 0.00 92 1012.7
20260509135701 24 259 6.4 11.3 0.00 0.71 0.00 90 1013.4
20260509135655 23 205 9.7 17.7 0.00 0.71 0.00 92 1012.7
20260509135651 24 236 6.4 11.3 0.00 0.71 0.00 89 1013.5
20260509135645 23 215 8.0 14.5 0.00 0.71 0.00 92 1012.8
20260509135516 20 196 8.0 14.5 0.00 0.71 0.00 94 1012.1
20260509135511 23 211 6.4 12.9 0.00 0.71 0.00 91 1012.7
20260509135506 23 187 6.4 11.3 0.00 0.71 0.00 91 1012.9
20260509135344 23 193 6.4 11.3 0.00 0.71 0.00 91 1013.0
20260509135338 21 206 9.7 14.5 0.00 0.71 0.00 93 1012.3
20260509135212 21 188 11.3 16.1 0.00 0.71 0.00 93 1012.1
20260509135207 22 201 14.5 17.7 0.00 0.71 0.00 93 1012.3
20260509135202 22 187 12.9 17.7 0.00 0.71 0.00 92 1012.3
20260509135157 22 180 12.9 19.3 0.00 0.71 0.00 93 1012.3
20260509135152 23 207 9.7 19.3 0.00 0.71 0.00 92 1012.7
20260509135146 24 236 6.4 11.3 0.00 0.71 0.00 89 1013.5
20260509135141 23 205 9.7 17.7 0.00 0.71 0.00 92 1012.7
20260509135135 23 215 8.0 14.5 0.00 0.71 0.00 92 1012.8
20260509135010 23 187 6.4 11.3 0.00 0.71 0.00 91 1012.9
20260509134721 24 259 6.4 11.3 0.00 0.71 0.00 90 1013.4
20260509134556 20 207 9.7 16.1 0.00 0.71 0.00 94 1012.0
20260509134551 20 195 6.4 12.9 0.00 0.71 0.00 94 1012.2
20260509134545 23 207 9.7 19.3 0.00 0.71 0.00 92 1012.7
20260509134420 21 192 8.0 11.3 0.00 0.71 0.00 94 1012.1
20260509134415 21 206 9.7 14.5 0.00 0.71 0.00 93 1012.3
20260509134409 21 188 11.3 16.1 0.00 0.71 0.00 93 1012.1
20260509134404 22 201 14.5 17.7 0.00 0.71 0.00 93 1012.3
20260509134358 22 187 12.9 17.7 0.00 0.71 0.00 92 1012.3
20260509134353 22 180 12.9 19.3 0.00 0.71 0.00 93 1012.3
20260509134347 23 205 9.7 17.7 0.00 0.71 0.00 92 1012.7
20260509134343 23 215 8.0 14.5 0.00 0.71 0.00 92 1012.8
20260509134337 23 211 6.4 12.9 0.00 0.71 0.00 91 1012.7
20260509134332 23 187 6.4 11.3 0.00 0.71 0.00 91 1012.9
20260509134328 23 193 6.4 11.3 0.00 0.71 0.00 91 1013.0
20260509134200 19 214 3.2 6.4 0.00 0.71 0.00 94 1012.3
20260509134154 24 259 6.4 11.3 0.00 0.71 0.00 90 1013.4
20260509134029 19 214 1.6 6.4 0.00 0.71 0.00 94 1011.8
20260509134021 19 215 6.4 11.3 0.00 0.71 0.00 95 1011.7
20260509134016 20 201 8.0 11.3 0.00 0.71 0.00 95 1011.8
20260509134011 20 207 9.7 16.1 0.00 0.71 0.00 94 1012.0
20260509134007 20 226 11.3 16.1 0.00 0.71 0.00 94 1012.0
20260509134001 19 212 6.4 11.3 0.00 0.71 0.00 95 1011.8
20260509133956 20 207 8.0 11.3 0.00 0.71 0.00 95 1011.7
20260509133950 23 207 9.7 19.3 0.00 0.71 0.00 92 1012.7
20260509133824 23 211 6.4 12.9 0.00 0.71 0.00 91 1012.7
20260509133818 25 89 11.3 19.3 0.00 0.00 0.00 84 1015.4
20260509133813 20 211 6.4 9.7 0.00 0.71 0.00 92 1011.9
20260509133809 20 195 6.4 12.9 0.00 0.71 0.00 94 1012.2
20260509133803 21 192 8.0 11.3 0.00 0.71 0.00 94 1012.1
20260509133757 21 206 9.7 14.5 0.00 0.71 0.00 93 1012.3
20260509133752 21 188 11.3 16.1 0.00 0.71 0.00 93 1012.1
20260509133748 22 201 14.5 17.7 0.00 0.71 0.00 93 1012.3
20260509133742 22 187 12.9 17.7 0.00 0.71 0.00 92 1012.3
20260509133737 22 180 12.9 19.3 0.00 0.71 0.00 93 1012.3
20260509133732 23 205 9.7 17.7 0.00 0.71 0.00 92 1012.7
20260509133727 23 215 8.0 14.5 0.00 0.71 0.00 92 1012.8
20260509133720 23 187 6.4 11.3 0.00 0.71 0.00 91 1012.9
20260509133715 23 193 6.4 11.3 0.00 0.71 0.00 91 1013.0
20260509133549 20 212 3.2 9.7 0.00 0.71 0.00 93 1012.2
20260509133544 20 213 3.2 6.4 0.00 0.71 0.00 93 1012.4
20260509133538 19 214 3.2 6.4 0.00 0.71 0.00 94 1012.3
20260509133533 19 215 4.8 8.0 0.00 0.71 0.00 94 1011.8
20260509133528 19 214 1.6 6.4 0.00 0.71 0.00 94 1011.8
20260509133521 19 215 6.4 11.3 0.00 0.71 0.00 95 1011.7
20260509133516 19 212 6.4 11.3 0.00 0.71 0.00 95 1011.8
20260509133512 20 207 8.0 11.3 0.00 0.71 0.00 95 1011.7
20260509133506 20 201 8.0 11.3 0.00 0.71 0.00 95 1011.8
20260509133501 20 226 11.3 16.1 0.00 0.71 0.00 94 1012.0
20260509133456 20 207 9.7 16.1 0.00 0.71 0.00 94 1012.0
20260509133451 23 207 9.7 19.3 0.00 0.71 0.00 92 1012.7
20260509133323 20 196 8.0 14.5 0.00 0.71 0.00 94 1012.1
20260509133319 23 211 6.4 12.9 0.00 0.71 0.00 91 1012.7
20260509133152 21 206 9.7 14.5 0.00 0.71 0.00 93 1012.3
20260509133147 23 193 6.4 11.3 0.00 0.71 0.00 91 1013.0
20260509133143 21 188 11.3 16.1 0.00 0.71 0.00 93 1012.1
20260509133137 22 201 14.5 17.7 0.00 0.71 0.00 93 1012.3
20260509133133 22 187 12.9 17.7 0.00 0.71 0.00 92 1012.3
20260509133127 23 187 6.4 11.3 0.00 0.71 0.00 91 1012.9
20260509133120 23 215 8.0 14.5 0.00 0.71 0.00 92 1012.8
20260509133116 22 180 12.9 19.3 0.00 0.71 0.00 93 1012.3
20260509133110 23 205 9.7 17.7 0.00 0.71 0.00 92 1012.7
20260509132944 19 215 6.4 11.3 0.00 0.71 0.00 95 1011.7
20260509132818 20 201 8.0 11.3 0.00 0.71 0.00 95 1011.8
20260509132812 20 226 11.3 16.1 0.00 0.71 0.00 94 1012.0
20260509132808 23 211 6.4 12.9 0.00 0.71 0.00 91 1012.7
20260509132803 20 207 9.7 16.1 0.00 0.71 0.00 94 1012.0
20260509132637 20 196 8.0 14.5 0.00 0.71 0.00 94 1012.1
20260509132631 23 187 6.4 11.3 0.00 0.71 0.00 91 1012.9
20260509132626 23 215 8.0 14.5 0.00 0.71 0.00 92 1012.8
20260509132619 21 192 8.0 11.3 0.00 0.71 0.00 94 1012.1
20260509132615 21 206 9.7 14.5 0.00 0.71 0.00 93 1012.3
20260509132609 21 188 11.3 16.1 0.00 0.71 0.00 93 1012.1
20260509132604 22 201 14.5 17.7 0.00 0.71 0.00 93 1012.3
20260509132558 22 187 12.9 17.7 0.00 0.71 0.00 92 1012.3
20260509132553 22 180 12.9 19.3 0.00 0.71 0.00 93 1012.3
20260509132549 23 205 9.7 17.7 0.00 0.71 0.00 92 1012.7
20260509132305 25 71 9.7 17.7 0.00 0.00 0.00 85 1015.3
20260509132256 25 53 9.7 16.1 0.00 0.00 0.00 85 1015.3
20260509132252 25 67 12.9 19.3 0.00 0.00 0.00 85 1015.2
20260509132246 21 219 6.4 9.7 0.00 0.71 0.00 91 1012.1
20260509132241 20 211 6.4 9.7 0.00 0.71 0.00 92 1011.9
20260509132237 23 211 6.4 12.9 0.00 0.71 0.00 91 1012.7
20260509132231 20 224 4.8 9.7 0.00 0.71 0.00 91 1012.0
20260509132225 20 212 3.2 9.7 0.00 0.71 0.00 93 1012.2
20260509132217 20 213 3.2 6.4 0.00 0.71 0.00 93 1012.4
20260509132213 19 214 3.2 6.4 0.00 0.71 0.00 94 1012.3
20260509132207 19 215 4.8 8.0 0.00 0.71 0.00 94 1011.8
20260509132202 19 214 1.6 6.4 0.00 0.71 0.00 94 1011.8
20260509132156 19 212 6.4 11.3 0.00 0.71 0.00 95 1011.8
20260509132152 19 215 6.4 11.3 0.00 0.71 0.00 95 1011.7
20260509132147 23 187 6.4 11.3 0.00 0.71 0.00 91 1012.9
20260509132141 20 207 8.0 11.3 0.00 0.71 0.00 95 1011.7
20260509132136 23 215 8.0 14.5 0.00 0.71 0.00 92 1012.8
20260509132131 20 201 8.0 11.3 0.00 0.71 0.00 95 1011.8
20260509132126 20 226 11.3 16.1 0.00 0.71 0.00 94 1012.0
20260509132119 20 207 9.7 16.1 0.00 0.71 0.00 94 1012.0
20260509132113 20 195 6.4 12.9 0.00 0.71 0.00 94 1012.2
20260509132109 20 196 8.0 14.5 0.00 0.71 0.00 94 1012.1
20260509132105 21 192 8.0 11.3 0.00 0.71 0.00 94 1012.1
20260509132059 21 206 9.7 14.5 0.00 0.71 0.00 93 1012.3
20260509132053 21 188 11.3 16.1 0.00 0.71 0.00 93 1012.1
20260509132048 22 201 14.5 17.7 0.00 0.71 0.00 93 1012.3
20260509132044 22 187 12.9 17.7 0.00 0.71 0.00 92 1012.3
20260509131916 23 207 9.7 19.3 0.00 0.71 0.00 92 1012.7
20260509131912 23 205 9.7 17.7 0.00 0.71 0.00 92 1012.7
20260509131501 25 37 17.7 22.5 0.00 0.00 0.00 86 1015.2
20260509131456 21 205 6.4 11.3 0.00 0.71 0.00 91 1012.0
20260509131450 21 194 8.0 11.3 0.00 0.71 0.00 91 1012.0
20260509131445 21 188 11.3 16.1 0.00 0.71 0.00 93 1012.1
20260509131441 19 215 4.8 8.0 0.00 0.71 0.00 94 1011.8
20260509131435 21 206 9.7 14.5 0.00 0.71 0.00 93 1012.3
20260509131430 22 201 14.5 17.7 0.00 0.71 0.00 93 1012.3
20260509131424 22 180 12.9 19.3 0.00 0.71 0.00 93 1012.3
20260509131417 21 203 6.4 9.7 0.00 0.71 0.00 91 1012.1
20260509131413 19 212 6.4 11.3 0.00 0.71 0.00 95 1011.8
20260509131409 23 207 9.7 19.3 0.00 0.71 0.00 92 1012.7
20260509131403 21 191 4.8 8.0 0.00 0.71 0.00 91 1012.2
20260509131358 23 205 9.7 17.7 0.00 0.71 0.00 92 1012.7
20260509131232 21 219 6.4 9.7 0.00 0.71 0.00 91 1012.1
20260509131227 20 211 6.4 9.7 0.00 0.71 0.00 92 1011.9
20260509131219 20 224 4.8 9.7 0.00 0.71 0.00 91 1012.0
20260509131215 20 212 3.2 9.7 0.00 0.71 0.00 93 1012.2
20260509131209 20 213 3.2 6.4 0.00 0.71 0.00 93 1012.4
20260509131204 20 207 8.0 11.3 0.00 0.71 0.00 95 1011.7
20260509131159 19 215 6.4 11.3 0.00 0.71 0.00 95 1011.7
20260509131154 19 214 3.2 6.4 0.00 0.71 0.00 94 1012.3
20260509131149 23 211 6.4 12.9 0.00 0.71 0.00 91 1012.7
20260509131143 20 201 8.0 11.3 0.00 0.71 0.00 95 1011.8
20260509131138 22 187 12.9 17.7 0.00 0.71 0.00 92 1012.3
20260509131132 23 215 8.0 14.5 0.00 0.71 0.00 92 1012.8
20260509131128 20 226 11.3 16.1 0.00 0.71 0.00 94 1012.0
20260509131123 21 192 8.0 11.3 0.00 0.71 0.00 94 1012.1
20260509131116 20 207 9.7 16.1 0.00 0.71 0.00 94 1012.0
20260509131110 19 214 1.6 6.4 0.00 0.71 0.00 94 1011.8
20260509131105 20 195 6.4 12.9 0.00 0.71 0.00 94 1012.2
20260509131101 20 196 8.0 14.5 0.00 0.71 0.00 94 1012.1
20260509130936 21 188 11.3 16.1 0.00 0.71 0.00 93 1012.1
20260509130930 19 215 4.8 8.0 0.00 0.71 0.00 94 1011.8
20260509130924 22 201 14.5 17.7 0.00 0.71 0.00 93 1012.3
20260509130919 22 180 12.9 19.3 0.00 0.71 0.00 93 1012.3
20260509130913 19 212 6.4 11.3 0.00 0.71 0.00 95 1011.8
20260509130908 23 207 9.7 19.3 0.00 0.71 0.00 92 1012.7
20260509130902 23 205 9.7 17.7 0.00 0.71 0.00 92 1012.7
20260509130659 20 207 8.0 11.3 0.00 0.71 0.00 95 1011.7
20260509130653 19 215 6.4 11.3 0.00 0.71 0.00 95 1011.7
20260509130648 20 201 8.0 11.3 0.00 0.71 0.00 95 1011.8
20260509130644 23 215 8.0 14.5 0.00 0.71 0.00 92 1012.8
20260509130638 22 187 12.9 17.7 0.00 0.71 0.00 92 1012.3
20260509130633 20 207 9.7 16.1 0.00 0.71 0.00 94 1012.0
20260509130628 20 226 11.3 16.1 0.00 0.71 0.00 94 1012.0
20260509130623 20 195 6.4 12.9 0.00 0.71 0.00 94 1012.2
20260509130616 21 192 8.0 11.3 0.00 0.71 0.00 94 1012.1
20260509130450 21 206 9.7 14.5 0.00 0.71 0.00 93 1012.3
20260509130444 21 188 11.3 16.1 0.00 0.71 0.00 93 1012.1
20260509130439 22 201 14.5 17.7 0.00 0.71 0.00 93 1012.3
20260509130433 21 188 6.4 9.7 0.00 0.71 0.00 90 1012.4
20260509130429 21 190 8.0 17.7 0.00 0.71 0.00 89 1012.5
20260509130423 22 123 14.5 19.3 0.00 0.71 0.00 89 1012.4
20260509130416 22 180 12.9 19.3 0.00 0.71 0.00 93 1012.3
20260509130411 22 123 14.5 17.7 0.00 0.71 0.00 89 1012.4
20260509130405 22 122 12.9 17.7 0.00 0.71 0.00 90 1012.4
20260509130400 21 127 9.7 12.9 0.00 0.71 0.00 91 1012.5
20260509130356 21 120 8.0 11.3 0.00 0.71 0.00 91 1012.9
20260509130350 21 117 8.0 11.3 0.00 0.71 0.00 92 1013.0
20260509130346 21 119 9.7 14.5 0.00 0.71 0.00 92 1013.1
20260509130340 21 116 8.0 11.3 0.00 0.71 0.00 92 1013.3
20260509130336 21 124 8.0 14.5 0.00 0.71 0.00 92 1013.6
20260509130331 21 111 8.0 14.5 0.00 0.71 0.00 92 1013.7
20260509130325 21 219 6.4 9.7 0.00 0.71 0.00 91 1012.1
20260509130320 20 211 6.4 9.7 0.00 0.71 0.00 92 1011.9
20260509130313 21 97 6.4 12.9 0.00 0.71 0.00 92 1013.8
20260509130307 21 94 8.0 12.9 0.00 0.71 0.00 92 1013.9
20260509130303 21 112 8.0 11.3 0.00 0.71 0.00 93 1014.2
20260509130257 20 212 3.2 9.7 0.00 0.71 0.00 93 1012.2
20260509130252 23 207 9.7 19.3 0.00 0.71 0.00 92 1012.7
20260509130247 20 224 4.8 9.7 0.00 0.71 0.00 91 1012.0
20260509130242 21 205 6.4 11.3 0.00 0.71 0.00 91 1012.0
20260509130236 20 213 3.2 6.4 0.00 0.71 0.00 93 1012.4
20260509130231 23 205 9.7 17.7 0.00 0.71 0.00 92 1012.7
20260509130227 19 214 3.2 6.4 0.00 0.71 0.00 94 1012.3
20260509130221 19 214 1.6 6.4 0.00 0.71 0.00 94 1011.8
20260509130214 19 215 4.8 8.0 0.00 0.71 0.00 94 1011.8
20260509130209 19 212 6.4 11.3 0.00 0.71 0.00 95 1011.8
20260509130204 19 215 6.4 11.3 0.00 0.71 0.00 95 1011.7
20260509130200 20 207 8.0 11.3 0.00 0.71 0.00 95 1011.7
20260509130155 20 201 8.0 11.3 0.00 0.71 0.00 95 1011.8
20260509130149 23 215 8.0 14.5 0.00 0.71 0.00 92 1012.8
20260509130143 20 226 11.3 16.1 0.00 0.71 0.00 94 1012.0
20260509130138 20 207 9.7 16.1 0.00 0.71 0.00 94 1012.0
20260509130132 22 187 12.9 17.7 0.00 0.71 0.00 92 1012.3
20260509130007 20 196 8.0 14.5 0.00 0.71 0.00 94 1012.1
20260509130001 21 192 8.0 11.3 0.00 0.71 0.00 94 1012.1
20260509125956 21 206 9.7 14.5 0.00 0.71 0.00 93 1012.3
20260509125950 21 188 11.3 16.1 0.00 0.71 0.00 93 1012.1
20260509125945 22 201 14.5 17.7 0.00 0.71 0.00 93 1012.3
20260509125941 22 180 12.9 19.3 0.00 0.71 0.00 93 1012.3
20260509125815 21 219 6.4 9.7 0.00 0.71 0.00 91 1012.1
20260509125809 20 211 6.4 9.7 0.00 0.71 0.00 92 1011.9
20260509125804 20 224 4.8 9.7 0.00 0.71 0.00 91 1012.0
20260509125758 20 212 3.2 9.7 0.00 0.71 0.00 93 1012.2
20260509125753 20 213 3.2 6.4 0.00 0.71 0.00 93 1012.4
20260509125749 23 207 9.7 19.3 0.00 0.71 0.00 92 1012.7
20260509125743 23 205 9.7 17.7 0.00 0.71 0.00 92 1012.7
20260509125617 22 187 12.9 17.7 0.00 0.71 0.00 92 1012.3
20260509125450 19 215 4.8 8.0 0.00 0.71 0.00 94 1011.8
20260509125445 19 212 6.4 11.3 0.00 0.71 0.00 95 1011.8
20260509125439 19 215 6.4 11.3 0.00 0.71 0.00 95 1011.7
20260509125435 20 207 8.0 11.3 0.00 0.71 0.00 95 1011.7
20260509125430 20 201 8.0 11.3 0.00 0.71 0.00 95 1011.8
20260509125424 20 226 11.3 16.1 0.00 0.71 0.00 94 1012.0
20260509125419 20 195 6.4 12.9 0.00 0.71 0.00 94 1012.2
20260509125412 20 207 9.7 16.1 0.00 0.71 0.00 94 1012.0
20260509125406 21 206 9.7 14.5 0.00 0.71 0.00 93 1012.3
20260509125401 21 192 8.0 11.3 0.00 0.71 0.00 94 1012.1
20260509125355 20 196 8.0 14.5 0.00 0.71 0.00 94 1012.1
20260509125350 21 188 11.3 16.1 0.00 0.71 0.00 93 1012.1
20260509125344 22 201 14.5 17.7 0.00 0.71 0.00 93 1012.3
20260509125340 22 180 12.9 19.3 0.00 0.71 0.00 93 1012.3
20260509125209 23 205 9.7 17.7 0.00 0.71 0.00 92 1012.7
20260509124928 20 212 3.2 9.7 0.00 0.71 0.00 93 1012.2
20260509124922 20 213 3.2 6.4 0.00 0.71 0.00 93 1012.4
20260509124915 19 214 3.2 6.4 0.00 0.71 0.00 94 1012.3
20260509124910 20 195 6.4 12.9 0.00 0.71 0.00 94 1012.2
20260509124904 21 192 8.0 11.3 0.00 0.71 0.00 94 1012.1
20260509124859 21 206 9.7 14.5 0.00 0.71 0.00 93 1012.3
20260509124734 19 215 4.8 8.0 0.00 0.71 0.00 94 1011.8
20260509124728 19 212 6.4 11.3 0.00 0.71 0.00 95 1011.8
20260509124723 19 215 6.4 11.3 0.00 0.71 0.00 95 1011.7
20260509124717 20 207 8.0 11.3 0.00 0.71 0.00 95 1011.7
20260509124710 20 201 8.0 11.3 0.00 0.71 0.00 95 1011.8
20260509124705 21 188 11.3 16.1 0.00 0.71 0.00 93 1012.1
20260509124659 20 226 11.3 16.1 0.00 0.71 0.00 94 1012.0
20260509124655 20 207 9.7 16.1 0.00 0.71 0.00 94 1012.0
20260509124649 22 180 12.9 19.3 0.00 0.71 0.00 93 1012.3
20260509124644 23 207 9.7 19.3 0.00 0.71 0.00 92 1012.7
20260509124638 22 201 14.5 17.7 0.00 0.71 0.00 93 1012.3
20260509124512 22 187 12.9 17.7 0.00 0.71 0.00 92 1012.3
20260509124346 21 81 9.7 16.1 0.00 0.71 0.00 94 1014.2
20260509124340 21 82 9.7 16.1 0.00 0.71 0.00 94 1014.0
20260509124335 21 192 8.0 11.3 0.00 0.71 0.00 94 1012.1
20260509124329 21 78 11.3 16.1 0.00 0.71 0.00 95 1014.5
20260509124324 21 206 9.7 14.5 0.00 0.71 0.00 93 1012.3
20260509124319 21 46 11.3 16.1 0.00 0.71 0.00 95 1014.6
20260509124312 21 27 6.4 14.5 0.00 0.71 0.00 95 1014.9
20260509124307 21 5 6.4 14.5 0.00 0.71 0.00 95 1015.1
20260509124301 21 12 4.8 14.5 0.00 0.71 0.00 95 1015.4
20260509124256 21 343 8.0 16.1 0.00 0.71 0.00 94 1015.2
20260509124252 21 0 8.0 22.5 0.00 0.71 0.00 95 1015.5
20260509124246 21 12 11.3 27.4 0.00 0.71 0.00 95 1015.6
20260509124241 21 315 11.3 25.7 0.00 0.71 0.71 95 1015.4
20260509124236 21 346 11.3 25.7 0.00 0.71 0.71 95 1015.4
20260509124231 21 203 6.4 9.7 0.00 0.71 0.00 91 1012.1
20260509124225 21 191 4.8 8.0 0.00 0.71 0.00 91 1012.2
20260509124220 21 188 11.3 16.1 0.00 0.71 0.00 93 1012.1
20260509124213 21 181 4.8 9.7 0.00 0.71 0.00 91 1012.3
20260509124207 21 205 6.4 11.3 0.00 0.71 0.00 91 1012.0
20260509124201 21 194 8.0 11.3 0.00 0.71 0.00 91 1012.0
20260509124156 22 180 12.9 19.3 0.00 0.71 0.00 93 1012.3
20260509124151 22 201 14.5 17.7 0.00 0.71 0.00 93 1012.3
20260509124144 23 207 9.7 19.3 0.00 0.71 0.00 92 1012.7
20260509124020 20 224 4.8 9.7 0.00 0.71 0.00 91 1012.0
20260509124013 20 211 6.4 9.7 0.00 0.71 0.00 92 1011.9
20260509124007 20 212 3.2 9.7 0.00 0.71 0.00 93 1012.2
20260509124002 20 213 3.2 6.4 0.00 0.71 0.00 93 1012.4
20260509123956 19 214 3.2 6.4 0.00 0.71 0.00 94 1012.3
20260509123951 19 214 1.6 6.4 0.00 0.71 0.00 94 1011.8
20260509123947 19 215 4.8 8.0 0.00 0.71 0.00 94 1011.8
20260509123941 19 212 6.4 11.3 0.00 0.71 0.00 95 1011.8
20260509123936 19 215 6.4 11.3 0.00 0.71 0.00 95 1011.7
20260509123932 20 207 8.0 11.3 0.00 0.71 0.00 95 1011.7
20260509123927 22 187 12.9 17.7 0.00 0.71 0.00 92 1012.3
20260509123922 20 201 8.0 11.3 0.00 0.71 0.00 95 1011.8
20260509123916 20 226 11.3 16.1 0.00 0.71 0.00 94 1012.0
20260509123910 20 207 9.7 16.1 0.00 0.71 0.00 94 1012.0
20260509123905 20 196 8.0 14.5 0.00 0.71 0.00 94 1012.1
20260509123859 20 195 6.4 12.9 0.00 0.71 0.00 94 1012.2
20260509123854 21 192 8.0 11.3 0.00 0.71 0.00 94 1012.1
20260509123848 21 206 9.7 14.5 0.00 0.71 0.00 93 1012.3
20260509123723 22 180 12.9 19.3 0.00 0.71 0.00 93 1012.3
20260509123311 21 205 6.4 11.3 0.00 0.71 0.00 91 1012.0
20260509123306 21 194 8.0 11.3 0.00 0.71 0.00 91 1012.0
20260509123300 21 219 6.4 9.7 0.00 0.71 0.00 91 1012.1
20260509123256 20 224 4.8 9.7 0.00 0.71 0.00 91 1012.0
20260509123250 20 211 6.4 9.7 0.00 0.71 0.00 92 1011.9
20260509123245 20 212 3.2 9.7 0.00 0.71 0.00 93 1012.2
20260509123239 20 213 3.2 6.4 0.00 0.71 0.00 93 1012.4
20260509123235 19 214 3.2 6.4 0.00 0.71 0.00 94 1012.3
20260509123230 19 214 1.6 6.4 0.00 0.71 0.00 94 1011.8
20260509123224 20 207 9.7 16.1 0.00 0.71 0.00 94 1012.0
20260509123219 19 215 4.8 8.0 0.00 0.71 0.00 94 1011.8
20260509123212 20 196 8.0 14.5 0.00 0.71 0.00 94 1012.1
20260509123207 20 195 6.4 12.9 0.00 0.71 0.00 94 1012.2
20260509123202 21 192 8.0 11.3 0.00 0.71 0.00 94 1012.1
20260509123156 21 206 9.7 14.5 0.00 0.71 0.00 93 1012.3
20260509123150 22 180 12.9 19.3 0.00 0.71 0.00 93 1012.3